<?xml version="1.0" encoding="UTF-8" standalone="no" ?><gpx xmlns="http://www.topografix.com/GPX/1/1" xmlns:gpxx="http://www.garmin.com/xmlschemas/GpxExtensions/v3" xmlns:wptx1="http://www.garmin.com/xmlschemas/WaypointExtension/v1" xmlns:gpxtpx="http://www.garmin.com/xmlschemas/TrackPointExtension/v1" creator="GuideVTT.com" version="1.1" xmlns:xsi="http://www.w3.org/2001/XMLSchema-instance" xsi:schemaLocation="http://www.topografix.com/GPX/1/1 http://www.topografix.com/GPX/1/1/gpx.xsd http://www.garmin.com/xmlschemas/GpxExtensions/v3 http://www8.garmin.com/xmlschemas/GpxExtensionsv3.xsd http://www.garmin.com/xmlschemas/WaypointExtension/v1 http://www8.garmin.com/xmlschemas/WaypointExtensionv1.xsd http://www.garmin.com/xmlschemas/TrackPointExtension/v1 http://www.garmin.com/xmlschemas/TrackPointExtensionv1.xsd">
<metadata><link href="http://www.garmin.com"><text>Garmin International</text></link><time>2013-06-22T15:13:50Z</time></metadata>
<trk><name>saviese_-_col_du_sanetch.gpx</name><extensions><gpxx:TrackExtension><gpxx:DisplayColor>Cyan</gpxx:DisplayColor></gpxx:TrackExtension></extensions><trkseg>
<trkpt lat="46.251277923584" lon="7.34910440444946"><ele></ele><time>2013-8-8T1:24:23Z</time></trkpt>
<trkpt lat="46.2512702941894" lon="7.34911155700684"><ele></ele><time>2013-8-8T1:24:26Z</time></trkpt>
<trkpt lat="46.2512702941894" lon="7.34911155700684"><ele></ele><time>2013-8-8T1:24:29Z</time></trkpt>
<trkpt lat="46.2512702941894" lon="7.34911155700684"><ele></ele><time>2013-8-8T1:24:32Z</time></trkpt>
<trkpt lat="46.2512702941894" lon="7.34911155700684"><ele></ele><time>2013-8-8T1:24:35Z</time></trkpt>
<trkpt lat="46.2512702941894" lon="7.34911155700684"><ele></ele><time>2013-8-8T1:24:38Z</time></trkpt>
<trkpt lat="46.2512664794922" lon="7.34910583496094"><ele></ele><time>2013-8-8T1:24:41Z</time></trkpt>
<trkpt lat="46.2512321472168" lon="7.34901094436646"><ele></ele><time>2013-8-8T1:24:44Z</time></trkpt>
<trkpt lat="46.2511253356934" lon="7.34880781173706"><ele></ele><time>2013-8-8T1:24:47Z</time></trkpt>
<trkpt lat="46.2510414123535" lon="7.34867715835571"><ele></ele><time>2013-8-8T1:24:50Z</time></trkpt>
<trkpt lat="46.2509918212891" lon="7.34858083724976"><ele></ele><time>2013-8-8T1:24:53Z</time></trkpt>
<trkpt lat="46.2508201599121" lon="7.34826326370239"><ele></ele><time>2013-8-8T1:24:56Z</time></trkpt>
<trkpt lat="46.2506866455078" lon="7.34798765182495"><ele></ele><time>2013-8-8T1:24:59Z</time></trkpt>
<trkpt lat="46.2505416870117" lon="7.34769344329834"><ele></ele><time>2013-8-8T1:25:2Z</time></trkpt>
<trkpt lat="46.250373840332" lon="7.34733438491821"><ele></ele><time>2013-8-8T1:25:5Z</time></trkpt>
<trkpt lat="46.2503471374512" lon="7.34727621078491"><ele></ele><time>2013-8-8T1:25:8Z</time></trkpt>
<trkpt lat="46.2501602172852" lon="7.3468918800354"><ele></ele><time>2013-8-8T1:25:11Z</time></trkpt>
<trkpt lat="46.2499351501465" lon="7.3463659286499"><ele></ele><time>2013-8-8T1:25:14Z</time></trkpt>
<trkpt lat="46.2498168945312" lon="7.34606122970581"><ele></ele><time>2013-8-8T1:25:17Z</time></trkpt>
<trkpt lat="46.2497749328613" lon="7.34593057632446"><ele></ele><time>2013-8-8T1:25:20Z</time></trkpt>
<trkpt lat="46.2496604919434" lon="7.34550428390503"><ele></ele><time>2013-8-8T1:25:23Z</time></trkpt>
<trkpt lat="46.2496299743652" lon="7.3453483581543"><ele></ele><time>2013-8-8T1:25:26Z</time></trkpt>
<trkpt lat="46.249626159668" lon="7.34529209136963"><ele></ele><time>2013-8-8T1:25:29Z</time></trkpt>
<trkpt lat="46.2496223449707" lon="7.34524345397949"><ele></ele><time>2013-8-8T1:25:32Z</time></trkpt>
<trkpt lat="46.2496147155762" lon="7.34519290924072"><ele></ele><time>2013-8-8T1:25:35Z</time></trkpt>
<trkpt lat="46.2496070861816" lon="7.34514331817627"><ele></ele><time>2013-8-8T1:25:38Z</time></trkpt>
<trkpt lat="46.2496032714844" lon="7.34477758407593"><ele></ele><time>2013-8-8T1:25:41Z</time></trkpt>
<trkpt lat="46.2496070861816" lon="7.34473752975464"><ele></ele><time>2013-8-8T1:25:44Z</time></trkpt>
<trkpt lat="46.2496070861816" lon="7.34468078613281"><ele></ele><time>2013-8-8T1:25:47Z</time></trkpt>
<trkpt lat="46.2496070861816" lon="7.34463834762573"><ele></ele><time>2013-8-8T1:25:50Z</time></trkpt>
<trkpt lat="46.2496070861816" lon="7.34459590911865"><ele></ele><time>2013-8-8T1:25:53Z</time></trkpt>
<trkpt lat="46.2496070861816" lon="7.34442377090454"><ele></ele><time>2013-8-8T1:25:56Z</time></trkpt>
<trkpt lat="46.2496070861816" lon="7.34437561035156"><ele></ele><time>2013-8-8T1:25:59Z</time></trkpt>
<trkpt lat="46.2496070861816" lon="7.34433174133301"><ele></ele><time>2013-8-8T1:26:2Z</time></trkpt>
<trkpt lat="46.2496070861816" lon="7.34429121017456"><ele></ele><time>2013-8-8T1:26:5Z</time></trkpt>
<trkpt lat="46.2496070861816" lon="7.34425449371338"><ele></ele><time>2013-8-8T1:26:8Z</time></trkpt>
<trkpt lat="46.2496070861816" lon="7.34421443939209"><ele></ele><time>2013-8-8T1:26:11Z</time></trkpt>
<trkpt lat="46.2495956420898" lon="7.34417867660522"><ele></ele><time>2013-8-8T1:26:14Z</time></trkpt>
<trkpt lat="46.2495803833008" lon="7.34405040740967"><ele></ele><time>2013-8-8T1:26:17Z</time></trkpt>
<trkpt lat="46.249568939209" lon="7.34401082992554"><ele></ele><time>2013-8-8T1:26:20Z</time></trkpt>
<trkpt lat="46.2495651245117" lon="7.34396409988403"><ele></ele><time>2013-8-8T1:26:23Z</time></trkpt>
<trkpt lat="46.2495574951172" lon="7.34392023086548"><ele></ele><time>2013-8-8T1:26:26Z</time></trkpt>
<trkpt lat="46.2495498657227" lon="7.34387731552124"><ele></ele><time>2013-8-8T1:26:29Z</time></trkpt>
<trkpt lat="46.2495422363281" lon="7.34371328353882"><ele></ele><time>2013-8-8T1:26:32Z</time></trkpt>
<trkpt lat="46.2495346069336" lon="7.34367322921753"><ele></ele><time>2013-8-8T1:26:35Z</time></trkpt>
<trkpt lat="46.2495307922363" lon="7.34363222122192"><ele></ele><time>2013-8-8T1:26:38Z</time></trkpt>
<trkpt lat="46.2495269775391" lon="7.34358930587768"><ele></ele><time>2013-8-8T1:26:41Z</time></trkpt>
<trkpt lat="46.2495193481445" lon="7.34354496002197"><ele></ele><time>2013-8-8T1:26:44Z</time></trkpt>
<trkpt lat="46.2494850158691" lon="7.34339332580566"><ele></ele><time>2013-8-8T1:26:47Z</time></trkpt>
<trkpt lat="46.2494812011719" lon="7.34335994720459"><ele></ele><time>2013-8-8T1:26:50Z</time></trkpt>
<trkpt lat="46.2494735717773" lon="7.34332513809204"><ele></ele><time>2013-8-8T1:26:53Z</time></trkpt>
<trkpt lat="46.2494697570801" lon="7.34329080581665"><ele></ele><time>2013-8-8T1:26:56Z</time></trkpt>
<trkpt lat="46.2494697570801" lon="7.3432559967041"><ele></ele><time>2013-8-8T1:26:59Z</time></trkpt>
<trkpt lat="46.2494506835938" lon="7.3431077003479"><ele></ele><time>2013-8-8T1:27:2Z</time></trkpt>
<trkpt lat="46.2494468688965" lon="7.34307098388672"><ele></ele><time>2013-8-8T1:27:5Z</time></trkpt>
<trkpt lat="46.2494430541992" lon="7.34303188323975"><ele></ele><time>2013-8-8T1:27:8Z</time></trkpt>
<trkpt lat="46.2494430541992" lon="7.34299516677856"><ele></ele><time>2013-8-8T1:27:11Z</time></trkpt>
<trkpt lat="46.2494430541992" lon="7.3429594039917"><ele></ele><time>2013-8-8T1:27:14Z</time></trkpt>
<trkpt lat="46.2494354248047" lon="7.34292078018188"><ele></ele><time>2013-8-8T1:27:17Z</time></trkpt>
<trkpt lat="46.2494125366211" lon="7.34281635284424"><ele></ele><time>2013-8-8T1:27:20Z</time></trkpt>
<trkpt lat="46.249397277832" lon="7.342689037323"><ele></ele><time>2013-8-8T1:27:23Z</time></trkpt>
<trkpt lat="46.2493896484375" lon="7.34265375137329"><ele></ele><time>2013-8-8T1:27:26Z</time></trkpt>
<trkpt lat="46.2493858337402" lon="7.34261989593506"><ele></ele><time>2013-8-8T1:27:29Z</time></trkpt>
<trkpt lat="46.249382019043" lon="7.34258508682251"><ele></ele><time>2013-8-8T1:27:32Z</time></trkpt>
<trkpt lat="46.2493743896484" lon="7.34254932403564"><ele></ele><time>2013-8-8T1:27:35Z</time></trkpt>
<trkpt lat="46.2493515014648" lon="7.34241008758545"><ele></ele><time>2013-8-8T1:27:38Z</time></trkpt>
<trkpt lat="46.2493438720703" lon="7.34237194061279"><ele></ele><time>2013-8-8T1:27:41Z</time></trkpt>
<trkpt lat="46.249340057373" lon="7.34233903884888"><ele></ele><time>2013-8-8T1:27:44Z</time></trkpt>
<trkpt lat="46.2493362426758" lon="7.3423056602478"><ele></ele><time>2013-8-8T1:27:47Z</time></trkpt>
<trkpt lat="46.2493324279785" lon="7.34227228164673"><ele></ele><time>2013-8-8T1:27:50Z</time></trkpt>
<trkpt lat="46.2493324279785" lon="7.34223985671997"><ele></ele><time>2013-8-8T1:27:53Z</time></trkpt>
<trkpt lat="46.2493095397949" lon="7.34207057952881"><ele></ele><time>2013-8-8T1:27:56Z</time></trkpt>
<trkpt lat="46.2493057250977" lon="7.34204006195068"><ele></ele><time>2013-8-8T1:27:59Z</time></trkpt>
<trkpt lat="46.2493019104004" lon="7.34200811386108"><ele></ele><time>2013-8-8T1:28:2Z</time></trkpt>
<trkpt lat="46.2492980957031" lon="7.34197759628296"><ele></ele><time>2013-8-8T1:28:5Z</time></trkpt>
<trkpt lat="46.2492942810059" lon="7.34194564819336"><ele></ele><time>2013-8-8T1:28:8Z</time></trkpt>
<trkpt lat="46.2492637634277" lon="7.34171009063721"><ele></ele><time>2013-8-8T1:28:11Z</time></trkpt>
<trkpt lat="46.2492599487305" lon="7.34167194366455"><ele></ele><time>2013-8-8T1:28:14Z</time></trkpt>
<trkpt lat="46.2492561340332" lon="7.34163904190064"><ele></ele><time>2013-8-8T1:28:17Z</time></trkpt>
<trkpt lat="46.2492523193359" lon="7.34160470962524"><ele></ele><time>2013-8-8T1:28:20Z</time></trkpt>
<trkpt lat="46.2492332458496" lon="7.34143877029419"><ele></ele><time>2013-8-8T1:28:23Z</time></trkpt>
<trkpt lat="46.2492141723633" lon="7.34129428863525"><ele></ele><time>2013-8-8T1:28:26Z</time></trkpt>
<trkpt lat="46.249210357666" lon="7.34125757217407"><ele></ele><time>2013-8-8T1:28:29Z</time></trkpt>
<trkpt lat="46.2492065429688" lon="7.34122276306152"><ele></ele><time>2013-8-8T1:28:32Z</time></trkpt>
<trkpt lat="46.2492027282715" lon="7.34118795394898"><ele></ele><time>2013-8-8T1:28:35Z</time></trkpt>
<trkpt lat="46.2491989135742" lon="7.34115266799927"><ele></ele><time>2013-8-8T1:28:38Z</time></trkpt>
<trkpt lat="46.2491912841797" lon="7.34111738204956"><ele></ele><time>2013-8-8T1:28:41Z</time></trkpt>
<trkpt lat="46.2491722106934" lon="7.34097528457642"><ele></ele><time>2013-8-8T1:28:44Z</time></trkpt>
<trkpt lat="46.2491683959961" lon="7.34094142913818"><ele></ele><time>2013-8-8T1:28:47Z</time></trkpt>
<trkpt lat="46.2491683959961" lon="7.34090566635132"><ele></ele><time>2013-8-8T1:28:50Z</time></trkpt>
<trkpt lat="46.2491645812988" lon="7.34086990356445"><ele></ele><time>2013-8-8T1:28:53Z</time></trkpt>
<trkpt lat="46.2491607666016" lon="7.34083032608032"><ele></ele><time>2013-8-8T1:28:56Z</time></trkpt>
<trkpt lat="46.2491569519043" lon="7.34078693389893"><ele></ele><time>2013-8-8T1:28:59Z</time></trkpt>
<trkpt lat="46.2491493225098" lon="7.34053707122803"><ele></ele><time>2013-8-8T1:29:2Z</time></trkpt>
<trkpt lat="46.249153137207" lon="7.34048986434936"><ele></ele><time>2013-8-8T1:29:5Z</time></trkpt>
<trkpt lat="46.249153137207" lon="7.3403377532959"><ele></ele><time>2013-8-8T1:29:8Z</time></trkpt>
<trkpt lat="46.2491493225098" lon="7.34010648727417"><ele></ele><time>2013-8-8T1:29:11Z</time></trkpt>
<trkpt lat="46.2491645812988" lon="7.3396806716919"><ele></ele><time>2013-8-8T1:29:14Z</time></trkpt>
<trkpt lat="46.2491912841797" lon="7.33944034576416"><ele></ele><time>2013-8-8T1:29:17Z</time></trkpt>
<trkpt lat="46.2492179870606" lon="7.33926868438721"><ele></ele><time>2013-8-8T1:29:20Z</time></trkpt>
<trkpt lat="46.2492828369141" lon="7.3388295173645"><ele></ele><time>2013-8-8T1:29:23Z</time></trkpt>
<trkpt lat="46.2493324279785" lon="7.33832788467407"><ele></ele><time>2013-8-8T1:29:26Z</time></trkpt>
<trkpt lat="46.2493438720703" lon="7.33820915222168"><ele></ele><time>2013-8-8T1:29:29Z</time></trkpt>
<trkpt lat="46.2493705749512" lon="7.33786916732788"><ele></ele><time>2013-8-8T1:29:32Z</time></trkpt>
<trkpt lat="46.2493782043457" lon="7.33775520324707"><ele></ele><time>2013-8-8T1:29:35Z</time></trkpt>
<trkpt lat="46.249397277832" lon="7.33753395080566"><ele></ele><time>2013-8-8T1:29:38Z</time></trkpt>
<trkpt lat="46.2494201660156" lon="7.33741998672485"><ele></ele><time>2013-8-8T1:29:41Z</time></trkpt>
<trkpt lat="46.2495079040527" lon="7.33718967437744"><ele></ele><time>2013-8-8T1:29:44Z</time></trkpt>
<trkpt lat="46.2495574951172" lon="7.33712244033814"><ele></ele><time>2013-8-8T1:29:47Z</time></trkpt>
<trkpt lat="46.249584197998" lon="7.3370852470398"><ele></ele><time>2013-8-8T1:29:50Z</time></trkpt>
<trkpt lat="46.2496032714844" lon="7.33704614639282"><ele></ele><time>2013-8-8T1:29:53Z</time></trkpt>
<trkpt lat="46.2496185302734" lon="7.33700942993164"><ele></ele><time>2013-8-8T1:29:56Z</time></trkpt>
<trkpt lat="46.2496299743652" lon="7.3369722366333"><ele></ele><time>2013-8-8T1:29:59Z</time></trkpt>
<trkpt lat="46.2496299743652" lon="7.33688306808472"><ele></ele><time>2013-8-8T1:30:2Z</time></trkpt>
<trkpt lat="46.2496299743652" lon="7.33683156967163"><ele></ele><time>2013-8-8T1:30:5Z</time></trkpt>
<trkpt lat="46.249626159668" lon="7.33677530288696"><ele></ele><time>2013-8-8T1:30:8Z</time></trkpt>
<trkpt lat="46.2496223449707" lon="7.3367223739624"><ele></ele><time>2013-8-8T1:30:11Z</time></trkpt>
<trkpt lat="46.2496223449707" lon="7.33666944503784"><ele></ele><time>2013-8-8T1:30:14Z</time></trkpt>
<trkpt lat="46.2496223449707" lon="7.3363847732544"><ele></ele><time>2013-8-8T1:30:17Z</time></trkpt>
<trkpt lat="46.2496032714844" lon="7.33620595932007"><ele></ele><time>2013-8-8T1:30:20Z</time></trkpt>
<trkpt lat="46.2495498657227" lon="7.33602333068848"><ele></ele><time>2013-8-8T1:30:23Z</time></trkpt>
<trkpt lat="46.2495040893555" lon="7.33590459823608"><ele></ele><time>2013-8-8T1:30:26Z</time></trkpt>
<trkpt lat="46.249397277832" lon="7.33565998077393"><ele></ele><time>2013-8-8T1:30:29Z</time></trkpt>
<trkpt lat="46.2493782043457" lon="7.33559322357178"><ele></ele><time>2013-8-8T1:30:32Z</time></trkpt>
<trkpt lat="46.2492942810059" lon="7.33523178100586"><ele></ele><time>2013-8-8T1:30:35Z</time></trkpt>
<trkpt lat="46.2492370605469" lon="7.33492755889893"><ele></ele><time>2013-8-8T1:30:38Z</time></trkpt>
<trkpt lat="46.2492294311523" lon="7.33484840393066"><ele></ele><time>2013-8-8T1:30:41Z</time></trkpt>
<trkpt lat="46.2492179870606" lon="7.33477067947388"><ele></ele><time>2013-8-8T1:30:44Z</time></trkpt>
<trkpt lat="46.249210357666" lon="7.33468866348267"><ele></ele><time>2013-8-8T1:30:47Z</time></trkpt>
<trkpt lat="46.2492065429688" lon="7.33460903167725"><ele></ele><time>2013-8-8T1:30:50Z</time></trkpt>
<trkpt lat="46.2491493225098" lon="7.3341908454895"><ele></ele><time>2013-8-8T1:30:53Z</time></trkpt>
<trkpt lat="46.2490882873535" lon="7.33402967453003"><ele></ele><time>2013-8-8T1:30:56Z</time></trkpt>
<trkpt lat="46.2490539550781" lon="7.33395004272461"><ele></ele><time>2013-8-8T1:30:59Z</time></trkpt>
<trkpt lat="46.2490119934082" lon="7.33387184143066"><ele></ele><time>2013-8-8T1:31:2Z</time></trkpt>
<trkpt lat="46.2489738464356" lon="7.33378648757935"><ele></ele><time>2013-8-8T1:31:5Z</time></trkpt>
<trkpt lat="46.2489356994629" lon="7.33370018005371"><ele></ele><time>2013-8-8T1:31:8Z</time></trkpt>
<trkpt lat="46.248893737793" lon="7.33361005783081"><ele></ele><time>2013-8-8T1:31:11Z</time></trkpt>
<trkpt lat="46.2488479614258" lon="7.33351755142212"><ele></ele><time>2013-8-8T1:31:14Z</time></trkpt>
<trkpt lat="46.2488059997559" lon="7.33341932296753"><ele></ele><time>2013-8-8T1:31:17Z</time></trkpt>
<trkpt lat="46.2487564086914" lon="7.33331155776978"><ele></ele><time>2013-8-8T1:31:20Z</time></trkpt>
<trkpt lat="46.2487106323242" lon="7.33320760726929"><ele></ele><time>2013-8-8T1:31:23Z</time></trkpt>
<trkpt lat="46.248664855957" lon="7.3331036567688"><ele></ele><time>2013-8-8T1:31:26Z</time></trkpt>
<trkpt lat="46.2486190795898" lon="7.33299970626831"><ele></ele><time>2013-8-8T1:31:29Z</time></trkpt>
<trkpt lat="46.2485694885254" lon="7.33289480209351"><ele></ele><time>2013-8-8T1:31:32Z</time></trkpt>
<trkpt lat="46.2485237121582" lon="7.33279037475586"><ele></ele><time>2013-8-8T1:31:35Z</time></trkpt>
<trkpt lat="46.248477935791" lon="7.33268308639526"><ele></ele><time>2013-8-8T1:31:38Z</time></trkpt>
<trkpt lat="46.2484436035156" lon="7.33257055282593"><ele></ele><time>2013-8-8T1:31:41Z</time></trkpt>
<trkpt lat="46.248420715332" lon="7.3324465751648"><ele></ele><time>2013-8-8T1:31:44Z</time></trkpt>
<trkpt lat="46.2484092712402" lon="7.33232688903809"><ele></ele><time>2013-8-8T1:31:47Z</time></trkpt>
<trkpt lat="46.2483978271484" lon="7.33221054077148"><ele></ele><time>2013-8-8T1:31:50Z</time></trkpt>
<trkpt lat="46.2483901977539" lon="7.33209753036499"><ele></ele><time>2013-8-8T1:31:53Z</time></trkpt>
<trkpt lat="46.2483825683594" lon="7.33198356628418"><ele></ele><time>2013-8-8T1:31:56Z</time></trkpt>
<trkpt lat="46.248363494873" lon="7.33175992965698"><ele></ele><time>2013-8-8T1:31:59Z</time></trkpt>
<trkpt lat="46.2483329772949" lon="7.33143854141235"><ele></ele><time>2013-8-8T1:32:2Z</time></trkpt>
<trkpt lat="46.2483253479004" lon="7.33133697509766"><ele></ele><time>2013-8-8T1:32:5Z</time></trkpt>
<trkpt lat="46.2482872009277" lon="7.33103847503662"><ele></ele><time>2013-8-8T1:32:8Z</time></trkpt>
<trkpt lat="46.2482528686523" lon="7.33083724975586"><ele></ele><time>2013-8-8T1:32:11Z</time></trkpt>
<trkpt lat="46.2482376098633" lon="7.33073663711548"><ele></ele><time>2013-8-8T1:32:14Z</time></trkpt>
<trkpt lat="46.2481422424316" lon="7.33023548126221"><ele></ele><time>2013-8-8T1:32:17Z</time></trkpt>
<trkpt lat="46.2480773925781" lon="7.33004426956177"><ele></ele><time>2013-8-8T1:32:20Z</time></trkpt>
<trkpt lat="46.2480430603027" lon="7.32995367050171"><ele></ele><time>2013-8-8T1:32:23Z</time></trkpt>
<trkpt lat="46.2480010986328" lon="7.32986879348755"><ele></ele><time>2013-8-8T1:32:26Z</time></trkpt>
<trkpt lat="46.2479629516602" lon="7.32978248596191"><ele></ele><time>2013-8-8T1:32:29Z</time></trkpt>
<trkpt lat="46.2479248046875" lon="7.32969617843628"><ele></ele><time>2013-8-8T1:32:32Z</time></trkpt>
<trkpt lat="46.2476463317871" lon="7.3290638923645"><ele></ele><time>2013-8-8T1:32:35Z</time></trkpt>
<trkpt lat="46.2475166320801" lon="7.32867383956909"><ele></ele><time>2013-8-8T1:32:38Z</time></trkpt>
<trkpt lat="46.247486114502" lon="7.32857608795166"><ele></ele><time>2013-8-8T1:32:41Z</time></trkpt>
<trkpt lat="46.2474555969238" lon="7.32847499847412"><ele></ele><time>2013-8-8T1:32:44Z</time></trkpt>
<trkpt lat="46.247428894043" lon="7.32837009429932"><ele></ele><time>2013-8-8T1:32:47Z</time></trkpt>
<trkpt lat="46.2473983764648" lon="7.32826375961304"><ele></ele><time>2013-8-8T1:32:50Z</time></trkpt>
<trkpt lat="46.2473678588867" lon="7.32815647125244"><ele></ele><time>2013-8-8T1:32:53Z</time></trkpt>
<trkpt lat="46.2473335266113" lon="7.32804107666016"><ele></ele><time>2013-8-8T1:32:56Z</time></trkpt>
<trkpt lat="46.2472991943359" lon="7.3279275894165"><ele></ele><time>2013-8-8T1:32:59Z</time></trkpt>
<trkpt lat="46.2472648620606" lon="7.32781267166138"><ele></ele><time>2013-8-8T1:33:2Z</time></trkpt>
<trkpt lat="46.2472305297852" lon="7.32769346237183"><ele></ele><time>2013-8-8T1:33:5Z</time></trkpt>
<trkpt lat="46.247200012207" lon="7.32757043838501"><ele></ele><time>2013-8-8T1:33:8Z</time></trkpt>
<trkpt lat="46.2471733093262" lon="7.32743787765503"><ele></ele><time>2013-8-8T1:33:11Z</time></trkpt>
<trkpt lat="46.2471504211426" lon="7.32730388641357"><ele></ele><time>2013-8-8T1:33:14Z</time></trkpt>
<trkpt lat="46.247127532959" lon="7.32716751098633"><ele></ele><time>2013-8-8T1:33:17Z</time></trkpt>
<trkpt lat="46.2471046447754" lon="7.32702970504761"><ele></ele><time>2013-8-8T1:33:20Z</time></trkpt>
<trkpt lat="46.2470779418945" lon="7.32688474655151"><ele></ele><time>2013-8-8T1:33:23Z</time></trkpt>
<trkpt lat="46.2470512390137" lon="7.32673788070679"><ele></ele><time>2013-8-8T1:33:26Z</time></trkpt>
<trkpt lat="46.2470283508301" lon="7.3265905380249"><ele></ele><time>2013-8-8T1:33:29Z</time></trkpt>
<trkpt lat="46.2470054626465" lon="7.32644176483154"><ele></ele><time>2013-8-8T1:33:32Z</time></trkpt>
<trkpt lat="46.2469902038574" lon="7.3262882232666"><ele></ele><time>2013-8-8T1:33:35Z</time></trkpt>
<trkpt lat="46.2469787597656" lon="7.32613897323608"><ele></ele><time>2013-8-8T1:33:38Z</time></trkpt>
<trkpt lat="46.2469749450684" lon="7.32597732543945"><ele></ele><time>2013-8-8T1:33:41Z</time></trkpt>
<trkpt lat="46.2469711303711" lon="7.3258261680603"><ele></ele><time>2013-8-8T1:33:44Z</time></trkpt>
<trkpt lat="46.2469673156738" lon="7.32567310333252"><ele></ele><time>2013-8-8T1:33:47Z</time></trkpt>
<trkpt lat="46.2469635009766" lon="7.32552146911621"><ele></ele><time>2013-8-8T1:33:50Z</time></trkpt>
<trkpt lat="46.2469596862793" lon="7.32537174224854"><ele></ele><time>2013-8-8T1:33:53Z</time></trkpt>
<trkpt lat="46.246955871582" lon="7.32522058486938"><ele></ele><time>2013-8-8T1:33:56Z</time></trkpt>
<trkpt lat="46.246955871582" lon="7.32507038116455"><ele></ele><time>2013-8-8T1:33:59Z</time></trkpt>
<trkpt lat="46.2469520568848" lon="7.32492256164551"><ele></ele><time>2013-8-8T1:34:2Z</time></trkpt>
<trkpt lat="46.2469444274902" lon="7.32462406158447"><ele></ele><time>2013-8-8T1:34:5Z</time></trkpt>
<trkpt lat="46.246940612793" lon="7.32447814941406"><ele></ele><time>2013-8-8T1:34:8Z</time></trkpt>
<trkpt lat="46.2469444274902" lon="7.32433271408081"><ele></ele><time>2013-8-8T1:34:11Z</time></trkpt>
<trkpt lat="46.2469596862793" lon="7.32419013977051"><ele></ele><time>2013-8-8T1:34:14Z</time></trkpt>
<trkpt lat="46.2469863891602" lon="7.32405042648315"><ele></ele><time>2013-8-8T1:34:17Z</time></trkpt>
<trkpt lat="46.2470207214356" lon="7.32391595840454"><ele></ele><time>2013-8-8T1:34:20Z</time></trkpt>
<trkpt lat="46.2470664978027" lon="7.3237886428833"><ele></ele><time>2013-8-8T1:34:23Z</time></trkpt>
<trkpt lat="46.2471237182617" lon="7.32366752624512"><ele></ele><time>2013-8-8T1:34:26Z</time></trkpt>
<trkpt lat="46.247184753418" lon="7.32354545593262"><ele></ele><time>2013-8-8T1:34:29Z</time></trkpt>
<trkpt lat="46.247241973877" lon="7.32342576980591"><ele></ele><time>2013-8-8T1:34:32Z</time></trkpt>
<trkpt lat="46.2473564147949" lon="7.32319593429565"><ele></ele><time>2013-8-8T1:34:35Z</time></trkpt>
<trkpt lat="46.2474021911621" lon="7.32307434082031"><ele></ele><time>2013-8-8T1:34:38Z</time></trkpt>
<trkpt lat="46.2474403381348" lon="7.3229489326477"><ele></ele><time>2013-8-8T1:34:41Z</time></trkpt>
<trkpt lat="46.2474632263184" lon="7.32282161712646"><ele></ele><time>2013-8-8T1:34:44Z</time></trkpt>
<trkpt lat="46.247486114502" lon="7.32269668579102"><ele></ele><time>2013-8-8T1:34:47Z</time></trkpt>
<trkpt lat="46.2475090026856" lon="7.32256889343262"><ele></ele><time>2013-8-8T1:34:50Z</time></trkpt>
<trkpt lat="46.2475929260254" lon="7.32222652435303"><ele></ele><time>2013-8-8T1:34:53Z</time></trkpt>
<trkpt lat="46.2477989196777" lon="7.32164573669434"><ele></ele><time>2013-8-8T1:34:56Z</time></trkpt>
<trkpt lat="46.2478370666504" lon="7.32156181335449"><ele></ele><time>2013-8-8T1:34:59Z</time></trkpt>
<trkpt lat="46.2480278015137" lon="7.32113695144653"><ele></ele><time>2013-8-8T1:35:2Z</time></trkpt>
<trkpt lat="46.2480506896973" lon="7.32104635238648"><ele></ele><time>2013-8-8T1:35:5Z</time></trkpt>
<trkpt lat="46.2480583190918" lon="7.32087326049805"><ele></ele><time>2013-8-8T1:35:8Z</time></trkpt>
<trkpt lat="46.2480545043945" lon="7.32079744338989"><ele></ele><time>2013-8-8T1:35:11Z</time></trkpt>
<trkpt lat="46.2480430603027" lon="7.32072448730469"><ele></ele><time>2013-8-8T1:35:14Z</time></trkpt>
<trkpt lat="46.2480354309082" lon="7.32065629959106"><ele></ele><time>2013-8-8T1:35:17Z</time></trkpt>
<trkpt lat="46.2480278015137" lon="7.3205943107605"><ele></ele><time>2013-8-8T1:35:20Z</time></trkpt>
<trkpt lat="46.2480201721191" lon="7.32053089141846"><ele></ele><time>2013-8-8T1:35:23Z</time></trkpt>
<trkpt lat="46.2480163574219" lon="7.32047319412232"><ele></ele><time>2013-8-8T1:35:26Z</time></trkpt>
<trkpt lat="46.2480125427246" lon="7.32041788101196"><ele></ele><time>2013-8-8T1:35:29Z</time></trkpt>
<trkpt lat="46.2480087280273" lon="7.32036685943604"><ele></ele><time>2013-8-8T1:35:32Z</time></trkpt>
<trkpt lat="46.2480049133301" lon="7.32031631469726"><ele></ele><time>2013-8-8T1:35:35Z</time></trkpt>
<trkpt lat="46.2480049133301" lon="7.3202633857727"><ele></ele><time>2013-8-8T1:35:38Z</time></trkpt>
<trkpt lat="46.2480049133301" lon="7.32021522521973"><ele></ele><time>2013-8-8T1:35:41Z</time></trkpt>
<trkpt lat="46.2480087280273" lon="7.32017040252686"><ele></ele><time>2013-8-8T1:35:44Z</time></trkpt>
<trkpt lat="46.2480125427246" lon="7.32011985778809"><ele></ele><time>2013-8-8T1:35:47Z</time></trkpt>
<trkpt lat="46.2480087280273" lon="7.32007312774658"><ele></ele><time>2013-8-8T1:35:50Z</time></trkpt>
<trkpt lat="46.2480087280273" lon="7.32002353668213"><ele></ele><time>2013-8-8T1:35:53Z</time></trkpt>
<trkpt lat="46.2480087280273" lon="7.31997632980347"><ele></ele><time>2013-8-8T1:35:56Z</time></trkpt>
<trkpt lat="46.2480125427246" lon="7.31992959976196"><ele></ele><time>2013-8-8T1:35:59Z</time></trkpt>
<trkpt lat="46.2480125427246" lon="7.31988143920898"><ele></ele><time>2013-8-8T1:36:2Z</time></trkpt>
<trkpt lat="46.2480125427246" lon="7.31983280181885"><ele></ele><time>2013-8-8T1:36:5Z</time></trkpt>
<trkpt lat="46.2480659484863" lon="7.31961488723755"><ele></ele><time>2013-8-8T1:36:8Z</time></trkpt>
<trkpt lat="46.248104095459" lon="7.31951475143433"><ele></ele><time>2013-8-8T1:36:11Z</time></trkpt>
<trkpt lat="46.2481307983398" lon="7.31946516036987"><ele></ele><time>2013-8-8T1:36:14Z</time></trkpt>
<trkpt lat="46.2482032775879" lon="7.31935453414917"><ele></ele><time>2013-8-8T1:36:17Z</time></trkpt>
<trkpt lat="46.2483558654785" lon="7.31907749176025"><ele></ele><time>2013-8-8T1:36:20Z</time></trkpt>
<trkpt lat="46.2483749389648" lon="7.31900596618652"><ele></ele><time>2013-8-8T1:36:23Z</time></trkpt>
<trkpt lat="46.2483673095703" lon="7.31893348693848"><ele></ele><time>2013-8-8T1:36:26Z</time></trkpt>
<trkpt lat="46.248348236084" lon="7.31885528564453"><ele></ele><time>2013-8-8T1:36:29Z</time></trkpt>
<trkpt lat="46.2483253479004" lon="7.3187837600708"><ele></ele><time>2013-8-8T1:36:32Z</time></trkpt>
<trkpt lat="46.2483024597168" lon="7.31870555877686"><ele></ele><time>2013-8-8T1:36:35Z</time></trkpt>
<trkpt lat="46.2482948303223" lon="7.31861352920532"><ele></ele><time>2013-8-8T1:36:38Z</time></trkpt>
<trkpt lat="46.2482986450195" lon="7.31851482391357"><ele></ele><time>2013-8-8T1:36:41Z</time></trkpt>
<trkpt lat="46.2483139038086" lon="7.3184232711792"><ele></ele><time>2013-8-8T1:36:44Z</time></trkpt>
<trkpt lat="46.2483406066894" lon="7.31835603713989"><ele></ele><time>2013-8-8T1:36:47Z</time></trkpt>
<trkpt lat="46.2483749389648" lon="7.31830930709839"><ele></ele><time>2013-8-8T1:36:50Z</time></trkpt>
<trkpt lat="46.2484016418457" lon="7.31826543807983"><ele></ele><time>2013-8-8T1:36:53Z</time></trkpt>
<trkpt lat="46.2484169006348" lon="7.31822299957275"><ele></ele><time>2013-8-8T1:36:56Z</time></trkpt>
<trkpt lat="46.2484245300293" lon="7.31817865371704"><ele></ele><time>2013-8-8T1:36:59Z</time></trkpt>
<trkpt lat="46.2484359741211" lon="7.31813716888428"><ele></ele><time>2013-8-8T1:37:2Z</time></trkpt>
<trkpt lat="46.2484436035156" lon="7.31809949874878"><ele></ele><time>2013-8-8T1:37:5Z</time></trkpt>
<trkpt lat="46.2484550476074" lon="7.31806135177612"><ele></ele><time>2013-8-8T1:37:8Z</time></trkpt>
<trkpt lat="46.2484588623047" lon="7.31802797317505"><ele></ele><time>2013-8-8T1:37:11Z</time></trkpt>
<trkpt lat="46.2484703063965" lon="7.3179988861084"><ele></ele><time>2013-8-8T1:37:14Z</time></trkpt>
<trkpt lat="46.2484817504883" lon="7.31796455383301"><ele></ele><time>2013-8-8T1:37:17Z</time></trkpt>
<trkpt lat="46.2485198974609" lon="7.31786632537842"><ele></ele><time>2013-8-8T1:37:20Z</time></trkpt>
<trkpt lat="46.2485313415527" lon="7.31783294677734"><ele></ele><time>2013-8-8T1:37:23Z</time></trkpt>
<trkpt lat="46.2485389709473" lon="7.31779956817627"><ele></ele><time>2013-8-8T1:37:26Z</time></trkpt>
<trkpt lat="46.2485466003418" lon="7.31776428222656"><ele></ele><time>2013-8-8T1:37:29Z</time></trkpt>
<trkpt lat="46.2485504150391" lon="7.31772708892822"><ele></ele><time>2013-8-8T1:37:32Z</time></trkpt>
<trkpt lat="46.2486000061035" lon="7.31760454177856"><ele></ele><time>2013-8-8T1:37:35Z</time></trkpt>
<trkpt lat="46.248607635498" lon="7.31757497787476"><ele></ele><time>2013-8-8T1:37:38Z</time></trkpt>
<trkpt lat="46.2486152648926" lon="7.31753635406494"><ele></ele><time>2013-8-8T1:37:41Z</time></trkpt>
<trkpt lat="46.2486228942871" lon="7.31749820709228"><ele></ele><time>2013-8-8T1:37:44Z</time></trkpt>
<trkpt lat="46.248664855957" lon="7.31727457046509"><ele></ele><time>2013-8-8T1:37:47Z</time></trkpt>
<trkpt lat="46.2486801147461" lon="7.31724786758423"><ele></ele><time>2013-8-8T1:37:50Z</time></trkpt>
<trkpt lat="46.2486877441406" lon="7.31721925735474"><ele></ele><time>2013-8-8T1:37:53Z</time></trkpt>
<trkpt lat="46.2486991882324" lon="7.31718873977661"><ele></ele><time>2013-8-8T1:37:56Z</time></trkpt>
<trkpt lat="46.2487144470215" lon="7.31716108322144"><ele></ele><time>2013-8-8T1:37:59Z</time></trkpt>
<trkpt lat="46.2487487792969" lon="7.31706857681274"><ele></ele><time>2013-8-8T1:38:2Z</time></trkpt>
<trkpt lat="46.2487678527832" lon="7.3170018196106"><ele></ele><time>2013-8-8T1:38:5Z</time></trkpt>
<trkpt lat="46.2488059997559" lon="7.31689071655274"><ele></ele><time>2013-8-8T1:38:8Z</time></trkpt>
<trkpt lat="46.2488174438477" lon="7.31684589385986"><ele></ele><time>2013-8-8T1:38:11Z</time></trkpt>
<trkpt lat="46.2488250732422" lon="7.31680250167847"><ele></ele><time>2013-8-8T1:38:14Z</time></trkpt>
<trkpt lat="46.248836517334" lon="7.31676149368286"><ele></ele><time>2013-8-8T1:38:17Z</time></trkpt>
<trkpt lat="46.2488441467285" lon="7.31672525405884"><ele></ele><time>2013-8-8T1:38:20Z</time></trkpt>
<trkpt lat="46.248851776123" lon="7.31668424606323"><ele></ele><time>2013-8-8T1:38:23Z</time></trkpt>
<trkpt lat="46.2488594055176" lon="7.31664991378784"><ele></ele><time>2013-8-8T1:38:26Z</time></trkpt>
<trkpt lat="46.2488784790039" lon="7.31658363342285"><ele></ele><time>2013-8-8T1:38:29Z</time></trkpt>
<trkpt lat="46.2488899230957" lon="7.31655931472778"><ele></ele><time>2013-8-8T1:38:32Z</time></trkpt>
<trkpt lat="46.2489013671875" lon="7.31653928756714"><ele></ele><time>2013-8-8T1:38:35Z</time></trkpt>
<trkpt lat="46.2489128112793" lon="7.31652116775513"><ele></ele><time>2013-8-8T1:38:38Z</time></trkpt>
<trkpt lat="46.2489242553711" lon="7.31650018692017"><ele></ele><time>2013-8-8T1:38:41Z</time></trkpt>
<trkpt lat="46.248950958252" lon="7.31645822525024"><ele></ele><time>2013-8-8T1:38:44Z</time></trkpt>
<trkpt lat="46.2490386962891" lon="7.31636190414429"><ele></ele><time>2013-8-8T1:38:47Z</time></trkpt>
<trkpt lat="46.2492446899414" lon="7.31615304946899"><ele></ele><time>2013-8-8T1:38:50Z</time></trkpt>
<trkpt lat="46.2492866516113" lon="7.31609582901001"><ele></ele><time>2013-8-8T1:38:53Z</time></trkpt>
<trkpt lat="46.2493362426758" lon="7.31603384017944"><ele></ele><time>2013-8-8T1:38:56Z</time></trkpt>
<trkpt lat="46.2493934631348" lon="7.31597232818604"><ele></ele><time>2013-8-8T1:38:59Z</time></trkpt>
<trkpt lat="46.2494583129883" lon="7.31591463088989"><ele></ele><time>2013-8-8T1:39:2Z</time></trkpt>
<trkpt lat="46.2495384216309" lon="7.31586265563965"><ele></ele><time>2013-8-8T1:39:5Z</time></trkpt>
<trkpt lat="46.2496147155762" lon="7.31582021713257"><ele></ele><time>2013-8-8T1:39:8Z</time></trkpt>
<trkpt lat="46.2497024536133" lon="7.31578779220581"><ele></ele><time>2013-8-8T1:39:11Z</time></trkpt>
<trkpt lat="46.2497940063477" lon="7.31577062606812"><ele></ele><time>2013-8-8T1:39:14Z</time></trkpt>
<trkpt lat="46.2498893737793" lon="7.31576108932495"><ele></ele><time>2013-8-8T1:39:17Z</time></trkpt>
<trkpt lat="46.2499885559082" lon="7.31575584411621"><ele></ele><time>2013-8-8T1:39:20Z</time></trkpt>
<trkpt lat="46.2500915527344" lon="7.31575012207031"><ele></ele><time>2013-8-8T1:39:23Z</time></trkpt>
<trkpt lat="46.2501983642578" lon="7.31574153900146"><ele></ele><time>2013-8-8T1:39:26Z</time></trkpt>
<trkpt lat="46.250316619873" lon="7.31573247909546"><ele></ele><time>2013-8-8T1:39:29Z</time></trkpt>
<trkpt lat="46.250431060791" lon="7.31572151184082"><ele></ele><time>2013-8-8T1:39:32Z</time></trkpt>
<trkpt lat="46.2505378723144" lon="7.31571388244629"><ele></ele><time>2013-8-8T1:39:35Z</time></trkpt>
<trkpt lat="46.2506446838379" lon="7.31570529937744"><ele></ele><time>2013-8-8T1:39:38Z</time></trkpt>
<trkpt lat="46.2507476806641" lon="7.31569957733154"><ele></ele><time>2013-8-8T1:39:41Z</time></trkpt>
<trkpt lat="46.2508430480957" lon="7.3157148361206"><ele></ele><time>2013-8-8T1:39:44Z</time></trkpt>
<trkpt lat="46.2509384155273" lon="7.31576442718506"><ele></ele><time>2013-8-8T1:39:47Z</time></trkpt>
<trkpt lat="46.251033782959" lon="7.31585073471069"><ele></ele><time>2013-8-8T1:39:50Z</time></trkpt>
<trkpt lat="46.2511253356934" lon="7.31594610214233"><ele></ele><time>2013-8-8T1:39:53Z</time></trkpt>
<trkpt lat="46.2512168884277" lon="7.3160343170166"><ele></ele><time>2013-8-8T1:39:56Z</time></trkpt>
<trkpt lat="46.2513198852539" lon="7.31611013412476"><ele></ele><time>2013-8-8T1:39:59Z</time></trkpt>
<trkpt lat="46.2514228820801" lon="7.31617832183838"><ele></ele><time>2013-8-8T1:40:2Z</time></trkpt>
<trkpt lat="46.2515258789062" lon="7.31623315811157"><ele></ele><time>2013-8-8T1:40:5Z</time></trkpt>
<trkpt lat="46.2516288757324" lon="7.31628227233887"><ele></ele><time>2013-8-8T1:40:8Z</time></trkpt>
<trkpt lat="46.2517356872559" lon="7.31631803512573"><ele></ele><time>2013-8-8T1:40:11Z</time></trkpt>
<trkpt lat="46.2518463134766" lon="7.31634664535522"><ele></ele><time>2013-8-8T1:40:14Z</time></trkpt>
<trkpt lat="46.251953125" lon="7.31637191772461"><ele></ele><time>2013-8-8T1:40:17Z</time></trkpt>
<trkpt lat="46.2520561218262" lon="7.3163914680481"><ele></ele><time>2013-8-8T1:40:20Z</time></trkpt>
<trkpt lat="46.2522735595703" lon="7.31643390655518"><ele></ele><time>2013-8-8T1:40:23Z</time></trkpt>
<trkpt lat="46.2523918151856" lon="7.31647062301636"><ele></ele><time>2013-8-8T1:40:26Z</time></trkpt>
<trkpt lat="46.2525062561035" lon="7.31650543212891"><ele></ele><time>2013-8-8T1:40:29Z</time></trkpt>
<trkpt lat="46.2526168823242" lon="7.31653833389282"><ele></ele><time>2013-8-8T1:40:32Z</time></trkpt>
<trkpt lat="46.2527198791504" lon="7.31656265258789"><ele></ele><time>2013-8-8T1:40:35Z</time></trkpt>
<trkpt lat="46.2529296875" lon="7.31659460067749"><ele></ele><time>2013-8-8T1:40:38Z</time></trkpt>
<trkpt lat="46.2530326843262" lon="7.31659126281738"><ele></ele><time>2013-8-8T1:40:41Z</time></trkpt>
<trkpt lat="46.2532119750977" lon="7.31653022766113"><ele></ele><time>2013-8-8T1:40:44Z</time></trkpt>
<trkpt lat="46.2533836364746" lon="7.31640386581421"><ele></ele><time>2013-8-8T1:40:47Z</time></trkpt>
<trkpt lat="46.2534599304199" lon="7.316321849823"><ele></ele><time>2013-8-8T1:40:50Z</time></trkpt>
<trkpt lat="46.253532409668" lon="7.31622552871704"><ele></ele><time>2013-8-8T1:40:53Z</time></trkpt>
<trkpt lat="46.2536010742188" lon="7.31611824035644"><ele></ele><time>2013-8-8T1:40:56Z</time></trkpt>
<trkpt lat="46.2536659240723" lon="7.31600427627564"><ele></ele><time>2013-8-8T1:40:59Z</time></trkpt>
<trkpt lat="46.2537269592285" lon="7.31589031219482"><ele></ele><time>2013-8-8T1:41:2Z</time></trkpt>
<trkpt lat="46.2537879943848" lon="7.31578350067139"><ele></ele><time>2013-8-8T1:41:5Z</time></trkpt>
<trkpt lat="46.2538604736328" lon="7.31570434570312"><ele></ele><time>2013-8-8T1:41:8Z</time></trkpt>
<trkpt lat="46.2539405822754" lon="7.31568479537964"><ele></ele><time>2013-8-8T1:41:11Z</time></trkpt>
<trkpt lat="46.2540473937988" lon="7.31573438644409"><ele></ele><time>2013-8-8T1:41:14Z</time></trkpt>
<trkpt lat="46.2541542053223" lon="7.3157901763916"><ele></ele><time>2013-8-8T1:41:17Z</time></trkpt>
<trkpt lat="46.2542572021484" lon="7.31585311889648"><ele></ele><time>2013-8-8T1:41:20Z</time></trkpt>
<trkpt lat="46.2543525695801" lon="7.31593561172485"><ele></ele><time>2013-8-8T1:41:23Z</time></trkpt>
<trkpt lat="46.2544364929199" lon="7.31604337692261"><ele></ele><time>2013-8-8T1:41:26Z</time></trkpt>
<trkpt lat="46.2545051574707" lon="7.31616258621216"><ele></ele><time>2013-8-8T1:41:29Z</time></trkpt>
<trkpt lat="46.2545623779297" lon="7.31630039215088"><ele></ele><time>2013-8-8T1:41:32Z</time></trkpt>
<trkpt lat="46.2546081542969" lon="7.31643772125244"><ele></ele><time>2013-8-8T1:41:35Z</time></trkpt>
<trkpt lat="46.2546463012695" lon="7.31657266616821"><ele></ele><time>2013-8-8T1:41:38Z</time></trkpt>
<trkpt lat="46.254711151123" lon="7.31671142578125"><ele></ele><time>2013-8-8T1:41:41Z</time></trkpt>
<trkpt lat="46.2547988891602" lon="7.3168420791626"><ele></ele><time>2013-8-8T1:41:44Z</time></trkpt>
<trkpt lat="46.2548942565918" lon="7.31696176528931"><ele></ele><time>2013-8-8T1:41:47Z</time></trkpt>
<trkpt lat="46.254997253418" lon="7.31706428527832"><ele></ele><time>2013-8-8T1:41:50Z</time></trkpt>
<trkpt lat="46.2551040649414" lon="7.31718063354492"><ele></ele><time>2013-8-8T1:41:53Z</time></trkpt>
<trkpt lat="46.2551803588867" lon="7.31730890274048"><ele></ele><time>2013-8-8T1:41:56Z</time></trkpt>
<trkpt lat="46.2552452087402" lon="7.31743288040161"><ele></ele><time>2013-8-8T1:41:59Z</time></trkpt>
<trkpt lat="46.255313873291" lon="7.31754779815674"><ele></ele><time>2013-8-8T1:42:2Z</time></trkpt>
<trkpt lat="46.2554130554199" lon="7.31763315200806"><ele></ele><time>2013-8-8T1:42:5Z</time></trkpt>
<trkpt lat="46.2555236816406" lon="7.31769323348999"><ele></ele><time>2013-8-8T1:42:8Z</time></trkpt>
<trkpt lat="46.2556381225586" lon="7.31772565841675"><ele></ele><time>2013-8-8T1:42:11Z</time></trkpt>
<trkpt lat="46.2557601928711" lon="7.31771469116211"><ele></ele><time>2013-8-8T1:42:14Z</time></trkpt>
<trkpt lat="46.2558746337891" lon="7.31766510009766"><ele></ele><time>2013-8-8T1:42:17Z</time></trkpt>
<trkpt lat="46.2559852600098" lon="7.31758546829224"><ele></ele><time>2013-8-8T1:42:20Z</time></trkpt>
<trkpt lat="46.2560806274414" lon="7.31748533248901"><ele></ele><time>2013-8-8T1:42:23Z</time></trkpt>
<trkpt lat="46.2561531066894" lon="7.31740427017212"><ele></ele><time>2013-8-8T1:42:26Z</time></trkpt>
<trkpt lat="46.2562255859375" lon="7.31734609603882"><ele></ele><time>2013-8-8T1:42:29Z</time></trkpt>
<trkpt lat="46.2563095092773" lon="7.31732654571533"><ele></ele><time>2013-8-8T1:42:32Z</time></trkpt>
<trkpt lat="46.2563934326172" lon="7.3173451423645"><ele></ele><time>2013-8-8T1:42:35Z</time></trkpt>
<trkpt lat="46.2564849853516" lon="7.31737327575684"><ele></ele><time>2013-8-8T1:42:38Z</time></trkpt>
<trkpt lat="46.2565765380859" lon="7.31738519668579"><ele></ele><time>2013-8-8T1:42:41Z</time></trkpt>
<trkpt lat="46.2566719055176" lon="7.31738662719726"><ele></ele><time>2013-8-8T1:42:44Z</time></trkpt>
<trkpt lat="46.256763458252" lon="7.31738185882568"><ele></ele><time>2013-8-8T1:42:47Z</time></trkpt>
<trkpt lat="46.2568473815918" lon="7.31736946105957"><ele></ele><time>2013-8-8T1:42:50Z</time></trkpt>
<trkpt lat="46.2569236755371" lon="7.31735610961914"><ele></ele><time>2013-8-8T1:42:53Z</time></trkpt>
<trkpt lat="46.2569999694824" lon="7.3173508644104"><ele></ele><time>2013-8-8T1:42:56Z</time></trkpt>
<trkpt lat="46.2570724487305" lon="7.31735277175903"><ele></ele><time>2013-8-8T1:42:59Z</time></trkpt>
<trkpt lat="46.2571487426758" lon="7.31735944747925"><ele></ele><time>2013-8-8T1:43:2Z</time></trkpt>
<trkpt lat="46.2572326660156" lon="7.31736755371094"><ele></ele><time>2013-8-8T1:43:5Z</time></trkpt>
<trkpt lat="46.2573089599609" lon="7.31737422943115"><ele></ele><time>2013-8-8T1:43:8Z</time></trkpt>
<trkpt lat="46.2573890686035" lon="7.31738042831421"><ele></ele><time>2013-8-8T1:43:11Z</time></trkpt>
<trkpt lat="46.2578620910644" lon="7.31750059127808"><ele></ele><time>2013-8-8T1:43:14Z</time></trkpt>
<trkpt lat="46.2579460144043" lon="7.31754398345947"><ele></ele><time>2013-8-8T1:43:17Z</time></trkpt>
<trkpt lat="46.2581214904785" lon="7.31764078140259"><ele></ele><time>2013-8-8T1:43:20Z</time></trkpt>
<trkpt lat="46.2583045959473" lon="7.3176851272583"><ele></ele><time>2013-8-8T1:43:23Z</time></trkpt>
<trkpt lat="46.2585334777832" lon="7.31762599945068"><ele></ele><time>2013-8-8T1:43:26Z</time></trkpt>
<trkpt lat="46.258602142334" lon="7.31758546829224"><ele></ele><time>2013-8-8T1:43:29Z</time></trkpt>
<trkpt lat="46.2587394714356" lon="7.31752824783325"><ele></ele><time>2013-8-8T1:43:32Z</time></trkpt>
<trkpt lat="46.2588806152344" lon="7.31753969192505"><ele></ele><time>2013-8-8T1:43:35Z</time></trkpt>
<trkpt lat="46.2590560913086" lon="7.31770038604736"><ele></ele><time>2013-8-8T1:43:38Z</time></trkpt>
<trkpt lat="46.2592163085938" lon="7.31797075271606"><ele></ele><time>2013-8-8T1:43:41Z</time></trkpt>
<trkpt lat="46.2592658996582" lon="7.31805038452148"><ele></ele><time>2013-8-8T1:43:44Z</time></trkpt>
<trkpt lat="46.2594757080078" lon="7.31826448440552"><ele></ele><time>2013-8-8T1:43:47Z</time></trkpt>
<trkpt lat="46.2595252990723" lon="7.3183012008667"><ele></ele><time>2013-8-8T1:43:50Z</time></trkpt>
<trkpt lat="46.2595710754394" lon="7.31832981109619"><ele></ele><time>2013-8-8T1:43:53Z</time></trkpt>
<trkpt lat="46.2596168518066" lon="7.31835269927978"><ele></ele><time>2013-8-8T1:43:56Z</time></trkpt>
<trkpt lat="46.2596588134766" lon="7.31837272644043"><ele></ele><time>2013-8-8T1:43:59Z</time></trkpt>
<trkpt lat="46.2597389221191" lon="7.31840991973877"><ele></ele><time>2013-8-8T1:44:2Z</time></trkpt>
<trkpt lat="46.2597770690918" lon="7.31842803955078"><ele></ele><time>2013-8-8T1:44:5Z</time></trkpt>
<trkpt lat="46.2598075866699" lon="7.31844425201416"><ele></ele><time>2013-8-8T1:44:8Z</time></trkpt>
<trkpt lat="46.259838104248" lon="7.3184609413147"><ele></ele><time>2013-8-8T1:44:11Z</time></trkpt>
<trkpt lat="46.2598762512207" lon="7.3184757232666"><ele></ele><time>2013-8-8T1:44:14Z</time></trkpt>
<trkpt lat="46.2599487304688" lon="7.31850242614746"><ele></ele><time>2013-8-8T1:44:17Z</time></trkpt>
<trkpt lat="46.2599906921387" lon="7.31851959228516"><ele></ele><time>2013-8-8T1:44:20Z</time></trkpt>
<trkpt lat="46.2600288391113" lon="7.31854820251465"><ele></ele><time>2013-8-8T1:44:23Z</time></trkpt>
<trkpt lat="46.2600593566894" lon="7.31858110427856"><ele></ele><time>2013-8-8T1:44:26Z</time></trkpt>
<trkpt lat="46.2600898742676" lon="7.31861448287964"><ele></ele><time>2013-8-8T1:44:29Z</time></trkpt>
<trkpt lat="46.2601203918457" lon="7.31864929199219"><ele></ele><time>2013-8-8T1:44:32Z</time></trkpt>
<trkpt lat="46.2601432800293" lon="7.31868648529053"><ele></ele><time>2013-8-8T1:44:35Z</time></trkpt>
<trkpt lat="46.2601661682129" lon="7.31872320175171"><ele></ele><time>2013-8-8T1:44:38Z</time></trkpt>
<trkpt lat="46.2602272033691" lon="7.31883811950684"><ele></ele><time>2013-8-8T1:44:41Z</time></trkpt>
<trkpt lat="46.2602386474609" lon="7.3188738822937"><ele></ele><time>2013-8-8T1:44:44Z</time></trkpt>
<trkpt lat="46.2602577209473" lon="7.31890678405762"><ele></ele><time>2013-8-8T1:44:47Z</time></trkpt>
<trkpt lat="46.2602806091309" lon="7.31893587112427"><ele></ele><time>2013-8-8T1:44:50Z</time></trkpt>
<trkpt lat="46.2602996826172" lon="7.3189640045166"><ele></ele><time>2013-8-8T1:44:53Z</time></trkpt>
<trkpt lat="46.2603797912598" lon="7.31905364990234"><ele></ele><time>2013-8-8T1:44:56Z</time></trkpt>
<trkpt lat="46.2605247497559" lon="7.31914615631104"><ele></ele><time>2013-8-8T1:44:59Z</time></trkpt>
<trkpt lat="46.260555267334" lon="7.31915187835693"><ele></ele><time>2013-8-8T1:45:2Z</time></trkpt>
<trkpt lat="46.2605895996094" lon="7.31915283203125"><ele></ele><time>2013-8-8T1:45:5Z</time></trkpt>
<trkpt lat="46.2606239318848" lon="7.31915473937988"><ele></ele><time>2013-8-8T1:45:8Z</time></trkpt>
<trkpt lat="46.2606582641602" lon="7.31915616989136"><ele></ele><time>2013-8-8T1:45:11Z</time></trkpt>
<trkpt lat="46.2606925964356" lon="7.31915140151978"><ele></ele><time>2013-8-8T1:45:14Z</time></trkpt>
<trkpt lat="46.2607269287109" lon="7.31914615631104"><ele></ele><time>2013-8-8T1:45:17Z</time></trkpt>
<trkpt lat="46.2608795166016" lon="7.31913805007935"><ele></ele><time>2013-8-8T1:45:20Z</time></trkpt>
<trkpt lat="46.2609176635742" lon="7.31913185119629"><ele></ele><time>2013-8-8T1:45:23Z</time></trkpt>
<trkpt lat="46.2609519958496" lon="7.31912803649902"><ele></ele><time>2013-8-8T1:45:26Z</time></trkpt>
<trkpt lat="46.2610931396484" lon="7.31911468505859"><ele></ele><time>2013-8-8T1:45:29Z</time></trkpt>
<trkpt lat="46.2611274719238" lon="7.31911134719849"><ele></ele><time>2013-8-8T1:45:32Z</time></trkpt>
<trkpt lat="46.261157989502" lon="7.31911087036133"><ele></ele><time>2013-8-8T1:45:35Z</time></trkpt>
<trkpt lat="46.2611808776856" lon="7.31910800933838"><ele></ele><time>2013-8-8T1:45:38Z</time></trkpt>
<trkpt lat="46.2612113952637" lon="7.3191065788269"><ele></ele><time>2013-8-8T1:45:41Z</time></trkpt>
<trkpt lat="46.2612686157227" lon="7.31911325454712"><ele></ele><time>2013-8-8T1:45:44Z</time></trkpt>
<trkpt lat="46.2612915039062" lon="7.31911182403564"><ele></ele><time>2013-8-8T1:45:47Z</time></trkpt>
<trkpt lat="46.2613182067871" lon="7.31912040710449"><ele></ele><time>2013-8-8T1:45:50Z</time></trkpt>
<trkpt lat="46.2613372802734" lon="7.31912660598755"><ele></ele><time>2013-8-8T1:45:53Z</time></trkpt>
<trkpt lat="46.2613563537598" lon="7.31912803649902"><ele></ele><time>2013-8-8T1:45:56Z</time></trkpt>
<trkpt lat="46.2613792419434" lon="7.3191328048706"><ele></ele><time>2013-8-8T1:45:59Z</time></trkpt>
<trkpt lat="46.261402130127" lon="7.31913948059082"><ele></ele><time>2013-8-8T1:46:2Z</time></trkpt>
<trkpt lat="46.2614250183106" lon="7.31914710998535"><ele></ele><time>2013-8-8T1:46:5Z</time></trkpt>
<trkpt lat="46.2614479064941" lon="7.3191614151001"><ele></ele><time>2013-8-8T1:46:8Z</time></trkpt>
<trkpt lat="46.2615280151367" lon="7.31918811798096"><ele></ele><time>2013-8-8T1:46:11Z</time></trkpt>
<trkpt lat="46.2615623474121" lon="7.3191933631897"><ele></ele><time>2013-8-8T1:46:14Z</time></trkpt>
<trkpt lat="46.2615966796875" lon="7.31920099258423"><ele></ele><time>2013-8-8T1:46:17Z</time></trkpt>
<trkpt lat="46.2616310119629" lon="7.31920576095581"><ele></ele><time>2013-8-8T1:46:20Z</time></trkpt>
<trkpt lat="46.2616577148438" lon="7.31921434402466"><ele></ele><time>2013-8-8T1:46:23Z</time></trkpt>
<trkpt lat="46.2616844177246" lon="7.31922483444214"><ele></ele><time>2013-8-8T1:46:26Z</time></trkpt>
<trkpt lat="46.26171875" lon="7.31923723220825"><ele></ele><time>2013-8-8T1:46:29Z</time></trkpt>
<trkpt lat="46.2617568969727" lon="7.31925201416016"><ele></ele><time>2013-8-8T1:46:32Z</time></trkpt>
<trkpt lat="46.2618064880371" lon="7.31926202774048"><ele></ele><time>2013-8-8T1:46:35Z</time></trkpt>
<trkpt lat="46.2618637084961" lon="7.31926965713501"><ele></ele><time>2013-8-8T1:46:38Z</time></trkpt>
<trkpt lat="46.261890411377" lon="7.31927251815796"><ele></ele><time>2013-8-8T1:46:41Z</time></trkpt>
<trkpt lat="46.261905670166" lon="7.31927061080933"><ele></ele><time>2013-8-8T1:46:44Z</time></trkpt>
<trkpt lat="46.2619361877441" lon="7.31927490234375"><ele></ele><time>2013-8-8T1:46:47Z</time></trkpt>
<trkpt lat="46.261962890625" lon="7.3192834854126"><ele></ele><time>2013-8-8T1:46:50Z</time></trkpt>
<trkpt lat="46.262035369873" lon="7.31933069229126"><ele></ele><time>2013-8-8T1:46:53Z</time></trkpt>
<trkpt lat="46.262077331543" lon="7.31936502456665"><ele></ele><time>2013-8-8T1:46:56Z</time></trkpt>
<trkpt lat="46.2620964050293" lon="7.31937789916992"><ele></ele><time>2013-8-8T1:46:59Z</time></trkpt>
<trkpt lat="46.2621192932129" lon="7.31939554214478"><ele></ele><time>2013-8-8T1:47:2Z</time></trkpt>
<trkpt lat="46.2621383666992" lon="7.31941032409668"><ele></ele><time>2013-8-8T1:47:5Z</time></trkpt>
<trkpt lat="46.2621650695801" lon="7.31943655014038"><ele></ele><time>2013-8-8T1:47:8Z</time></trkpt>
<trkpt lat="46.2621879577637" lon="7.31945896148682"><ele></ele><time>2013-8-8T1:47:11Z</time></trkpt>
<trkpt lat="46.2622375488281" lon="7.3195071220398"><ele></ele><time>2013-8-8T1:47:14Z</time></trkpt>
<trkpt lat="46.2622909545898" lon="7.31956672668457"><ele></ele><time>2013-8-8T1:47:17Z</time></trkpt>
<trkpt lat="46.2623100280762" lon="7.31957817077637"><ele></ele><time>2013-8-8T1:47:20Z</time></trkpt>
<trkpt lat="46.2623291015625" lon="7.3195948600769"><ele></ele><time>2013-8-8T1:47:23Z</time></trkpt>
<trkpt lat="46.2623558044434" lon="7.31960296630859"><ele></ele><time>2013-8-8T1:47:26Z</time></trkpt>
<trkpt lat="46.2624015808106" lon="7.31961822509766"><ele></ele><time>2013-8-8T1:47:29Z</time></trkpt>
<trkpt lat="46.2624473571777" lon="7.31963872909546"><ele></ele><time>2013-8-8T1:47:32Z</time></trkpt>
<trkpt lat="46.2624702453613" lon="7.31965255737305"><ele></ele><time>2013-8-8T1:47:35Z</time></trkpt>
<trkpt lat="46.2624931335449" lon="7.31966924667358"><ele></ele><time>2013-8-8T1:47:38Z</time></trkpt>
<trkpt lat="46.2625122070312" lon="7.31968450546265"><ele></ele><time>2013-8-8T1:47:41Z</time></trkpt>
<trkpt lat="46.2625312805176" lon="7.31970024108887"><ele></ele><time>2013-8-8T1:47:44Z</time></trkpt>
<trkpt lat="46.2625503540039" lon="7.31971645355225"><ele></ele><time>2013-8-8T1:47:47Z</time></trkpt>
<trkpt lat="46.2625770568848" lon="7.31973266601562"><ele></ele><time>2013-8-8T1:47:50Z</time></trkpt>
<trkpt lat="46.2625999450684" lon="7.31974172592163"><ele></ele><time>2013-8-8T1:47:53Z</time></trkpt>
<trkpt lat="46.2627220153809" lon="7.31982803344726"><ele></ele><time>2013-8-8T1:47:56Z</time></trkpt>
<trkpt lat="46.2627487182617" lon="7.31984567642212"><ele></ele><time>2013-8-8T1:47:59Z</time></trkpt>
<trkpt lat="46.2627716064453" lon="7.31986284255982"><ele></ele><time>2013-8-8T1:48:2Z</time></trkpt>
<trkpt lat="46.2627983093262" lon="7.31987524032593"><ele></ele><time>2013-8-8T1:48:5Z</time></trkpt>
<trkpt lat="46.2628173828125" lon="7.31989192962646"><ele></ele><time>2013-8-8T1:48:8Z</time></trkpt>
<trkpt lat="46.2628402709961" lon="7.31990909576416"><ele></ele><time>2013-8-8T1:48:11Z</time></trkpt>
<trkpt lat="46.2628707885742" lon="7.31992864608765"><ele></ele><time>2013-8-8T1:48:14Z</time></trkpt>
<trkpt lat="46.2629852294922" lon="7.3200626373291"><ele></ele><time>2013-8-8T1:48:17Z</time></trkpt>
<trkpt lat="46.2629928588867" lon="7.32009220123291"><ele></ele><time>2013-8-8T1:48:20Z</time></trkpt>
<trkpt lat="46.2630004882812" lon="7.32012557983398"><ele></ele><time>2013-8-8T1:48:23Z</time></trkpt>
<trkpt lat="46.2630157470703" lon="7.32015991210938"><ele></ele><time>2013-8-8T1:48:26Z</time></trkpt>
<trkpt lat="46.2630271911621" lon="7.32019376754761"><ele></ele><time>2013-8-8T1:48:29Z</time></trkpt>
<trkpt lat="46.263069152832" lon="7.32026100158691"><ele></ele><time>2013-8-8T1:48:32Z</time></trkpt>
<trkpt lat="46.2631072998047" lon="7.32030820846558"><ele></ele><time>2013-8-8T1:48:35Z</time></trkpt>
<trkpt lat="46.263126373291" lon="7.32032775878906"><ele></ele><time>2013-8-8T1:48:38Z</time></trkpt>
<trkpt lat="46.2631416320801" lon="7.32034158706665"><ele></ele><time>2013-8-8T1:48:41Z</time></trkpt>
<trkpt lat="46.2631645202637" lon="7.3203558921814"><ele></ele><time>2013-8-8T1:48:44Z</time></trkpt>
<trkpt lat="46.2631912231445" lon="7.3203706741333"><ele></ele><time>2013-8-8T1:48:47Z</time></trkpt>
<trkpt lat="46.2632675170898" lon="7.3203911781311"><ele></ele><time>2013-8-8T1:48:50Z</time></trkpt>
<trkpt lat="46.2632904052734" lon="7.32039022445679"><ele></ele><time>2013-8-8T1:48:53Z</time></trkpt>
<trkpt lat="46.2633094787598" lon="7.32038927078247"><ele></ele><time>2013-8-8T1:48:56Z</time></trkpt>
<trkpt lat="46.2633247375488" lon="7.320387840271"><ele></ele><time>2013-8-8T1:48:59Z</time></trkpt>
<trkpt lat="46.2633438110352" lon="7.32038640975952"><ele></ele><time>2013-8-8T1:49:2Z</time></trkpt>
<trkpt lat="46.2634429931641" lon="7.32038116455078"><ele></ele><time>2013-8-8T1:49:5Z</time></trkpt>
<trkpt lat="46.2634887695312" lon="7.32037878036499"><ele></ele><time>2013-8-8T1:49:8Z</time></trkpt>
<trkpt lat="46.2635154724121" lon="7.32037830352783"><ele></ele><time>2013-8-8T1:49:11Z</time></trkpt>
<trkpt lat="46.2635383605957" lon="7.32037401199341"><ele></ele><time>2013-8-8T1:49:14Z</time></trkpt>
<trkpt lat="46.2635612487793" lon="7.32037258148193"><ele></ele><time>2013-8-8T1:49:17Z</time></trkpt>
<trkpt lat="46.2635803222656" lon="7.32036972045898"><ele></ele><time>2013-8-8T1:49:20Z</time></trkpt>
<trkpt lat="46.2636985778809" lon="7.32036638259888"><ele></ele><time>2013-8-8T1:49:23Z</time></trkpt>
<trkpt lat="46.2637214660644" lon="7.3203649520874"><ele></ele><time>2013-8-8T1:49:26Z</time></trkpt>
<trkpt lat="46.2637405395508" lon="7.32036209106445"><ele></ele><time>2013-8-8T1:49:29Z</time></trkpt>
<trkpt lat="46.2637596130371" lon="7.32035779953003"><ele></ele><time>2013-8-8T1:49:32Z</time></trkpt>
<trkpt lat="46.2637786865234" lon="7.32035684585571"><ele></ele><time>2013-8-8T1:49:35Z</time></trkpt>
<trkpt lat="46.2638778686523" lon="7.32035827636719"><ele></ele><time>2013-8-8T1:49:38Z</time></trkpt>
<trkpt lat="46.2639045715332" lon="7.32035398483276"><ele></ele><time>2013-8-8T1:49:41Z</time></trkpt>
<trkpt lat="46.2639274597168" lon="7.32035160064697"><ele></ele><time>2013-8-8T1:49:44Z</time></trkpt>
<trkpt lat="46.2639503479004" lon="7.32034397125244"><ele></ele><time>2013-8-8T1:49:47Z</time></trkpt>
<trkpt lat="46.2640266418457" lon="7.32033586502075"><ele></ele><time>2013-8-8T1:49:50Z</time></trkpt>
<trkpt lat="46.2640419006348" lon="7.32033491134644"><ele></ele><time>2013-8-8T1:49:53Z</time></trkpt>
<trkpt lat="46.2640609741211" lon="7.32033729553223"><ele></ele><time>2013-8-8T1:49:56Z</time></trkpt>
<trkpt lat="46.2640762329102" lon="7.32033634185791"><ele></ele><time>2013-8-8T1:49:59Z</time></trkpt>
<trkpt lat="46.2640914916992" lon="7.32033681869507"><ele></ele><time>2013-8-8T1:50:2Z</time></trkpt>
<trkpt lat="46.2641525268555" lon="7.3203444480896"><ele></ele><time>2013-8-8T1:50:5Z</time></trkpt>
<trkpt lat="46.2641716003418" lon="7.32035636901856"><ele></ele><time>2013-8-8T1:50:8Z</time></trkpt>
<trkpt lat="46.2641944885254" lon="7.32036781311035"><ele></ele><time>2013-8-8T1:50:11Z</time></trkpt>
<trkpt lat="46.264217376709" lon="7.3203763961792"><ele></ele><time>2013-8-8T1:50:14Z</time></trkpt>
<trkpt lat="46.2642364501953" lon="7.32038688659668"><ele></ele><time>2013-8-8T1:50:17Z</time></trkpt>
<trkpt lat="46.2642517089844" lon="7.32040071487427"><ele></ele><time>2013-8-8T1:50:20Z</time></trkpt>
<trkpt lat="46.2643127441406" lon="7.32045698165894"><ele></ele><time>2013-8-8T1:50:23Z</time></trkpt>
<trkpt lat="46.264331817627" lon="7.32047271728516"><ele></ele><time>2013-8-8T1:50:26Z</time></trkpt>
<trkpt lat="46.264347076416" lon="7.32049083709717"><ele></ele><time>2013-8-8T1:50:29Z</time></trkpt>
<trkpt lat="46.2643623352051" lon="7.32050943374634"><ele></ele><time>2013-8-8T1:50:32Z</time></trkpt>
<trkpt lat="46.2643775939941" lon="7.32052850723267"><ele></ele><time>2013-8-8T1:50:35Z</time></trkpt>
<trkpt lat="46.2644195556641" lon="7.32056713104248"><ele></ele><time>2013-8-8T1:50:38Z</time></trkpt>
<trkpt lat="46.2644348144531" lon="7.32058238983154"><ele></ele><time>2013-8-8T1:50:41Z</time></trkpt>
<trkpt lat="46.2644424438477" lon="7.32059669494629"><ele></ele><time>2013-8-8T1:50:44Z</time></trkpt>
<trkpt lat="46.2644538879394" lon="7.32061100006104"><ele></ele><time>2013-8-8T1:50:47Z</time></trkpt>
<trkpt lat="46.264461517334" lon="7.32062482833862"><ele></ele><time>2013-8-8T1:50:50Z</time></trkpt>
<trkpt lat="46.2645301818848" lon="7.32069730758667"><ele></ele><time>2013-8-8T1:50:53Z</time></trkpt>
<trkpt lat="46.2645492553711" lon="7.3207106590271"><ele></ele><time>2013-8-8T1:50:56Z</time></trkpt>
<trkpt lat="46.2645645141602" lon="7.32072401046753"><ele></ele><time>2013-8-8T1:50:59Z</time></trkpt>
<trkpt lat="46.2645797729492" lon="7.32074785232544"><ele></ele><time>2013-8-8T1:51:2Z</time></trkpt>
<trkpt lat="46.264591217041" lon="7.32076072692871"><ele></ele><time>2013-8-8T1:51:5Z</time></trkpt>
<trkpt lat="46.2646217346191" lon="7.32079076766968"><ele></ele><time>2013-8-8T1:51:8Z</time></trkpt>
<trkpt lat="46.2646331787109" lon="7.32080078125"><ele></ele><time>2013-8-8T1:51:11Z</time></trkpt>
<trkpt lat="46.2646484375" lon="7.32081031799316"><ele></ele><time>2013-8-8T1:51:14Z</time></trkpt>
<trkpt lat="46.2646598815918" lon="7.32082557678223"><ele></ele><time>2013-8-8T1:51:17Z</time></trkpt>
<trkpt lat="46.2646751403809" lon="7.32083559036255"><ele></ele><time>2013-8-8T1:51:20Z</time></trkpt>
<trkpt lat="46.2646942138672" lon="7.32084083557129"><ele></ele><time>2013-8-8T1:51:23Z</time></trkpt>
<trkpt lat="46.2647094726562" lon="7.3208475112915"><ele></ele><time>2013-8-8T1:51:26Z</time></trkpt>
<trkpt lat="46.2647666931152" lon="7.3208818435669"><ele></ele><time>2013-8-8T1:51:29Z</time></trkpt>
<trkpt lat="46.2648086547852" lon="7.32089519500732"><ele></ele><time>2013-8-8T1:51:32Z</time></trkpt>
<trkpt lat="46.2648315429688" lon="7.32090330123901"><ele></ele><time>2013-8-8T1:51:35Z</time></trkpt>
<trkpt lat="46.2648468017578" lon="7.32091379165649"><ele></ele><time>2013-8-8T1:51:38Z</time></trkpt>
<trkpt lat="46.2648620605469" lon="7.32092142105102"><ele></ele><time>2013-8-8T1:51:41Z</time></trkpt>
<trkpt lat="46.2648811340332" lon="7.32092666625976"><ele></ele><time>2013-8-8T1:51:44Z</time></trkpt>
<trkpt lat="46.2648887634277" lon="7.32092714309692"><ele></ele><time>2013-8-8T1:51:47Z</time></trkpt>
<trkpt lat="46.2649345397949" lon="7.32094430923462"><ele></ele><time>2013-8-8T1:51:50Z</time></trkpt>
<trkpt lat="46.2649459838867" lon="7.32094621658325"><ele></ele><time>2013-8-8T1:51:53Z</time></trkpt>
<trkpt lat="46.2649612426758" lon="7.32094860076904"><ele></ele><time>2013-8-8T1:51:56Z</time></trkpt>
<trkpt lat="46.2649688720703" lon="7.32094621658325"><ele></ele><time>2013-8-8T1:51:59Z</time></trkpt>
<trkpt lat="46.2649879455566" lon="7.32094812393188"><ele></ele><time>2013-8-8T1:52:2Z</time></trkpt>
<trkpt lat="46.2650146484375" lon="7.32096719741821"><ele></ele><time>2013-8-8T1:52:5Z</time></trkpt>
<trkpt lat="46.2650375366211" lon="7.32098007202148"><ele></ele><time>2013-8-8T1:52:8Z</time></trkpt>
<trkpt lat="46.2650566101074" lon="7.32098627090454"><ele></ele><time>2013-8-8T1:52:11Z</time></trkpt>
<trkpt lat="46.265079498291" lon="7.32099485397339"><ele></ele><time>2013-8-8T1:52:14Z</time></trkpt>
<trkpt lat="46.2651023864746" lon="7.32100486755371"><ele></ele><time>2013-8-8T1:52:17Z</time></trkpt>
<trkpt lat="46.2651214599609" lon="7.32101726531982"><ele></ele><time>2013-8-8T1:52:20Z</time></trkpt>
<trkpt lat="46.2651443481445" lon="7.32102203369141"><ele></ele><time>2013-8-8T1:52:23Z</time></trkpt>
<trkpt lat="46.2651596069336" lon="7.32102632522583"><ele></ele><time>2013-8-8T1:52:26Z</time></trkpt>
<trkpt lat="46.2651786804199" lon="7.32102870941162"><ele></ele><time>2013-8-8T1:52:29Z</time></trkpt>
<trkpt lat="46.2652778625488" lon="7.32108402252197"><ele></ele><time>2013-8-8T1:52:32Z</time></trkpt>
<trkpt lat="46.2653007507324" lon="7.32110595703125"><ele></ele><time>2013-8-8T1:52:35Z</time></trkpt>
<trkpt lat="46.265323638916" lon="7.32112503051758"><ele></ele><time>2013-8-8T1:52:38Z</time></trkpt>
<trkpt lat="46.2653427124023" lon="7.32114505767822"><ele></ele><time>2013-8-8T1:52:41Z</time></trkpt>
<trkpt lat="46.2653579711914" lon="7.32116365432739"><ele></ele><time>2013-8-8T1:52:44Z</time></trkpt>
<trkpt lat="46.2653770446777" lon="7.3211817741394"><ele></ele><time>2013-8-8T1:52:47Z</time></trkpt>
<trkpt lat="46.2653846740723" lon="7.32119989395142"><ele></ele><time>2013-8-8T1:52:50Z</time></trkpt>
<trkpt lat="46.2653961181641" lon="7.32121753692627"><ele></ele><time>2013-8-8T1:52:53Z</time></trkpt>
<trkpt lat="46.2654113769531" lon="7.32123613357544"><ele></ele><time>2013-8-8T1:52:56Z</time></trkpt>
<trkpt lat="46.2654266357422" lon="7.32125473022461"><ele></ele><time>2013-8-8T1:52:59Z</time></trkpt>
<trkpt lat="46.2654457092285" lon="7.32127475738525"><ele></ele><time>2013-8-8T1:53:2Z</time></trkpt>
<trkpt lat="46.2654609680176" lon="7.32129573822022"><ele></ele><time>2013-8-8T1:53:5Z</time></trkpt>
<trkpt lat="46.2654724121094" lon="7.3213152885437"><ele></ele><time>2013-8-8T1:53:8Z</time></trkpt>
<trkpt lat="46.2654876708984" lon="7.32133722305298"><ele></ele><time>2013-8-8T1:53:11Z</time></trkpt>
<trkpt lat="46.2655029296875" lon="7.32138586044312"><ele></ele><time>2013-8-8T1:53:14Z</time></trkpt>
<trkpt lat="46.2655143737793" lon="7.32140779495239"><ele></ele><time>2013-8-8T1:53:17Z</time></trkpt>
<trkpt lat="46.2655258178711" lon="7.3214259147644"><ele></ele><time>2013-8-8T1:53:20Z</time></trkpt>
<trkpt lat="46.2655372619629" lon="7.32144784927368"><ele></ele><time>2013-8-8T1:53:23Z</time></trkpt>
<trkpt lat="46.2655448913574" lon="7.32146883010864"><ele></ele><time>2013-8-8T1:53:26Z</time></trkpt>
<trkpt lat="46.2655754089356" lon="7.321533203125"><ele></ele><time>2013-8-8T1:53:29Z</time></trkpt>
<trkpt lat="46.2655830383301" lon="7.32155895233154"><ele></ele><time>2013-8-8T1:53:32Z</time></trkpt>
<trkpt lat="46.2655868530273" lon="7.32157945632935"><ele></ele><time>2013-8-8T1:53:35Z</time></trkpt>
<trkpt lat="46.2655944824219" lon="7.32159900665283"><ele></ele><time>2013-8-8T1:53:38Z</time></trkpt>
<trkpt lat="46.2656021118164" lon="7.32161664962768"><ele></ele><time>2013-8-8T1:53:41Z</time></trkpt>
<trkpt lat="46.2656097412109" lon="7.32163858413696"><ele></ele><time>2013-8-8T1:53:44Z</time></trkpt>
<trkpt lat="46.2656364440918" lon="7.32167148590088"><ele></ele><time>2013-8-8T1:53:47Z</time></trkpt>
<trkpt lat="46.2656669616699" lon="7.32169198989868"><ele></ele><time>2013-8-8T1:53:50Z</time></trkpt>
<trkpt lat="46.2656860351562" lon="7.32169818878174"><ele></ele><time>2013-8-8T1:53:53Z</time></trkpt>
<trkpt lat="46.2657012939453" lon="7.32169675827026"><ele></ele><time>2013-8-8T1:53:56Z</time></trkpt>
<trkpt lat="46.2657127380371" lon="7.32169151306152"><ele></ele><time>2013-8-8T1:53:59Z</time></trkpt>
<trkpt lat="46.2657279968262" lon="7.32168912887573"><ele></ele><time>2013-8-8T1:54:2Z</time></trkpt>
<trkpt lat="46.2657737731934" lon="7.32168626785278"><ele></ele><time>2013-8-8T1:54:5Z</time></trkpt>
<trkpt lat="46.2658233642578" lon="7.32165813446045"><ele></ele><time>2013-8-8T1:54:8Z</time></trkpt>
<trkpt lat="46.2658386230469" lon="7.32164144515991"><ele></ele><time>2013-8-8T1:54:11Z</time></trkpt>
<trkpt lat="46.2658500671387" lon="7.32162714004517"><ele></ele><time>2013-8-8T1:54:14Z</time></trkpt>
<trkpt lat="46.2658653259277" lon="7.32160902023315"><ele></ele><time>2013-8-8T1:54:17Z</time></trkpt>
<trkpt lat="46.2658767700195" lon="7.32159519195557"><ele></ele><time>2013-8-8T1:54:20Z</time></trkpt>
<trkpt lat="46.265926361084" lon="7.32156229019165"><ele></ele><time>2013-8-8T1:54:23Z</time></trkpt>
<trkpt lat="46.2659759521484" lon="7.32154273986816"><ele></ele><time>2013-8-8T1:54:26Z</time></trkpt>
<trkpt lat="46.2659950256348" lon="7.32154417037964"><ele></ele><time>2013-8-8T1:54:29Z</time></trkpt>
<trkpt lat="46.2660102844238" lon="7.32154083251953"><ele></ele><time>2013-8-8T1:54:32Z</time></trkpt>
<trkpt lat="46.2660255432129" lon="7.32153844833374"><ele></ele><time>2013-8-8T1:54:35Z</time></trkpt>
<trkpt lat="46.2660369873047" lon="7.321533203125"><ele></ele><time>2013-8-8T1:54:38Z</time></trkpt>
<trkpt lat="46.2660522460938" lon="7.32153463363648"><ele></ele><time>2013-8-8T1:54:41Z</time></trkpt>
<trkpt lat="46.2660751342773" lon="7.32153415679932"><ele></ele><time>2013-8-8T1:54:44Z</time></trkpt>
<trkpt lat="46.2660942077637" lon="7.32154560089111"><ele></ele><time>2013-8-8T1:54:47Z</time></trkpt>
<trkpt lat="46.2661094665527" lon="7.32155084609985"><ele></ele><time>2013-8-8T1:54:50Z</time></trkpt>
<trkpt lat="46.2661247253418" lon="7.32155895233154"><ele></ele><time>2013-8-8T1:54:53Z</time></trkpt>
<trkpt lat="46.2661323547363" lon="7.32156229019165"><ele></ele><time>2013-8-8T1:54:56Z</time></trkpt>
<trkpt lat="46.2661552429199" lon="7.32158184051514"><ele></ele><time>2013-8-8T1:54:59Z</time></trkpt>
<trkpt lat="46.2662010192871" lon="7.32160902023315"><ele></ele><time>2013-8-8T1:55:2Z</time></trkpt>
<trkpt lat="46.2662162780762" lon="7.32161235809326"><ele></ele><time>2013-8-8T1:55:5Z</time></trkpt>
<trkpt lat="46.2662353515625" lon="7.3216233253479"><ele></ele><time>2013-8-8T1:55:8Z</time></trkpt>
<trkpt lat="46.2662658691406" lon="7.32163953781128"><ele></ele><time>2013-8-8T1:55:11Z</time></trkpt>
<trkpt lat="46.2663536071777" lon="7.32165288925171"><ele></ele><time>2013-8-8T1:55:14Z</time></trkpt>
<trkpt lat="46.2663726806641" lon="7.32164764404297"><ele></ele><time>2013-8-8T1:55:17Z</time></trkpt>
<trkpt lat="46.2663917541504" lon="7.32164478302002"><ele></ele><time>2013-8-8T1:55:20Z</time></trkpt>
<trkpt lat="46.2664108276367" lon="7.32163572311401"><ele></ele><time>2013-8-8T1:55:23Z</time></trkpt>
<trkpt lat="46.2664260864258" lon="7.32162189483643"><ele></ele><time>2013-8-8T1:55:26Z</time></trkpt>
<trkpt lat="46.2664451599121" lon="7.3216061592102"><ele></ele><time>2013-8-8T1:55:29Z</time></trkpt>
<trkpt lat="46.2664680480957" lon="7.32159185409546"><ele></ele><time>2013-8-8T1:55:32Z</time></trkpt>
<trkpt lat="46.266544342041" lon="7.32155466079712"><ele></ele><time>2013-8-8T1:55:35Z</time></trkpt>
<trkpt lat="46.2665786743164" lon="7.32153844833374"><ele></ele><time>2013-8-8T1:55:38Z</time></trkpt>
<trkpt lat="46.2665939331055" lon="7.32153129577637"><ele></ele><time>2013-8-8T1:55:41Z</time></trkpt>
<trkpt lat="46.2666130065918" lon="7.32152509689331"><ele></ele><time>2013-8-8T1:55:44Z</time></trkpt>
<trkpt lat="46.2666320800781" lon="7.32152080535889"><ele></ele><time>2013-8-8T1:55:47Z</time></trkpt>
<trkpt lat="46.2666473388672" lon="7.32151651382446"><ele></ele><time>2013-8-8T1:55:50Z</time></trkpt>
<trkpt lat="46.2667045593262" lon="7.32149791717529"><ele></ele><time>2013-8-8T1:55:53Z</time></trkpt>
<trkpt lat="46.2667198181152" lon="7.32149839401245"><ele></ele><time>2013-8-8T1:55:56Z</time></trkpt>
<trkpt lat="46.2667388916016" lon="7.3215012550354"><ele></ele><time>2013-8-8T1:55:59Z</time></trkpt>
<trkpt lat="46.2667579650879" lon="7.32149791717529"><ele></ele><time>2013-8-8T1:56:2Z</time></trkpt>
<trkpt lat="46.266773223877" lon="7.32150173187256"><ele></ele><time>2013-8-8T1:56:5Z</time></trkpt>
<trkpt lat="46.2668304443359" lon="7.32149028778076"><ele></ele><time>2013-8-8T1:56:8Z</time></trkpt>
<trkpt lat="46.2668647766113" lon="7.32148790359497"><ele></ele><time>2013-8-8T1:56:11Z</time></trkpt>
<trkpt lat="46.2668800354004" lon="7.3214955329895"><ele></ele><time>2013-8-8T1:56:14Z</time></trkpt>
<trkpt lat="46.2668991088867" lon="7.32150077819824"><ele></ele><time>2013-8-8T1:56:17Z</time></trkpt>
<trkpt lat="46.266918182373" lon="7.32150840759277"><ele></ele><time>2013-8-8T1:56:20Z</time></trkpt>
<trkpt lat="46.2669296264648" lon="7.32151365280151"><ele></ele><time>2013-8-8T1:56:23Z</time></trkpt>
<trkpt lat="46.266975402832" lon="7.32154273986816"><ele></ele><time>2013-8-8T1:56:26Z</time></trkpt>
<trkpt lat="46.2669944763184" lon="7.32156085968018"><ele></ele><time>2013-8-8T1:56:29Z</time></trkpt>
<trkpt lat="46.2670211791992" lon="7.32159042358398"><ele></ele><time>2013-8-8T1:56:32Z</time></trkpt>
<trkpt lat="46.2670555114746" lon="7.32162237167358"><ele></ele><time>2013-8-8T1:56:35Z</time></trkpt>
<trkpt lat="46.2670783996582" lon="7.32165145874024"><ele></ele><time>2013-8-8T1:56:38Z</time></trkpt>
<trkpt lat="46.2671012878418" lon="7.32167339324951"><ele></ele><time>2013-8-8T1:56:41Z</time></trkpt>
<trkpt lat="46.2671165466309" lon="7.32169342041016"><ele></ele><time>2013-8-8T1:56:44Z</time></trkpt>
<trkpt lat="46.2671661376953" lon="7.32174634933472"><ele></ele><time>2013-8-8T1:56:47Z</time></trkpt>
<trkpt lat="46.2671813964844" lon="7.32176446914673"><ele></ele><time>2013-8-8T1:56:50Z</time></trkpt>
<trkpt lat="46.2672004699707" lon="7.32178163528442"><ele></ele><time>2013-8-8T1:56:53Z</time></trkpt>
<trkpt lat="46.2672157287598" lon="7.32179403305054"><ele></ele><time>2013-8-8T1:56:56Z</time></trkpt>
<trkpt lat="46.2672309875488" lon="7.32180881500244"><ele></ele><time>2013-8-8T1:56:59Z</time></trkpt>
<trkpt lat="46.2672691345215" lon="7.32186222076416"><ele></ele><time>2013-8-8T1:57:2Z</time></trkpt>
<trkpt lat="46.2672958374023" lon="7.32190227508545"><ele></ele><time>2013-8-8T1:57:5Z</time></trkpt>
<trkpt lat="46.2673072814941" lon="7.32191896438599"><ele></ele><time>2013-8-8T1:57:8Z</time></trkpt>
<trkpt lat="46.2673225402832" lon="7.32193946838379"><ele></ele><time>2013-8-8T1:57:11Z</time></trkpt>
<trkpt lat="46.2673301696777" lon="7.32196140289307"><ele></ele><time>2013-8-8T1:57:14Z</time></trkpt>
<trkpt lat="46.2673416137695" lon="7.32198143005371"><ele></ele><time>2013-8-8T1:57:17Z</time></trkpt>
<trkpt lat="46.2673645019531" lon="7.32202053070068"><ele></ele><time>2013-8-8T1:57:20Z</time></trkpt>
<trkpt lat="46.2674140930176" lon="7.32210493087768"><ele></ele><time>2013-8-8T1:57:23Z</time></trkpt>
<trkpt lat="46.2674217224121" lon="7.32212543487549"><ele></ele><time>2013-8-8T1:57:26Z</time></trkpt>
<trkpt lat="46.2674331665039" lon="7.32214069366455"><ele></ele><time>2013-8-8T1:57:29Z</time></trkpt>
<trkpt lat="46.2674446105957" lon="7.32216358184814"><ele></ele><time>2013-8-8T1:57:32Z</time></trkpt>
<trkpt lat="46.2674598693848" lon="7.32217693328857"><ele></ele><time>2013-8-8T1:57:35Z</time></trkpt>
<trkpt lat="46.2674751281738" lon="7.3221845626831"><ele></ele><time>2013-8-8T1:57:38Z</time></trkpt>
<trkpt lat="46.2675514221191" lon="7.32227802276611"><ele></ele><time>2013-8-8T1:57:41Z</time></trkpt>
<trkpt lat="46.2675666809082" lon="7.32229995727539"><ele></ele><time>2013-8-8T1:57:44Z</time></trkpt>
<trkpt lat="46.267578125" lon="7.32232093811035"><ele></ele><time>2013-8-8T1:57:47Z</time></trkpt>
<trkpt lat="46.2675933837891" lon="7.32235240936279"><ele></ele><time>2013-8-8T1:57:50Z</time></trkpt>
<trkpt lat="46.2676086425781" lon="7.32236671447754"><ele></ele><time>2013-8-8T1:57:53Z</time></trkpt>
<trkpt lat="46.2676277160644" lon="7.32238483428955"><ele></ele><time>2013-8-8T1:57:56Z</time></trkpt>
<trkpt lat="46.2676429748535" lon="7.3224081993103"><ele></ele><time>2013-8-8T1:57:59Z</time></trkpt>
<trkpt lat="46.2676811218262" lon="7.32247543334961"><ele></ele><time>2013-8-8T1:58:2Z</time></trkpt>
<trkpt lat="46.267692565918" lon="7.32249736785889"><ele></ele><time>2013-8-8T1:58:5Z</time></trkpt>
<trkpt lat="46.2677040100098" lon="7.32252311706543"><ele></ele><time>2013-8-8T1:58:8Z</time></trkpt>
<trkpt lat="46.2677192687988" lon="7.32254028320312"><ele></ele><time>2013-8-8T1:58:11Z</time></trkpt>
<trkpt lat="46.2677345275879" lon="7.3225679397583"><ele></ele><time>2013-8-8T1:58:14Z</time></trkpt>
<trkpt lat="46.267749786377" lon="7.32258653640747"><ele></ele><time>2013-8-8T1:58:17Z</time></trkpt>
<trkpt lat="46.2678527832031" lon="7.32265901565552"><ele></ele><time>2013-8-8T1:58:20Z</time></trkpt>
<trkpt lat="46.267879486084" lon="7.32267665863037"><ele></ele><time>2013-8-8T1:58:23Z</time></trkpt>
<trkpt lat="46.2678985595703" lon="7.32269382476807"><ele></ele><time>2013-8-8T1:58:26Z</time></trkpt>
<trkpt lat="46.2679176330566" lon="7.32270431518555"><ele></ele><time>2013-8-8T1:58:29Z</time></trkpt>
<trkpt lat="46.2679595947266" lon="7.32272052764893"><ele></ele><time>2013-8-8T1:58:32Z</time></trkpt>
<trkpt lat="46.2680549621582" lon="7.32276201248169"><ele></ele><time>2013-8-8T1:58:35Z</time></trkpt>
<trkpt lat="46.2680778503418" lon="7.32276105880737"><ele></ele><time>2013-8-8T1:58:38Z</time></trkpt>
<trkpt lat="46.2681083679199" lon="7.32276010513306"><ele></ele><time>2013-8-8T1:58:41Z</time></trkpt>
<trkpt lat="46.2681312561035" lon="7.32276439666748"><ele></ele><time>2013-8-8T1:58:44Z</time></trkpt>
<trkpt lat="46.2681503295898" lon="7.32276964187622"><ele></ele><time>2013-8-8T1:58:47Z</time></trkpt>
<trkpt lat="46.2682189941406" lon="7.32278156280518"><ele></ele><time>2013-8-8T1:58:50Z</time></trkpt>
<trkpt lat="46.2682838439941" lon="7.3228006362915"><ele></ele><time>2013-8-8T1:58:53Z</time></trkpt>
<trkpt lat="46.2683029174805" lon="7.32281112670898"><ele></ele><time>2013-8-8T1:58:56Z</time></trkpt>
<trkpt lat="46.2683258056641" lon="7.32281494140625"><ele></ele><time>2013-8-8T1:58:59Z</time></trkpt>
<trkpt lat="46.2683448791504" lon="7.32281970977783"><ele></ele><time>2013-8-8T1:59:2Z</time></trkpt>
<trkpt lat="46.2683639526367" lon="7.32283210754394"><ele></ele><time>2013-8-8T1:59:5Z</time></trkpt>
<trkpt lat="46.268424987793" lon="7.32288980484009"><ele></ele><time>2013-8-8T1:59:8Z</time></trkpt>
<trkpt lat="46.2684440612793" lon="7.3229022026062"><ele></ele><time>2013-8-8T1:59:11Z</time></trkpt>
<trkpt lat="46.2684593200684" lon="7.322922706604"><ele></ele><time>2013-8-8T1:59:14Z</time></trkpt>
<trkpt lat="46.2684783935547" lon="7.32294511795044"><ele></ele><time>2013-8-8T1:59:17Z</time></trkpt>
<trkpt lat="46.268497467041" lon="7.32296895980835"><ele></ele><time>2013-8-8T1:59:20Z</time></trkpt>
<trkpt lat="46.2685127258301" lon="7.3229923248291"><ele></ele><time>2013-8-8T1:59:23Z</time></trkpt>
<trkpt lat="46.2686157226562" lon="7.32312726974487"><ele></ele><time>2013-8-8T1:59:26Z</time></trkpt>
<trkpt lat="46.2686347961426" lon="7.32314968109131"><ele></ele><time>2013-8-8T1:59:29Z</time></trkpt>
<trkpt lat="46.2686538696289" lon="7.32317352294922"><ele></ele><time>2013-8-8T1:59:32Z</time></trkpt>
<trkpt lat="46.268669128418" lon="7.32319641113281"><ele></ele><time>2013-8-8T1:59:35Z</time></trkpt>
<trkpt lat="46.268684387207" lon="7.32321977615356"><ele></ele><time>2013-8-8T1:59:38Z</time></trkpt>
<trkpt lat="46.2687721252441" lon="7.32336139678955"><ele></ele><time>2013-8-8T1:59:41Z</time></trkpt>
<trkpt lat="46.2687835693359" lon="7.32338619232178"><ele></ele><time>2013-8-8T1:59:44Z</time></trkpt>
<trkpt lat="46.2687950134277" lon="7.3234076499939"><ele></ele><time>2013-8-8T1:59:47Z</time></trkpt>
<trkpt lat="46.2688064575195" lon="7.32343435287476"><ele></ele><time>2013-8-8T1:59:50Z</time></trkpt>
<trkpt lat="46.2688179016113" lon="7.32346105575562"><ele></ele><time>2013-8-8T1:59:53Z</time></trkpt>
<trkpt lat="46.2688636779785" lon="7.32352781295776"><ele></ele><time>2013-8-8T1:59:56Z</time></trkpt>
<trkpt lat="46.2688751220703" lon="7.32355451583862"><ele></ele><time>2013-8-8T1:59:59Z</time></trkpt>
<trkpt lat="46.2688865661621" lon="7.32357835769653"><ele></ele><time>2013-8-8T2:0:2Z</time></trkpt>
<trkpt lat="46.2689018249512" lon="7.32360363006592"><ele></ele><time>2013-8-8T2:0:5Z</time></trkpt>
<trkpt lat="46.2689170837402" lon="7.32362651824951"><ele></ele><time>2013-8-8T2:0:8Z</time></trkpt>
<trkpt lat="46.268928527832" lon="7.32364749908447"><ele></ele><time>2013-8-8T2:0:11Z</time></trkpt>
<trkpt lat="46.2689514160156" lon="7.32368755340576"><ele></ele><time>2013-8-8T2:0:14Z</time></trkpt>
<trkpt lat="46.2689743041992" lon="7.32372331619263"><ele></ele><time>2013-8-8T2:0:17Z</time></trkpt>
<trkpt lat="46.2689933776856" lon="7.32373905181885"><ele></ele><time>2013-8-8T2:0:20Z</time></trkpt>
<trkpt lat="46.2690086364746" lon="7.32375860214233"><ele></ele><time>2013-8-8T2:0:23Z</time></trkpt>
<trkpt lat="46.2690238952637" lon="7.3237771987915"><ele></ele><time>2013-8-8T2:0:26Z</time></trkpt>
<trkpt lat="46.26904296875" lon="7.32379198074341"><ele></ele><time>2013-8-8T2:0:29Z</time></trkpt>
<trkpt lat="46.2690925598144" lon="7.32383441925049"><ele></ele><time>2013-8-8T2:0:32Z</time></trkpt>
<trkpt lat="46.2691078186035" lon="7.32385301589966"><ele></ele><time>2013-8-8T2:0:35Z</time></trkpt>
<trkpt lat="46.2691230773926" lon="7.32386589050293"><ele></ele><time>2013-8-8T2:0:38Z</time></trkpt>
<trkpt lat="46.2691421508789" lon="7.32387638092041"><ele></ele><time>2013-8-8T2:0:41Z</time></trkpt>
<trkpt lat="46.2691650390625" lon="7.32388734817505"><ele></ele><time>2013-8-8T2:0:44Z</time></trkpt>
<trkpt lat="46.2691917419434" lon="7.32388687133789"><ele></ele><time>2013-8-8T2:0:47Z</time></trkpt>
<trkpt lat="46.2692909240723" lon="7.32388782501221"><ele></ele><time>2013-8-8T2:0:50Z</time></trkpt>
<trkpt lat="46.2693099975586" lon="7.32388734817505"><ele></ele><time>2013-8-8T2:0:53Z</time></trkpt>
<trkpt lat="46.2693290710449" lon="7.32388353347778"><ele></ele><time>2013-8-8T2:0:56Z</time></trkpt>
<trkpt lat="46.2693519592285" lon="7.32388019561768"><ele></ele><time>2013-8-8T2:0:59Z</time></trkpt>
<trkpt lat="46.2693710327148" lon="7.32387542724609"><ele></ele><time>2013-8-8T2:1:2Z</time></trkpt>
<trkpt lat="46.2694282531738" lon="7.32384872436524"><ele></ele><time>2013-8-8T2:1:5Z</time></trkpt>
<trkpt lat="46.2694664001465" lon="7.32384204864502"><ele></ele><time>2013-8-8T2:1:8Z</time></trkpt>
<trkpt lat="46.2694892883301" lon="7.32383966445923"><ele></ele><time>2013-8-8T2:1:11Z</time></trkpt>
<trkpt lat="46.2695083618164" lon="7.3238353729248"><ele></ele><time>2013-8-8T2:1:14Z</time></trkpt>
<trkpt lat="46.2695236206055" lon="7.32383060455322"><ele></ele><time>2013-8-8T2:1:17Z</time></trkpt>
<trkpt lat="46.2695426940918" lon="7.32382535934448"><ele></ele><time>2013-8-8T2:1:20Z</time></trkpt>
<trkpt lat="46.2696380615234" lon="7.32381725311279"><ele></ele><time>2013-8-8T2:1:23Z</time></trkpt>
<trkpt lat="46.2696571350098" lon="7.32381963729858"><ele></ele><time>2013-8-8T2:1:26Z</time></trkpt>
<trkpt lat="46.2696800231934" lon="7.32382345199585"><ele></ele><time>2013-8-8T2:1:29Z</time></trkpt>
<trkpt lat="46.269702911377" lon="7.32382249832153"><ele></ele><time>2013-8-8T2:1:32Z</time></trkpt>
<trkpt lat="46.2697830200195" lon="7.32385206222534"><ele></ele><time>2013-8-8T2:1:35Z</time></trkpt>
<trkpt lat="46.2698059082031" lon="7.32386445999146"><ele></ele><time>2013-8-8T2:1:38Z</time></trkpt>
<trkpt lat="46.2698211669922" lon="7.32388257980347"><ele></ele><time>2013-8-8T2:1:41Z</time></trkpt>
<trkpt lat="46.2698402404785" lon="7.32389688491821"><ele></ele><time>2013-8-8T2:1:44Z</time></trkpt>
<trkpt lat="46.2698554992676" lon="7.32390880584717"><ele></ele><time>2013-8-8T2:1:47Z</time></trkpt>
<trkpt lat="46.2698707580566" lon="7.32391786575317"><ele></ele><time>2013-8-8T2:1:50Z</time></trkpt>
<trkpt lat="46.2699317932129" lon="7.3239369392395"><ele></ele><time>2013-8-8T2:1:53Z</time></trkpt>
<trkpt lat="46.2699508666992" lon="7.32393789291382"><ele></ele><time>2013-8-8T2:1:56Z</time></trkpt>
<trkpt lat="46.2699661254883" lon="7.32393741607666"><ele></ele><time>2013-8-8T2:1:59Z</time></trkpt>
<trkpt lat="46.2699813842773" lon="7.3239369392395"><ele></ele><time>2013-8-8T2:2:2Z</time></trkpt>
<trkpt lat="46.2699966430664" lon="7.32393503189087"><ele></ele><time>2013-8-8T2:2:5Z</time></trkpt>
<trkpt lat="46.2700386047363" lon="7.32391691207886"><ele></ele><time>2013-8-8T2:2:8Z</time></trkpt>
<trkpt lat="46.2701072692871" lon="7.32384157180786"><ele></ele><time>2013-8-8T2:2:11Z</time></trkpt>
<trkpt lat="46.2701759338379" lon="7.32367563247681"><ele></ele><time>2013-8-8T2:2:14Z</time></trkpt>
<trkpt lat="46.2701873779297" lon="7.3236403465271"><ele></ele><time>2013-8-8T2:2:17Z</time></trkpt>
<trkpt lat="46.270206451416" lon="7.32357311248779"><ele></ele><time>2013-8-8T2:2:20Z</time></trkpt>
<trkpt lat="46.2702178955078" lon="7.32354211807251"><ele></ele><time>2013-8-8T2:2:23Z</time></trkpt>
<trkpt lat="46.2702217102051" lon="7.32350969314575"><ele></ele><time>2013-8-8T2:2:26Z</time></trkpt>
<trkpt lat="46.2702331542969" lon="7.32347774505615"><ele></ele><time>2013-8-8T2:2:29Z</time></trkpt>
<trkpt lat="46.2702407836914" lon="7.32344341278076"><ele></ele><time>2013-8-8T2:2:32Z</time></trkpt>
<trkpt lat="46.2702484130859" lon="7.32341241836548"><ele></ele><time>2013-8-8T2:2:35Z</time></trkpt>
<trkpt lat="46.2702980041504" lon="7.32316827774048"><ele></ele><time>2013-8-8T2:2:38Z</time></trkpt>
<trkpt lat="46.2703170776367" lon="7.32309150695801"><ele></ele><time>2013-8-8T2:2:41Z</time></trkpt>
<trkpt lat="46.2703247070312" lon="7.32306051254272"><ele></ele><time>2013-8-8T2:2:44Z</time></trkpt>
<trkpt lat="46.2703323364258" lon="7.32302331924438"><ele></ele><time>2013-8-8T2:2:47Z</time></trkpt>
<trkpt lat="46.2703437805176" lon="7.32299137115478"><ele></ele><time>2013-8-8T2:2:50Z</time></trkpt>
<trkpt lat="46.2703628540039" lon="7.32296514511108"><ele></ele><time>2013-8-8T2:2:53Z</time></trkpt>
<trkpt lat="46.270378112793" lon="7.32294178009033"><ele></ele><time>2013-8-8T2:2:56Z</time></trkpt>
<trkpt lat="46.2704696655273" lon="7.32275581359863"><ele></ele><time>2013-8-8T2:2:59Z</time></trkpt>
<trkpt lat="46.2704887390137" lon="7.32273244857788"><ele></ele><time>2013-8-8T2:3:2Z</time></trkpt>
<trkpt lat="46.2705116271973" lon="7.32270860671997"><ele></ele><time>2013-8-8T2:3:5Z</time></trkpt>
<trkpt lat="46.2705268859863" lon="7.32268762588501"><ele></ele><time>2013-8-8T2:3:8Z</time></trkpt>
<trkpt lat="46.2705421447754" lon="7.32266855239868"><ele></ele><time>2013-8-8T2:3:11Z</time></trkpt>
<trkpt lat="46.2706336975098" lon="7.3225908279419"><ele></ele><time>2013-8-8T2:3:14Z</time></trkpt>
<trkpt lat="46.2706756591797" lon="7.32255363464356"><ele></ele><time>2013-8-8T2:3:17Z</time></trkpt>
<trkpt lat="46.270694732666" lon="7.32253742218018"><ele></ele><time>2013-8-8T2:3:20Z</time></trkpt>
<trkpt lat="46.2707138061523" lon="7.32251596450806"><ele></ele><time>2013-8-8T2:3:23Z</time></trkpt>
<trkpt lat="46.2707328796387" lon="7.32249975204468"><ele></ele><time>2013-8-8T2:3:26Z</time></trkpt>
<trkpt lat="46.2707481384277" lon="7.32248067855835"><ele></ele><time>2013-8-8T2:3:29Z</time></trkpt>
<trkpt lat="46.2707862854004" lon="7.32244062423706"><ele></ele><time>2013-8-8T2:3:32Z</time></trkpt>
<trkpt lat="46.2708206176758" lon="7.32239198684692"><ele></ele><time>2013-8-8T2:3:35Z</time></trkpt>
<trkpt lat="46.2708320617676" lon="7.32236385345459"><ele></ele><time>2013-8-8T2:3:38Z</time></trkpt>
<trkpt lat="46.2708473205566" lon="7.32233762741089"><ele></ele><time>2013-8-8T2:3:41Z</time></trkpt>
<trkpt lat="46.2708587646484" lon="7.3223066329956"><ele></ele><time>2013-8-8T2:3:44Z</time></trkpt>
<trkpt lat="46.2708625793457" lon="7.32227373123169"><ele></ele><time>2013-8-8T2:3:47Z</time></trkpt>
<trkpt lat="46.270866394043" lon="7.32222175598144"><ele></ele><time>2013-8-8T2:3:50Z</time></trkpt>
<trkpt lat="46.2708473205566" lon="7.32213497161865"><ele></ele><time>2013-8-8T2:3:53Z</time></trkpt>
<trkpt lat="46.2708358764648" lon="7.32210540771484"><ele></ele><time>2013-8-8T2:3:56Z</time></trkpt>
<trkpt lat="46.2708282470703" lon="7.32208395004272"><ele></ele><time>2013-8-8T2:3:59Z</time></trkpt>
<trkpt lat="46.2708206176758" lon="7.32206153869629"><ele></ele><time>2013-8-8T2:4:2Z</time></trkpt>
<trkpt lat="46.270809173584" lon="7.32203722000122"><ele></ele><time>2013-8-8T2:4:5Z</time></trkpt>
<trkpt lat="46.2707977294922" lon="7.32201147079468"><ele></ele><time>2013-8-8T2:4:8Z</time></trkpt>
<trkpt lat="46.2707862854004" lon="7.3219895362854"><ele></ele><time>2013-8-8T2:4:11Z</time></trkpt>
<trkpt lat="46.2704200744629" lon="7.32111406326294"><ele></ele><time>2013-8-8T2:4:14Z</time></trkpt>
<trkpt lat="46.2704277038574" lon="7.32109928131104"><ele></ele><time>2013-8-8T2:4:17Z</time></trkpt>
<trkpt lat="46.2704200744629" lon="7.32107353210449"><ele></ele><time>2013-8-8T2:4:20Z</time></trkpt>
<trkpt lat="46.2704162597656" lon="7.3210506439209"><ele></ele><time>2013-8-8T2:4:23Z</time></trkpt>
<trkpt lat="46.2704124450684" lon="7.32102394104004"><ele></ele><time>2013-8-8T2:4:26Z</time></trkpt>
<trkpt lat="46.2703971862793" lon="7.32088899612427"><ele></ele><time>2013-8-8T2:4:29Z</time></trkpt>
<trkpt lat="46.2703895568848" lon="7.32086706161499"><ele></ele><time>2013-8-8T2:4:32Z</time></trkpt>
<trkpt lat="46.2703857421875" lon="7.32084941864014"><ele></ele><time>2013-8-8T2:4:35Z</time></trkpt>
<trkpt lat="46.2703704833984" lon="7.32083225250244"><ele></ele><time>2013-8-8T2:4:38Z</time></trkpt>
<trkpt lat="46.2703399658203" lon="7.32080507278442"><ele></ele><time>2013-8-8T2:4:41Z</time></trkpt>
<trkpt lat="46.2702941894531" lon="7.32073640823364"><ele></ele><time>2013-8-8T2:4:44Z</time></trkpt>
<trkpt lat="46.2701225280762" lon="7.32057571411133"><ele></ele><time>2013-8-8T2:4:47Z</time></trkpt>
<trkpt lat="46.2700843811035" lon="7.3205885887146"><ele></ele><time>2013-8-8T2:4:50Z</time></trkpt>
<trkpt lat="46.2700462341309" lon="7.32060527801514"><ele></ele><time>2013-8-8T2:4:53Z</time></trkpt>
<trkpt lat="46.2700157165527" lon="7.32060766220093"><ele></ele><time>2013-8-8T2:4:56Z</time></trkpt>
<trkpt lat="46.2699851989746" lon="7.32061243057251"><ele></ele><time>2013-8-8T2:4:59Z</time></trkpt>
<trkpt lat="46.2698974609375" lon="7.32062149047852"><ele></ele><time>2013-8-8T2:5:2Z</time></trkpt>
<trkpt lat="46.2698173522949" lon="7.32062387466431"><ele></ele><time>2013-8-8T2:5:5Z</time></trkpt>
<trkpt lat="46.2697906494141" lon="7.32061958312988"><ele></ele><time>2013-8-8T2:5:8Z</time></trkpt>
<trkpt lat="46.2697677612305" lon="7.32062292098999"><ele></ele><time>2013-8-8T2:5:11Z</time></trkpt>
<trkpt lat="46.2697410583496" lon="7.32062005996704"><ele></ele><time>2013-8-8T2:5:14Z</time></trkpt>
<trkpt lat="46.2697143554688" lon="7.32062292098999"><ele></ele><time>2013-8-8T2:5:17Z</time></trkpt>
<trkpt lat="46.2696189880371" lon="7.32060956954956"><ele></ele><time>2013-8-8T2:5:20Z</time></trkpt>
<trkpt lat="46.2695960998535" lon="7.32060241699219"><ele></ele><time>2013-8-8T2:5:23Z</time></trkpt>
<trkpt lat="46.2695732116699" lon="7.32058668136597"><ele></ele><time>2013-8-8T2:5:26Z</time></trkpt>
<trkpt lat="46.2695541381836" lon="7.32057046890259"><ele></ele><time>2013-8-8T2:5:29Z</time></trkpt>
<trkpt lat="46.2695350646973" lon="7.32056188583374"><ele></ele><time>2013-8-8T2:5:32Z</time></trkpt>
<trkpt lat="46.2695159912109" lon="7.32054615020752"><ele></ele><time>2013-8-8T2:5:35Z</time></trkpt>
<trkpt lat="46.2694664001465" lon="7.32049417495728"><ele></ele><time>2013-8-8T2:5:38Z</time></trkpt>
<trkpt lat="46.2693977355957" lon="7.32041454315186"><ele></ele><time>2013-8-8T2:5:41Z</time></trkpt>
<trkpt lat="46.2693824768066" lon="7.32039165496826"><ele></ele><time>2013-8-8T2:5:44Z</time></trkpt>
<trkpt lat="46.2693672180176" lon="7.32036828994751"><ele></ele><time>2013-8-8T2:5:47Z</time></trkpt>
<trkpt lat="46.2693557739258" lon="7.32034254074097"><ele></ele><time>2013-8-8T2:5:50Z</time></trkpt>
<trkpt lat="46.2693405151367" lon="7.3203125"><ele></ele><time>2013-8-8T2:5:53Z</time></trkpt>
<trkpt lat="46.2692832946777" lon="7.320228099823"><ele></ele><time>2013-8-8T2:5:56Z</time></trkpt>
<trkpt lat="46.2692604064941" lon="7.32018518447876"><ele></ele><time>2013-8-8T2:5:59Z</time></trkpt>
<trkpt lat="46.2692413330078" lon="7.32015800476074"><ele></ele><time>2013-8-8T2:6:2Z</time></trkpt>
<trkpt lat="46.2692222595215" lon="7.32013559341431"><ele></ele><time>2013-8-8T2:6:5Z</time></trkpt>
<trkpt lat="46.2692031860352" lon="7.32012128829956"><ele></ele><time>2013-8-8T2:6:8Z</time></trkpt>
<trkpt lat="46.2691802978516" lon="7.32009553909302"><ele></ele><time>2013-8-8T2:6:11Z</time></trkpt>
<trkpt lat="46.2691650390625" lon="7.32007312774658"><ele></ele><time>2013-8-8T2:6:14Z</time></trkpt>
<trkpt lat="46.2691459655762" lon="7.3200511932373"><ele></ele><time>2013-8-8T2:6:17Z</time></trkpt>
<trkpt lat="46.2690811157227" lon="7.31998682022095"><ele></ele><time>2013-8-8T2:6:20Z</time></trkpt>
<trkpt lat="46.2690620422363" lon="7.31996536254883"><ele></ele><time>2013-8-8T2:6:23Z</time></trkpt>
<trkpt lat="46.2690467834473" lon="7.31994485855102"><ele></ele><time>2013-8-8T2:6:26Z</time></trkpt>
<trkpt lat="46.2690238952637" lon="7.31992721557617"><ele></ele><time>2013-8-8T2:6:29Z</time></trkpt>
<trkpt lat="46.2690048217773" lon="7.31991338729858"><ele></ele><time>2013-8-8T2:6:32Z</time></trkpt>
<trkpt lat="46.2689895629883" lon="7.31989812850952"><ele></ele><time>2013-8-8T2:6:35Z</time></trkpt>
<trkpt lat="46.2689514160156" lon="7.31986141204834"><ele></ele><time>2013-8-8T2:6:38Z</time></trkpt>
<trkpt lat="46.2688674926758" lon="7.31979370117188"><ele></ele><time>2013-8-8T2:6:41Z</time></trkpt>
<trkpt lat="46.2688522338867" lon="7.31976938247681"><ele></ele><time>2013-8-8T2:6:44Z</time></trkpt>
<trkpt lat="46.2688369750977" lon="7.31974506378174"><ele></ele><time>2013-8-8T2:6:47Z</time></trkpt>
<trkpt lat="46.2688179016113" lon="7.3197226524353"><ele></ele><time>2013-8-8T2:6:50Z</time></trkpt>
<trkpt lat="46.2687950134277" lon="7.31969928741455"><ele></ele><time>2013-8-8T2:6:53Z</time></trkpt>
<trkpt lat="46.2687110900879" lon="7.31957530975342"><ele></ele><time>2013-8-8T2:6:56Z</time></trkpt>
<trkpt lat="46.2686996459961" lon="7.31954574584961"><ele></ele><time>2013-8-8T2:6:59Z</time></trkpt>
<trkpt lat="46.268684387207" lon="7.31951904296875"><ele></ele><time>2013-8-8T2:7:2Z</time></trkpt>
<trkpt lat="46.2686767578125" lon="7.3194899559021"><ele></ele><time>2013-8-8T2:7:5Z</time></trkpt>
<trkpt lat="46.2686614990234" lon="7.31946325302124"><ele></ele><time>2013-8-8T2:7:8Z</time></trkpt>
<trkpt lat="46.2686500549316" lon="7.31943273544312"><ele></ele><time>2013-8-8T2:7:11Z</time></trkpt>
<trkpt lat="46.2686386108398" lon="7.31940269470215"><ele></ele><time>2013-8-8T2:7:14Z</time></trkpt>
<trkpt lat="46.2685585021973" lon="7.31926965713501"><ele></ele><time>2013-8-8T2:7:17Z</time></trkpt>
<trkpt lat="46.2685432434082" lon="7.3192400932312"><ele></ele><time>2013-8-8T2:7:20Z</time></trkpt>
<trkpt lat="46.2685279846191" lon="7.31921100616455"><ele></ele><time>2013-8-8T2:7:23Z</time></trkpt>
<trkpt lat="46.2685165405273" lon="7.31918334960938"><ele></ele><time>2013-8-8T2:7:26Z</time></trkpt>
<trkpt lat="46.2684288024902" lon="7.3190746307373"><ele></ele><time>2013-8-8T2:7:29Z</time></trkpt>
<trkpt lat="46.2684059143066" lon="7.31905603408814"><ele></ele><time>2013-8-8T2:7:32Z</time></trkpt>
<trkpt lat="46.2683906555176" lon="7.31903409957886"><ele></ele><time>2013-8-8T2:7:35Z</time></trkpt>
<trkpt lat="46.2683715820312" lon="7.31901741027832"><ele></ele><time>2013-8-8T2:7:38Z</time></trkpt>
<trkpt lat="46.2683525085449" lon="7.31899452209473"><ele></ele><time>2013-8-8T2:7:41Z</time></trkpt>
<trkpt lat="46.2683334350586" lon="7.31897163391113"><ele></ele><time>2013-8-8T2:7:44Z</time></trkpt>
<trkpt lat="46.2682914733887" lon="7.31893301010132"><ele></ele><time>2013-8-8T2:7:47Z</time></trkpt>
<trkpt lat="46.2681617736816" lon="7.31880235671997"><ele></ele><time>2013-8-8T2:7:50Z</time></trkpt>
<trkpt lat="46.2681503295898" lon="7.31877613067627"><ele></ele><time>2013-8-8T2:7:53Z</time></trkpt>
<trkpt lat="46.2681427001953" lon="7.31873607635498"><ele></ele><time>2013-8-8T2:7:56Z</time></trkpt>
<trkpt lat="46.268138885498" lon="7.31869840621948"><ele></ele><time>2013-8-8T2:7:59Z</time></trkpt>
<trkpt lat="46.2681655883789" lon="7.31868028640747"><ele></ele><time>2013-8-8T2:8:2Z</time></trkpt>
<trkpt lat="46.2681922912598" lon="7.31867980957031"><ele></ele><time>2013-8-8T2:8:5Z</time></trkpt>
<trkpt lat="46.2682838439941" lon="7.3187747001648"><ele></ele><time>2013-8-8T2:8:8Z</time></trkpt>
<trkpt lat="46.2683067321777" lon="7.3187985420227"><ele></ele><time>2013-8-8T2:8:11Z</time></trkpt>
<trkpt lat="46.2683563232422" lon="7.31884717941284"><ele></ele><time>2013-8-8T2:8:14Z</time></trkpt>
<trkpt lat="46.2683715820312" lon="7.31887102127075"><ele></ele><time>2013-8-8T2:8:17Z</time></trkpt>
<trkpt lat="46.2683906555176" lon="7.31889963150024"><ele></ele><time>2013-8-8T2:8:20Z</time></trkpt>
<trkpt lat="46.2684059143066" lon="7.31892013549805"><ele></ele><time>2013-8-8T2:8:23Z</time></trkpt>
<trkpt lat="46.268424987793" lon="7.31894207000732"><ele></ele><time>2013-8-8T2:8:26Z</time></trkpt>
<trkpt lat="46.2685623168945" lon="7.31906414031982"><ele></ele><time>2013-8-8T2:8:29Z</time></trkpt>
<trkpt lat="46.2685775756836" lon="7.31908226013184"><ele></ele><time>2013-8-8T2:8:32Z</time></trkpt>
<trkpt lat="46.2685928344727" lon="7.31910419464111"><ele></ele><time>2013-8-8T2:8:35Z</time></trkpt>
<trkpt lat="46.268611907959" lon="7.31912231445312"><ele></ele><time>2013-8-8T2:8:38Z</time></trkpt>
<trkpt lat="46.268627166748" lon="7.31914234161377"><ele></ele><time>2013-8-8T2:8:41Z</time></trkpt>
<trkpt lat="46.2686653137207" lon="7.31918239593506"><ele></ele><time>2013-8-8T2:8:44Z</time></trkpt>
<trkpt lat="46.2687149047852" lon="7.31923341751099"><ele></ele><time>2013-8-8T2:8:47Z</time></trkpt>
<trkpt lat="46.2687377929688" lon="7.31924819946289"><ele></ele><time>2013-8-8T2:8:50Z</time></trkpt>
<trkpt lat="46.2687644958496" lon="7.31926441192627"><ele></ele><time>2013-8-8T2:8:53Z</time></trkpt>
<trkpt lat="46.2687835693359" lon="7.31927728652954"><ele></ele><time>2013-8-8T2:8:56Z</time></trkpt>
<trkpt lat="46.2688064575195" lon="7.31929111480713"><ele></ele><time>2013-8-8T2:8:59Z</time></trkpt>
<trkpt lat="46.2688293457031" lon="7.31930112838745"><ele></ele><time>2013-8-8T2:9:2Z</time></trkpt>
<trkpt lat="46.2688751220703" lon="7.31932592391968"><ele></ele><time>2013-8-8T2:9:5Z</time></trkpt>
<trkpt lat="46.2690124511719" lon="7.31941413879394"><ele></ele><time>2013-8-8T2:9:8Z</time></trkpt>
<trkpt lat="46.2690277099609" lon="7.31942558288574"><ele></ele><time>2013-8-8T2:9:11Z</time></trkpt>
<trkpt lat="46.26904296875" lon="7.31943845748901"><ele></ele><time>2013-8-8T2:9:14Z</time></trkpt>
<trkpt lat="46.2690582275391" lon="7.31945371627808"><ele></ele><time>2013-8-8T2:9:17Z</time></trkpt>
<trkpt lat="46.2690773010254" lon="7.31946611404419"><ele></ele><time>2013-8-8T2:9:20Z</time></trkpt>
<trkpt lat="46.2691192626953" lon="7.31949138641357"><ele></ele><time>2013-8-8T2:9:23Z</time></trkpt>
<trkpt lat="46.2691841125488" lon="7.31952142715454"><ele></ele><time>2013-8-8T2:9:26Z</time></trkpt>
<trkpt lat="46.2692031860352" lon="7.31953001022339"><ele></ele><time>2013-8-8T2:9:29Z</time></trkpt>
<trkpt lat="46.2692222595215" lon="7.31954288482666"><ele></ele><time>2013-8-8T2:9:32Z</time></trkpt>
<trkpt lat="46.2692413330078" lon="7.31955432891846"><ele></ele><time>2013-8-8T2:9:35Z</time></trkpt>
<trkpt lat="46.2692604064941" lon="7.31956338882446"><ele></ele><time>2013-8-8T2:9:38Z</time></trkpt>
<trkpt lat="46.269359588623" lon="7.31963014602661"><ele></ele><time>2013-8-8T2:9:41Z</time></trkpt>
<trkpt lat="46.2693977355957" lon="7.31965017318726"><ele></ele><time>2013-8-8T2:9:44Z</time></trkpt>
<trkpt lat="46.2694206237793" lon="7.31965827941894"><ele></ele><time>2013-8-8T2:9:47Z</time></trkpt>
<trkpt lat="46.2694396972656" lon="7.31966209411621"><ele></ele><time>2013-8-8T2:9:50Z</time></trkpt>
<trkpt lat="46.269458770752" lon="7.31965827941894"><ele></ele><time>2013-8-8T2:9:53Z</time></trkpt>
<trkpt lat="46.2694892883301" lon="7.31965589523315"><ele></ele><time>2013-8-8T2:9:56Z</time></trkpt>
<trkpt lat="46.2696189880371" lon="7.3196496963501"><ele></ele><time>2013-8-8T2:9:59Z</time></trkpt>
<trkpt lat="46.2696723937988" lon="7.31964349746704"><ele></ele><time>2013-8-8T2:10:2Z</time></trkpt>
<trkpt lat="46.2696990966797" lon="7.31963634490967"><ele></ele><time>2013-8-8T2:10:5Z</time></trkpt>
<trkpt lat="46.2697219848633" lon="7.31963014602661"><ele></ele><time>2013-8-8T2:10:8Z</time></trkpt>
<trkpt lat="46.2697448730469" lon="7.3196268081665"><ele></ele><time>2013-8-8T2:10:11Z</time></trkpt>
<trkpt lat="46.269775390625" lon="7.31961917877197"><ele></ele><time>2013-8-8T2:10:14Z</time></trkpt>
<trkpt lat="46.2698020935059" lon="7.31961059570312"><ele></ele><time>2013-8-8T2:10:17Z</time></trkpt>
<trkpt lat="46.2698783874512" lon="7.31960439682007"><ele></ele><time>2013-8-8T2:10:20Z</time></trkpt>
<trkpt lat="46.2699241638184" lon="7.31960535049438"><ele></ele><time>2013-8-8T2:10:23Z</time></trkpt>
<trkpt lat="46.2699508666992" lon="7.31961488723755"><ele></ele><time>2013-8-8T2:10:26Z</time></trkpt>
<trkpt lat="46.2699775695801" lon="7.3196234703064"><ele></ele><time>2013-8-8T2:10:29Z</time></trkpt>
<trkpt lat="46.2700004577637" lon="7.31963491439819"><ele></ele><time>2013-8-8T2:10:32Z</time></trkpt>
<trkpt lat="46.2700233459473" lon="7.31963920593262"><ele></ele><time>2013-8-8T2:10:35Z</time></trkpt>
<trkpt lat="46.2701148986816" lon="7.31968641281128"><ele></ele><time>2013-8-8T2:10:38Z</time></trkpt>
<trkpt lat="46.2701377868652" lon="7.31970548629761"><ele></ele><time>2013-8-8T2:10:41Z</time></trkpt>
<trkpt lat="46.2701606750488" lon="7.31972742080688"><ele></ele><time>2013-8-8T2:10:44Z</time></trkpt>
<trkpt lat="46.2701797485352" lon="7.31975078582764"><ele></ele><time>2013-8-8T2:10:47Z</time></trkpt>
<trkpt lat="46.2701988220215" lon="7.31977462768555"><ele></ele><time>2013-8-8T2:10:50Z</time></trkpt>
<trkpt lat="46.2702217102051" lon="7.31979846954346"><ele></ele><time>2013-8-8T2:10:53Z</time></trkpt>
<trkpt lat="46.2702827453613" lon="7.31985235214233"><ele></ele><time>2013-8-8T2:10:56Z</time></trkpt>
<trkpt lat="46.2703666687012" lon="7.31991767883301"><ele></ele><time>2013-8-8T2:10:59Z</time></trkpt>
<trkpt lat="46.2703857421875" lon="7.31993675231934"><ele></ele><time>2013-8-8T2:11:2Z</time></trkpt>
<trkpt lat="46.2704048156738" lon="7.31995534896851"><ele></ele><time>2013-8-8T2:11:5Z</time></trkpt>
<trkpt lat="46.2704277038574" lon="7.31996631622314"><ele></ele><time>2013-8-8T2:11:8Z</time></trkpt>
<trkpt lat="46.2704467773438" lon="7.31997871398926"><ele></ele><time>2013-8-8T2:11:11Z</time></trkpt>
<trkpt lat="46.2705955505371" lon="7.32003974914551"><ele></ele><time>2013-8-8T2:11:14Z</time></trkpt>
<trkpt lat="46.2706146240234" lon="7.32004737854004"><ele></ele><time>2013-8-8T2:11:17Z</time></trkpt>
<trkpt lat="46.2706336975098" lon="7.32006025314331"><ele></ele><time>2013-8-8T2:11:20Z</time></trkpt>
<trkpt lat="46.2706565856934" lon="7.32006359100342"><ele></ele><time>2013-8-8T2:11:23Z</time></trkpt>
<trkpt lat="46.270679473877" lon="7.32007074356079"><ele></ele><time>2013-8-8T2:11:26Z</time></trkpt>
<trkpt lat="46.2707405090332" lon="7.3200888633728"><ele></ele><time>2013-8-8T2:11:29Z</time></trkpt>
<trkpt lat="46.2707824707031" lon="7.32010650634766"><ele></ele><time>2013-8-8T2:11:32Z</time></trkpt>
<trkpt lat="46.2708015441894" lon="7.3201150894165"><ele></ele><time>2013-8-8T2:11:35Z</time></trkpt>
<trkpt lat="46.270824432373" lon="7.32012367248535"><ele></ele><time>2013-8-8T2:11:38Z</time></trkpt>
<trkpt lat="46.2708473205566" lon="7.32013511657715"><ele></ele><time>2013-8-8T2:11:41Z</time></trkpt>
<trkpt lat="46.2708702087402" lon="7.320143699646"><ele></ele><time>2013-8-8T2:11:44Z</time></trkpt>
<trkpt lat="46.2708892822266" lon="7.3201470375061"><ele></ele><time>2013-8-8T2:11:47Z</time></trkpt>
<trkpt lat="46.2709312438965" lon="7.32015180587768"><ele></ele><time>2013-8-8T2:11:50Z</time></trkpt>
<trkpt lat="46.2709541320801" lon="7.32015800476074"><ele></ele><time>2013-8-8T2:11:53Z</time></trkpt>
<trkpt lat="46.2710037231445" lon="7.32017374038696"><ele></ele><time>2013-8-8T2:11:56Z</time></trkpt>
<trkpt lat="46.2710266113281" lon="7.32018327713013"><ele></ele><time>2013-8-8T2:11:59Z</time></trkpt>
<trkpt lat="46.2710494995117" lon="7.32019281387329"><ele></ele><time>2013-8-8T2:12:2Z</time></trkpt>
<trkpt lat="46.271068572998" lon="7.32019948959351"><ele></ele><time>2013-8-8T2:12:5Z</time></trkpt>
<trkpt lat="46.2710914611816" lon="7.3202075958252"><ele></ele><time>2013-8-8T2:12:8Z</time></trkpt>
<trkpt lat="46.271110534668" lon="7.32022142410278"><ele></ele><time>2013-8-8T2:12:11Z</time></trkpt>
<trkpt lat="46.2711486816406" lon="7.32023668289185"><ele></ele><time>2013-8-8T2:12:14Z</time></trkpt>
<trkpt lat="46.2711715698242" lon="7.32024574279785"><ele></ele><time>2013-8-8T2:12:17Z</time></trkpt>
<trkpt lat="46.2712326049805" lon="7.32027053833008"><ele></ele><time>2013-8-8T2:12:20Z</time></trkpt>
<trkpt lat="46.2712478637695" lon="7.32028388977051"><ele></ele><time>2013-8-8T2:12:23Z</time></trkpt>
<trkpt lat="46.2712669372559" lon="7.32028198242188"><ele></ele><time>2013-8-8T2:12:26Z</time></trkpt>
<trkpt lat="46.2712860107422" lon="7.3202919960022"><ele></ele><time>2013-8-8T2:12:29Z</time></trkpt>
<trkpt lat="46.2713012695312" lon="7.32029247283936"><ele></ele><time>2013-8-8T2:12:32Z</time></trkpt>
<trkpt lat="46.2713241577148" lon="7.32029438018799"><ele></ele><time>2013-8-8T2:12:35Z</time></trkpt>
<trkpt lat="46.2714157104492" lon="7.32026624679565"><ele></ele><time>2013-8-8T2:12:38Z</time></trkpt>
<trkpt lat="46.2714538574219" lon="7.32023859024048"><ele></ele><time>2013-8-8T2:12:41Z</time></trkpt>
<trkpt lat="46.2714767456055" lon="7.32022285461426"><ele></ele><time>2013-8-8T2:12:44Z</time></trkpt>
<trkpt lat="46.2714996337891" lon="7.32020807266235"><ele></ele><time>2013-8-8T2:12:47Z</time></trkpt>
<trkpt lat="46.2715263366699" lon="7.32019662857056"><ele></ele><time>2013-8-8T2:12:50Z</time></trkpt>
<trkpt lat="46.2715492248535" lon="7.32018041610718"><ele></ele><time>2013-8-8T2:12:53Z</time></trkpt>
<trkpt lat="46.2716941833496" lon="7.3201379776001"><ele></ele><time>2013-8-8T2:12:56Z</time></trkpt>
<trkpt lat="46.2717208862305" lon="7.3201494216919"><ele></ele><time>2013-8-8T2:12:59Z</time></trkpt>
<trkpt lat="46.2717437744141" lon="7.32016229629517"><ele></ele><time>2013-8-8T2:13:2Z</time></trkpt>
<trkpt lat="46.2717704772949" lon="7.32016849517822"><ele></ele><time>2013-8-8T2:13:5Z</time></trkpt>
<trkpt lat="46.271800994873" lon="7.3201789855957"><ele></ele><time>2013-8-8T2:13:8Z</time></trkpt>
<trkpt lat="46.2718238830566" lon="7.32019233703613"><ele></ele><time>2013-8-8T2:13:11Z</time></trkpt>
<trkpt lat="46.2718467712402" lon="7.32020473480225"><ele></ele><time>2013-8-8T2:13:14Z</time></trkpt>
<trkpt lat="46.2718658447266" lon="7.32021474838257"><ele></ele><time>2013-8-8T2:13:17Z</time></trkpt>
<trkpt lat="46.2718887329102" lon="7.32022762298584"><ele></ele><time>2013-8-8T2:13:20Z</time></trkpt>
<trkpt lat="46.2719306945801" lon="7.32025146484375"><ele></ele><time>2013-8-8T2:13:23Z</time></trkpt>
<trkpt lat="46.2719497680664" lon="7.3202657699585"><ele></ele><time>2013-8-8T2:13:26Z</time></trkpt>
<trkpt lat="46.27197265625" lon="7.32028102874756"><ele></ele><time>2013-8-8T2:13:29Z</time></trkpt>
<trkpt lat="46.2719879150391" lon="7.32029628753662"><ele></ele><time>2013-8-8T2:13:32Z</time></trkpt>
<trkpt lat="46.2720069885254" lon="7.32031345367432"><ele></ele><time>2013-8-8T2:13:35Z</time></trkpt>
<trkpt lat="46.2720260620117" lon="7.32033205032349"><ele></ele><time>2013-8-8T2:13:38Z</time></trkpt>
<trkpt lat="46.272045135498" lon="7.32034969329834"><ele></ele><time>2013-8-8T2:13:41Z</time></trkpt>
<trkpt lat="46.2720909118652" lon="7.32038879394531"><ele></ele><time>2013-8-8T2:13:44Z</time></trkpt>
<trkpt lat="46.2721099853516" lon="7.32040739059448"><ele></ele><time>2013-8-8T2:13:47Z</time></trkpt>
<trkpt lat="46.2721252441406" lon="7.32042503356934"><ele></ele><time>2013-8-8T2:13:50Z</time></trkpt>
<trkpt lat="46.272144317627" lon="7.32044839859009"><ele></ele><time>2013-8-8T2:13:53Z</time></trkpt>
<trkpt lat="46.272159576416" lon="7.32046985626221"><ele></ele><time>2013-8-8T2:13:56Z</time></trkpt>
<trkpt lat="46.2721748352051" lon="7.32049751281738"><ele></ele><time>2013-8-8T2:13:59Z</time></trkpt>
<trkpt lat="46.2721939086914" lon="7.32051658630371"><ele></ele><time>2013-8-8T2:14:2Z</time></trkpt>
<trkpt lat="46.2722511291504" lon="7.32057476043701"><ele></ele><time>2013-8-8T2:14:5Z</time></trkpt>
<trkpt lat="46.2723121643066" lon="7.32063341140747"><ele></ele><time>2013-8-8T2:14:8Z</time></trkpt>
<trkpt lat="46.2723350524902" lon="7.32065057754517"><ele></ele><time>2013-8-8T2:14:11Z</time></trkpt>
<trkpt lat="46.2723579406738" lon="7.32067155838013"><ele></ele><time>2013-8-8T2:14:14Z</time></trkpt>
<trkpt lat="46.2723808288574" lon="7.32068967819214"><ele></ele><time>2013-8-8T2:14:17Z</time></trkpt>
<trkpt lat="46.2724800109863" lon="7.32077121734619"><ele></ele><time>2013-8-8T2:14:20Z</time></trkpt>
<trkpt lat="46.2725296020508" lon="7.32082223892212"><ele></ele><time>2013-8-8T2:14:23Z</time></trkpt>
<trkpt lat="46.2725486755371" lon="7.32083463668823"><ele></ele><time>2013-8-8T2:14:26Z</time></trkpt>
<trkpt lat="46.2725639343262" lon="7.32085418701172"><ele></ele><time>2013-8-8T2:14:29Z</time></trkpt>
<trkpt lat="46.272575378418" lon="7.32087469100952"><ele></ele><time>2013-8-8T2:14:32Z</time></trkpt>
<trkpt lat="46.2725868225098" lon="7.32089281082153"><ele></ele><time>2013-8-8T2:14:35Z</time></trkpt>
<trkpt lat="46.2726135253906" lon="7.32092142105102"><ele></ele><time>2013-8-8T2:14:38Z</time></trkpt>
<trkpt lat="46.2727127075195" lon="7.32100343704224"><ele></ele><time>2013-8-8T2:14:41Z</time></trkpt>
<trkpt lat="46.2727355957031" lon="7.32102298736572"><ele></ele><time>2013-8-8T2:14:44Z</time></trkpt>
<trkpt lat="46.2727584838867" lon="7.32103586196899"><ele></ele><time>2013-8-8T2:14:47Z</time></trkpt>
<trkpt lat="46.2727813720703" lon="7.32105016708374"><ele></ele><time>2013-8-8T2:14:50Z</time></trkpt>
<trkpt lat="46.2727966308594" lon="7.32105779647827"><ele></ele><time>2013-8-8T2:14:53Z</time></trkpt>
<trkpt lat="46.2728157043457" lon="7.32107543945312"><ele></ele><time>2013-8-8T2:14:56Z</time></trkpt>
<trkpt lat="46.2728424072266" lon="7.32108402252197"><ele></ele><time>2013-8-8T2:14:59Z</time></trkpt>
<trkpt lat="46.2728843688965" lon="7.32111597061157"><ele></ele><time>2013-8-8T2:15:2Z</time></trkpt>
<trkpt lat="46.2729301452637" lon="7.32115411758423"><ele></ele><time>2013-8-8T2:15:5Z</time></trkpt>
<trkpt lat="46.2729530334473" lon="7.32117176055908"><ele></ele><time>2013-8-8T2:15:8Z</time></trkpt>
<trkpt lat="46.2729759216309" lon="7.32119226455688"><ele></ele><time>2013-8-8T2:15:11Z</time></trkpt>
<trkpt lat="46.2729949951172" lon="7.32121181488037"><ele></ele><time>2013-8-8T2:15:14Z</time></trkpt>
<trkpt lat="46.2730140686035" lon="7.32122707366943"><ele></ele><time>2013-8-8T2:15:17Z</time></trkpt>
<trkpt lat="46.2731437683106" lon="7.32133960723877"><ele></ele><time>2013-8-8T2:15:20Z</time></trkpt>
<trkpt lat="46.2731628417969" lon="7.32135820388794"><ele></ele><time>2013-8-8T2:15:23Z</time></trkpt>
<trkpt lat="46.2731781005859" lon="7.3213791847229"><ele></ele><time>2013-8-8T2:15:26Z</time></trkpt>
<trkpt lat="46.2731971740723" lon="7.32139348983765"><ele></ele><time>2013-8-8T2:15:29Z</time></trkpt>
<trkpt lat="46.2732162475586" lon="7.32141399383545"><ele></ele><time>2013-8-8T2:15:32Z</time></trkpt>
<trkpt lat="46.2732810974121" lon="7.32149791717529"><ele></ele><time>2013-8-8T2:15:35Z</time></trkpt>
<trkpt lat="46.2733306884766" lon="7.32156324386597"><ele></ele><time>2013-8-8T2:15:38Z</time></trkpt>
<trkpt lat="46.2733459472656" lon="7.32158422470093"><ele></ele><time>2013-8-8T2:15:41Z</time></trkpt>
<trkpt lat="46.2733612060547" lon="7.32161045074463"><ele></ele><time>2013-8-8T2:15:44Z</time></trkpt>
<trkpt lat="46.2733726501465" lon="7.32163715362549"><ele></ele><time>2013-8-8T2:15:47Z</time></trkpt>
<trkpt lat="46.2733879089356" lon="7.32165670394898"><ele></ele><time>2013-8-8T2:15:50Z</time></trkpt>
<trkpt lat="46.273494720459" lon="7.32181644439697"><ele></ele><time>2013-8-8T2:15:53Z</time></trkpt>
<trkpt lat="46.273509979248" lon="7.32184314727783"><ele></ele><time>2013-8-8T2:15:56Z</time></trkpt>
<trkpt lat="46.2735290527344" lon="7.32187175750732"><ele></ele><time>2013-8-8T2:15:59Z</time></trkpt>
<trkpt lat="46.2735404968262" lon="7.3218936920166"><ele></ele><time>2013-8-8T2:16:2Z</time></trkpt>
<trkpt lat="46.273551940918" lon="7.32192373275757"><ele></ele><time>2013-8-8T2:16:5Z</time></trkpt>
<trkpt lat="46.273609161377" lon="7.32204961776733"><ele></ele><time>2013-8-8T2:16:8Z</time></trkpt>
<trkpt lat="46.2736549377441" lon="7.32216215133667"><ele></ele><time>2013-8-8T2:16:11Z</time></trkpt>
<trkpt lat="46.2736625671387" lon="7.322190284729"><ele></ele><time>2013-8-8T2:16:14Z</time></trkpt>
<trkpt lat="46.2736701965332" lon="7.32221984863281"><ele></ele><time>2013-8-8T2:16:17Z</time></trkpt>
<trkpt lat="46.2736740112305" lon="7.32224893569946"><ele></ele><time>2013-8-8T2:16:20Z</time></trkpt>
<trkpt lat="46.273681640625" lon="7.3223443031311"><ele></ele><time>2013-8-8T2:16:23Z</time></trkpt>
<trkpt lat="46.2736854553223" lon="7.32237243652344"><ele></ele><time>2013-8-8T2:16:26Z</time></trkpt>
<trkpt lat="46.2736930847168" lon="7.32240581512451"><ele></ele><time>2013-8-8T2:16:29Z</time></trkpt>
<trkpt lat="46.2736968994141" lon="7.32244253158569"><ele></ele><time>2013-8-8T2:16:32Z</time></trkpt>
<trkpt lat="46.2736968994141" lon="7.32248258590698"><ele></ele><time>2013-8-8T2:16:35Z</time></trkpt>
<trkpt lat="46.2737083435059" lon="7.32250595092774"><ele></ele><time>2013-8-8T2:16:38Z</time></trkpt>
<trkpt lat="46.2737121582031" lon="7.32254362106323"><ele></ele><time>2013-8-8T2:16:41Z</time></trkpt>
<trkpt lat="46.2737159729004" lon="7.32257509231567"><ele></ele><time>2013-8-8T2:16:44Z</time></trkpt>
<trkpt lat="46.2737503051758" lon="7.32268381118774"><ele></ele><time>2013-8-8T2:16:47Z</time></trkpt>
<trkpt lat="46.2737617492676" lon="7.3227105140686"><ele></ele><time>2013-8-8T2:16:50Z</time></trkpt>
<trkpt lat="46.2737731933594" lon="7.32273435592651"><ele></ele><time>2013-8-8T2:16:53Z</time></trkpt>
<trkpt lat="46.2737846374512" lon="7.32275819778442"><ele></ele><time>2013-8-8T2:16:56Z</time></trkpt>
<trkpt lat="46.2737998962402" lon="7.32277870178223"><ele></ele><time>2013-8-8T2:16:59Z</time></trkpt>
<trkpt lat="46.2738723754883" lon="7.32290983200073"><ele></ele><time>2013-8-8T2:17:2Z</time></trkpt>
<trkpt lat="46.2739906311035" lon="7.32297611236572"><ele></ele><time>2013-8-8T2:17:5Z</time></trkpt>
<trkpt lat="46.2740135192871" lon="7.32296085357666"><ele></ele><time>2013-8-8T2:17:8Z</time></trkpt>
<trkpt lat="46.2740249633789" lon="7.32294368743896"><ele></ele><time>2013-8-8T2:17:11Z</time></trkpt>
<trkpt lat="46.274040222168" lon="7.322922706604"><ele></ele><time>2013-8-8T2:17:14Z</time></trkpt>
<trkpt lat="46.2740516662598" lon="7.32290410995483"><ele></ele><time>2013-8-8T2:17:17Z</time></trkpt>
<trkpt lat="46.2740631103516" lon="7.32288980484009"><ele></ele><time>2013-8-8T2:17:20Z</time></trkpt>
<trkpt lat="46.2740669250488" lon="7.32284784317017"><ele></ele><time>2013-8-8T2:17:23Z</time></trkpt>
<trkpt lat="46.2740478515625" lon="7.32276201248169"><ele></ele><time>2013-8-8T2:17:26Z</time></trkpt>
<trkpt lat="46.2739524841309" lon="7.32255697250366"><ele></ele><time>2013-8-8T2:17:29Z</time></trkpt>
<trkpt lat="46.2739372253418" lon="7.3225269317627"><ele></ele><time>2013-8-8T2:17:32Z</time></trkpt>
<trkpt lat="46.2739295959473" lon="7.32249641418457"><ele></ele><time>2013-8-8T2:17:35Z</time></trkpt>
<trkpt lat="46.2739143371582" lon="7.32247543334961"><ele></ele><time>2013-8-8T2:17:38Z</time></trkpt>
<trkpt lat="46.2738609313965" lon="7.32231664657593"><ele></ele><time>2013-8-8T2:17:41Z</time></trkpt>
<trkpt lat="46.273853302002" lon="7.32228422164917"><ele></ele><time>2013-8-8T2:17:44Z</time></trkpt>
<trkpt lat="46.2738456726074" lon="7.32225036621094"><ele></ele><time>2013-8-8T2:17:47Z</time></trkpt>
<trkpt lat="46.2738418579102" lon="7.3222165107727"><ele></ele><time>2013-8-8T2:17:50Z</time></trkpt>
<trkpt lat="46.2738380432129" lon="7.32218933105469"><ele></ele><time>2013-8-8T2:17:53Z</time></trkpt>
<trkpt lat="46.2738342285156" lon="7.3221607208252"><ele></ele><time>2013-8-8T2:17:56Z</time></trkpt>
<trkpt lat="46.2738304138184" lon="7.32213115692139"><ele></ele><time>2013-8-8T2:17:59Z</time></trkpt>
<trkpt lat="46.2738265991211" lon="7.32210493087768"><ele></ele><time>2013-8-8T2:18:2Z</time></trkpt>
<trkpt lat="46.2738227844238" lon="7.32208156585693"><ele></ele><time>2013-8-8T2:18:5Z</time></trkpt>
<trkpt lat="46.2737998962402" lon="7.32199239730835"><ele></ele><time>2013-8-8T2:18:8Z</time></trkpt>
<trkpt lat="46.2737846374512" lon="7.32196664810181"><ele></ele><time>2013-8-8T2:18:11Z</time></trkpt>
<trkpt lat="46.2737731933594" lon="7.32192802429199"><ele></ele><time>2013-8-8T2:18:14Z</time></trkpt>
<trkpt lat="46.2737655639648" lon="7.32188844680786"><ele></ele><time>2013-8-8T2:18:17Z</time></trkpt>
<trkpt lat="46.2737579345703" lon="7.32185459136963"><ele></ele><time>2013-8-8T2:18:20Z</time></trkpt>
<trkpt lat="46.2736892700195" lon="7.32170581817627"><ele></ele><time>2013-8-8T2:18:23Z</time></trkpt>
<trkpt lat="46.2736663818359" lon="7.32168006896973"><ele></ele><time>2013-8-8T2:18:26Z</time></trkpt>
<trkpt lat="46.2736549377441" lon="7.32164764404297"><ele></ele><time>2013-8-8T2:18:29Z</time></trkpt>
<trkpt lat="46.2736396789551" lon="7.32162714004517"><ele></ele><time>2013-8-8T2:18:32Z</time></trkpt>
<trkpt lat="46.273624420166" lon="7.3215970993042"><ele></ele><time>2013-8-8T2:18:35Z</time></trkpt>
<trkpt lat="46.273609161377" lon="7.32156229019165"><ele></ele><time>2013-8-8T2:18:38Z</time></trkpt>
<trkpt lat="46.2735137939453" lon="7.32139158248901"><ele></ele><time>2013-8-8T2:18:41Z</time></trkpt>
<trkpt lat="46.2734985351562" lon="7.32137250900268"><ele></ele><time>2013-8-8T2:18:44Z</time></trkpt>
<trkpt lat="46.2734832763672" lon="7.32134342193604"><ele></ele><time>2013-8-8T2:18:47Z</time></trkpt>
<trkpt lat="46.2734680175781" lon="7.3213095664978"><ele></ele><time>2013-8-8T2:18:50Z</time></trkpt>
<trkpt lat="46.2734527587891" lon="7.32127237319946"><ele></ele><time>2013-8-8T2:18:53Z</time></trkpt>
<trkpt lat="46.2734184265137" lon="7.32113647460938"><ele></ele><time>2013-8-8T2:18:56Z</time></trkpt>
<trkpt lat="46.2733879089356" lon="7.3210597038269"><ele></ele><time>2013-8-8T2:18:59Z</time></trkpt>
<trkpt lat="46.2733688354492" lon="7.32102298736572"><ele></ele><time>2013-8-8T2:19:2Z</time></trkpt>
<trkpt lat="46.2733573913574" lon="7.32097816467285"><ele></ele><time>2013-8-8T2:19:5Z</time></trkpt>
<trkpt lat="46.2733497619629" lon="7.32092952728272"><ele></ele><time>2013-8-8T2:19:8Z</time></trkpt>
<trkpt lat="46.2733306884766" lon="7.32090473175049"><ele></ele><time>2013-8-8T2:19:11Z</time></trkpt>
<trkpt lat="46.2733154296875" lon="7.32087707519531"><ele></ele><time>2013-8-8T2:19:14Z</time></trkpt>
<trkpt lat="46.2732162475586" lon="7.32069301605225"><ele></ele><time>2013-8-8T2:19:17Z</time></trkpt>
<trkpt lat="46.2732009887695" lon="7.32066774368286"><ele></ele><time>2013-8-8T2:19:20Z</time></trkpt>
<trkpt lat="46.2731857299805" lon="7.32064437866211"><ele></ele><time>2013-8-8T2:19:23Z</time></trkpt>
<trkpt lat="46.2731704711914" lon="7.32061862945557"><ele></ele><time>2013-8-8T2:19:26Z</time></trkpt>
<trkpt lat="46.2731552124023" lon="7.32059144973755"><ele></ele><time>2013-8-8T2:19:29Z</time></trkpt>
<trkpt lat="46.273136138916" lon="7.32056760787964"><ele></ele><time>2013-8-8T2:19:32Z</time></trkpt>
<trkpt lat="46.2730674743652" lon="7.32048511505127"><ele></ele><time>2013-8-8T2:19:35Z</time></trkpt>
<trkpt lat="46.2730522155762" lon="7.32045984268188"><ele></ele><time>2013-8-8T2:19:38Z</time></trkpt>
<trkpt lat="46.2730369567871" lon="7.32043552398682"><ele></ele><time>2013-8-8T2:19:41Z</time></trkpt>
<trkpt lat="46.273021697998" lon="7.32041645050049"><ele></ele><time>2013-8-8T2:19:44Z</time></trkpt>
<trkpt lat="46.273006439209" lon="7.32039070129394"><ele></ele><time>2013-8-8T2:19:47Z</time></trkpt>
<trkpt lat="46.2729873657227" lon="7.32036685943604"><ele></ele><time>2013-8-8T2:19:50Z</time></trkpt>
<trkpt lat="46.2729530334473" lon="7.32032680511475"><ele></ele><time>2013-8-8T2:19:53Z</time></trkpt>
<trkpt lat="46.2728958129883" lon="7.32025814056396"><ele></ele><time>2013-8-8T2:19:56Z</time></trkpt>
<trkpt lat="46.272876739502" lon="7.3202338218689"><ele></ele><time>2013-8-8T2:19:59Z</time></trkpt>
<trkpt lat="46.2728576660156" lon="7.32020568847656"><ele></ele><time>2013-8-8T2:20:2Z</time></trkpt>
<trkpt lat="46.2728385925293" lon="7.32018232345581"><ele></ele><time>2013-8-8T2:20:5Z</time></trkpt>
<trkpt lat="46.2728233337402" lon="7.32015419006348"><ele></ele><time>2013-8-8T2:20:8Z</time></trkpt>
<trkpt lat="46.2728080749512" lon="7.32013082504272"><ele></ele><time>2013-8-8T2:20:11Z</time></trkpt>
<trkpt lat="46.2727279663086" lon="7.32000923156738"><ele></ele><time>2013-8-8T2:20:14Z</time></trkpt>
<trkpt lat="46.2727088928223" lon="7.31998443603516"><ele></ele><time>2013-8-8T2:20:17Z</time></trkpt>
<trkpt lat="46.2726898193359" lon="7.31996011734009"><ele></ele><time>2013-8-8T2:20:20Z</time></trkpt>
<trkpt lat="46.2726707458496" lon="7.31993293762207"><ele></ele><time>2013-8-8T2:20:23Z</time></trkpt>
<trkpt lat="46.2726516723633" lon="7.31990814208984"><ele></ele><time>2013-8-8T2:20:26Z</time></trkpt>
<trkpt lat="46.2725830078125" lon="7.31980562210083"><ele></ele><time>2013-8-8T2:20:29Z</time></trkpt>
<trkpt lat="46.2725410461426" lon="7.31974363327026"><ele></ele><time>2013-8-8T2:20:32Z</time></trkpt>
<trkpt lat="46.2725219726562" lon="7.31971979141235"><ele></ele><time>2013-8-8T2:20:35Z</time></trkpt>
<trkpt lat="46.2725067138672" lon="7.31969976425171"><ele></ele><time>2013-8-8T2:20:38Z</time></trkpt>
<trkpt lat="46.2724838256836" lon="7.31967926025391"><ele></ele><time>2013-8-8T2:20:41Z</time></trkpt>
<trkpt lat="46.2724533081055" lon="7.31963300704956"><ele></ele><time>2013-8-8T2:20:44Z</time></trkpt>
<trkpt lat="46.2723693847656" lon="7.31952524185181"><ele></ele><time>2013-8-8T2:20:47Z</time></trkpt>
<trkpt lat="46.2723579406738" lon="7.31950569152832"><ele></ele><time>2013-8-8T2:20:50Z</time></trkpt>
<trkpt lat="46.2723388671875" lon="7.31948375701904"><ele></ele><time>2013-8-8T2:20:53Z</time></trkpt>
<trkpt lat="46.2723197937012" lon="7.31945848464966"><ele></ele><time>2013-8-8T2:20:56Z</time></trkpt>
<trkpt lat="46.2723007202148" lon="7.31943893432617"><ele></ele><time>2013-8-8T2:20:59Z</time></trkpt>
<trkpt lat="46.2721748352051" lon="7.31933069229126"><ele></ele><time>2013-8-8T2:21:2Z</time></trkpt>
<trkpt lat="46.2721519470215" lon="7.31931734085083"><ele></ele><time>2013-8-8T2:21:5Z</time></trkpt>
<trkpt lat="46.2721252441406" lon="7.31931591033936"><ele></ele><time>2013-8-8T2:21:8Z</time></trkpt>
<trkpt lat="46.2720985412598" lon="7.31930732727051"><ele></ele><time>2013-8-8T2:21:11Z</time></trkpt>
<trkpt lat="46.2720718383789" lon="7.31930351257324"><ele></ele><time>2013-8-8T2:21:14Z</time></trkpt>
<trkpt lat="46.2720069885254" lon="7.3192868232727"><ele></ele><time>2013-8-8T2:21:17Z</time></trkpt>
<trkpt lat="46.2719650268555" lon="7.31923675537109"><ele></ele><time>2013-8-8T2:21:20Z</time></trkpt>
<trkpt lat="46.27197265625" lon="7.31919717788696"><ele></ele><time>2013-8-8T2:21:23Z</time></trkpt>
<trkpt lat="46.2719917297363" lon="7.31917762756348"><ele></ele><time>2013-8-8T2:21:26Z</time></trkpt>
<trkpt lat="46.2720184326172" lon="7.31917572021484"><ele></ele><time>2013-8-8T2:21:29Z</time></trkpt>
<trkpt lat="46.2720375061035" lon="7.31918287277222"><ele></ele><time>2013-8-8T2:21:32Z</time></trkpt>
<trkpt lat="46.2720642089844" lon="7.31918907165527"><ele></ele><time>2013-8-8T2:21:35Z</time></trkpt>
<trkpt lat="46.272087097168" lon="7.31920289993286"><ele></ele><time>2013-8-8T2:21:38Z</time></trkpt>
<trkpt lat="46.2721481323242" lon="7.31922388076782"><ele></ele><time>2013-8-8T2:21:41Z</time></trkpt>
<trkpt lat="46.2721977233887" lon="7.31925582885742"><ele></ele><time>2013-8-8T2:21:44Z</time></trkpt>
<trkpt lat="46.272331237793" lon="7.31934928894043"><ele></ele><time>2013-8-8T2:21:47Z</time></trkpt>
<trkpt lat="46.2723541259766" lon="7.31936931610107"><ele></ele><time>2013-8-8T2:21:50Z</time></trkpt>
<trkpt lat="46.2723693847656" lon="7.31939268112183"><ele></ele><time>2013-8-8T2:21:53Z</time></trkpt>
<trkpt lat="46.2723922729492" lon="7.31940984725952"><ele></ele><time>2013-8-8T2:21:56Z</time></trkpt>
<trkpt lat="46.2724151611328" lon="7.31942987442017"><ele></ele><time>2013-8-8T2:21:59Z</time></trkpt>
<trkpt lat="46.2725028991699" lon="7.31950092315674"><ele></ele><time>2013-8-8T2:22:2Z</time></trkpt>
<trkpt lat="46.2725257873535" lon="7.31951856613159"><ele></ele><time>2013-8-8T2:22:5Z</time></trkpt>
<trkpt lat="46.2725486755371" lon="7.31954145431518"><ele></ele><time>2013-8-8T2:22:8Z</time></trkpt>
<trkpt lat="46.2725677490234" lon="7.31956720352173"><ele></ele><time>2013-8-8T2:22:11Z</time></trkpt>
<trkpt lat="46.2725868225098" lon="7.31959247589111"><ele></ele><time>2013-8-8T2:22:14Z</time></trkpt>
<trkpt lat="46.2726898193359" lon="7.31970930099487"><ele></ele><time>2013-8-8T2:22:17Z</time></trkpt>
<trkpt lat="46.2727088928223" lon="7.31972599029541"><ele></ele><time>2013-8-8T2:22:20Z</time></trkpt>
<trkpt lat="46.2727279663086" lon="7.31974744796753"><ele></ele><time>2013-8-8T2:22:23Z</time></trkpt>
<trkpt lat="46.2727470397949" lon="7.31977224349976"><ele></ele><time>2013-8-8T2:22:26Z</time></trkpt>
<trkpt lat="46.2727661132812" lon="7.31979703903198"><ele></ele><time>2013-8-8T2:22:29Z</time></trkpt>
<trkpt lat="46.2728462219238" lon="7.31988716125488"><ele></ele><time>2013-8-8T2:22:32Z</time></trkpt>
<trkpt lat="46.2728652954102" lon="7.31990146636963"><ele></ele><time>2013-8-8T2:22:35Z</time></trkpt>
<trkpt lat="46.2728843688965" lon="7.31992101669312"><ele></ele><time>2013-8-8T2:22:38Z</time></trkpt>
<trkpt lat="46.2728996276856" lon="7.31993818283081"><ele></ele><time>2013-8-8T2:22:41Z</time></trkpt>
<trkpt lat="46.2729225158691" lon="7.31995391845703"><ele></ele><time>2013-8-8T2:22:44Z</time></trkpt>
<trkpt lat="46.2729454040527" lon="7.31997013092041"><ele></ele><time>2013-8-8T2:22:47Z</time></trkpt>
<trkpt lat="46.2730293273926" lon="7.32003879547119"><ele></ele><time>2013-8-8T2:22:50Z</time></trkpt>
<trkpt lat="46.2730560302734" lon="7.32005214691162"><ele></ele><time>2013-8-8T2:22:53Z</time></trkpt>
<trkpt lat="46.2730751037598" lon="7.32006740570068"><ele></ele><time>2013-8-8T2:22:56Z</time></trkpt>
<trkpt lat="46.2730941772461" lon="7.32008218765259"><ele></ele><time>2013-8-8T2:22:59Z</time></trkpt>
<trkpt lat="46.2731132507324" lon="7.3201003074646"><ele></ele><time>2013-8-8T2:23:2Z</time></trkpt>
<trkpt lat="46.2731323242188" lon="7.32011365890503"><ele></ele><time>2013-8-8T2:23:5Z</time></trkpt>
<trkpt lat="46.2731742858887" lon="7.32014513015747"><ele></ele><time>2013-8-8T2:23:8Z</time></trkpt>
<trkpt lat="46.2732582092285" lon="7.3202223777771"><ele></ele><time>2013-8-8T2:23:11Z</time></trkpt>
<trkpt lat="46.2732810974121" lon="7.32024097442627"><ele></ele><time>2013-8-8T2:23:14Z</time></trkpt>
<trkpt lat="46.2733001708984" lon="7.3202600479126"><ele></ele><time>2013-8-8T2:23:17Z</time></trkpt>
<trkpt lat="46.273323059082" lon="7.32028150558472"><ele></ele><time>2013-8-8T2:23:20Z</time></trkpt>
<trkpt lat="46.2733421325684" lon="7.3203010559082"><ele></ele><time>2013-8-8T2:23:23Z</time></trkpt>
<trkpt lat="46.2733573913574" lon="7.32032537460327"><ele></ele><time>2013-8-8T2:23:26Z</time></trkpt>
<trkpt lat="46.2734413146973" lon="7.32040691375732"><ele></ele><time>2013-8-8T2:23:29Z</time></trkpt>
<trkpt lat="46.2734603881836" lon="7.32043123245239"><ele></ele><time>2013-8-8T2:23:32Z</time></trkpt>
<trkpt lat="46.2734794616699" lon="7.3204493522644"><ele></ele><time>2013-8-8T2:23:35Z</time></trkpt>
<trkpt lat="46.273494720459" lon="7.32047414779663"><ele></ele><time>2013-8-8T2:23:38Z</time></trkpt>
<trkpt lat="46.2735328674316" lon="7.3205132484436"><ele></ele><time>2013-8-8T2:23:41Z</time></trkpt>
<trkpt lat="46.2735939025879" lon="7.32057332992554"><ele></ele><time>2013-8-8T2:23:44Z</time></trkpt>
<trkpt lat="46.2736167907715" lon="7.32059478759766"><ele></ele><time>2013-8-8T2:23:47Z</time></trkpt>
<trkpt lat="46.2736358642578" lon="7.3206148147583"><ele></ele><time>2013-8-8T2:23:50Z</time></trkpt>
<trkpt lat="46.2736549377441" lon="7.32064151763916"><ele></ele><time>2013-8-8T2:23:53Z</time></trkpt>
<trkpt lat="46.2736740112305" lon="7.32066440582275"><ele></ele><time>2013-8-8T2:23:56Z</time></trkpt>
<trkpt lat="46.2737083435059" lon="7.32070589065552"><ele></ele><time>2013-8-8T2:23:59Z</time></trkpt>
<trkpt lat="46.2737846374512" lon="7.32078838348389"><ele></ele><time>2013-8-8T2:24:2Z</time></trkpt>
<trkpt lat="46.2738075256348" lon="7.32080698013306"><ele></ele><time>2013-8-8T2:24:5Z</time></trkpt>
<trkpt lat="46.2738265991211" lon="7.3208270072937"><ele></ele><time>2013-8-8T2:24:8Z</time></trkpt>
<trkpt lat="46.2738494873047" lon="7.32085227966309"><ele></ele><time>2013-8-8T2:24:11Z</time></trkpt>
<trkpt lat="46.2738647460938" lon="7.32088279724121"><ele></ele><time>2013-8-8T2:24:14Z</time></trkpt>
<trkpt lat="46.2738838195801" lon="7.32090663909912"><ele></ele><time>2013-8-8T2:24:17Z</time></trkpt>
<trkpt lat="46.2739486694336" lon="7.32101202011108"><ele></ele><time>2013-8-8T2:24:20Z</time></trkpt>
<trkpt lat="46.2739639282227" lon="7.32103681564331"><ele></ele><time>2013-8-8T2:24:23Z</time></trkpt>
<trkpt lat="46.2739791870117" lon="7.3210654258728"><ele></ele><time>2013-8-8T2:24:26Z</time></trkpt>
<trkpt lat="46.273998260498" lon="7.32108974456787"><ele></ele><time>2013-8-8T2:24:29Z</time></trkpt>
<trkpt lat="46.2740135192871" lon="7.3211145401001"><ele></ele><time>2013-8-8T2:24:32Z</time></trkpt>
<trkpt lat="46.2740325927734" lon="7.32114028930664"><ele></ele><time>2013-8-8T2:24:35Z</time></trkpt>
<trkpt lat="46.2741088867188" lon="7.3212685585022"><ele></ele><time>2013-8-8T2:24:38Z</time></trkpt>
<trkpt lat="46.2741241455078" lon="7.3212947845459"><ele></ele><time>2013-8-8T2:24:41Z</time></trkpt>
<trkpt lat="46.2741432189941" lon="7.32131576538086"><ele></ele><time>2013-8-8T2:24:44Z</time></trkpt>
<trkpt lat="46.2741622924805" lon="7.3213357925415"><ele></ele><time>2013-8-8T2:24:47Z</time></trkpt>
<trkpt lat="46.2741775512695" lon="7.3213586807251"><ele></ele><time>2013-8-8T2:24:50Z</time></trkpt>
<trkpt lat="46.2742691040039" lon="7.32151222229004"><ele></ele><time>2013-8-8T2:24:53Z</time></trkpt>
<trkpt lat="46.2742881774902" lon="7.32153081893921"><ele></ele><time>2013-8-8T2:24:56Z</time></trkpt>
<trkpt lat="46.2743034362793" lon="7.32155656814575"><ele></ele><time>2013-8-8T2:24:59Z</time></trkpt>
<trkpt lat="46.2743225097656" lon="7.32157897949219"><ele></ele><time>2013-8-8T2:25:2Z</time></trkpt>
<trkpt lat="46.2744178771973" lon="7.32173204421997"><ele></ele><time>2013-8-8T2:25:5Z</time></trkpt>
<trkpt lat="46.2744331359863" lon="7.32175397872925"><ele></ele><time>2013-8-8T2:25:8Z</time></trkpt>
<trkpt lat="46.2744522094727" lon="7.32177591323852"><ele></ele><time>2013-8-8T2:25:11Z</time></trkpt>
<trkpt lat="46.2744674682617" lon="7.32179641723633"><ele></ele><time>2013-8-8T2:25:14Z</time></trkpt>
<trkpt lat="46.2744827270508" lon="7.32181978225708"><ele></ele><time>2013-8-8T2:25:17Z</time></trkpt>
<trkpt lat="46.2745018005371" lon="7.32184886932373"><ele></ele><time>2013-8-8T2:25:20Z</time></trkpt>
<trkpt lat="46.2745704650879" lon="7.32194566726685"><ele></ele><time>2013-8-8T2:25:23Z</time></trkpt>
<trkpt lat="46.2746200561523" lon="7.32201671600342"><ele></ele><time>2013-8-8T2:25:26Z</time></trkpt>
<trkpt lat="46.2746391296387" lon="7.3220386505127"><ele></ele><time>2013-8-8T2:25:29Z</time></trkpt>
<trkpt lat="46.2746543884277" lon="7.32206153869629"><ele></ele><time>2013-8-8T2:25:32Z</time></trkpt>
<trkpt lat="46.2746734619141" lon="7.32208347320557"><ele></ele><time>2013-8-8T2:25:35Z</time></trkpt>
<trkpt lat="46.2746925354004" lon="7.32210350036621"><ele></ele><time>2013-8-8T2:25:38Z</time></trkpt>
<trkpt lat="46.2747268676758" lon="7.3221492767334"><ele></ele><time>2013-8-8T2:25:41Z</time></trkpt>
<trkpt lat="46.2747802734375" lon="7.32220935821533"><ele></ele><time>2013-8-8T2:25:44Z</time></trkpt>
<trkpt lat="46.2747955322266" lon="7.32223033905029"><ele></ele><time>2013-8-8T2:25:47Z</time></trkpt>
<trkpt lat="46.2748146057129" lon="7.32224988937378"><ele></ele><time>2013-8-8T2:25:50Z</time></trkpt>
<trkpt lat="46.2748374938965" lon="7.32226467132568"><ele></ele><time>2013-8-8T2:25:53Z</time></trkpt>
<trkpt lat="46.2748603820801" lon="7.32227993011475"><ele></ele><time>2013-8-8T2:25:56Z</time></trkpt>
<trkpt lat="46.2748794555664" lon="7.32229995727539"><ele></ele><time>2013-8-8T2:25:59Z</time></trkpt>
<trkpt lat="46.2749900817871" lon="7.32242679595947"><ele></ele><time>2013-8-8T2:26:2Z</time></trkpt>
<trkpt lat="46.2750053405762" lon="7.32244920730591"><ele></ele><time>2013-8-8T2:26:5Z</time></trkpt>
<trkpt lat="46.2750244140625" lon="7.32246828079224"><ele></ele><time>2013-8-8T2:26:8Z</time></trkpt>
<trkpt lat="46.2750473022461" lon="7.32248830795288"><ele></ele><time>2013-8-8T2:26:11Z</time></trkpt>
<trkpt lat="46.2750663757324" lon="7.32251262664795"><ele></ele><time>2013-8-8T2:26:14Z</time></trkpt>
<trkpt lat="46.2751770019531" lon="7.32263469696045"><ele></ele><time>2013-8-8T2:26:17Z</time></trkpt>
<trkpt lat="46.2751998901367" lon="7.32265424728394"><ele></ele><time>2013-8-8T2:26:20Z</time></trkpt>
<trkpt lat="46.275218963623" lon="7.32267570495606"><ele></ele><time>2013-8-8T2:26:23Z</time></trkpt>
<trkpt lat="46.2752380371094" lon="7.32269477844238"><ele></ele><time>2013-8-8T2:26:26Z</time></trkpt>
<trkpt lat="46.2753372192383" lon="7.32279920578003"><ele></ele><time>2013-8-8T2:26:29Z</time></trkpt>
<trkpt lat="46.2753562927246" lon="7.32282018661499"><ele></ele><time>2013-8-8T2:26:32Z</time></trkpt>
<trkpt lat="46.2753753662109" lon="7.32284021377564"><ele></ele><time>2013-8-8T2:26:35Z</time></trkpt>
<trkpt lat="46.275390625" lon="7.32286214828491"><ele></ele><time>2013-8-8T2:26:38Z</time></trkpt>
<trkpt lat="46.2754058837891" lon="7.32288646697998"><ele></ele><time>2013-8-8T2:26:41Z</time></trkpt>
<trkpt lat="46.2754249572754" lon="7.32291221618652"><ele></ele><time>2013-8-8T2:26:44Z</time></trkpt>
<trkpt lat="46.2754974365234" lon="7.32300329208374"><ele></ele><time>2013-8-8T2:26:47Z</time></trkpt>
<trkpt lat="46.2755470275879" lon="7.32307147979736"><ele></ele><time>2013-8-8T2:26:50Z</time></trkpt>
<trkpt lat="46.2755661010742" lon="7.32309198379517"><ele></ele><time>2013-8-8T2:26:53Z</time></trkpt>
<trkpt lat="46.2755851745606" lon="7.32311391830444"><ele></ele><time>2013-8-8T2:26:56Z</time></trkpt>
<trkpt lat="46.2756004333496" lon="7.32313776016235"><ele></ele><time>2013-8-8T2:26:59Z</time></trkpt>
<trkpt lat="46.2756156921387" lon="7.32316064834595"><ele></ele><time>2013-8-8T2:27:2Z</time></trkpt>
<trkpt lat="46.275634765625" lon="7.32318258285522"><ele></ele><time>2013-8-8T2:27:5Z</time></trkpt>
<trkpt lat="46.2757186889648" lon="7.32325839996338"><ele></ele><time>2013-8-8T2:27:8Z</time></trkpt>
<trkpt lat="46.2757415771484" lon="7.32327318191528"><ele></ele><time>2013-8-8T2:27:11Z</time></trkpt>
<trkpt lat="46.2757606506348" lon="7.32329034805298"><ele></ele><time>2013-8-8T2:27:14Z</time></trkpt>
<trkpt lat="46.2757797241211" lon="7.32330703735352"><ele></ele><time>2013-8-8T2:27:17Z</time></trkpt>
<trkpt lat="46.2757987976074" lon="7.32332515716553"><ele></ele><time>2013-8-8T2:27:20Z</time></trkpt>
<trkpt lat="46.2758178710938" lon="7.32334518432617"><ele></ele><time>2013-8-8T2:27:23Z</time></trkpt>
<trkpt lat="46.2759170532227" lon="7.32345008850098"><ele></ele><time>2013-8-8T2:27:26Z</time></trkpt>
<trkpt lat="46.275936126709" lon="7.3234715461731"><ele></ele><time>2013-8-8T2:27:29Z</time></trkpt>
<trkpt lat="46.2759552001953" lon="7.323486328125"><ele></ele><time>2013-8-8T2:27:32Z</time></trkpt>
<trkpt lat="46.2759780883789" lon="7.32350301742554"><ele></ele><time>2013-8-8T2:27:35Z</time></trkpt>
<trkpt lat="46.275993347168" lon="7.32352352142334"><ele></ele><time>2013-8-8T2:27:38Z</time></trkpt>
<trkpt lat="46.2761039733887" lon="7.32364273071289"><ele></ele><time>2013-8-8T2:27:41Z</time></trkpt>
<trkpt lat="46.2761192321777" lon="7.32366275787354"><ele></ele><time>2013-8-8T2:27:44Z</time></trkpt>
<trkpt lat="46.2761421203613" lon="7.32367897033691"><ele></ele><time>2013-8-8T2:27:47Z</time></trkpt>
<trkpt lat="46.2761611938477" lon="7.32369470596314"><ele></ele><time>2013-8-8T2:27:50Z</time></trkpt>
<trkpt lat="46.276180267334" lon="7.32371425628662"><ele></ele><time>2013-8-8T2:27:53Z</time></trkpt>
<trkpt lat="46.2762565612793" lon="7.3238000869751"><ele></ele><time>2013-8-8T2:27:56Z</time></trkpt>
<trkpt lat="46.2762908935547" lon="7.32384824752808"><ele></ele><time>2013-8-8T2:27:59Z</time></trkpt>
<trkpt lat="46.276309967041" lon="7.32386922836304"><ele></ele><time>2013-8-8T2:28:2Z</time></trkpt>
<trkpt lat="46.2763328552246" lon="7.32388639450073"><ele></ele><time>2013-8-8T2:28:5Z</time></trkpt>
<trkpt lat="46.2763519287109" lon="7.32390928268433"><ele></ele><time>2013-8-8T2:28:8Z</time></trkpt>
<trkpt lat="46.2763710021973" lon="7.32393264770508"><ele></ele><time>2013-8-8T2:28:11Z</time></trkpt>
<trkpt lat="46.2763900756836" lon="7.32395124435425"><ele></ele><time>2013-8-8T2:28:14Z</time></trkpt>
<trkpt lat="46.2764854431152" lon="7.32405281066894"><ele></ele><time>2013-8-8T2:28:17Z</time></trkpt>
<trkpt lat="46.2765083312988" lon="7.3240647315979"><ele></ele><time>2013-8-8T2:28:20Z</time></trkpt>
<trkpt lat="46.2765274047852" lon="7.3240818977356"><ele></ele><time>2013-8-8T2:28:23Z</time></trkpt>
<trkpt lat="46.2765464782715" lon="7.32410144805908"><ele></ele><time>2013-8-8T2:28:26Z</time></trkpt>
<trkpt lat="46.2765693664551" lon="7.32411527633667"><ele></ele><time>2013-8-8T2:28:29Z</time></trkpt>
<trkpt lat="46.2766799926758" lon="7.32424736022949"><ele></ele><time>2013-8-8T2:28:32Z</time></trkpt>
<trkpt lat="46.2766990661621" lon="7.32426166534424"><ele></ele><time>2013-8-8T2:28:35Z</time></trkpt>
<trkpt lat="46.2767143249512" lon="7.32427930831909"><ele></ele><time>2013-8-8T2:28:38Z</time></trkpt>
<trkpt lat="46.2767295837402" lon="7.3242917060852"><ele></ele><time>2013-8-8T2:28:41Z</time></trkpt>
<trkpt lat="46.2767486572266" lon="7.32430839538574"><ele></ele><time>2013-8-8T2:28:44Z</time></trkpt>
<trkpt lat="46.2768516540527" lon="7.32442140579224"><ele></ele><time>2013-8-8T2:28:47Z</time></trkpt>
<trkpt lat="46.2768707275391" lon="7.32444095611572"><ele></ele><time>2013-8-8T2:28:50Z</time></trkpt>
<trkpt lat="46.2768898010254" lon="7.32446670532226"><ele></ele><time>2013-8-8T2:28:53Z</time></trkpt>
<trkpt lat="46.2769088745117" lon="7.32448148727417"><ele></ele><time>2013-8-8T2:28:56Z</time></trkpt>
<trkpt lat="46.276927947998" lon="7.32449960708618"><ele></ele><time>2013-8-8T2:28:59Z</time></trkpt>
<trkpt lat="46.276969909668" lon="7.32453441619873"><ele></ele><time>2013-8-8T2:29:2Z</time></trkpt>
<trkpt lat="46.2770919799805" lon="7.32465410232544"><ele></ele><time>2013-8-8T2:29:5Z</time></trkpt>
<trkpt lat="46.2771110534668" lon="7.32467460632324"><ele></ele><time>2013-8-8T2:29:8Z</time></trkpt>
<trkpt lat="46.2771301269531" lon="7.32469606399536"><ele></ele><time>2013-8-8T2:29:11Z</time></trkpt>
<trkpt lat="46.2771492004394" lon="7.32471752166748"><ele></ele><time>2013-8-8T2:29:14Z</time></trkpt>
<trkpt lat="46.2772598266602" lon="7.32484674453735"><ele></ele><time>2013-8-8T2:29:17Z</time></trkpt>
<trkpt lat="46.2772750854492" lon="7.32486724853516"><ele></ele><time>2013-8-8T2:29:20Z</time></trkpt>
<trkpt lat="46.2772941589356" lon="7.32489156723022"><ele></ele><time>2013-8-8T2:29:23Z</time></trkpt>
<trkpt lat="46.2773056030273" lon="7.32491254806518"><ele></ele><time>2013-8-8T2:29:26Z</time></trkpt>
<trkpt lat="46.2773246765137" lon="7.32493543624878"><ele></ele><time>2013-8-8T2:29:29Z</time></trkpt>
<trkpt lat="46.277400970459" lon="7.32506275177002"><ele></ele><time>2013-8-8T2:29:32Z</time></trkpt>
<trkpt lat="46.277416229248" lon="7.3250904083252"><ele></ele><time>2013-8-8T2:29:35Z</time></trkpt>
<trkpt lat="46.2774314880371" lon="7.32511854171753"><ele></ele><time>2013-8-8T2:29:38Z</time></trkpt>
<trkpt lat="46.2774429321289" lon="7.32515287399292"><ele></ele><time>2013-8-8T2:29:41Z</time></trkpt>
<trkpt lat="46.2774543762207" lon="7.32518291473389"><ele></ele><time>2013-8-8T2:29:44Z</time></trkpt>
<trkpt lat="46.2775382995606" lon="7.32535409927368"><ele></ele><time>2013-8-8T2:29:47Z</time></trkpt>
<trkpt lat="46.2775611877441" lon="7.32537841796875"><ele></ele><time>2013-8-8T2:29:50Z</time></trkpt>
<trkpt lat="46.2775764465332" lon="7.32540321350098"><ele></ele><time>2013-8-8T2:29:53Z</time></trkpt>
<trkpt lat="46.2775917053223" lon="7.32542896270752"><ele></ele><time>2013-8-8T2:29:56Z</time></trkpt>
<trkpt lat="46.2776069641113" lon="7.32545328140259"><ele></ele><time>2013-8-8T2:29:59Z</time></trkpt>
<trkpt lat="46.277660369873" lon="7.32556438446045"><ele></ele><time>2013-8-8T2:30:2Z</time></trkpt>
<trkpt lat="46.2776870727539" lon="7.32562398910522"><ele></ele><time>2013-8-8T2:30:5Z</time></trkpt>
<trkpt lat="46.2776985168457" lon="7.32565498352051"><ele></ele><time>2013-8-8T2:30:8Z</time></trkpt>
<trkpt lat="46.2777099609375" lon="7.32568216323852"><ele></ele><time>2013-8-8T2:30:11Z</time></trkpt>
<trkpt lat="46.2777252197266" lon="7.32571125030518"><ele></ele><time>2013-8-8T2:30:14Z</time></trkpt>
<trkpt lat="46.2777366638184" lon="7.32573890686035"><ele></ele><time>2013-8-8T2:30:17Z</time></trkpt>
<trkpt lat="46.2777557373047" lon="7.32576560974121"><ele></ele><time>2013-8-8T2:30:20Z</time></trkpt>
<trkpt lat="46.2778358459473" lon="7.32591342926025"><ele></ele><time>2013-8-8T2:30:23Z</time></trkpt>
<trkpt lat="46.2778587341309" lon="7.32594442367554"><ele></ele><time>2013-8-8T2:30:26Z</time></trkpt>
<trkpt lat="46.2778739929199" lon="7.32597017288208"><ele></ele><time>2013-8-8T2:30:29Z</time></trkpt>
<trkpt lat="46.277889251709" lon="7.32599973678589"><ele></ele><time>2013-8-8T2:30:32Z</time></trkpt>
<trkpt lat="46.2779808044434" lon="7.32614707946777"><ele></ele><time>2013-8-8T2:30:35Z</time></trkpt>
<trkpt lat="46.2779960632324" lon="7.32617139816284"><ele></ele><time>2013-8-8T2:30:38Z</time></trkpt>
<trkpt lat="46.2780075073242" lon="7.32619428634644"><ele></ele><time>2013-8-8T2:30:41Z</time></trkpt>
<trkpt lat="46.2780227661133" lon="7.32621622085571"><ele></ele><time>2013-8-8T2:30:44Z</time></trkpt>
<trkpt lat="46.2780380249023" lon="7.32623815536499"><ele></ele><time>2013-8-8T2:30:47Z</time></trkpt>
<trkpt lat="46.2780990600586" lon="7.32632446289062"><ele></ele><time>2013-8-8T2:30:50Z</time></trkpt>
<trkpt lat="46.2781524658203" lon="7.32638311386108"><ele></ele><time>2013-8-8T2:30:53Z</time></trkpt>
<trkpt lat="46.2781753540039" lon="7.32640171051025"><ele></ele><time>2013-8-8T2:30:56Z</time></trkpt>
<trkpt lat="46.2781944274902" lon="7.32641887664795"><ele></ele><time>2013-8-8T2:30:59Z</time></trkpt>
<trkpt lat="46.2782096862793" lon="7.32643604278564"><ele></ele><time>2013-8-8T2:31:2Z</time></trkpt>
<trkpt lat="46.2782173156738" lon="7.32645654678345"><ele></ele><time>2013-8-8T2:31:5Z</time></trkpt>
<trkpt lat="46.2782287597656" lon="7.32647895812988"><ele></ele><time>2013-8-8T2:31:8Z</time></trkpt>
<trkpt lat="46.2782707214356" lon="7.32653760910034"><ele></ele><time>2013-8-8T2:31:11Z</time></trkpt>
<trkpt lat="46.2782821655273" lon="7.32655811309814"><ele></ele><time>2013-8-8T2:31:14Z</time></trkpt>
<trkpt lat="46.2783012390137" lon="7.32657146453857"><ele></ele><time>2013-8-8T2:31:17Z</time></trkpt>
<trkpt lat="46.2783203125" lon="7.32658529281616"><ele></ele><time>2013-8-8T2:31:20Z</time></trkpt>
<trkpt lat="46.2783393859863" lon="7.32660388946533"><ele></ele><time>2013-8-8T2:31:23Z</time></trkpt>
<trkpt lat="46.2783546447754" lon="7.32662343978882"><ele></ele><time>2013-8-8T2:31:26Z</time></trkpt>
<trkpt lat="46.2784576416016" lon="7.32670021057129"><ele></ele><time>2013-8-8T2:31:29Z</time></trkpt>
<trkpt lat="46.2784767150879" lon="7.32671546936035"><ele></ele><time>2013-8-8T2:31:32Z</time></trkpt>
<trkpt lat="46.2784996032715" lon="7.32672882080078"><ele></ele><time>2013-8-8T2:31:35Z</time></trkpt>
<trkpt lat="46.2785148620606" lon="7.3267412185669"><ele></ele><time>2013-8-8T2:31:38Z</time></trkpt>
<trkpt lat="46.2785339355469" lon="7.32675457000732"><ele></ele><time>2013-8-8T2:31:41Z</time></trkpt>
<trkpt lat="46.2786026000977" lon="7.32682609558106"><ele></ele><time>2013-8-8T2:31:44Z</time></trkpt>
<trkpt lat="46.2786445617676" lon="7.32685613632202"><ele></ele><time>2013-8-8T2:31:47Z</time></trkpt>
<trkpt lat="46.2786636352539" lon="7.32686996459961"><ele></ele><time>2013-8-8T2:31:50Z</time></trkpt>
<trkpt lat="46.2786750793457" lon="7.32688856124878"><ele></ele><time>2013-8-8T2:31:53Z</time></trkpt>
<trkpt lat="46.2786827087402" lon="7.32690715789795"><ele></ele><time>2013-8-8T2:31:56Z</time></trkpt>
<trkpt lat="46.2787170410156" lon="7.32694721221924"><ele></ele><time>2013-8-8T2:31:59Z</time></trkpt>
<trkpt lat="46.2787780761719" lon="7.32698917388916"><ele></ele><time>2013-8-8T2:32:2Z</time></trkpt>
<trkpt lat="46.2787971496582" lon="7.32700443267822"><ele></ele><time>2013-8-8T2:32:5Z</time></trkpt>
<trkpt lat="46.2788696289062" lon="7.32699155807495"><ele></ele><time>2013-8-8T2:32:8Z</time></trkpt>
<trkpt lat="46.2789077758789" lon="7.32699489593506"><ele></ele><time>2013-8-8T2:32:11Z</time></trkpt>
<trkpt lat="46.2789192199707" lon="7.32701110839844"><ele></ele><time>2013-8-8T2:32:14Z</time></trkpt>
<trkpt lat="46.2789497375488" lon="7.32701921463013"><ele></ele><time>2013-8-8T2:32:17Z</time></trkpt>
<trkpt lat="46.2789878845215" lon="7.32702159881592"><ele></ele><time>2013-8-8T2:32:20Z</time></trkpt>
<trkpt lat="46.2791023254394" lon="7.32708883285522"><ele></ele><time>2013-8-8T2:32:23Z</time></trkpt>
<trkpt lat="46.2791404724121" lon="7.3270993232727"><ele></ele><time>2013-8-8T2:32:26Z</time></trkpt>
<trkpt lat="46.279167175293" lon="7.32711029052734"><ele></ele><time>2013-8-8T2:32:29Z</time></trkpt>
<trkpt lat="46.2791938781738" lon="7.32712364196777"><ele></ele><time>2013-8-8T2:32:32Z</time></trkpt>
<trkpt lat="46.2792205810547" lon="7.32713174819946"><ele></ele><time>2013-8-8T2:32:35Z</time></trkpt>
<trkpt lat="46.2793235778809" lon="7.32715034484863"><ele></ele><time>2013-8-8T2:32:38Z</time></trkpt>
<trkpt lat="46.2793846130371" lon="7.32714557647705"><ele></ele><time>2013-8-8T2:32:41Z</time></trkpt>
<trkpt lat="46.2794036865234" lon="7.32714509963989"><ele></ele><time>2013-8-8T2:32:44Z</time></trkpt>
<trkpt lat="46.2794303894043" lon="7.32714366912842"><ele></ele><time>2013-8-8T2:32:47Z</time></trkpt>
<trkpt lat="46.2794570922852" lon="7.32713794708252"><ele></ele><time>2013-8-8T2:32:50Z</time></trkpt>
<trkpt lat="46.2794799804688" lon="7.32712888717651"><ele></ele><time>2013-8-8T2:32:53Z</time></trkpt>
<trkpt lat="46.2795753479004" lon="7.32715559005737"><ele></ele><time>2013-8-8T2:32:56Z</time></trkpt>
<trkpt lat="46.279613494873" lon="7.32717514038086"><ele></ele><time>2013-8-8T2:32:59Z</time></trkpt>
<trkpt lat="46.2796287536621" lon="7.32718324661255"><ele></ele><time>2013-8-8T2:33:2Z</time></trkpt>
<trkpt lat="46.2796401977539" lon="7.3271861076355"><ele></ele><time>2013-8-8T2:33:5Z</time></trkpt>
<trkpt lat="46.2796592712402" lon="7.32719469070435"><ele></ele><time>2013-8-8T2:33:8Z</time></trkpt>
<trkpt lat="46.2796821594238" lon="7.32721614837646"><ele></ele><time>2013-8-8T2:33:11Z</time></trkpt>
<trkpt lat="46.2798080444336" lon="7.32732009887695"><ele></ele><time>2013-8-8T2:33:14Z</time></trkpt>
<trkpt lat="46.2798385620117" lon="7.32732963562012"><ele></ele><time>2013-8-8T2:33:17Z</time></trkpt>
<trkpt lat="46.2798614501953" lon="7.32734298706055"><ele></ele><time>2013-8-8T2:33:20Z</time></trkpt>
<trkpt lat="46.2798843383789" lon="7.3273549079895"><ele></ele><time>2013-8-8T2:33:23Z</time></trkpt>
<trkpt lat="46.2799644470215" lon="7.32737922668457"><ele></ele><time>2013-8-8T2:33:26Z</time></trkpt>
<trkpt lat="46.2800102233887" lon="7.32740545272827"><ele></ele><time>2013-8-8T2:33:29Z</time></trkpt>
<trkpt lat="46.280029296875" lon="7.32742214202881"><ele></ele><time>2013-8-8T2:33:32Z</time></trkpt>
<trkpt lat="46.2800521850586" lon="7.32743501663208"><ele></ele><time>2013-8-8T2:33:35Z</time></trkpt>
<trkpt lat="46.2800750732422" lon="7.32744741439819"><ele></ele><time>2013-8-8T2:33:38Z</time></trkpt>
<trkpt lat="46.2800979614258" lon="7.32746171951294"><ele></ele><time>2013-8-8T2:33:41Z</time></trkpt>
<trkpt lat="46.2802238464356" lon="7.32755517959595"><ele></ele><time>2013-8-8T2:33:44Z</time></trkpt>
<trkpt lat="46.2802505493164" lon="7.32756805419922"><ele></ele><time>2013-8-8T2:33:47Z</time></trkpt>
<trkpt lat="46.2802734375" lon="7.32758140563965"><ele></ele><time>2013-8-8T2:33:50Z</time></trkpt>
<trkpt lat="46.2802963256836" lon="7.32759284973144"><ele></ele><time>2013-8-8T2:33:53Z</time></trkpt>
<trkpt lat="46.2803115844727" lon="7.32760524749756"><ele></ele><time>2013-8-8T2:33:56Z</time></trkpt>
<trkpt lat="46.280403137207" lon="7.32765197753906"><ele></ele><time>2013-8-8T2:33:59Z</time></trkpt>
<trkpt lat="46.2804298400879" lon="7.32766819000244"><ele></ele><time>2013-8-8T2:34:2Z</time></trkpt>
<trkpt lat="46.280460357666" lon="7.32768058776856"><ele></ele><time>2013-8-8T2:34:5Z</time></trkpt>
<trkpt lat="46.2804870605469" lon="7.32769250869751"><ele></ele><time>2013-8-8T2:34:8Z</time></trkpt>
<trkpt lat="46.2805099487305" lon="7.32770729064941"><ele></ele><time>2013-8-8T2:34:11Z</time></trkpt>
<trkpt lat="46.2805252075195" lon="7.32772397994995"><ele></ele><time>2013-8-8T2:34:14Z</time></trkpt>
<trkpt lat="46.2805709838867" lon="7.32775354385376"><ele></ele><time>2013-8-8T2:34:17Z</time></trkpt>
<trkpt lat="46.2806510925293" lon="7.32781076431274"><ele></ele><time>2013-8-8T2:34:20Z</time></trkpt>
<trkpt lat="46.2806777954102" lon="7.32782363891602"><ele></ele><time>2013-8-8T2:34:23Z</time></trkpt>
<trkpt lat="46.2807006835938" lon="7.32783508300781"><ele></ele><time>2013-8-8T2:34:26Z</time></trkpt>
<trkpt lat="46.2807197570801" lon="7.32784461975098"><ele></ele><time>2013-8-8T2:34:29Z</time></trkpt>
<trkpt lat="46.2807388305664" lon="7.3278546333313"><ele></ele><time>2013-8-8T2:34:32Z</time></trkpt>
<trkpt lat="46.2807579040527" lon="7.32786273956299"><ele></ele><time>2013-8-8T2:34:35Z</time></trkpt>
<trkpt lat="46.280834197998" lon="7.32790565490723"><ele></ele><time>2013-8-8T2:34:38Z</time></trkpt>
<trkpt lat="46.2808723449707" lon="7.32793474197388"><ele></ele><time>2013-8-8T2:34:41Z</time></trkpt>
<trkpt lat="46.280891418457" lon="7.32794761657715"><ele></ele><time>2013-8-8T2:34:44Z</time></trkpt>
<trkpt lat="46.2809104919434" lon="7.32796430587768"><ele></ele><time>2013-8-8T2:34:47Z</time></trkpt>
<trkpt lat="46.280933380127" lon="7.3279824256897"><ele></ele><time>2013-8-8T2:34:50Z</time></trkpt>
<trkpt lat="46.2809715270996" lon="7.32801485061646"><ele></ele><time>2013-8-8T2:34:53Z</time></trkpt>
<trkpt lat="46.2810516357422" lon="7.32807922363281"><ele></ele><time>2013-8-8T2:34:56Z</time></trkpt>
<trkpt lat="46.2810745239258" lon="7.32810068130493"><ele></ele><time>2013-8-8T2:34:59Z</time></trkpt>
<trkpt lat="46.2810935974121" lon="7.32812404632568"><ele></ele><time>2013-8-8T2:35:2Z</time></trkpt>
<trkpt lat="46.2811126708984" lon="7.32814502716064"><ele></ele><time>2013-8-8T2:35:5Z</time></trkpt>
<trkpt lat="46.281135559082" lon="7.32816219329834"><ele></ele><time>2013-8-8T2:35:8Z</time></trkpt>
<trkpt lat="46.2812538146973" lon="7.32826805114746"><ele></ele><time>2013-8-8T2:35:11Z</time></trkpt>
<trkpt lat="46.2812690734863" lon="7.32828664779663"><ele></ele><time>2013-8-8T2:35:14Z</time></trkpt>
<trkpt lat="46.2812843322754" lon="7.32831048965454"><ele></ele><time>2013-8-8T2:35:17Z</time></trkpt>
<trkpt lat="46.2812995910644" lon="7.32833766937256"><ele></ele><time>2013-8-8T2:35:20Z</time></trkpt>
<trkpt lat="46.2813186645508" lon="7.3283634185791"><ele></ele><time>2013-8-8T2:35:23Z</time></trkpt>
<trkpt lat="46.2813682556152" lon="7.328444480896"><ele></ele><time>2013-8-8T2:35:26Z</time></trkpt>
<trkpt lat="46.2814178466797" lon="7.32847690582275"><ele></ele><time>2013-8-8T2:35:29Z</time></trkpt>
<trkpt lat="46.2814674377441" lon="7.32846546173096"><ele></ele><time>2013-8-8T2:35:32Z</time></trkpt>
<trkpt lat="46.2814903259277" lon="7.3284502029419"><ele></ele><time>2013-8-8T2:35:35Z</time></trkpt>
<trkpt lat="46.2815093994141" lon="7.32843017578125"><ele></ele><time>2013-8-8T2:35:38Z</time></trkpt>
<trkpt lat="46.2815246582031" lon="7.32840204238892"><ele></ele><time>2013-8-8T2:35:41Z</time></trkpt>
<trkpt lat="46.2815284729004" lon="7.32836866378784"><ele></ele><time>2013-8-8T2:35:44Z</time></trkpt>
<trkpt lat="46.2815284729004" lon="7.32833337783814"><ele></ele><time>2013-8-8T2:35:47Z</time></trkpt>
<trkpt lat="46.2814826965332" lon="7.32823801040649"><ele></ele><time>2013-8-8T2:35:50Z</time></trkpt>
<trkpt lat="46.2813491821289" lon="7.32809114456177"><ele></ele><time>2013-8-8T2:35:53Z</time></trkpt>
<trkpt lat="46.2812690734863" lon="7.3279914855957"><ele></ele><time>2013-8-8T2:35:56Z</time></trkpt>
<trkpt lat="46.2812538146973" lon="7.32796478271484"><ele></ele><time>2013-8-8T2:35:59Z</time></trkpt>
<trkpt lat="46.2812347412109" lon="7.32793521881104"><ele></ele><time>2013-8-8T2:36:2Z</time></trkpt>
<trkpt lat="46.2812194824219" lon="7.32790946960449"><ele></ele><time>2013-8-8T2:36:5Z</time></trkpt>
<trkpt lat="46.2812042236328" lon="7.32788276672363"><ele></ele><time>2013-8-8T2:36:8Z</time></trkpt>
<trkpt lat="46.2811431884766" lon="7.32778549194336"><ele></ele><time>2013-8-8T2:36:11Z</time></trkpt>
<trkpt lat="46.2811241149902" lon="7.32776308059692"><ele></ele><time>2013-8-8T2:36:14Z</time></trkpt>
<trkpt lat="46.2811088562012" lon="7.32774639129639"><ele></ele><time>2013-8-8T2:36:17Z</time></trkpt>
<trkpt lat="46.2810897827148" lon="7.32772874832153"><ele></ele><time>2013-8-8T2:36:20Z</time></trkpt>
<trkpt lat="46.2810745239258" lon="7.32770729064941"><ele></ele><time>2013-8-8T2:36:23Z</time></trkpt>
<trkpt lat="46.2810592651367" lon="7.32768630981445"><ele></ele><time>2013-8-8T2:36:26Z</time></trkpt>
<trkpt lat="46.2809829711914" lon="7.3275899887085"><ele></ele><time>2013-8-8T2:36:29Z</time></trkpt>
<trkpt lat="46.2809410095215" lon="7.32754182815552"><ele></ele><time>2013-8-8T2:36:32Z</time></trkpt>
<trkpt lat="46.2809181213379" lon="7.32751560211182"><ele></ele><time>2013-8-8T2:36:35Z</time></trkpt>
<trkpt lat="46.2808952331543" lon="7.32749462127686"><ele></ele><time>2013-8-8T2:36:38Z</time></trkpt>
<trkpt lat="46.280876159668" lon="7.32747650146484"><ele></ele><time>2013-8-8T2:36:41Z</time></trkpt>
<trkpt lat="46.2808570861816" lon="7.32745552062988"><ele></ele><time>2013-8-8T2:36:44Z</time></trkpt>
<trkpt lat="46.2808151245117" lon="7.3274188041687"><ele></ele><time>2013-8-8T2:36:47Z</time></trkpt>
<trkpt lat="46.2807579040527" lon="7.32736158370972"><ele></ele><time>2013-8-8T2:36:50Z</time></trkpt>
<trkpt lat="46.2807388305664" lon="7.32734060287476"><ele></ele><time>2013-8-8T2:36:53Z</time></trkpt>
<trkpt lat="46.2807197570801" lon="7.32732582092285"><ele></ele><time>2013-8-8T2:36:56Z</time></trkpt>
<trkpt lat="46.2807006835938" lon="7.32731199264526"><ele></ele><time>2013-8-8T2:36:59Z</time></trkpt>
<trkpt lat="46.2806816101074" lon="7.32729530334473"><ele></ele><time>2013-8-8T2:37:2Z</time></trkpt>
<trkpt lat="46.2806243896484" lon="7.32724809646606"><ele></ele><time>2013-8-8T2:37:5Z</time></trkpt>
<trkpt lat="46.2805557250977" lon="7.3271656036377"><ele></ele><time>2013-8-8T2:37:8Z</time></trkpt>
<trkpt lat="46.2805328369141" lon="7.32714176177978"><ele></ele><time>2013-8-8T2:37:11Z</time></trkpt>
<trkpt lat="46.2805099487305" lon="7.32711744308472"><ele></ele><time>2013-8-8T2:37:14Z</time></trkpt>
<trkpt lat="46.2804870605469" lon="7.32709455490112"><ele></ele><time>2013-8-8T2:37:17Z</time></trkpt>
<trkpt lat="46.2804641723633" lon="7.32706689834595"><ele></ele><time>2013-8-8T2:37:20Z</time></trkpt>
<trkpt lat="46.2803916931152" lon="7.32695913314819"><ele></ele><time>2013-8-8T2:37:23Z</time></trkpt>
<trkpt lat="46.2803688049316" lon="7.32693243026733"><ele></ele><time>2013-8-8T2:37:26Z</time></trkpt>
<trkpt lat="46.2803497314453" lon="7.32691097259522"><ele></ele><time>2013-8-8T2:37:29Z</time></trkpt>
<trkpt lat="46.280330657959" lon="7.32689189910889"><ele></ele><time>2013-8-8T2:37:32Z</time></trkpt>
<trkpt lat="46.2803115844727" lon="7.32686281204224"><ele></ele><time>2013-8-8T2:37:35Z</time></trkpt>
<trkpt lat="46.2803001403809" lon="7.32684087753296"><ele></ele><time>2013-8-8T2:37:38Z</time></trkpt>
<trkpt lat="46.2802505493164" lon="7.32676935195923"><ele></ele><time>2013-8-8T2:37:41Z</time></trkpt>
<trkpt lat="46.2802314758301" lon="7.32674551010132"><ele></ele><time>2013-8-8T2:37:44Z</time></trkpt>
<trkpt lat="46.2802124023438" lon="7.32672119140625"><ele></ele><time>2013-8-8T2:37:47Z</time></trkpt>
<trkpt lat="46.2801971435547" lon="7.3266978263855"><ele></ele><time>2013-8-8T2:37:50Z</time></trkpt>
<trkpt lat="46.2801818847656" lon="7.3266749382019"><ele></ele><time>2013-8-8T2:37:53Z</time></trkpt>
<trkpt lat="46.2801628112793" lon="7.32665014266968"><ele></ele><time>2013-8-8T2:37:56Z</time></trkpt>
<trkpt lat="46.2801513671875" lon="7.32663202285767"><ele></ele><time>2013-8-8T2:37:59Z</time></trkpt>
<trkpt lat="46.2800827026367" lon="7.32655334472656"><ele></ele><time>2013-8-8T2:38:2Z</time></trkpt>
<trkpt lat="46.2800674438477" lon="7.32653856277466"><ele></ele><time>2013-8-8T2:38:5Z</time></trkpt>
<trkpt lat="46.2800483703613" lon="7.32651615142822"><ele></ele><time>2013-8-8T2:38:8Z</time></trkpt>
<trkpt lat="46.2800331115723" lon="7.3264889717102"><ele></ele><time>2013-8-8T2:38:11Z</time></trkpt>
<trkpt lat="46.2800216674805" lon="7.32646226882935"><ele></ele><time>2013-8-8T2:38:14Z</time></trkpt>
<trkpt lat="46.2799415588379" lon="7.32635116577148"><ele></ele><time>2013-8-8T2:38:17Z</time></trkpt>
<trkpt lat="46.2799110412598" lon="7.3262996673584"><ele></ele><time>2013-8-8T2:38:20Z</time></trkpt>
<trkpt lat="46.279899597168" lon="7.32627534866333"><ele></ele><time>2013-8-8T2:38:23Z</time></trkpt>
<trkpt lat="46.2798881530762" lon="7.32625579833984"><ele></ele><time>2013-8-8T2:38:26Z</time></trkpt>
<trkpt lat="46.2798728942871" lon="7.32623291015625"><ele></ele><time>2013-8-8T2:38:29Z</time></trkpt>
<trkpt lat="46.279857635498" lon="7.32621002197266"><ele></ele><time>2013-8-8T2:38:32Z</time></trkpt>
<trkpt lat="46.2797775268555" lon="7.32609462738037"><ele></ele><time>2013-8-8T2:38:35Z</time></trkpt>
<trkpt lat="46.2797622680664" lon="7.3260703086853"><ele></ele><time>2013-8-8T2:38:38Z</time></trkpt>
<trkpt lat="46.2797470092773" lon="7.32604217529297"><ele></ele><time>2013-8-8T2:38:41Z</time></trkpt>
<trkpt lat="46.279727935791" lon="7.32601451873779"><ele></ele><time>2013-8-8T2:38:44Z</time></trkpt>
<trkpt lat="46.279712677002" lon="7.32599020004272"><ele></ele><time>2013-8-8T2:38:47Z</time></trkpt>
<trkpt lat="46.2796020507812" lon="7.3258581161499"><ele></ele><time>2013-8-8T2:38:50Z</time></trkpt>
<trkpt lat="46.2795829772949" lon="7.32583618164062"><ele></ele><time>2013-8-8T2:38:53Z</time></trkpt>
<trkpt lat="46.2795677185059" lon="7.32581901550293"><ele></ele><time>2013-8-8T2:38:56Z</time></trkpt>
<trkpt lat="46.2795486450195" lon="7.32579803466797"><ele></ele><time>2013-8-8T2:38:59Z</time></trkpt>
<trkpt lat="46.2795295715332" lon="7.32577085494995"><ele></ele><time>2013-8-8T2:39:2Z</time></trkpt>
<trkpt lat="46.2794952392578" lon="7.32572174072266"><ele></ele><time>2013-8-8T2:39:5Z</time></trkpt>
<trkpt lat="46.2794418334961" lon="7.32566499710083"><ele></ele><time>2013-8-8T2:39:8Z</time></trkpt>
<trkpt lat="46.2794227600098" lon="7.3256459236145"><ele></ele><time>2013-8-8T2:39:11Z</time></trkpt>
<trkpt lat="46.2794036865234" lon="7.3256254196167"><ele></ele><time>2013-8-8T2:39:14Z</time></trkpt>
<trkpt lat="46.2793884277344" lon="7.32560777664185"><ele></ele><time>2013-8-8T2:39:17Z</time></trkpt>
<trkpt lat="46.2793731689453" lon="7.32558822631836"><ele></ele><time>2013-8-8T2:39:20Z</time></trkpt>
<trkpt lat="46.2793579101562" lon="7.32556772232056"><ele></ele><time>2013-8-8T2:39:23Z</time></trkpt>
<trkpt lat="46.2793121337891" lon="7.32551193237305"><ele></ele><time>2013-8-8T2:39:26Z</time></trkpt>
<trkpt lat="46.2792663574219" lon="7.32544803619385"><ele></ele><time>2013-8-8T2:39:29Z</time></trkpt>
<trkpt lat="46.2792320251465" lon="7.32540798187256"><ele></ele><time>2013-8-8T2:39:32Z</time></trkpt>
<trkpt lat="46.2792129516602" lon="7.32538843154907"><ele></ele><time>2013-8-8T2:39:35Z</time></trkpt>
<trkpt lat="46.2791976928711" lon="7.32536268234253"><ele></ele><time>2013-8-8T2:39:38Z</time></trkpt>
<trkpt lat="46.279182434082" lon="7.3253378868103"><ele></ele><time>2013-8-8T2:39:41Z</time></trkpt>
<trkpt lat="46.2791709899902" lon="7.32531785964966"><ele></ele><time>2013-8-8T2:39:44Z</time></trkpt>
<trkpt lat="46.2790641784668" lon="7.3251953125"><ele></ele><time>2013-8-8T2:39:47Z</time></trkpt>
<trkpt lat="46.279052734375" lon="7.32518005371094"><ele></ele><time>2013-8-8T2:39:50Z</time></trkpt>
<trkpt lat="46.2790336608887" lon="7.32515573501587"><ele></ele><time>2013-8-8T2:39:53Z</time></trkpt>
<trkpt lat="46.2790222167969" lon="7.32513284683228"><ele></ele><time>2013-8-8T2:39:56Z</time></trkpt>
<trkpt lat="46.2789764404297" lon="7.32503890991211"><ele></ele><time>2013-8-8T2:39:59Z</time></trkpt>
<trkpt lat="46.2789421081543" lon="7.32494497299194"><ele></ele><time>2013-8-8T2:40:2Z</time></trkpt>
<trkpt lat="46.2789268493652" lon="7.32490921020508"><ele></ele><time>2013-8-8T2:40:5Z</time></trkpt>
<trkpt lat="46.2789154052734" lon="7.3248724937439"><ele></ele><time>2013-8-8T2:40:8Z</time></trkpt>
<trkpt lat="46.2789039611816" lon="7.32484149932861"><ele></ele><time>2013-8-8T2:40:11Z</time></trkpt>
<trkpt lat="46.2788925170898" lon="7.32480955123901"><ele></ele><time>2013-8-8T2:40:14Z</time></trkpt>
<trkpt lat="46.2787971496582" lon="7.32461452484131"><ele></ele><time>2013-8-8T2:40:17Z</time></trkpt>
<trkpt lat="46.2787818908691" lon="7.32458782196045"><ele></ele><time>2013-8-8T2:40:20Z</time></trkpt>
<trkpt lat="46.2787666320801" lon="7.3245644569397"><ele></ele><time>2013-8-8T2:40:23Z</time></trkpt>
<trkpt lat="46.278751373291" lon="7.32453870773315"><ele></ele><time>2013-8-8T2:40:26Z</time></trkpt>
<trkpt lat="46.278736114502" lon="7.32451152801514"><ele></ele><time>2013-8-8T2:40:29Z</time></trkpt>
<trkpt lat="46.2787055969238" lon="7.32446146011352"><ele></ele><time>2013-8-8T2:40:32Z</time></trkpt>
<trkpt lat="46.2786483764648" lon="7.32435512542725"><ele></ele><time>2013-8-8T2:40:35Z</time></trkpt>
<trkpt lat="46.278636932373" lon="7.32432699203491"><ele></ele><time>2013-8-8T2:40:38Z</time></trkpt>
<trkpt lat="46.2786254882812" lon="7.32429933547974"><ele></ele><time>2013-8-8T2:40:41Z</time></trkpt>
<trkpt lat="46.2786102294922" lon="7.32427501678467"><ele></ele><time>2013-8-8T2:40:44Z</time></trkpt>
<trkpt lat="46.2785987854004" lon="7.3242506980896"><ele></ele><time>2013-8-8T2:40:47Z</time></trkpt>
<trkpt lat="46.2785835266113" lon="7.32422351837158"><ele></ele><time>2013-8-8T2:40:50Z</time></trkpt>
<trkpt lat="46.2785148620606" lon="7.32409286499024"><ele></ele><time>2013-8-8T2:40:53Z</time></trkpt>
<trkpt lat="46.2784996032715" lon="7.32406425476074"><ele></ele><time>2013-8-8T2:40:56Z</time></trkpt>
<trkpt lat="46.2784843444824" lon="7.3240385055542"><ele></ele><time>2013-8-8T2:40:59Z</time></trkpt>
<trkpt lat="46.2784690856934" lon="7.32401371002197"><ele></ele><time>2013-8-8T2:41:2Z</time></trkpt>
<trkpt lat="46.278450012207" lon="7.32398700714111"><ele></ele><time>2013-8-8T2:41:5Z</time></trkpt>
<trkpt lat="46.2784309387207" lon="7.3239598274231"><ele></ele><time>2013-8-8T2:41:8Z</time></trkpt>
<trkpt lat="46.2783432006836" lon="7.32382440567017"><ele></ele><time>2013-8-8T2:41:11Z</time></trkpt>
<trkpt lat="46.2783279418945" lon="7.32379579544067"><ele></ele><time>2013-8-8T2:41:14Z</time></trkpt>
<trkpt lat="46.2783126831055" lon="7.32376718521118"><ele></ele><time>2013-8-8T2:41:17Z</time></trkpt>
<trkpt lat="46.2783012390137" lon="7.32373142242432"><ele></ele><time>2013-8-8T2:41:20Z</time></trkpt>
<trkpt lat="46.2782974243164" lon="7.32369327545166"><ele></ele><time>2013-8-8T2:41:23Z</time></trkpt>
<trkpt lat="46.2783241271973" lon="7.32364845275879"><ele></ele><time>2013-8-8T2:41:26Z</time></trkpt>
<trkpt lat="46.2783813476562" lon="7.32369470596314"><ele></ele><time>2013-8-8T2:41:29Z</time></trkpt>
<trkpt lat="46.2783966064453" lon="7.32371807098389"><ele></ele><time>2013-8-8T2:41:32Z</time></trkpt>
<trkpt lat="46.2784118652344" lon="7.32374286651611"><ele></ele><time>2013-8-8T2:41:35Z</time></trkpt>
<trkpt lat="46.2784233093262" lon="7.32376480102539"><ele></ele><time>2013-8-8T2:41:38Z</time></trkpt>
<trkpt lat="46.2784385681152" lon="7.32378673553467"><ele></ele><time>2013-8-8T2:41:41Z</time></trkpt>
<trkpt lat="46.2784805297852" lon="7.32386875152588"><ele></ele><time>2013-8-8T2:41:44Z</time></trkpt>
<trkpt lat="46.2784957885742" lon="7.32389307022095"><ele></ele><time>2013-8-8T2:41:47Z</time></trkpt>
<trkpt lat="46.278507232666" lon="7.32391452789307"><ele></ele><time>2013-8-8T2:41:50Z</time></trkpt>
<trkpt lat="46.2785224914551" lon="7.3239312171936"><ele></ele><time>2013-8-8T2:41:53Z</time></trkpt>
<trkpt lat="46.2785377502441" lon="7.32394981384277"><ele></ele><time>2013-8-8T2:41:56Z</time></trkpt>
<trkpt lat="46.2785987854004" lon="7.32401657104492"><ele></ele><time>2013-8-8T2:41:59Z</time></trkpt>
<trkpt lat="46.2786178588867" lon="7.32403326034546"><ele></ele><time>2013-8-8T2:42:2Z</time></trkpt>
<trkpt lat="46.2786331176758" lon="7.32404804229736"><ele></ele><time>2013-8-8T2:42:5Z</time></trkpt>
<trkpt lat="46.2786483764648" lon="7.32406520843506"><ele></ele><time>2013-8-8T2:42:8Z</time></trkpt>
<trkpt lat="46.2786598205566" lon="7.32408285140991"><ele></ele><time>2013-8-8T2:42:11Z</time></trkpt>
<trkpt lat="46.278694152832" lon="7.32411289215088"><ele></ele><time>2013-8-8T2:42:14Z</time></trkpt>
<trkpt lat="46.2787399291992" lon="7.32416439056396"><ele></ele><time>2013-8-8T2:42:17Z</time></trkpt>
<trkpt lat="46.278751373291" lon="7.32418441772461"><ele></ele><time>2013-8-8T2:42:20Z</time></trkpt>
<trkpt lat="46.2787666320801" lon="7.32420206069946"><ele></ele><time>2013-8-8T2:42:23Z</time></trkpt>
<trkpt lat="46.2787818908691" lon="7.32421350479126"><ele></ele><time>2013-8-8T2:42:26Z</time></trkpt>
<trkpt lat="46.2787933349609" lon="7.3242301940918"><ele></ele><time>2013-8-8T2:42:29Z</time></trkpt>
<trkpt lat="46.2788696289062" lon="7.32430505752564"><ele></ele><time>2013-8-8T2:42:32Z</time></trkpt>
<trkpt lat="46.2788848876953" lon="7.3243203163147"><ele></ele><time>2013-8-8T2:42:35Z</time></trkpt>
<trkpt lat="46.2789001464844" lon="7.32433795928955"><ele></ele><time>2013-8-8T2:42:38Z</time></trkpt>
<trkpt lat="46.2789192199707" lon="7.32435369491577"><ele></ele><time>2013-8-8T2:42:41Z</time></trkpt>
<trkpt lat="46.278938293457" lon="7.32437038421631"><ele></ele><time>2013-8-8T2:42:44Z</time></trkpt>
<trkpt lat="46.2789688110352" lon="7.32441139221191"><ele></ele><time>2013-8-8T2:42:47Z</time></trkpt>
<trkpt lat="46.2789840698242" lon="7.32442903518677"><ele></ele><time>2013-8-8T2:42:50Z</time></trkpt>
<trkpt lat="46.2790031433106" lon="7.32444524765015"><ele></ele><time>2013-8-8T2:42:53Z</time></trkpt>
<trkpt lat="46.2790145874023" lon="7.32446146011352"><ele></ele><time>2013-8-8T2:42:56Z</time></trkpt>
<trkpt lat="46.2790298461914" lon="7.3244776725769"><ele></ele><time>2013-8-8T2:42:59Z</time></trkpt>
<trkpt lat="46.2790603637695" lon="7.32450532913208"><ele></ele><time>2013-8-8T2:43:2Z</time></trkpt>
<trkpt lat="46.2791137695312" lon="7.32456064224243"><ele></ele><time>2013-8-8T2:43:5Z</time></trkpt>
<trkpt lat="46.2791366577148" lon="7.32458066940308"><ele></ele><time>2013-8-8T2:43:8Z</time></trkpt>
<trkpt lat="46.2791557312012" lon="7.32459783554077"><ele></ele><time>2013-8-8T2:43:11Z</time></trkpt>
<trkpt lat="46.2791748046875" lon="7.32461547851562"><ele></ele><time>2013-8-8T2:43:14Z</time></trkpt>
<trkpt lat="46.2791938781738" lon="7.32462882995606"><ele></ele><time>2013-8-8T2:43:17Z</time></trkpt>
<trkpt lat="46.2792587280273" lon="7.32468843460083"><ele></ele><time>2013-8-8T2:43:20Z</time></trkpt>
<trkpt lat="46.2792739868164" lon="7.32470560073852"><ele></ele><time>2013-8-8T2:43:23Z</time></trkpt>
<trkpt lat="46.2792892456055" lon="7.3247241973877"><ele></ele><time>2013-8-8T2:43:26Z</time></trkpt>
<trkpt lat="46.2793083190918" lon="7.32474327087402"><ele></ele><time>2013-8-8T2:43:29Z</time></trkpt>
<trkpt lat="46.2793273925781" lon="7.32475852966309"><ele></ele><time>2013-8-8T2:43:32Z</time></trkpt>
<trkpt lat="46.2793731689453" lon="7.32480716705322"><ele></ele><time>2013-8-8T2:43:35Z</time></trkpt>
<trkpt lat="46.2793846130371" lon="7.32482290267944"><ele></ele><time>2013-8-8T2:43:38Z</time></trkpt>
<trkpt lat="46.2793998718262" lon="7.32483911514282"><ele></ele><time>2013-8-8T2:43:41Z</time></trkpt>
<trkpt lat="46.2794151306152" lon="7.32485485076904"><ele></ele><time>2013-8-8T2:43:44Z</time></trkpt>
<trkpt lat="46.2794990539551" lon="7.32493162155151"><ele></ele><time>2013-8-8T2:43:47Z</time></trkpt>
<trkpt lat="46.2795143127441" lon="7.32494401931763"><ele></ele><time>2013-8-8T2:43:50Z</time></trkpt>
<trkpt lat="46.2795333862305" lon="7.32495355606079"><ele></ele><time>2013-8-8T2:43:53Z</time></trkpt>
<trkpt lat="46.2795524597168" lon="7.32496500015259"><ele></ele><time>2013-8-8T2:43:56Z</time></trkpt>
<trkpt lat="46.2795715332031" lon="7.32497501373291"><ele></ele><time>2013-8-8T2:43:59Z</time></trkpt>
<trkpt lat="46.2796249389648" lon="7.32501411437988"><ele></ele><time>2013-8-8T2:44:2Z</time></trkpt>
<trkpt lat="46.2796478271484" lon="7.32502508163452"><ele></ele><time>2013-8-8T2:44:5Z</time></trkpt>
<trkpt lat="46.279670715332" lon="7.32503747940064"><ele></ele><time>2013-8-8T2:44:8Z</time></trkpt>
<trkpt lat="46.2796897888184" lon="7.32505178451538"><ele></ele><time>2013-8-8T2:44:11Z</time></trkpt>
<trkpt lat="46.279712677002" lon="7.3250617980957"><ele></ele><time>2013-8-8T2:44:14Z</time></trkpt>
<trkpt lat="46.2797241210938" lon="7.32507181167602"><ele></ele><time>2013-8-8T2:44:17Z</time></trkpt>
<trkpt lat="46.2797431945801" lon="7.32508039474487"><ele></ele><time>2013-8-8T2:44:20Z</time></trkpt>
<trkpt lat="46.2798080444336" lon="7.32509517669678"><ele></ele><time>2013-8-8T2:44:23Z</time></trkpt>
<trkpt lat="46.2798271179199" lon="7.32510614395142"><ele></ele><time>2013-8-8T2:44:26Z</time></trkpt>
<trkpt lat="46.2798500061035" lon="7.32511377334595"><ele></ele><time>2013-8-8T2:44:29Z</time></trkpt>
<trkpt lat="46.2798690795898" lon="7.32512617111206"><ele></ele><time>2013-8-8T2:44:32Z</time></trkpt>
<trkpt lat="46.2799682617188" lon="7.32516241073608"><ele></ele><time>2013-8-8T2:44:35Z</time></trkpt>
<trkpt lat="46.2799873352051" lon="7.32516622543335"><ele></ele><time>2013-8-8T2:44:38Z</time></trkpt>
<trkpt lat="46.2800064086914" lon="7.32516813278198"><ele></ele><time>2013-8-8T2:44:41Z</time></trkpt>
<trkpt lat="46.2800216674805" lon="7.32517719268799"><ele></ele><time>2013-8-8T2:44:44Z</time></trkpt>
<trkpt lat="46.2800407409668" lon="7.32518672943115"><ele></ele><time>2013-8-8T2:44:47Z</time></trkpt>
<trkpt lat="46.2801094055176" lon="7.32521295547485"><ele></ele><time>2013-8-8T2:44:50Z</time></trkpt>
<trkpt lat="46.2801284790039" lon="7.3252215385437"><ele></ele><time>2013-8-8T2:44:53Z</time></trkpt>
<trkpt lat="46.2801475524902" lon="7.32522916793823"><ele></ele><time>2013-8-8T2:44:56Z</time></trkpt>
<trkpt lat="46.2801628112793" lon="7.32523202896118"><ele></ele><time>2013-8-8T2:44:59Z</time></trkpt>
<trkpt lat="46.2801780700684" lon="7.32523679733276"><ele></ele><time>2013-8-8T2:45:2Z</time></trkpt>
<trkpt lat="46.2801971435547" lon="7.32524490356445"><ele></ele><time>2013-8-8T2:45:5Z</time></trkpt>
<trkpt lat="46.280216217041" lon="7.32525300979614"><ele></ele><time>2013-8-8T2:45:8Z</time></trkpt>
<trkpt lat="46.2802734375" lon="7.32528781890869"><ele></ele><time>2013-8-8T2:45:11Z</time></trkpt>
<trkpt lat="46.2802925109863" lon="7.32529592514038"><ele></ele><time>2013-8-8T2:45:14Z</time></trkpt>
<trkpt lat="46.2803153991699" lon="7.32531023025513"><ele></ele><time>2013-8-8T2:45:17Z</time></trkpt>
<trkpt lat="46.2803344726562" lon="7.32532215118408"><ele></ele><time>2013-8-8T2:45:20Z</time></trkpt>
<trkpt lat="46.2804145812988" lon="7.32535028457642"><ele></ele><time>2013-8-8T2:45:23Z</time></trkpt>
<trkpt lat="46.2804374694824" lon="7.3253607749939"><ele></ele><time>2013-8-8T2:45:26Z</time></trkpt>
<trkpt lat="46.2804641723633" lon="7.32536506652832"><ele></ele><time>2013-8-8T2:45:29Z</time></trkpt>
<trkpt lat="46.2804832458496" lon="7.32537126541138"><ele></ele><time>2013-8-8T2:45:32Z</time></trkpt>
<trkpt lat="46.2805023193359" lon="7.32537746429443"><ele></ele><time>2013-8-8T2:45:35Z</time></trkpt>
<trkpt lat="46.280574798584" lon="7.3254222869873"><ele></ele><time>2013-8-8T2:45:38Z</time></trkpt>
<trkpt lat="46.280590057373" lon="7.32543134689331"><ele></ele><time>2013-8-8T2:45:41Z</time></trkpt>
<trkpt lat="46.2806091308594" lon="7.32544040679932"><ele></ele><time>2013-8-8T2:45:44Z</time></trkpt>
<trkpt lat="46.2806282043457" lon="7.32544755935669"><ele></ele><time>2013-8-8T2:45:47Z</time></trkpt>
<trkpt lat="46.2806396484375" lon="7.32545948028564"><ele></ele><time>2013-8-8T2:45:50Z</time></trkpt>
<trkpt lat="46.2807159423828" lon="7.32549333572388"><ele></ele><time>2013-8-8T2:45:53Z</time></trkpt>
<trkpt lat="46.2807388305664" lon="7.32550048828125"><ele></ele><time>2013-8-8T2:45:56Z</time></trkpt>
<trkpt lat="46.2807540893555" lon="7.32550716400146"><ele></ele><time>2013-8-8T2:45:59Z</time></trkpt>
<trkpt lat="46.2807769775391" lon="7.32551193237305"><ele></ele><time>2013-8-8T2:46:2Z</time></trkpt>
<trkpt lat="46.2807998657227" lon="7.32551383972168"><ele></ele><time>2013-8-8T2:46:5Z</time></trkpt>
<trkpt lat="46.2808532714844" lon="7.32553339004517"><ele></ele><time>2013-8-8T2:46:8Z</time></trkpt>
<trkpt lat="46.2809257507324" lon="7.32552671432495"><ele></ele><time>2013-8-8T2:46:11Z</time></trkpt>
<trkpt lat="46.280948638916" lon="7.32553339004517"><ele></ele><time>2013-8-8T2:46:14Z</time></trkpt>
<trkpt lat="46.2809715270996" lon="7.3255443572998"><ele></ele><time>2013-8-8T2:46:17Z</time></trkpt>
<trkpt lat="46.2809906005859" lon="7.32555675506592"><ele></ele><time>2013-8-8T2:46:20Z</time></trkpt>
<trkpt lat="46.2810020446777" lon="7.32556772232056"><ele></ele><time>2013-8-8T2:46:23Z</time></trkpt>
<trkpt lat="46.2810935974121" lon="7.32562017440796"><ele></ele><time>2013-8-8T2:46:26Z</time></trkpt>
<trkpt lat="46.2811317443848" lon="7.3256368637085"><ele></ele><time>2013-8-8T2:46:29Z</time></trkpt>
<trkpt lat="46.2811584472656" lon="7.32564210891724"><ele></ele><time>2013-8-8T2:46:32Z</time></trkpt>
<trkpt lat="46.2811813354492" lon="7.32564735412598"><ele></ele><time>2013-8-8T2:46:35Z</time></trkpt>
<trkpt lat="46.2811965942383" lon="7.32565546035767"><ele></ele><time>2013-8-8T2:46:38Z</time></trkpt>
<trkpt lat="46.2812156677246" lon="7.32566213607788"><ele></ele><time>2013-8-8T2:46:41Z</time></trkpt>
<trkpt lat="46.2813453674316" lon="7.32572078704834"><ele></ele><time>2013-8-8T2:46:44Z</time></trkpt>
<trkpt lat="46.2813682556152" lon="7.3257327079773"><ele></ele><time>2013-8-8T2:46:47Z</time></trkpt>
<trkpt lat="46.2813911437988" lon="7.32574558258057"><ele></ele><time>2013-8-8T2:46:50Z</time></trkpt>
<trkpt lat="46.2814140319824" lon="7.32576036453247"><ele></ele><time>2013-8-8T2:46:53Z</time></trkpt>
<trkpt lat="46.2814331054688" lon="7.3257737159729"><ele></ele><time>2013-8-8T2:46:56Z</time></trkpt>
<trkpt lat="46.2814483642578" lon="7.32578468322754"><ele></ele><time>2013-8-8T2:46:59Z</time></trkpt>
<trkpt lat="46.2814674377441" lon="7.32579565048218"><ele></ele><time>2013-8-8T2:47:2Z</time></trkpt>
<trkpt lat="46.2815475463867" lon="7.32585668563843"><ele></ele><time>2013-8-8T2:47:5Z</time></trkpt>
<trkpt lat="46.2815628051758" lon="7.3258695602417"><ele></ele><time>2013-8-8T2:47:8Z</time></trkpt>
<trkpt lat="46.2815818786621" lon="7.32588005065918"><ele></ele><time>2013-8-8T2:47:11Z</time></trkpt>
<trkpt lat="46.2816009521484" lon="7.3258900642395"><ele></ele><time>2013-8-8T2:47:14Z</time></trkpt>
<trkpt lat="46.2816200256348" lon="7.32589721679688"><ele></ele><time>2013-8-8T2:47:17Z</time></trkpt>
<trkpt lat="46.2817077636719" lon="7.32593441009522"><ele></ele><time>2013-8-8T2:47:20Z</time></trkpt>
<trkpt lat="46.2817268371582" lon="7.32595062255859"><ele></ele><time>2013-8-8T2:47:23Z</time></trkpt>
<trkpt lat="46.2817459106445" lon="7.32595825195312"><ele></ele><time>2013-8-8T2:47:26Z</time></trkpt>
<trkpt lat="46.2817611694336" lon="7.32596969604492"><ele></ele><time>2013-8-8T2:47:29Z</time></trkpt>
<trkpt lat="46.2818412780762" lon="7.32599210739136"><ele></ele><time>2013-8-8T2:47:32Z</time></trkpt>
<trkpt lat="46.281909942627" lon="7.32601642608643"><ele></ele><time>2013-8-8T2:47:35Z</time></trkpt>
<trkpt lat="46.2819290161133" lon="7.32602643966675"><ele></ele><time>2013-8-8T2:47:38Z</time></trkpt>
<trkpt lat="46.2819480895996" lon="7.32603025436401"><ele></ele><time>2013-8-8T2:47:41Z</time></trkpt>
<trkpt lat="46.2819709777832" lon="7.3260350227356"><ele></ele><time>2013-8-8T2:47:44Z</time></trkpt>
<trkpt lat="46.2819938659668" lon="7.32603931427002"><ele></ele><time>2013-8-8T2:47:47Z</time></trkpt>
<trkpt lat="46.2820930480957" lon="7.32607650756836"><ele></ele><time>2013-8-8T2:47:50Z</time></trkpt>
<trkpt lat="46.282112121582" lon="7.32608318328857"><ele></ele><time>2013-8-8T2:47:53Z</time></trkpt>
<trkpt lat="46.2821350097656" lon="7.3260908126831"><ele></ele><time>2013-8-8T2:47:56Z</time></trkpt>
<trkpt lat="46.2821617126465" lon="7.32609224319458"><ele></ele><time>2013-8-8T2:47:59Z</time></trkpt>
<trkpt lat="46.2821807861328" lon="7.32609605789185"><ele></ele><time>2013-8-8T2:48:2Z</time></trkpt>
<trkpt lat="46.2822418212891" lon="7.32610368728638"><ele></ele><time>2013-8-8T2:48:5Z</time></trkpt>
<trkpt lat="46.2822799682617" lon="7.326096534729"><ele></ele><time>2013-8-8T2:48:8Z</time></trkpt>
<trkpt lat="46.282299041748" lon="7.32609558105469"><ele></ele><time>2013-8-8T2:48:11Z</time></trkpt>
<trkpt lat="46.2823181152344" lon="7.32609844207764"><ele></ele><time>2013-8-8T2:48:14Z</time></trkpt>
<trkpt lat="46.2823371887207" lon="7.32609939575195"><ele></ele><time>2013-8-8T2:48:17Z</time></trkpt>
<trkpt lat="46.2823600769043" lon="7.32610273361206"><ele></ele><time>2013-8-8T2:48:20Z</time></trkpt>
<trkpt lat="46.2823867797852" lon="7.32610607147217"><ele></ele><time>2013-8-8T2:48:23Z</time></trkpt>
<trkpt lat="46.2824668884277" lon="7.32610607147217"><ele></ele><time>2013-8-8T2:48:26Z</time></trkpt>
<trkpt lat="46.2824859619141" lon="7.3261022567749"><ele></ele><time>2013-8-8T2:48:29Z</time></trkpt>
<trkpt lat="46.2825012207031" lon="7.32610321044922"><ele></ele><time>2013-8-8T2:48:32Z</time></trkpt>
<trkpt lat="46.2825164794922" lon="7.32610559463501"><ele></ele><time>2013-8-8T2:48:35Z</time></trkpt>
<trkpt lat="46.2825393676758" lon="7.3260989189148"><ele></ele><time>2013-8-8T2:48:38Z</time></trkpt>
<trkpt lat="46.2826309204102" lon="7.32609176635742"><ele></ele><time>2013-8-8T2:48:41Z</time></trkpt>
<trkpt lat="46.2826461791992" lon="7.32609844207764"><ele></ele><time>2013-8-8T2:48:44Z</time></trkpt>
<trkpt lat="46.2826614379883" lon="7.32610082626343"><ele></ele><time>2013-8-8T2:48:47Z</time></trkpt>
<trkpt lat="46.2826805114746" lon="7.32610416412354"><ele></ele><time>2013-8-8T2:48:50Z</time></trkpt>
<trkpt lat="46.2826995849609" lon="7.32610845565796"><ele></ele><time>2013-8-8T2:48:53Z</time></trkpt>
<trkpt lat="46.2827835083008" lon="7.32610130310059"><ele></ele><time>2013-8-8T2:48:56Z</time></trkpt>
<trkpt lat="46.2828254699707" lon="7.32609987258911"><ele></ele><time>2013-8-8T2:48:59Z</time></trkpt>
<trkpt lat="46.282844543457" lon="7.3260989189148"><ele></ele><time>2013-8-8T2:49:2Z</time></trkpt>
<trkpt lat="46.2828636169434" lon="7.32610130310059"><ele></ele><time>2013-8-8T2:49:5Z</time></trkpt>
<trkpt lat="46.2828788757324" lon="7.32610511779785"><ele></ele><time>2013-8-8T2:49:8Z</time></trkpt>
<trkpt lat="46.2828979492188" lon="7.32610845565796"><ele></ele><time>2013-8-8T2:49:11Z</time></trkpt>
<trkpt lat="46.2829132080078" lon="7.32611179351807"><ele></ele><time>2013-8-8T2:49:14Z</time></trkpt>
<trkpt lat="46.2829360961914" lon="7.32613039016724"><ele></ele><time>2013-8-8T2:49:17Z</time></trkpt>
<trkpt lat="46.2829513549805" lon="7.32614326477051"><ele></ele><time>2013-8-8T2:49:20Z</time></trkpt>
<trkpt lat="46.2829627990723" lon="7.3261570930481"><ele></ele><time>2013-8-8T2:49:23Z</time></trkpt>
<trkpt lat="46.2829742431641" lon="7.32616806030274"><ele></ele><time>2013-8-8T2:49:26Z</time></trkpt>
<trkpt lat="46.2829856872559" lon="7.32617855072022"><ele></ele><time>2013-8-8T2:49:29Z</time></trkpt>
<trkpt lat="46.2829933166504" lon="7.3261890411377"><ele></ele><time>2013-8-8T2:49:32Z</time></trkpt>
<trkpt lat="46.2830810546875" lon="7.32623291015625"><ele></ele><time>2013-8-8T2:49:35Z</time></trkpt>
<trkpt lat="46.2830963134766" lon="7.32623720169067"><ele></ele><time>2013-8-8T2:49:38Z</time></trkpt>
<trkpt lat="46.2831115722656" lon="7.3262448310852"><ele></ele><time>2013-8-8T2:49:41Z</time></trkpt>
<trkpt lat="46.2831344604492" lon="7.32624387741089"><ele></ele><time>2013-8-8T2:49:44Z</time></trkpt>
<trkpt lat="46.2831649780273" lon="7.32623481750488"><ele></ele><time>2013-8-8T2:49:47Z</time></trkpt>
<trkpt lat="46.2832298278809" lon="7.32622385025024"><ele></ele><time>2013-8-8T2:49:50Z</time></trkpt>
<trkpt lat="46.2832794189453" lon="7.32622575759888"><ele></ele><time>2013-8-8T2:49:53Z</time></trkpt>
<trkpt lat="46.2833023071289" lon="7.32622575759888"><ele></ele><time>2013-8-8T2:49:56Z</time></trkpt>
<trkpt lat="46.2833213806152" lon="7.32622528076172"><ele></ele><time>2013-8-8T2:49:59Z</time></trkpt>
<trkpt lat="46.2833442687988" lon="7.32622575759888"><ele></ele><time>2013-8-8T2:50:2Z</time></trkpt>
<trkpt lat="46.283374786377" lon="7.32622480392456"><ele></ele><time>2013-8-8T2:50:5Z</time></trkpt>
<trkpt lat="46.2834014892578" lon="7.32622575759888"><ele></ele><time>2013-8-8T2:50:8Z</time></trkpt>
<trkpt lat="46.283561706543" lon="7.32623863220215"><ele></ele><time>2013-8-8T2:50:11Z</time></trkpt>
<trkpt lat="46.2835845947266" lon="7.32623481750488"><ele></ele><time>2013-8-8T2:50:14Z</time></trkpt>
<trkpt lat="46.2836112976074" lon="7.32623529434204"><ele></ele><time>2013-8-8T2:50:17Z</time></trkpt>
<trkpt lat="46.283634185791" lon="7.32623529434204"><ele></ele><time>2013-8-8T2:50:20Z</time></trkpt>
<trkpt lat="46.2837562561035" lon="7.32620525360107"><ele></ele><time>2013-8-8T2:50:23Z</time></trkpt>
<trkpt lat="46.2837829589844" lon="7.32618808746338"><ele></ele><time>2013-8-8T2:50:26Z</time></trkpt>
<trkpt lat="46.283821105957" lon="7.32616853713989"><ele></ele><time>2013-8-8T2:50:29Z</time></trkpt>
<trkpt lat="46.283863067627" lon="7.32614755630493"><ele></ele><time>2013-8-8T2:50:32Z</time></trkpt>
<trkpt lat="46.2838973999023" lon="7.32612991333008"><ele></ele><time>2013-8-8T2:50:35Z</time></trkpt>
<trkpt lat="46.2839202880859" lon="7.32612943649292"><ele></ele><time>2013-8-8T2:50:38Z</time></trkpt>
<trkpt lat="46.2839508056641" lon="7.32613515853882"><ele></ele><time>2013-8-8T2:50:41Z</time></trkpt>
<trkpt lat="46.2843437194824" lon="7.32600545883179"><ele></ele><time>2013-8-8T2:50:44Z</time></trkpt>
<trkpt lat="46.284366607666" lon="7.32598495483398"><ele></ele><time>2013-8-8T2:50:47Z</time></trkpt>
<trkpt lat="46.2843856811523" lon="7.32596778869629"><ele></ele><time>2013-8-8T2:50:50Z</time></trkpt>
<trkpt lat="46.2844047546387" lon="7.32595300674438"><ele></ele><time>2013-8-8T2:50:53Z</time></trkpt>
<trkpt lat="46.2844276428223" lon="7.32593393325806"><ele></ele><time>2013-8-8T2:50:56Z</time></trkpt>
<trkpt lat="46.2844619750977" lon="7.32589817047119"><ele></ele><time>2013-8-8T2:50:59Z</time></trkpt>
<trkpt lat="46.2845573425293" lon="7.32581806182861"><ele></ele><time>2013-8-8T2:51:2Z</time></trkpt>
<trkpt lat="46.2845726013184" lon="7.32581281661987"><ele></ele><time>2013-8-8T2:51:5Z</time></trkpt>
<trkpt lat="46.2845916748047" lon="7.32580614089966"><ele></ele><time>2013-8-8T2:51:8Z</time></trkpt>
<trkpt lat="46.2846145629883" lon="7.32579708099365"><ele></ele><time>2013-8-8T2:51:11Z</time></trkpt>
<trkpt lat="46.2846374511719" lon="7.32579326629639"><ele></ele><time>2013-8-8T2:51:14Z</time></trkpt>
<trkpt lat="46.2846832275391" lon="7.32578897476196"><ele></ele><time>2013-8-8T2:51:17Z</time></trkpt>
<trkpt lat="46.2847747802734" lon="7.32578229904175"><ele></ele><time>2013-8-8T2:51:20Z</time></trkpt>
<trkpt lat="46.284797668457" lon="7.32578611373901"><ele></ele><time>2013-8-8T2:51:23Z</time></trkpt>
<trkpt lat="46.2848243713379" lon="7.32578229904175"><ele></ele><time>2013-8-8T2:51:26Z</time></trkpt>
<trkpt lat="46.2848472595215" lon="7.32577800750732"><ele></ele><time>2013-8-8T2:51:29Z</time></trkpt>
<trkpt lat="46.2848663330078" lon="7.32577657699585"><ele></ele><time>2013-8-8T2:51:32Z</time></trkpt>
<trkpt lat="46.2849464416504" lon="7.32578039169312"><ele></ele><time>2013-8-8T2:51:35Z</time></trkpt>
<trkpt lat="46.284969329834" lon="7.32578468322754"><ele></ele><time>2013-8-8T2:51:38Z</time></trkpt>
<trkpt lat="46.284984588623" lon="7.32578897476196"><ele></ele><time>2013-8-8T2:51:41Z</time></trkpt>
<trkpt lat="46.2850112915039" lon="7.32578802108765"><ele></ele><time>2013-8-8T2:51:44Z</time></trkpt>
<trkpt lat="46.2850341796875" lon="7.32578039169312"><ele></ele><time>2013-8-8T2:51:47Z</time></trkpt>
<trkpt lat="46.2851104736328" lon="7.3257565498352"><ele></ele><time>2013-8-8T2:51:50Z</time></trkpt>
<trkpt lat="46.2851524353027" lon="7.32575130462646"><ele></ele><time>2013-8-8T2:51:53Z</time></trkpt>
<trkpt lat="46.2851715087891" lon="7.32574701309204"><ele></ele><time>2013-8-8T2:51:56Z</time></trkpt>
<trkpt lat="46.2851905822754" lon="7.3257417678833"><ele></ele><time>2013-8-8T2:51:59Z</time></trkpt>
<trkpt lat="46.2852096557617" lon="7.32573223114014"><ele></ele><time>2013-8-8T2:52:2Z</time></trkpt>
<trkpt lat="46.2852249145508" lon="7.32572221755982"><ele></ele><time>2013-8-8T2:52:5Z</time></trkpt>
<trkpt lat="46.285327911377" lon="7.32562303543091"><ele></ele><time>2013-8-8T2:52:8Z</time></trkpt>
<trkpt lat="46.2853469848633" lon="7.32560396194458"><ele></ele><time>2013-8-8T2:52:11Z</time></trkpt>
<trkpt lat="46.2853698730469" lon="7.32558155059814"><ele></ele><time>2013-8-8T2:52:14Z</time></trkpt>
<trkpt lat="46.2853889465332" lon="7.32556009292602"><ele></ele><time>2013-8-8T2:52:17Z</time></trkpt>
<trkpt lat="46.2854080200195" lon="7.32554006576538"><ele></ele><time>2013-8-8T2:52:20Z</time></trkpt>
<trkpt lat="46.2854499816894" lon="7.32550144195557"><ele></ele><time>2013-8-8T2:52:23Z</time></trkpt>
<trkpt lat="46.2855644226074" lon="7.32541084289551"><ele></ele><time>2013-8-8T2:52:26Z</time></trkpt>
<trkpt lat="46.2855949401856" lon="7.32539749145508"><ele></ele><time>2013-8-8T2:52:29Z</time></trkpt>
<trkpt lat="46.2856101989746" lon="7.32539558410644"><ele></ele><time>2013-8-8T2:52:32Z</time></trkpt>
<trkpt lat="46.2856330871582" lon="7.32539653778076"><ele></ele><time>2013-8-8T2:52:35Z</time></trkpt>
<trkpt lat="46.2856483459473" lon="7.32539749145508"><ele></ele><time>2013-8-8T2:52:38Z</time></trkpt>
<trkpt lat="46.2857475280762" lon="7.32539319992065"><ele></ele><time>2013-8-8T2:52:41Z</time></trkpt>
<trkpt lat="46.285816192627" lon="7.32537031173706"><ele></ele><time>2013-8-8T2:52:44Z</time></trkpt>
<trkpt lat="46.2858390808106" lon="7.32536315917969"><ele></ele><time>2013-8-8T2:52:47Z</time></trkpt>
<trkpt lat="46.2858581542969" lon="7.32535791397095"><ele></ele><time>2013-8-8T2:52:50Z</time></trkpt>
<trkpt lat="46.2858848571777" lon="7.32535123825073"><ele></ele><time>2013-8-8T2:52:53Z</time></trkpt>
<trkpt lat="46.2859077453613" lon="7.32534313201904"><ele></ele><time>2013-8-8T2:52:56Z</time></trkpt>
<trkpt lat="46.2860412597656" lon="7.32534408569336"><ele></ele><time>2013-8-8T2:52:59Z</time></trkpt>
<trkpt lat="46.2861289978027" lon="7.32532644271851"><ele></ele><time>2013-8-8T2:53:2Z</time></trkpt>
<trkpt lat="46.2861595153809" lon="7.32532358169556"><ele></ele><time>2013-8-8T2:53:5Z</time></trkpt>
<trkpt lat="46.286190032959" lon="7.32532501220703"><ele></ele><time>2013-8-8T2:53:8Z</time></trkpt>
<trkpt lat="46.2862167358398" lon="7.32532691955566"><ele></ele><time>2013-8-8T2:53:11Z</time></trkpt>
<trkpt lat="46.2862434387207" lon="7.32532930374146"><ele></ele><time>2013-8-8T2:53:14Z</time></trkpt>
<trkpt lat="46.2863655090332" lon="7.32532119750976"><ele></ele><time>2013-8-8T2:53:17Z</time></trkpt>
<trkpt lat="46.2864265441894" lon="7.32528305053711"><ele></ele><time>2013-8-8T2:53:20Z</time></trkpt>
<trkpt lat="46.2864418029785" lon="7.32526445388794"><ele></ele><time>2013-8-8T2:53:23Z</time></trkpt>
<trkpt lat="46.2864570617676" lon="7.3252420425415"><ele></ele><time>2013-8-8T2:53:26Z</time></trkpt>
<trkpt lat="46.2864799499512" lon="7.32521772384644"><ele></ele><time>2013-8-8T2:53:29Z</time></trkpt>
<trkpt lat="46.2864990234375" lon="7.32519674301148"><ele></ele><time>2013-8-8T2:53:32Z</time></trkpt>
<trkpt lat="46.2865829467773" lon="7.32505464553833"><ele></ele><time>2013-8-8T2:53:35Z</time></trkpt>
<trkpt lat="46.2866821289062" lon="7.32486581802368"><ele></ele><time>2013-8-8T2:53:38Z</time></trkpt>
<trkpt lat="46.2868156433106" lon="7.32474422454834"><ele></ele><time>2013-8-8T2:53:41Z</time></trkpt>
<trkpt lat="46.2869720458984" lon="7.32456922531128"><ele></ele><time>2013-8-8T2:53:44Z</time></trkpt>
<trkpt lat="46.2870330810547" lon="7.32447195053101"><ele></ele><time>2013-8-8T2:53:47Z</time></trkpt>
<trkpt lat="46.2870750427246" lon="7.32444000244141"><ele></ele><time>2013-8-8T2:53:50Z</time></trkpt>
<trkpt lat="46.2872161865234" lon="7.32438802719116"><ele></ele><time>2013-8-8T2:53:53Z</time></trkpt>
<trkpt lat="46.287239074707" lon="7.324387550354"><ele></ele><time>2013-8-8T2:53:56Z</time></trkpt>
<trkpt lat="46.2872581481934" lon="7.32438325881958"><ele></ele><time>2013-8-8T2:53:59Z</time></trkpt>
<trkpt lat="46.287281036377" lon="7.32437467575073"><ele></ele><time>2013-8-8T2:54:2Z</time></trkpt>
<trkpt lat="46.2873725891113" lon="7.32436561584473"><ele></ele><time>2013-8-8T2:54:5Z</time></trkpt>
<trkpt lat="46.2873992919922" lon="7.32436275482178"><ele></ele><time>2013-8-8T2:54:8Z</time></trkpt>
<trkpt lat="46.2874298095703" lon="7.32435941696167"><ele></ele><time>2013-8-8T2:54:11Z</time></trkpt>
<trkpt lat="46.2874526977539" lon="7.3243579864502"><ele></ele><time>2013-8-8T2:54:14Z</time></trkpt>
<trkpt lat="46.2874755859375" lon="7.32435512542725"><ele></ele><time>2013-8-8T2:54:17Z</time></trkpt>
<trkpt lat="46.2874984741211" lon="7.3243522644043"><ele></ele><time>2013-8-8T2:54:20Z</time></trkpt>
<trkpt lat="46.2875671386719" lon="7.32433938980102"><ele></ele><time>2013-8-8T2:54:23Z</time></trkpt>
<trkpt lat="46.2876091003418" lon="7.32432460784912"><ele></ele><time>2013-8-8T2:54:26Z</time></trkpt>
<trkpt lat="46.2876319885254" lon="7.32431697845459"><ele></ele><time>2013-8-8T2:54:29Z</time></trkpt>
<trkpt lat="46.2876510620117" lon="7.32431268692017"><ele></ele><time>2013-8-8T2:54:32Z</time></trkpt>
<trkpt lat="46.287670135498" lon="7.32430744171143"><ele></ele><time>2013-8-8T2:54:35Z</time></trkpt>
<trkpt lat="46.2876853942871" lon="7.324303150177"><ele></ele><time>2013-8-8T2:54:38Z</time></trkpt>
<trkpt lat="46.2877197265625" lon="7.32429313659668"><ele></ele><time>2013-8-8T2:54:41Z</time></trkpt>
<trkpt lat="46.2877769470215" lon="7.32425594329834"><ele></ele><time>2013-8-8T2:54:44Z</time></trkpt>
<trkpt lat="46.2877883911133" lon="7.32424783706665"><ele></ele><time>2013-8-8T2:54:47Z</time></trkpt>
<trkpt lat="46.2878074645996" lon="7.32423782348633"><ele></ele><time>2013-8-8T2:54:50Z</time></trkpt>
<trkpt lat="46.2878227233887" lon="7.32422733306885"><ele></ele><time>2013-8-8T2:54:53Z</time></trkpt>
<trkpt lat="46.287841796875" lon="7.32421207427978"><ele></ele><time>2013-8-8T2:54:56Z</time></trkpt>
<trkpt lat="46.2879180908203" lon="7.32414865493774"><ele></ele><time>2013-8-8T2:54:59Z</time></trkpt>
<trkpt lat="46.2879371643066" lon="7.32413387298584"><ele></ele><time>2013-8-8T2:55:2Z</time></trkpt>
<trkpt lat="46.2879638671875" lon="7.32412052154541"><ele></ele><time>2013-8-8T2:55:5Z</time></trkpt>
<trkpt lat="46.2879791259766" lon="7.3241171836853"><ele></ele><time>2013-8-8T2:55:8Z</time></trkpt>
<trkpt lat="46.2880058288574" lon="7.32411479949951"><ele></ele><time>2013-8-8T2:55:11Z</time></trkpt>
<trkpt lat="46.2880249023438" lon="7.32411003112793"><ele></ele><time>2013-8-8T2:55:14Z</time></trkpt>
<trkpt lat="46.2880439758301" lon="7.32410717010498"><ele></ele><time>2013-8-8T2:55:17Z</time></trkpt>
<trkpt lat="46.2881278991699" lon="7.32407712936401"><ele></ele><time>2013-8-8T2:55:20Z</time></trkpt>
<trkpt lat="46.288143157959" lon="7.32406854629517"><ele></ele><time>2013-8-8T2:55:23Z</time></trkpt>
<trkpt lat="46.2881660461426" lon="7.324059009552"><ele></ele><time>2013-8-8T2:55:26Z</time></trkpt>
<trkpt lat="46.2881927490234" lon="7.32405090332031"><ele></ele><time>2013-8-8T2:55:29Z</time></trkpt>
<trkpt lat="46.2882118225098" lon="7.32404851913452"><ele></ele><time>2013-8-8T2:55:32Z</time></trkpt>
<trkpt lat="46.2882843017578" lon="7.32406997680664"><ele></ele><time>2013-8-8T2:55:35Z</time></trkpt>
<trkpt lat="46.2883605957031" lon="7.3241114616394"><ele></ele><time>2013-8-8T2:55:38Z</time></trkpt>
<trkpt lat="46.2883796691894" lon="7.32411861419678"><ele></ele><time>2013-8-8T2:55:41Z</time></trkpt>
<trkpt lat="46.2883949279785" lon="7.32413387298584"><ele></ele><time>2013-8-8T2:55:44Z</time></trkpt>
<trkpt lat="46.2884101867676" lon="7.32415199279785"><ele></ele><time>2013-8-8T2:55:47Z</time></trkpt>
<trkpt lat="46.2884254455566" lon="7.32417154312134"><ele></ele><time>2013-8-8T2:55:50Z</time></trkpt>
<trkpt lat="46.288501739502" lon="7.32422351837158"><ele></ele><time>2013-8-8T2:55:53Z</time></trkpt>
<trkpt lat="46.2885246276856" lon="7.32422685623169"><ele></ele><time>2013-8-8T2:55:56Z</time></trkpt>
<trkpt lat="46.2885475158691" lon="7.32422494888306"><ele></ele><time>2013-8-8T2:55:59Z</time></trkpt>
<trkpt lat="46.2885704040527" lon="7.32422494888306"><ele></ele><time>2013-8-8T2:56:2Z</time></trkpt>
<trkpt lat="46.2885932922363" lon="7.32422351837158"><ele></ele><time>2013-8-8T2:56:5Z</time></trkpt>
<trkpt lat="46.288688659668" lon="7.32420825958252"><ele></ele><time>2013-8-8T2:56:8Z</time></trkpt>
<trkpt lat="46.2887077331543" lon="7.32420778274536"><ele></ele><time>2013-8-8T2:56:11Z</time></trkpt>
<trkpt lat="46.2887268066406" lon="7.32420778274536"><ele></ele><time>2013-8-8T2:56:14Z</time></trkpt>
<trkpt lat="46.2887535095215" lon="7.32420110702515"><ele></ele><time>2013-8-8T2:56:17Z</time></trkpt>
<trkpt lat="46.2887725830078" lon="7.3241925239563"><ele></ele><time>2013-8-8T2:56:20Z</time></trkpt>
<trkpt lat="46.2887954711914" lon="7.32419157028198"><ele></ele><time>2013-8-8T2:56:23Z</time></trkpt>
<trkpt lat="46.288818359375" lon="7.32419443130493"><ele></ele><time>2013-8-8T2:56:26Z</time></trkpt>
<trkpt lat="46.2889175415039" lon="7.32423257827759"><ele></ele><time>2013-8-8T2:56:29Z</time></trkpt>
<trkpt lat="46.2889366149902" lon="7.32424211502075"><ele></ele><time>2013-8-8T2:56:32Z</time></trkpt>
<trkpt lat="46.2889556884766" lon="7.32425403594971"><ele></ele><time>2013-8-8T2:56:35Z</time></trkpt>
<trkpt lat="46.2889747619629" lon="7.32426595687866"><ele></ele><time>2013-8-8T2:56:38Z</time></trkpt>
<trkpt lat="46.2889938354492" lon="7.32427453994751"><ele></ele><time>2013-8-8T2:56:41Z</time></trkpt>
<trkpt lat="46.2890815734863" lon="7.32432270050049"><ele></ele><time>2013-8-8T2:56:44Z</time></trkpt>
<trkpt lat="46.2891006469727" lon="7.32434177398682"><ele></ele><time>2013-8-8T2:56:47Z</time></trkpt>
<trkpt lat="46.289119720459" lon="7.32435464859009"><ele></ele><time>2013-8-8T2:56:50Z</time></trkpt>
<trkpt lat="46.2891426086426" lon="7.32436513900757"><ele></ele><time>2013-8-8T2:56:53Z</time></trkpt>
<trkpt lat="46.2891693115234" lon="7.32437419891357"><ele></ele><time>2013-8-8T2:56:56Z</time></trkpt>
<trkpt lat="46.2892570495606" lon="7.32435941696167"><ele></ele><time>2013-8-8T2:56:59Z</time></trkpt>
<trkpt lat="46.2892761230469" lon="7.32434415817261"><ele></ele><time>2013-8-8T2:57:2Z</time></trkpt>
<trkpt lat="46.2892951965332" lon="7.32432889938354"><ele></ele><time>2013-8-8T2:57:5Z</time></trkpt>
<trkpt lat="46.2893142700195" lon="7.32431221008301"><ele></ele><time>2013-8-8T2:57:8Z</time></trkpt>
<trkpt lat="46.2893295288086" lon="7.32429552078247"><ele></ele><time>2013-8-8T2:57:11Z</time></trkpt>
<trkpt lat="46.2893447875977" lon="7.32427787780762"><ele></ele><time>2013-8-8T2:57:14Z</time></trkpt>
<trkpt lat="46.2893600463867" lon="7.32425880432129"><ele></ele><time>2013-8-8T2:57:17Z</time></trkpt>
<trkpt lat="46.2894134521484" lon="7.32415246963501"><ele></ele><time>2013-8-8T2:57:20Z</time></trkpt>
<trkpt lat="46.2894248962402" lon="7.32412385940552"><ele></ele><time>2013-8-8T2:57:23Z</time></trkpt>
<trkpt lat="46.2894325256348" lon="7.32409381866455"><ele></ele><time>2013-8-8T2:57:26Z</time></trkpt>
<trkpt lat="46.2894401550293" lon="7.32406425476074"><ele></ele><time>2013-8-8T2:57:29Z</time></trkpt>
<trkpt lat="46.2894515991211" lon="7.32404136657715"><ele></ele><time>2013-8-8T2:57:32Z</time></trkpt>
<trkpt lat="46.2895011901856" lon="7.32392740249634"><ele></ele><time>2013-8-8T2:57:35Z</time></trkpt>
<trkpt lat="46.2895164489746" lon="7.32390451431274"><ele></ele><time>2013-8-8T2:57:38Z</time></trkpt>
<trkpt lat="46.2895317077637" lon="7.32388257980347"><ele></ele><time>2013-8-8T2:57:41Z</time></trkpt>
<trkpt lat="46.2895431518555" lon="7.32386589050293"><ele></ele><time>2013-8-8T2:57:44Z</time></trkpt>
<trkpt lat="46.2895584106445" lon="7.32385015487671"><ele></ele><time>2013-8-8T2:57:47Z</time></trkpt>
<trkpt lat="46.2895927429199" lon="7.32383012771606"><ele></ele><time>2013-8-8T2:57:50Z</time></trkpt>
<trkpt lat="46.2896385192871" lon="7.32382678985596"><ele></ele><time>2013-8-8T2:57:53Z</time></trkpt>
<trkpt lat="46.2896881103516" lon="7.32384538650513"><ele></ele><time>2013-8-8T2:57:56Z</time></trkpt>
<trkpt lat="46.2897109985352" lon="7.32385635375976"><ele></ele><time>2013-8-8T2:57:59Z</time></trkpt>
<trkpt lat="46.2897300720215" lon="7.32386779785156"><ele></ele><time>2013-8-8T2:58:2Z</time></trkpt>
<trkpt lat="46.2897529602051" lon="7.32388019561768"><ele></ele><time>2013-8-8T2:58:5Z</time></trkpt>
<trkpt lat="46.2897720336914" lon="7.32389211654663"><ele></ele><time>2013-8-8T2:58:8Z</time></trkpt>
<trkpt lat="46.289867401123" lon="7.32396078109741"><ele></ele><time>2013-8-8T2:58:11Z</time></trkpt>
<trkpt lat="46.2898902893066" lon="7.32396602630615"><ele></ele><time>2013-8-8T2:58:14Z</time></trkpt>
<trkpt lat="46.2899131774902" lon="7.32397222518921"><ele></ele><time>2013-8-8T2:58:17Z</time></trkpt>
<trkpt lat="46.2899322509766" lon="7.32397603988648"><ele></ele><time>2013-8-8T2:58:20Z</time></trkpt>
<trkpt lat="46.2899551391602" lon="7.32397747039795"><ele></ele><time>2013-8-8T2:58:23Z</time></trkpt>
<trkpt lat="46.2899780273438" lon="7.32398462295532"><ele></ele><time>2013-8-8T2:58:26Z</time></trkpt>
<trkpt lat="46.2900009155273" lon="7.32399415969849"><ele></ele><time>2013-8-8T2:58:29Z</time></trkpt>
<trkpt lat="46.2901191711426" lon="7.32397222518921"><ele></ele><time>2013-8-8T2:58:32Z</time></trkpt>
<trkpt lat="46.2902069091797" lon="7.32394170761108"><ele></ele><time>2013-8-8T2:58:35Z</time></trkpt>
<trkpt lat="46.2902488708496" lon="7.32393646240234"><ele></ele><time>2013-8-8T2:58:38Z</time></trkpt>
<trkpt lat="46.2903289794922" lon="7.3239164352417"><ele></ele><time>2013-8-8T2:58:41Z</time></trkpt>
<trkpt lat="46.2903709411621" lon="7.32392072677612"><ele></ele><time>2013-8-8T2:58:44Z</time></trkpt>
<trkpt lat="46.2903938293457" lon="7.3239221572876"><ele></ele><time>2013-8-8T2:58:47Z</time></trkpt>
<trkpt lat="46.2905044555664" lon="7.32389545440674"><ele></ele><time>2013-8-8T2:58:50Z</time></trkpt>
<trkpt lat="46.29052734375" lon="7.32388496398926"><ele></ele><time>2013-8-8T2:58:53Z</time></trkpt>
<trkpt lat="46.2905502319336" lon="7.32387065887451"><ele></ele><time>2013-8-8T2:58:56Z</time></trkpt>
<trkpt lat="46.2905731201172" lon="7.32385969161987"><ele></ele><time>2013-8-8T2:58:59Z</time></trkpt>
<trkpt lat="46.2905960083008" lon="7.32385063171387"><ele></ele><time>2013-8-8T2:59:2Z</time></trkpt>
<trkpt lat="46.290657043457" lon="7.32381391525268"><ele></ele><time>2013-8-8T2:59:5Z</time></trkpt>
<trkpt lat="46.2907600402832" lon="7.32380294799805"><ele></ele><time>2013-8-8T2:59:8Z</time></trkpt>
<trkpt lat="46.2907791137695" lon="7.32381057739258"><ele></ele><time>2013-8-8T2:59:11Z</time></trkpt>
<trkpt lat="46.2908020019531" lon="7.32381772994995"><ele></ele><time>2013-8-8T2:59:14Z</time></trkpt>
<trkpt lat="46.2908210754394" lon="7.32382154464722"><ele></ele><time>2013-8-8T2:59:17Z</time></trkpt>
<trkpt lat="46.2908401489258" lon="7.32382774353027"><ele></ele><time>2013-8-8T2:59:20Z</time></trkpt>
<trkpt lat="46.2908897399902" lon="7.32384061813354"><ele></ele><time>2013-8-8T2:59:23Z</time></trkpt>
<trkpt lat="46.2909240722656" lon="7.32384443283081"><ele></ele><time>2013-8-8T2:59:26Z</time></trkpt>
<trkpt lat="46.290943145752" lon="7.32384586334228"><ele></ele><time>2013-8-8T2:59:29Z</time></trkpt>
<trkpt lat="46.2909622192383" lon="7.32384014129639"><ele></ele><time>2013-8-8T2:59:32Z</time></trkpt>
<trkpt lat="46.2909812927246" lon="7.32383823394775"><ele></ele><time>2013-8-8T2:59:35Z</time></trkpt>
<trkpt lat="46.2909965515137" lon="7.32383966445923"><ele></ele><time>2013-8-8T2:59:38Z</time></trkpt>
<trkpt lat="46.291015625" lon="7.32384586334228"><ele></ele><time>2013-8-8T2:59:41Z</time></trkpt>
<trkpt lat="46.2910537719727" lon="7.32385492324829"><ele></ele><time>2013-8-8T2:59:44Z</time></trkpt>
<trkpt lat="46.2910690307617" lon="7.32385587692261"><ele></ele><time>2013-8-8T2:59:47Z</time></trkpt>
<trkpt lat="46.2910766601562" lon="7.32385492324829"><ele></ele><time>2013-8-8T2:59:50Z</time></trkpt>
<trkpt lat="46.2910919189453" lon="7.32385587692261"><ele></ele><time>2013-8-8T2:59:53Z</time></trkpt>
<trkpt lat="46.2911758422852" lon="7.32384634017944"><ele></ele><time>2013-8-8T2:59:56Z</time></trkpt>
<trkpt lat="46.2911949157715" lon="7.32384347915649"><ele></ele><time>2013-8-8T2:59:59Z</time></trkpt>
<trkpt lat="46.2912178039551" lon="7.32384634017944"><ele></ele><time>2013-8-8T3:0:2Z</time></trkpt>
<trkpt lat="46.2912445068359" lon="7.32385110855102"><ele></ele><time>2013-8-8T3:0:5Z</time></trkpt>
<trkpt lat="46.2912635803223" lon="7.32385063171387"><ele></ele><time>2013-8-8T3:0:8Z</time></trkpt>
<trkpt lat="46.2912979125977" lon="7.32384204864502"><ele></ele><time>2013-8-8T3:0:11Z</time></trkpt>
<trkpt lat="46.291316986084" lon="7.32384777069092"><ele></ele><time>2013-8-8T3:0:14Z</time></trkpt>
<trkpt lat="46.291332244873" lon="7.3238582611084"><ele></ele><time>2013-8-8T3:0:17Z</time></trkpt>
<trkpt lat="46.2913513183594" lon="7.32386636734009"><ele></ele><time>2013-8-8T3:0:20Z</time></trkpt>
<trkpt lat="46.291374206543" lon="7.32387638092041"><ele></ele><time>2013-8-8T3:0:23Z</time></trkpt>
<trkpt lat="46.2914009094238" lon="7.32387495040894"><ele></ele><time>2013-8-8T3:0:26Z</time></trkpt>
<trkpt lat="46.2914237976074" lon="7.32386779785156"><ele></ele><time>2013-8-8T3:0:29Z</time></trkpt>
<trkpt lat="46.2914810180664" lon="7.32385349273682"><ele></ele><time>2013-8-8T3:0:32Z</time></trkpt>
<trkpt lat="46.2915000915527" lon="7.32385206222534"><ele></ele><time>2013-8-8T3:0:35Z</time></trkpt>
<trkpt lat="46.2915267944336" lon="7.32384967803955"><ele></ele><time>2013-8-8T3:0:38Z</time></trkpt>
<trkpt lat="46.2915458679199" lon="7.32384157180786"><ele></ele><time>2013-8-8T3:0:41Z</time></trkpt>
<trkpt lat="46.2915687561035" lon="7.32383346557617"><ele></ele><time>2013-8-8T3:0:44Z</time></trkpt>
<trkpt lat="46.2915954589844" lon="7.32383251190186"><ele></ele><time>2013-8-8T3:0:47Z</time></trkpt>
<trkpt lat="46.2916450500488" lon="7.32383966445923"><ele></ele><time>2013-8-8T3:0:50Z</time></trkpt>
<trkpt lat="46.2916679382324" lon="7.32384204864502"><ele></ele><time>2013-8-8T3:0:53Z</time></trkpt>
<trkpt lat="46.2916870117188" lon="7.32384157180786"><ele></ele><time>2013-8-8T3:0:56Z</time></trkpt>
<trkpt lat="46.2917137145996" lon="7.3238468170166"><ele></ele><time>2013-8-8T3:0:59Z</time></trkpt>
<trkpt lat="46.2917366027832" lon="7.32384634017944"><ele></ele><time>2013-8-8T3:1:2Z</time></trkpt>
<trkpt lat="46.2917709350586" lon="7.32385444641113"><ele></ele><time>2013-8-8T3:1:5Z</time></trkpt>
<trkpt lat="46.2917900085449" lon="7.32385396957398"><ele></ele><time>2013-8-8T3:1:8Z</time></trkpt>
<trkpt lat="46.2918014526367" lon="7.32385969161987"><ele></ele><time>2013-8-8T3:1:11Z</time></trkpt>
<trkpt lat="46.291820526123" lon="7.32386445999146"><ele></ele><time>2013-8-8T3:1:14Z</time></trkpt>
<trkpt lat="46.2918395996094" lon="7.32387542724609"><ele></ele><time>2013-8-8T3:1:17Z</time></trkpt>
<trkpt lat="46.2918739318848" lon="7.32388305664062"><ele></ele><time>2013-8-8T3:1:20Z</time></trkpt>
<trkpt lat="46.2918891906738" lon="7.32388257980347"><ele></ele><time>2013-8-8T3:1:23Z</time></trkpt>
<trkpt lat="46.2919044494629" lon="7.32388114929199"><ele></ele><time>2013-8-8T3:1:26Z</time></trkpt>
<trkpt lat="46.291919708252" lon="7.32388305664062"><ele></ele><time>2013-8-8T3:1:29Z</time></trkpt>
<trkpt lat="46.291934967041" lon="7.32388639450073"><ele></ele><time>2013-8-8T3:1:32Z</time></trkpt>
<trkpt lat="46.2919540405273" lon="7.32388925552368"><ele></ele><time>2013-8-8T3:1:35Z</time></trkpt>
<trkpt lat="46.2919845581055" lon="7.32389116287232"><ele></ele><time>2013-8-8T3:1:38Z</time></trkpt>
<trkpt lat="46.2920074462891" lon="7.32389783859253"><ele></ele><time>2013-8-8T3:1:41Z</time></trkpt>
<trkpt lat="46.2920265197754" lon="7.32390975952148"><ele></ele><time>2013-8-8T3:1:44Z</time></trkpt>
<trkpt lat="46.2920455932617" lon="7.32391691207886"><ele></ele><time>2013-8-8T3:1:47Z</time></trkpt>
<trkpt lat="46.2920684814453" lon="7.32392168045044"><ele></ele><time>2013-8-8T3:1:50Z</time></trkpt>
<trkpt lat="46.2920951843262" lon="7.32392454147339"><ele></ele><time>2013-8-8T3:1:53Z</time></trkpt>
<trkpt lat="46.2921257019043" lon="7.32393503189087"><ele></ele><time>2013-8-8T3:1:56Z</time></trkpt>
<trkpt lat="46.2921371459961" lon="7.32393789291382"><ele></ele><time>2013-8-8T3:1:59Z</time></trkpt>
<trkpt lat="46.2921447753906" lon="7.32394075393677"><ele></ele><time>2013-8-8T3:2:2Z</time></trkpt>
<trkpt lat="46.2921600341797" lon="7.32394409179688"><ele></ele><time>2013-8-8T3:2:5Z</time></trkpt>
<trkpt lat="46.2921714782715" lon="7.3239336013794"><ele></ele><time>2013-8-8T3:2:8Z</time></trkpt>
<trkpt lat="46.2921981811523" lon="7.32391405105591"><ele></ele><time>2013-8-8T3:2:11Z</time></trkpt>
<trkpt lat="46.2922592163086" lon="7.32390069961548"><ele></ele><time>2013-8-8T3:2:14Z</time></trkpt>
<trkpt lat="46.2923049926758" lon="7.32389545440674"><ele></ele><time>2013-8-8T3:2:17Z</time></trkpt>
<trkpt lat="46.2923202514648" lon="7.3238935470581"><ele></ele><time>2013-8-8T3:2:20Z</time></trkpt>
<trkpt lat="46.2923393249512" lon="7.32389307022095"><ele></ele><time>2013-8-8T3:2:23Z</time></trkpt>
<trkpt lat="46.292366027832" lon="7.32389736175537"><ele></ele><time>2013-8-8T3:2:26Z</time></trkpt>
<trkpt lat="46.2923927307129" lon="7.323899269104"><ele></ele><time>2013-8-8T3:2:29Z</time></trkpt>
<trkpt lat="46.2924880981445" lon="7.32390451431274"><ele></ele><time>2013-8-8T3:2:32Z</time></trkpt>
<trkpt lat="46.2925109863281" lon="7.32390069961548"><ele></ele><time>2013-8-8T3:2:35Z</time></trkpt>
<trkpt lat="46.2925338745117" lon="7.32389736175537"><ele></ele><time>2013-8-8T3:2:38Z</time></trkpt>
<trkpt lat="46.292552947998" lon="7.32389402389526"><ele></ele><time>2013-8-8T3:2:41Z</time></trkpt>
<trkpt lat="46.2926559448242" lon="7.32387208938599"><ele></ele><time>2013-8-8T3:2:44Z</time></trkpt>
<trkpt lat="46.2926750183106" lon="7.32387399673462"><ele></ele><time>2013-8-8T3:2:47Z</time></trkpt>
<trkpt lat="46.2926940917969" lon="7.32387018203735"><ele></ele><time>2013-8-8T3:2:50Z</time></trkpt>
<trkpt lat="46.2927131652832" lon="7.32386922836304"><ele></ele><time>2013-8-8T3:2:53Z</time></trkpt>
<trkpt lat="46.2927284240723" lon="7.32387351989746"><ele></ele><time>2013-8-8T3:2:56Z</time></trkpt>
<trkpt lat="46.2927665710449" lon="7.32386922836304"><ele></ele><time>2013-8-8T3:2:59Z</time></trkpt>
<trkpt lat="46.2928810119629" lon="7.32387065887451"><ele></ele><time>2013-8-8T3:3:2Z</time></trkpt>
<trkpt lat="46.2929229736328" lon="7.32387685775757"><ele></ele><time>2013-8-8T3:3:5Z</time></trkpt>
<trkpt lat="46.2929420471191" lon="7.32388067245483"><ele></ele><time>2013-8-8T3:3:8Z</time></trkpt>
<trkpt lat="46.2929611206055" lon="7.32387781143188"><ele></ele><time>2013-8-8T3:3:11Z</time></trkpt>
<trkpt lat="46.2929763793945" lon="7.32388401031494"><ele></ele><time>2013-8-8T3:3:14Z</time></trkpt>
<trkpt lat="46.2929954528809" lon="7.32388687133789"><ele></ele><time>2013-8-8T3:3:17Z</time></trkpt>
<trkpt lat="46.2931060791016" lon="7.32396364212036"><ele></ele><time>2013-8-8T3:3:20Z</time></trkpt>
<trkpt lat="46.2931213378906" lon="7.32397365570068"><ele></ele><time>2013-8-8T3:3:23Z</time></trkpt>
<trkpt lat="46.293140411377" lon="7.32398366928101"><ele></ele><time>2013-8-8T3:3:26Z</time></trkpt>
<trkpt lat="46.293155670166" lon="7.32398700714111"><ele></ele><time>2013-8-8T3:3:29Z</time></trkpt>
<trkpt lat="46.2931785583496" lon="7.32399082183838"><ele></ele><time>2013-8-8T3:3:32Z</time></trkpt>
<trkpt lat="46.2932510375977" lon="7.32400226593018"><ele></ele><time>2013-8-8T3:3:35Z</time></trkpt>
<trkpt lat="46.2934036254883" lon="7.32406282424927"><ele></ele><time>2013-8-8T3:3:38Z</time></trkpt>
<trkpt lat="46.2934532165527" lon="7.32408094406128"><ele></ele><time>2013-8-8T3:3:41Z</time></trkpt>
<trkpt lat="46.293514251709" lon="7.32410669326782"><ele></ele><time>2013-8-8T3:3:44Z</time></trkpt>
<trkpt lat="46.2935333251953" lon="7.32412147521973"><ele></ele><time>2013-8-8T3:3:47Z</time></trkpt>
<trkpt lat="46.2935523986816" lon="7.32413911819458"><ele></ele><time>2013-8-8T3:3:50Z</time></trkpt>
<trkpt lat="46.293571472168" lon="7.32415819168091"><ele></ele><time>2013-8-8T3:3:53Z</time></trkpt>
<trkpt lat="46.2936820983887" lon="7.32423257827759"><ele></ele><time>2013-8-8T3:3:56Z</time></trkpt>
<trkpt lat="46.2937278747559" lon="7.32426071166992"><ele></ele><time>2013-8-8T3:3:59Z</time></trkpt>
<trkpt lat="46.2937507629394" lon="7.32427597045898"><ele></ele><time>2013-8-8T3:4:2Z</time></trkpt>
<trkpt lat="46.293773651123" lon="7.32429218292236"><ele></ele><time>2013-8-8T3:4:5Z</time></trkpt>
<trkpt lat="46.2937965393066" lon="7.32431507110596"><ele></ele><time>2013-8-8T3:4:8Z</time></trkpt>
<trkpt lat="46.2938194274902" lon="7.32433462142944"><ele></ele><time>2013-8-8T3:4:11Z</time></trkpt>
<trkpt lat="46.2938423156738" lon="7.32434988021851"><ele></ele><time>2013-8-8T3:4:14Z</time></trkpt>
<trkpt lat="46.2938804626465" lon="7.32437753677368"><ele></ele><time>2013-8-8T3:4:17Z</time></trkpt>
<trkpt lat="46.2939605712891" lon="7.32444620132446"><ele></ele><time>2013-8-8T3:4:20Z</time></trkpt>
<trkpt lat="46.2940063476562" lon="7.32447528839111"><ele></ele><time>2013-8-8T3:4:23Z</time></trkpt>
<trkpt lat="46.2940826416016" lon="7.32451725006104"><ele></ele><time>2013-8-8T3:4:26Z</time></trkpt>
<trkpt lat="46.2941017150879" lon="7.32452297210693"><ele></ele><time>2013-8-8T3:4:29Z</time></trkpt>
<trkpt lat="46.2941207885742" lon="7.32452917098999"><ele></ele><time>2013-8-8T3:4:32Z</time></trkpt>
<trkpt lat="46.2941398620606" lon="7.32453775405884"><ele></ele><time>2013-8-8T3:4:35Z</time></trkpt>
<trkpt lat="46.2942581176758" lon="7.32462120056152"><ele></ele><time>2013-8-8T3:4:38Z</time></trkpt>
<trkpt lat="46.2942771911621" lon="7.32464361190796"><ele></ele><time>2013-8-8T3:4:41Z</time></trkpt>
<trkpt lat="46.2942962646484" lon="7.32465124130249"><ele></ele><time>2013-8-8T3:4:44Z</time></trkpt>
<trkpt lat="46.2943153381348" lon="7.32466506958008"><ele></ele><time>2013-8-8T3:4:47Z</time></trkpt>
<trkpt lat="46.2943344116211" lon="7.32467746734619"><ele></ele><time>2013-8-8T3:4:50Z</time></trkpt>
<trkpt lat="46.2943572998047" lon="7.32468605041504"><ele></ele><time>2013-8-8T3:4:53Z</time></trkpt>
<trkpt lat="46.294376373291" lon="7.32469320297241"><ele></ele><time>2013-8-8T3:4:56Z</time></trkpt>
<trkpt lat="46.2945022583008" lon="7.32476711273193"><ele></ele><time>2013-8-8T3:4:59Z</time></trkpt>
<trkpt lat="46.2945899963379" lon="7.32482862472534"><ele></ele><time>2013-8-8T3:5:2Z</time></trkpt>
<trkpt lat="46.2946090698242" lon="7.32484340667725"><ele></ele><time>2013-8-8T3:5:5Z</time></trkpt>
<trkpt lat="46.2946319580078" lon="7.32485914230347"><ele></ele><time>2013-8-8T3:5:8Z</time></trkpt>
<trkpt lat="46.2946548461914" lon="7.32487154006958"><ele></ele><time>2013-8-8T3:5:11Z</time></trkpt>
<trkpt lat="46.2947540283203" lon="7.32492637634277"><ele></ele><time>2013-8-8T3:5:14Z</time></trkpt>
<trkpt lat="46.2948341369629" lon="7.32498693466186"><ele></ele><time>2013-8-8T3:5:17Z</time></trkpt>
<trkpt lat="46.2948608398438" lon="7.32500886917114"><ele></ele><time>2013-8-8T3:5:20Z</time></trkpt>
<trkpt lat="46.2948913574219" lon="7.32503175735474"><ele></ele><time>2013-8-8T3:5:23Z</time></trkpt>
<trkpt lat="46.2949180603027" lon="7.32505702972412"><ele></ele><time>2013-8-8T3:5:26Z</time></trkpt>
<trkpt lat="46.2949485778809" lon="7.32508230209351"><ele></ele><time>2013-8-8T3:5:29Z</time></trkpt>
<trkpt lat="46.2950630187988" lon="7.32517623901367"><ele></ele><time>2013-8-8T3:5:32Z</time></trkpt>
<trkpt lat="46.2952537536621" lon="7.32528209686279"><ele></ele><time>2013-8-8T3:5:35Z</time></trkpt>
<trkpt lat="46.2954483032227" lon="7.32542371749878"><ele></ele><time>2013-8-8T3:5:38Z</time></trkpt>
<trkpt lat="46.2955474853516" lon="7.3254919052124"><ele></ele><time>2013-8-8T3:5:41Z</time></trkpt>
<trkpt lat="46.2955780029297" lon="7.32551527023315"><ele></ele><time>2013-8-8T3:5:44Z</time></trkpt>
<trkpt lat="46.2956123352051" lon="7.32553768157959"><ele></ele><time>2013-8-8T3:5:47Z</time></trkpt>
<trkpt lat="46.2956428527832" lon="7.32556247711182"><ele></ele><time>2013-8-8T3:5:50Z</time></trkpt>
<trkpt lat="46.2956733703613" lon="7.32558679580688"><ele></ele><time>2013-8-8T3:5:53Z</time></trkpt>
<trkpt lat="46.2958183288574" lon="7.32568788528442"><ele></ele><time>2013-8-8T3:5:56Z</time></trkpt>
<trkpt lat="46.2958488464356" lon="7.32570648193359"><ele></ele><time>2013-8-8T3:5:59Z</time></trkpt>
<trkpt lat="46.2958793640137" lon="7.32572364807129"><ele></ele><time>2013-8-8T3:6:2Z</time></trkpt>
<trkpt lat="46.2959060668945" lon="7.32573461532593"><ele></ele><time>2013-8-8T3:6:5Z</time></trkpt>
<trkpt lat="46.2959365844727" lon="7.32574844360352"><ele></ele><time>2013-8-8T3:6:8Z</time></trkpt>
<trkpt lat="46.2960090637207" lon="7.32578945159912"><ele></ele><time>2013-8-8T3:6:11Z</time></trkpt>
<trkpt lat="46.2960395812988" lon="7.32579040527344"><ele></ele><time>2013-8-8T3:6:14Z</time></trkpt>
<trkpt lat="46.2960662841797" lon="7.32578945159912"><ele></ele><time>2013-8-8T3:6:17Z</time></trkpt>
<trkpt lat="46.2960929870606" lon="7.32578611373901"><ele></ele><time>2013-8-8T3:6:20Z</time></trkpt>
<trkpt lat="46.2962379455566" lon="7.3257851600647"><ele></ele><time>2013-8-8T3:6:23Z</time></trkpt>
<trkpt lat="46.2962646484375" lon="7.32577848434448"><ele></ele><time>2013-8-8T3:6:26Z</time></trkpt>
<trkpt lat="46.2962913513184" lon="7.32577085494995"><ele></ele><time>2013-8-8T3:6:29Z</time></trkpt>
<trkpt lat="46.2963180541992" lon="7.325767993927"><ele></ele><time>2013-8-8T3:6:32Z</time></trkpt>
<trkpt lat="46.2963447570801" lon="7.32576179504394"><ele></ele><time>2013-8-8T3:6:35Z</time></trkpt>
<trkpt lat="46.2964286804199" lon="7.3257417678833"><ele></ele><time>2013-8-8T3:6:38Z</time></trkpt>
<trkpt lat="46.2964859008789" lon="7.32572317123413"><ele></ele><time>2013-8-8T3:6:41Z</time></trkpt>
<trkpt lat="46.296516418457" lon="7.32570600509644"><ele></ele><time>2013-8-8T3:6:44Z</time></trkpt>
<trkpt lat="46.2965469360352" lon="7.32569456100464"><ele></ele><time>2013-8-8T3:6:47Z</time></trkpt>
<trkpt lat="46.296573638916" lon="7.32568359375"><ele></ele><time>2013-8-8T3:6:50Z</time></trkpt>
<trkpt lat="46.2966003417969" lon="7.32567071914673"><ele></ele><time>2013-8-8T3:6:53Z</time></trkpt>
<trkpt lat="46.2966728210449" lon="7.32563877105713"><ele></ele><time>2013-8-8T3:6:56Z</time></trkpt>
<trkpt lat="46.2966957092285" lon="7.32563066482544"><ele></ele><time>2013-8-8T3:6:59Z</time></trkpt>
<trkpt lat="46.2967185974121" lon="7.32562255859375"><ele></ele><time>2013-8-8T3:7:2Z</time></trkpt>
<trkpt lat="46.2967414855957" lon="7.3256139755249"><ele></ele><time>2013-8-8T3:7:5Z</time></trkpt>
<trkpt lat="46.2967681884766" lon="7.32561111450195"><ele></ele><time>2013-8-8T3:7:8Z</time></trkpt>
<trkpt lat="46.2968330383301" lon="7.325599193573"><ele></ele><time>2013-8-8T3:7:11Z</time></trkpt>
<trkpt lat="46.2968597412109" lon="7.32558965682983"><ele></ele><time>2013-8-8T3:7:14Z</time></trkpt>
<trkpt lat="46.2968826293945" lon="7.32557773590088"><ele></ele><time>2013-8-8T3:7:17Z</time></trkpt>
<trkpt lat="46.2969055175781" lon="7.32556772232056"><ele></ele><time>2013-8-8T3:7:20Z</time></trkpt>
<trkpt lat="46.2969284057617" lon="7.32555723190308"><ele></ele><time>2013-8-8T3:7:23Z</time></trkpt>
<trkpt lat="46.2969932556152" lon="7.32550048828125"><ele></ele><time>2013-8-8T3:7:26Z</time></trkpt>
<trkpt lat="46.2970123291016" lon="7.3254828453064"><ele></ele><time>2013-8-8T3:7:29Z</time></trkpt>
<trkpt lat="46.2970314025879" lon="7.32547521591186"><ele></ele><time>2013-8-8T3:7:32Z</time></trkpt>
<trkpt lat="46.297061920166" lon="7.32546758651733"><ele></ele><time>2013-8-8T3:7:35Z</time></trkpt>
<trkpt lat="46.2970886230469" lon="7.32546043395996"><ele></ele><time>2013-8-8T3:7:38Z</time></trkpt>
<trkpt lat="46.2971649169922" lon="7.32543897628784"><ele></ele><time>2013-8-8T3:7:41Z</time></trkpt>
<trkpt lat="46.2971878051758" lon="7.32542753219604"><ele></ele><time>2013-8-8T3:7:44Z</time></trkpt>
<trkpt lat="46.2972106933594" lon="7.32541608810425"><ele></ele><time>2013-8-8T3:7:47Z</time></trkpt>
<trkpt lat="46.297233581543" lon="7.32540225982666"><ele></ele><time>2013-8-8T3:7:50Z</time></trkpt>
<trkpt lat="46.2972602844238" lon="7.32538795471191"><ele></ele><time>2013-8-8T3:7:53Z</time></trkpt>
<trkpt lat="46.2973022460938" lon="7.32534885406494"><ele></ele><time>2013-8-8T3:7:56Z</time></trkpt>
<trkpt lat="46.2973175048828" lon="7.3253345489502"><ele></ele><time>2013-8-8T3:7:59Z</time></trkpt>
<trkpt lat="46.2973327636719" lon="7.32531976699829"><ele></ele><time>2013-8-8T3:8:2Z</time></trkpt>
<trkpt lat="46.2973480224609" lon="7.32529830932617"><ele></ele><time>2013-8-8T3:8:5Z</time></trkpt>
<trkpt lat="46.2973823547363" lon="7.32525873184204"><ele></ele><time>2013-8-8T3:8:8Z</time></trkpt>
<trkpt lat="46.2974052429199" lon="7.32524490356445"><ele></ele><time>2013-8-8T3:8:11Z</time></trkpt>
<trkpt lat="46.2974281311035" lon="7.32522439956665"><ele></ele><time>2013-8-8T3:8:14Z</time></trkpt>
<trkpt lat="46.2974510192871" lon="7.32519960403442"><ele></ele><time>2013-8-8T3:8:17Z</time></trkpt>
<trkpt lat="46.2974739074707" lon="7.32517337799072"><ele></ele><time>2013-8-8T3:8:20Z</time></trkpt>
<trkpt lat="46.297534942627" lon="7.32509565353394"><ele></ele><time>2013-8-8T3:8:23Z</time></trkpt>
<trkpt lat="46.2975616455078" lon="7.32507848739624"><ele></ele><time>2013-8-8T3:8:26Z</time></trkpt>
<trkpt lat="46.2975807189941" lon="7.32506084442139"><ele></ele><time>2013-8-8T3:8:29Z</time></trkpt>
<trkpt lat="46.2975997924805" lon="7.32504510879517"><ele></ele><time>2013-8-8T3:8:32Z</time></trkpt>
<trkpt lat="46.2976226806641" lon="7.3250298500061"><ele></ele><time>2013-8-8T3:8:35Z</time></trkpt>
<trkpt lat="46.2976875305176" lon="7.32497119903564"><ele></ele><time>2013-8-8T3:8:38Z</time></trkpt>
<trkpt lat="46.2977027893066" lon="7.32495307922363"><ele></ele><time>2013-8-8T3:8:41Z</time></trkpt>
<trkpt lat="46.297721862793" lon="7.32493591308594"><ele></ele><time>2013-8-8T3:8:44Z</time></trkpt>
<trkpt lat="46.2977409362793" lon="7.32491779327393"><ele></ele><time>2013-8-8T3:8:47Z</time></trkpt>
<trkpt lat="46.2977600097656" lon="7.32489633560181"><ele></ele><time>2013-8-8T3:8:50Z</time></trkpt>
<trkpt lat="46.297779083252" lon="7.32487916946411"><ele></ele><time>2013-8-8T3:8:53Z</time></trkpt>
<trkpt lat="46.2978744506836" lon="7.32479619979858"><ele></ele><time>2013-8-8T3:8:56Z</time></trkpt>
<trkpt lat="46.2978973388672" lon="7.3247766494751"><ele></ele><time>2013-8-8T3:8:59Z</time></trkpt>
<trkpt lat="46.2979202270508" lon="7.32475662231445"><ele></ele><time>2013-8-8T3:9:2Z</time></trkpt>
<trkpt lat="46.2979431152344" lon="7.32473611831665"><ele></ele><time>2013-8-8T3:9:5Z</time></trkpt>
<trkpt lat="46.2979621887207" lon="7.32471323013306"><ele></ele><time>2013-8-8T3:9:8Z</time></trkpt>
<trkpt lat="46.298023223877" lon="7.32464551925659"><ele></ele><time>2013-8-8T3:9:11Z</time></trkpt>
<trkpt lat="46.2981567382812" lon="7.32442331314087"><ele></ele><time>2013-8-8T3:9:14Z</time></trkpt>
<trkpt lat="46.2982139587402" lon="7.32431030273438"><ele></ele><time>2013-8-8T3:9:17Z</time></trkpt>
<trkpt lat="46.2982292175293" lon="7.32427072525024"><ele></ele><time>2013-8-8T3:9:20Z</time></trkpt>
<trkpt lat="46.2982444763184" lon="7.32423543930054"><ele></ele><time>2013-8-8T3:9:23Z</time></trkpt>
<trkpt lat="46.2982597351074" lon="7.32419729232788"><ele></ele><time>2013-8-8T3:9:26Z</time></trkpt>
<trkpt lat="46.2982711791992" lon="7.32415962219238"><ele></ele><time>2013-8-8T3:9:29Z</time></trkpt>
<trkpt lat="46.2983474731445" lon="7.32395601272583"><ele></ele><time>2013-8-8T3:9:32Z</time></trkpt>
<trkpt lat="46.2984237670898" lon="7.32373380661011"><ele></ele><time>2013-8-8T3:9:35Z</time></trkpt>
<trkpt lat="46.2984352111816" lon="7.32369184494018"><ele></ele><time>2013-8-8T3:9:38Z</time></trkpt>
<trkpt lat="46.2984466552734" lon="7.32364273071289"><ele></ele><time>2013-8-8T3:9:41Z</time></trkpt>
<trkpt lat="46.2984619140625" lon="7.32359886169434"><ele></ele><time>2013-8-8T3:9:44Z</time></trkpt>
<trkpt lat="46.2984771728516" lon="7.32354927062988"><ele></ele><time>2013-8-8T3:9:47Z</time></trkpt>
<trkpt lat="46.2985153198242" lon="7.32345390319824"><ele></ele><time>2013-8-8T3:9:50Z</time></trkpt>
<trkpt lat="46.2985687255859" lon="7.32335567474365"><ele></ele><time>2013-8-8T3:9:53Z</time></trkpt>
<trkpt lat="46.2986297607422" lon="7.3232479095459"><ele></ele><time>2013-8-8T3:9:56Z</time></trkpt>
<trkpt lat="46.2988014221191" lon="7.32290601730347"><ele></ele><time>2013-8-8T3:9:59Z</time></trkpt>
<trkpt lat="46.2988433837891" lon="7.32260608673096"><ele></ele><time>2013-8-8T3:10:2Z</time></trkpt>
<trkpt lat="46.2988357543945" lon="7.32232761383057"><ele></ele><time>2013-8-8T3:10:5Z</time></trkpt>
<trkpt lat="46.298828125" lon="7.3221869468689"><ele></ele><time>2013-8-8T3:10:8Z</time></trkpt>
<trkpt lat="46.2988243103027" lon="7.32204914093018"><ele></ele><time>2013-8-8T3:10:11Z</time></trkpt>
<trkpt lat="46.2988395690918" lon="7.32184410095215"><ele></ele><time>2013-8-8T3:10:14Z</time></trkpt>
<trkpt lat="46.2988471984863" lon="7.32178068161011"><ele></ele><time>2013-8-8T3:10:17Z</time></trkpt>
<trkpt lat="46.2988777160644" lon="7.32160091400146"><ele></ele><time>2013-8-8T3:10:20Z</time></trkpt>
<trkpt lat="46.2988891601562" lon="7.32154130935669"><ele></ele><time>2013-8-8T3:10:23Z</time></trkpt>
<trkpt lat="46.2989044189453" lon="7.32148790359497"><ele></ele><time>2013-8-8T3:10:26Z</time></trkpt>
<trkpt lat="46.2989196777344" lon="7.32143115997314"><ele></ele><time>2013-8-8T3:10:29Z</time></trkpt>
<trkpt lat="46.298957824707" lon="7.32126998901367"><ele></ele><time>2013-8-8T3:10:32Z</time></trkpt>
<trkpt lat="46.2990112304688" lon="7.32111120223999"><ele></ele><time>2013-8-8T3:10:35Z</time></trkpt>
<trkpt lat="46.2990303039551" lon="7.32105779647827"><ele></ele><time>2013-8-8T3:10:38Z</time></trkpt>
<trkpt lat="46.2992134094238" lon="7.32054376602173"><ele></ele><time>2013-8-8T3:10:41Z</time></trkpt>
<trkpt lat="46.2994270324707" lon="7.32016944885254"><ele></ele><time>2013-8-8T3:10:44Z</time></trkpt>
<trkpt lat="46.2994613647461" lon="7.32011413574219"><ele></ele><time>2013-8-8T3:10:47Z</time></trkpt>
<trkpt lat="46.299617767334" lon="7.31994247436524"><ele></ele><time>2013-8-8T3:10:50Z</time></trkpt>
<trkpt lat="46.2998504638672" lon="7.31985473632812"><ele></ele><time>2013-8-8T3:10:53Z</time></trkpt>
<trkpt lat="46.2998924255371" lon="7.31983804702759"><ele></ele><time>2013-8-8T3:10:56Z</time></trkpt>
<trkpt lat="46.2999305725098" lon="7.31982469558716"><ele></ele><time>2013-8-8T3:10:59Z</time></trkpt>
<trkpt lat="46.2999687194824" lon="7.31981706619263"><ele></ele><time>2013-8-8T3:11:2Z</time></trkpt>
<trkpt lat="46.3000030517578" lon="7.31980609893799"><ele></ele><time>2013-8-8T3:11:5Z</time></trkpt>
<trkpt lat="46.3000373840332" lon="7.31979656219482"><ele></ele><time>2013-8-8T3:11:8Z</time></trkpt>
<trkpt lat="46.3000717163086" lon="7.3197832107544"><ele></ele><time>2013-8-8T3:11:11Z</time></trkpt>
<trkpt lat="46.3000984191894" lon="7.31976890563965"><ele></ele><time>2013-8-8T3:11:14Z</time></trkpt>
<trkpt lat="46.3001327514648" lon="7.31974744796753"><ele></ele><time>2013-8-8T3:11:17Z</time></trkpt>
<trkpt lat="46.3001594543457" lon="7.31973266601562"><ele></ele><time>2013-8-8T3:11:20Z</time></trkpt>
<trkpt lat="46.3001823425293" lon="7.31971836090088"><ele></ele><time>2013-8-8T3:11:23Z</time></trkpt>
<trkpt lat="46.3002815246582" lon="7.31964635848999"><ele></ele><time>2013-8-8T3:11:26Z</time></trkpt>
<trkpt lat="46.3003082275391" lon="7.31963157653809"><ele></ele><time>2013-8-8T3:11:29Z</time></trkpt>
<trkpt lat="46.3003273010254" lon="7.31961393356323"><ele></ele><time>2013-8-8T3:11:32Z</time></trkpt>
<trkpt lat="46.3003463745117" lon="7.31960201263428"><ele></ele><time>2013-8-8T3:11:35Z</time></trkpt>
<trkpt lat="46.3004379272461" lon="7.31955194473267"><ele></ele><time>2013-8-8T3:11:38Z</time></trkpt>
<trkpt lat="46.3004608154297" lon="7.31953811645508"><ele></ele><time>2013-8-8T3:11:41Z</time></trkpt>
<trkpt lat="46.300479888916" lon="7.31952571868896"><ele></ele><time>2013-8-8T3:11:44Z</time></trkpt>
<trkpt lat="46.3005027770996" lon="7.31950998306274"><ele></ele><time>2013-8-8T3:11:47Z</time></trkpt>
<trkpt lat="46.3005218505859" lon="7.31949615478516"><ele></ele><time>2013-8-8T3:11:50Z</time></trkpt>
<trkpt lat="46.3005867004394" lon="7.31946611404419"><ele></ele><time>2013-8-8T3:11:53Z</time></trkpt>
<trkpt lat="46.3006057739258" lon="7.31945276260376"><ele></ele><time>2013-8-8T3:11:56Z</time></trkpt>
<trkpt lat="46.3006248474121" lon="7.31943225860596"><ele></ele><time>2013-8-8T3:11:59Z</time></trkpt>
<trkpt lat="46.3006439208984" lon="7.31941890716553"><ele></ele><time>2013-8-8T3:12:2Z</time></trkpt>
<trkpt lat="46.300666809082" lon="7.31940412521362"><ele></ele><time>2013-8-8T3:12:5Z</time></trkpt>
<trkpt lat="46.3006858825684" lon="7.31938648223877"><ele></ele><time>2013-8-8T3:12:8Z</time></trkpt>
<trkpt lat="46.3007316589356" lon="7.31935262680054"><ele></ele><time>2013-8-8T3:12:11Z</time></trkpt>
<trkpt lat="46.3007659912109" lon="7.3193097114563"><ele></ele><time>2013-8-8T3:12:14Z</time></trkpt>
<trkpt lat="46.30078125" lon="7.31928968429565"><ele></ele><time>2013-8-8T3:12:17Z</time></trkpt>
<trkpt lat="46.3007965087891" lon="7.31926822662354"><ele></ele><time>2013-8-8T3:12:20Z</time></trkpt>
<trkpt lat="46.3008079528809" lon="7.31924104690552"><ele></ele><time>2013-8-8T3:12:23Z</time></trkpt>
<trkpt lat="46.3008193969727" lon="7.3192253112793"><ele></ele><time>2013-8-8T3:12:26Z</time></trkpt>
<trkpt lat="46.3008422851562" lon="7.31917476654053"><ele></ele><time>2013-8-8T3:12:29Z</time></trkpt>
<trkpt lat="46.3008499145508" lon="7.31914663314819"><ele></ele><time>2013-8-8T3:12:32Z</time></trkpt>
<trkpt lat="46.3008613586426" lon="7.3191294670105"><ele></ele><time>2013-8-8T3:12:35Z</time></trkpt>
<trkpt lat="46.3008728027344" lon="7.31910419464111"><ele></ele><time>2013-8-8T3:12:38Z</time></trkpt>
<trkpt lat="46.3008804321289" lon="7.3190770149231"><ele></ele><time>2013-8-8T3:12:41Z</time></trkpt>
<trkpt lat="46.300910949707" lon="7.31899690628052"><ele></ele><time>2013-8-8T3:12:44Z</time></trkpt>
<trkpt lat="46.3009185791016" lon="7.31897115707398"><ele></ele><time>2013-8-8T3:12:47Z</time></trkpt>
<trkpt lat="46.3009262084961" lon="7.3189377784729"><ele></ele><time>2013-8-8T3:12:50Z</time></trkpt>
<trkpt lat="46.3009338378906" lon="7.31890964508057"><ele></ele><time>2013-8-8T3:12:53Z</time></trkpt>
<trkpt lat="46.3009414672852" lon="7.31887912750244"><ele></ele><time>2013-8-8T3:12:56Z</time></trkpt>
<trkpt lat="46.3009490966797" lon="7.31882238388062"><ele></ele><time>2013-8-8T3:12:59Z</time></trkpt>
<trkpt lat="46.3009643554688" lon="7.31876468658447"><ele></ele><time>2013-8-8T3:13:2Z</time></trkpt>
<trkpt lat="46.300968170166" lon="7.3187403678894"><ele></ele><time>2013-8-8T3:13:5Z</time></trkpt>
<trkpt lat="46.3009719848633" lon="7.3187141418457"><ele></ele><time>2013-8-8T3:13:8Z</time></trkpt>
<trkpt lat="46.3009719848633" lon="7.31868648529053"><ele></ele><time>2013-8-8T3:13:11Z</time></trkpt>
<trkpt lat="46.3009567260742" lon="7.31866598129272"><ele></ele><time>2013-8-8T3:13:14Z</time></trkpt>
<trkpt lat="46.3008651733398" lon="7.31863927841186"><ele></ele><time>2013-8-8T3:13:17Z</time></trkpt>
<trkpt lat="46.3008422851562" lon="7.31864738464356"><ele></ele><time>2013-8-8T3:13:20Z</time></trkpt>
<trkpt lat="46.3008193969727" lon="7.31865501403809"><ele></ele><time>2013-8-8T3:13:23Z</time></trkpt>
<trkpt lat="46.3007965087891" lon="7.31866645812988"><ele></ele><time>2013-8-8T3:13:26Z</time></trkpt>
<trkpt lat="46.3007736206055" lon="7.31868124008179"><ele></ele><time>2013-8-8T3:13:29Z</time></trkpt>
<trkpt lat="46.3007507324219" lon="7.31869602203369"><ele></ele><time>2013-8-8T3:13:32Z</time></trkpt>
<trkpt lat="46.3007354736328" lon="7.31872129440308"><ele></ele><time>2013-8-8T3:13:35Z</time></trkpt>
<trkpt lat="46.300609588623" lon="7.3188624382019"><ele></ele><time>2013-8-8T3:13:38Z</time></trkpt>
<trkpt lat="46.3005218505859" lon="7.31887245178223"><ele></ele><time>2013-8-8T3:13:41Z</time></trkpt>
<trkpt lat="46.3004989624023" lon="7.31886291503906"><ele></ele><time>2013-8-8T3:13:44Z</time></trkpt>
<trkpt lat="46.3004837036133" lon="7.31883668899536"><ele></ele><time>2013-8-8T3:13:47Z</time></trkpt>
<trkpt lat="46.3004837036133" lon="7.31880235671997"><ele></ele><time>2013-8-8T3:13:50Z</time></trkpt>
<trkpt lat="46.3004875183106" lon="7.31876802444458"><ele></ele><time>2013-8-8T3:13:53Z</time></trkpt>
<trkpt lat="46.3005065917969" lon="7.3187050819397"><ele></ele><time>2013-8-8T3:13:56Z</time></trkpt>
<trkpt lat="46.3005180358887" lon="7.31867694854736"><ele></ele><time>2013-8-8T3:13:59Z</time></trkpt>
<trkpt lat="46.3005294799805" lon="7.3186526298523"><ele></ele><time>2013-8-8T3:14:2Z</time></trkpt>
<trkpt lat="46.300537109375" lon="7.31862735748291"><ele></ele><time>2013-8-8T3:14:5Z</time></trkpt>
<trkpt lat="46.3005523681641" lon="7.31859683990478"><ele></ele><time>2013-8-8T3:14:8Z</time></trkpt>
<trkpt lat="46.3005714416504" lon="7.31854295730591"><ele></ele><time>2013-8-8T3:14:11Z</time></trkpt>
<trkpt lat="46.300594329834" lon="7.31846332550049"><ele></ele><time>2013-8-8T3:14:14Z</time></trkpt>
<trkpt lat="46.3006057739258" lon="7.31843328475952"><ele></ele><time>2013-8-8T3:14:17Z</time></trkpt>
<trkpt lat="46.3006172180176" lon="7.31840419769287"><ele></ele><time>2013-8-8T3:14:20Z</time></trkpt>
<trkpt lat="46.3006286621094" lon="7.31836938858032"><ele></ele><time>2013-8-8T3:14:23Z</time></trkpt>
<trkpt lat="46.3006401062012" lon="7.31833696365356"><ele></ele><time>2013-8-8T3:14:26Z</time></trkpt>
<trkpt lat="46.300724029541" lon="7.31812334060669"><ele></ele><time>2013-8-8T3:14:29Z</time></trkpt>
<trkpt lat="46.3007354736328" lon="7.31809282302856"><ele></ele><time>2013-8-8T3:14:32Z</time></trkpt>
<trkpt lat="46.3007507324219" lon="7.31806135177612"><ele></ele><time>2013-8-8T3:14:35Z</time></trkpt>
<trkpt lat="46.3007659912109" lon="7.31802845001221"><ele></ele><time>2013-8-8T3:14:38Z</time></trkpt>
<trkpt lat="46.3007850646973" lon="7.3180046081543"><ele></ele><time>2013-8-8T3:14:41Z</time></trkpt>
<trkpt lat="46.3008003234863" lon="7.31797790527344"><ele></ele><time>2013-8-8T3:14:44Z</time></trkpt>
<trkpt lat="46.300838470459" lon="7.31793117523193"><ele></ele><time>2013-8-8T3:14:47Z</time></trkpt>
<trkpt lat="46.3008460998535" lon="7.31790399551392"><ele></ele><time>2013-8-8T3:14:50Z</time></trkpt>
<trkpt lat="46.3008613586426" lon="7.31787443161011"><ele></ele><time>2013-8-8T3:14:53Z</time></trkpt>
<trkpt lat="46.3008804321289" lon="7.31784391403198"><ele></ele><time>2013-8-8T3:14:56Z</time></trkpt>
<trkpt lat="46.3008995056152" lon="7.31781578063965"><ele></ele><time>2013-8-8T3:14:59Z</time></trkpt>
<trkpt lat="46.300910949707" lon="7.31777763366699"><ele></ele><time>2013-8-8T3:15:2Z</time></trkpt>
<trkpt lat="46.3009147644043" lon="7.31773567199707"><ele></ele><time>2013-8-8T3:15:5Z</time></trkpt>
<trkpt lat="46.3009338378906" lon="7.31751251220703"><ele></ele><time>2013-8-8T3:15:8Z</time></trkpt>
<trkpt lat="46.3009338378906" lon="7.31747627258301"><ele></ele><time>2013-8-8T3:15:11Z</time></trkpt>
<trkpt lat="46.3009338378906" lon="7.31743764877319"><ele></ele><time>2013-8-8T3:15:14Z</time></trkpt>
<trkpt lat="46.3009376525879" lon="7.31739950180054"><ele></ele><time>2013-8-8T3:15:17Z</time></trkpt>
<trkpt lat="46.3009414672852" lon="7.31736135482788"><ele></ele><time>2013-8-8T3:15:20Z</time></trkpt>
<trkpt lat="46.3009643554688" lon="7.31723260879517"><ele></ele><time>2013-8-8T3:15:23Z</time></trkpt>
<trkpt lat="46.300968170166" lon="7.3172025680542"><ele></ele><time>2013-8-8T3:15:26Z</time></trkpt>
<trkpt lat="46.300968170166" lon="7.31717014312744"><ele></ele><time>2013-8-8T3:15:29Z</time></trkpt>
<trkpt lat="46.3009719848633" lon="7.31714200973511"><ele></ele><time>2013-8-8T3:15:32Z</time></trkpt>
<trkpt lat="46.3009719848633" lon="7.31711149215698"><ele></ele><time>2013-8-8T3:15:35Z</time></trkpt>
<trkpt lat="46.3009834289551" lon="7.31699371337891"><ele></ele><time>2013-8-8T3:15:38Z</time></trkpt>
<trkpt lat="46.3009986877441" lon="7.31689214706421"><ele></ele><time>2013-8-8T3:15:41Z</time></trkpt>
<trkpt lat="46.3010063171387" lon="7.31686067581177"><ele></ele><time>2013-8-8T3:15:44Z</time></trkpt>
<trkpt lat="46.3010101318359" lon="7.31683015823364"><ele></ele><time>2013-8-8T3:15:47Z</time></trkpt>
<trkpt lat="46.3010177612305" lon="7.31680011749268"><ele></ele><time>2013-8-8T3:15:50Z</time></trkpt>
<trkpt lat="46.3010330200195" lon="7.31676912307739"><ele></ele><time>2013-8-8T3:15:53Z</time></trkpt>
<trkpt lat="46.3010711669922" lon="7.31667995452881"><ele></ele><time>2013-8-8T3:15:56Z</time></trkpt>
<trkpt lat="46.3011093139648" lon="7.3166356086731"><ele></ele><time>2013-8-8T3:15:59Z</time></trkpt>
<trkpt lat="46.3011283874512" lon="7.31661510467529"><ele></ele><time>2013-8-8T3:16:2Z</time></trkpt>
<trkpt lat="46.301155090332" lon="7.3166012763977"><ele></ele><time>2013-8-8T3:16:5Z</time></trkpt>
<trkpt lat="46.3011779785156" lon="7.31658458709717"><ele></ele><time>2013-8-8T3:16:8Z</time></trkpt>
<trkpt lat="46.3012008666992" lon="7.31656551361084"><ele></ele><time>2013-8-8T3:16:11Z</time></trkpt>
<trkpt lat="46.3012237548828" lon="7.31654405593872"><ele></ele><time>2013-8-8T3:16:14Z</time></trkpt>
<trkpt lat="46.3013305664062" lon="7.31645917892456"><ele></ele><time>2013-8-8T3:16:17Z</time></trkpt>
<trkpt lat="46.3013572692871" lon="7.31643915176392"><ele></ele><time>2013-8-8T3:16:20Z</time></trkpt>
<trkpt lat="46.3013801574707" lon="7.31642007827759"><ele></ele><time>2013-8-8T3:16:23Z</time></trkpt>
<trkpt lat="46.3014106750488" lon="7.31639814376831"><ele></ele><time>2013-8-8T3:16:26Z</time></trkpt>
<trkpt lat="46.301441192627" lon="7.31637954711914"><ele></ele><time>2013-8-8T3:16:29Z</time></trkpt>
<trkpt lat="46.3015403747559" lon="7.31629610061646"><ele></ele><time>2013-8-8T3:16:32Z</time></trkpt>
<trkpt lat="46.301586151123" lon="7.31625032424927"><ele></ele><time>2013-8-8T3:16:35Z</time></trkpt>
<trkpt lat="46.3016090393066" lon="7.31621646881104"><ele></ele><time>2013-8-8T3:16:38Z</time></trkpt>
<trkpt lat="46.301628112793" lon="7.31619691848755"><ele></ele><time>2013-8-8T3:16:41Z</time></trkpt>
<trkpt lat="46.3016471862793" lon="7.31616830825806"><ele></ele><time>2013-8-8T3:16:44Z</time></trkpt>
<trkpt lat="46.3016662597656" lon="7.31613826751709"><ele></ele><time>2013-8-8T3:16:47Z</time></trkpt>
<trkpt lat="46.3017845153809" lon="7.31596660614014"><ele></ele><time>2013-8-8T3:16:50Z</time></trkpt>
<trkpt lat="46.3018074035644" lon="7.31594514846802"><ele></ele><time>2013-8-8T3:16:53Z</time></trkpt>
<trkpt lat="46.301830291748" lon="7.31591606140137"><ele></ele><time>2013-8-8T3:16:56Z</time></trkpt>
<trkpt lat="46.3018531799316" lon="7.31588411331177"><ele></ele><time>2013-8-8T3:16:59Z</time></trkpt>
<trkpt lat="46.3018836975098" lon="7.31582117080688"><ele></ele><time>2013-8-8T3:17:2Z</time></trkpt>
<trkpt lat="46.3019905090332" lon="7.31561279296875"><ele></ele><time>2013-8-8T3:17:5Z</time></trkpt>
<trkpt lat="46.3020172119141" lon="7.31558704376221"><ele></ele><time>2013-8-8T3:17:8Z</time></trkpt>
<trkpt lat="46.3020439147949" lon="7.31555986404419"><ele></ele><time>2013-8-8T3:17:11Z</time></trkpt>
<trkpt lat="46.3020706176758" lon="7.31553792953491"><ele></ele><time>2013-8-8T3:17:14Z</time></trkpt>
<trkpt lat="46.3020935058594" lon="7.31550693511963"><ele></ele><time>2013-8-8T3:17:17Z</time></trkpt>
<trkpt lat="46.3021202087402" lon="7.3154764175415"><ele></ele><time>2013-8-8T3:17:20Z</time></trkpt>
<trkpt lat="46.3021697998047" lon="7.31541347503662"><ele></ele><time>2013-8-8T3:17:23Z</time></trkpt>
<trkpt lat="46.3022804260254" lon="7.31524181365967"><ele></ele><time>2013-8-8T3:17:26Z</time></trkpt>
<trkpt lat="46.3024253845215" lon="7.31503105163574"><ele></ele><time>2013-8-8T3:17:29Z</time></trkpt>
<trkpt lat="46.3024635314941" lon="7.31499671936035"><ele></ele><time>2013-8-8T3:17:32Z</time></trkpt>
<trkpt lat="46.3026161193848" lon="7.31490802764893"><ele></ele><time>2013-8-8T3:17:35Z</time></trkpt>
<trkpt lat="46.3027381896973" lon="7.31475639343262"><ele></ele><time>2013-8-8T3:17:38Z</time></trkpt>
<trkpt lat="46.3027610778809" lon="7.31471157073975"><ele></ele><time>2013-8-8T3:17:41Z</time></trkpt>
<trkpt lat="46.3028717041016" lon="7.31450700759888"><ele></ele><time>2013-8-8T3:17:44Z</time></trkpt>
<trkpt lat="46.302921295166" lon="7.31437301635742"><ele></ele><time>2013-8-8T3:17:47Z</time></trkpt>
<trkpt lat="46.3029899597168" lon="7.3142294883728"><ele></ele><time>2013-8-8T3:17:50Z</time></trkpt>
<trkpt lat="46.3030433654785" lon="7.3141565322876"><ele></ele><time>2013-8-8T3:17:53Z</time></trkpt>
<trkpt lat="46.3031463623047" lon="7.3141450881958"><ele></ele><time>2013-8-8T3:17:56Z</time></trkpt>
<trkpt lat="46.3031806945801" lon="7.31415700912476"><ele></ele><time>2013-8-8T3:17:59Z</time></trkpt>
<trkpt lat="46.3032150268555" lon="7.31418132781982"><ele></ele><time>2013-8-8T3:18:2Z</time></trkpt>
<trkpt lat="46.3032493591309" lon="7.3142147064209"><ele></ele><time>2013-8-8T3:18:5Z</time></trkpt>
<trkpt lat="46.3032836914062" lon="7.31425094604492"><ele></ele><time>2013-8-8T3:18:8Z</time></trkpt>
<trkpt lat="46.3033485412598" lon="7.3143310546875"><ele></ele><time>2013-8-8T3:18:11Z</time></trkpt>
<trkpt lat="46.3034439086914" lon="7.31447601318359"><ele></ele><time>2013-8-8T3:18:14Z</time></trkpt>
<trkpt lat="46.3035087585449" lon="7.31468200683594"><ele></ele><time>2013-8-8T3:18:17Z</time></trkpt>
<trkpt lat="46.3035202026367" lon="7.31481647491455"><ele></ele><time>2013-8-8T3:18:20Z</time></trkpt>
<trkpt lat="46.3035202026367" lon="7.31488227844238"><ele></ele><time>2013-8-8T3:18:23Z</time></trkpt>
<trkpt lat="46.3035125732422" lon="7.31494283676148"><ele></ele><time>2013-8-8T3:18:26Z</time></trkpt>
<trkpt lat="46.3035049438477" lon="7.31500005722046"><ele></ele><time>2013-8-8T3:18:29Z</time></trkpt>
<trkpt lat="46.3034782409668" lon="7.31510400772095"><ele></ele><time>2013-8-8T3:18:32Z</time></trkpt>
<trkpt lat="46.3034362792969" lon="7.31519889831543"><ele></ele><time>2013-8-8T3:18:35Z</time></trkpt>
<trkpt lat="46.3033485412598" lon="7.31536960601807"><ele></ele><time>2013-8-8T3:18:38Z</time></trkpt>
<trkpt lat="46.3033256530762" lon="7.31540441513062"><ele></ele><time>2013-8-8T3:18:41Z</time></trkpt>
<trkpt lat="46.3033065795898" lon="7.31543016433716"><ele></ele><time>2013-8-8T3:18:44Z</time></trkpt>
<trkpt lat="46.3032875061035" lon="7.3154616355896"><ele></ele><time>2013-8-8T3:18:47Z</time></trkpt>
<trkpt lat="46.3032684326172" lon="7.31549882888794"><ele></ele><time>2013-8-8T3:18:50Z</time></trkpt>
<trkpt lat="46.3032150268555" lon="7.31562757492065"><ele></ele><time>2013-8-8T3:18:53Z</time></trkpt>
<trkpt lat="46.3031959533691" lon="7.31567144393921"><ele></ele><time>2013-8-8T3:18:56Z</time></trkpt>
<trkpt lat="46.3031768798828" lon="7.31571435928345"><ele></ele><time>2013-8-8T3:18:59Z</time></trkpt>
<trkpt lat="46.3031539916992" lon="7.31576251983643"><ele></ele><time>2013-8-8T3:19:2Z</time></trkpt>
<trkpt lat="46.3031349182129" lon="7.31580066680908"><ele></ele><time>2013-8-8T3:19:5Z</time></trkpt>
<trkpt lat="46.3031120300293" lon="7.31584167480469"><ele></ele><time>2013-8-8T3:19:8Z</time></trkpt>
<trkpt lat="46.303092956543" lon="7.31588172912598"><ele></ele><time>2013-8-8T3:19:11Z</time></trkpt>
<trkpt lat="46.3030204772949" lon="7.31604051589966"><ele></ele><time>2013-8-8T3:19:14Z</time></trkpt>
<trkpt lat="46.3029975891113" lon="7.31607151031494"><ele></ele><time>2013-8-8T3:19:17Z</time></trkpt>
<trkpt lat="46.3029747009277" lon="7.31610536575317"><ele></ele><time>2013-8-8T3:19:20Z</time></trkpt>
<trkpt lat="46.3029556274414" lon="7.31613874435425"><ele></ele><time>2013-8-8T3:19:23Z</time></trkpt>
<trkpt lat="46.3029365539551" lon="7.31617546081543"><ele></ele><time>2013-8-8T3:19:26Z</time></trkpt>
<trkpt lat="46.3029098510742" lon="7.31620788574219"><ele></ele><time>2013-8-8T3:19:29Z</time></trkpt>
<trkpt lat="46.3028411865234" lon="7.31631565093994"><ele></ele><time>2013-8-8T3:19:32Z</time></trkpt>
<trkpt lat="46.3028182983398" lon="7.31634092330933"><ele></ele><time>2013-8-8T3:19:35Z</time></trkpt>
<trkpt lat="46.3027992248535" lon="7.31636619567871"><ele></ele><time>2013-8-8T3:19:38Z</time></trkpt>
<trkpt lat="46.3027801513672" lon="7.31639623641968"><ele></ele><time>2013-8-8T3:19:41Z</time></trkpt>
<trkpt lat="46.3027648925781" lon="7.31642532348633"><ele></ele><time>2013-8-8T3:19:44Z</time></trkpt>
<trkpt lat="46.3027534484863" lon="7.31646013259888"><ele></ele><time>2013-8-8T3:19:47Z</time></trkpt>
<trkpt lat="46.3027038574219" lon="7.31656265258789"><ele></ele><time>2013-8-8T3:19:50Z</time></trkpt>
<trkpt lat="46.3026885986328" lon="7.31659460067749"><ele></ele><time>2013-8-8T3:19:53Z</time></trkpt>
<trkpt lat="46.3026733398438" lon="7.31662750244141"><ele></ele><time>2013-8-8T3:19:56Z</time></trkpt>
<trkpt lat="46.302661895752" lon="7.3166618347168"><ele></ele><time>2013-8-8T3:19:59Z</time></trkpt>
<trkpt lat="46.3026504516602" lon="7.31669807434082"><ele></ele><time>2013-8-8T3:20:2Z</time></trkpt>
<trkpt lat="46.3026084899902" lon="7.31689643859863"><ele></ele><time>2013-8-8T3:20:5Z</time></trkpt>
<trkpt lat="46.3025970458984" lon="7.31698513031006"><ele></ele><time>2013-8-8T3:20:8Z</time></trkpt>
<trkpt lat="46.3025932312012" lon="7.3170223236084"><ele></ele><time>2013-8-8T3:20:11Z</time></trkpt>
<trkpt lat="46.3025856018066" lon="7.31706237792969"><ele></ele><time>2013-8-8T3:20:14Z</time></trkpt>
<trkpt lat="46.3025741577148" lon="7.31710004806518"><ele></ele><time>2013-8-8T3:20:17Z</time></trkpt>
<trkpt lat="46.3025665283203" lon="7.31714057922363"><ele></ele><time>2013-8-8T3:20:20Z</time></trkpt>
<trkpt lat="46.3025321960449" lon="7.31741142272949"><ele></ele><time>2013-8-8T3:20:23Z</time></trkpt>
<trkpt lat="46.302490234375" lon="7.3175802230835"><ele></ele><time>2013-8-8T3:20:26Z</time></trkpt>
<trkpt lat="46.3024787902832" lon="7.31761741638184"><ele></ele><time>2013-8-8T3:20:29Z</time></trkpt>
<trkpt lat="46.3024749755859" lon="7.31765699386597"><ele></ele><time>2013-8-8T3:20:32Z</time></trkpt>
<trkpt lat="46.3024635314941" lon="7.31769323348999"><ele></ele><time>2013-8-8T3:20:35Z</time></trkpt>
<trkpt lat="46.3024559020996" lon="7.31773042678833"><ele></ele><time>2013-8-8T3:20:38Z</time></trkpt>
<trkpt lat="46.3024368286133" lon="7.31792974472046"><ele></ele><time>2013-8-8T3:20:41Z</time></trkpt>
<trkpt lat="46.3024368286133" lon="7.31805324554443"><ele></ele><time>2013-8-8T3:20:44Z</time></trkpt>
<trkpt lat="46.3024444580078" lon="7.31810712814331"><ele></ele><time>2013-8-8T3:20:47Z</time></trkpt>
<trkpt lat="46.3024520874023" lon="7.31815671920776"><ele></ele><time>2013-8-8T3:20:50Z</time></trkpt>
<trkpt lat="46.3024520874023" lon="7.31816911697388"><ele></ele><time>2013-8-8T3:20:53Z</time></trkpt>
<trkpt lat="46.3024520874023" lon="7.31818246841431"><ele></ele><time>2013-8-8T3:20:56Z</time></trkpt>
<trkpt lat="46.3024559020996" lon="7.31832218170166"><ele></ele><time>2013-8-8T3:20:59Z</time></trkpt>
<trkpt lat="46.3024444580078" lon="7.31850862503052"><ele></ele><time>2013-8-8T3:21:2Z</time></trkpt>
<trkpt lat="46.3024406433106" lon="7.3185567855835"><ele></ele><time>2013-8-8T3:21:5Z</time></trkpt>
<trkpt lat="46.302433013916" lon="7.31860303878784"><ele></ele><time>2013-8-8T3:21:8Z</time></trkpt>
<trkpt lat="46.3024253845215" lon="7.31864738464356"><ele></ele><time>2013-8-8T3:21:11Z</time></trkpt>
<trkpt lat="46.3024215698242" lon="7.31869268417358"><ele></ele><time>2013-8-8T3:21:14Z</time></trkpt>
<trkpt lat="46.3023910522461" lon="7.31882429122925"><ele></ele><time>2013-8-8T3:21:17Z</time></trkpt>
<trkpt lat="46.3023300170898" lon="7.31903028488159"><ele></ele><time>2013-8-8T3:21:20Z</time></trkpt>
<trkpt lat="46.3023109436035" lon="7.31906604766846"><ele></ele><time>2013-8-8T3:21:23Z</time></trkpt>
<trkpt lat="46.3022880554199" lon="7.31910419464111"><ele></ele><time>2013-8-8T3:21:26Z</time></trkpt>
<trkpt lat="46.3022689819336" lon="7.31913709640503"><ele></ele><time>2013-8-8T3:21:29Z</time></trkpt>
<trkpt lat="46.30224609375" lon="7.319167137146"><ele></ele><time>2013-8-8T3:21:32Z</time></trkpt>
<trkpt lat="46.302131652832" lon="7.31930255889893"><ele></ele><time>2013-8-8T3:21:35Z</time></trkpt>
<trkpt lat="46.3020935058594" lon="7.31936073303223"><ele></ele><time>2013-8-8T3:21:38Z</time></trkpt>
<trkpt lat="46.3020782470703" lon="7.31939458847046"><ele></ele><time>2013-8-8T3:21:41Z</time></trkpt>
<trkpt lat="46.3020706176758" lon="7.31943798065186"><ele></ele><time>2013-8-8T3:21:44Z</time></trkpt>
<trkpt lat="46.3020629882812" lon="7.31948232650757"><ele></ele><time>2013-8-8T3:21:47Z</time></trkpt>
<trkpt lat="46.302059173584" lon="7.31952667236328"><ele></ele><time>2013-8-8T3:21:50Z</time></trkpt>
<trkpt lat="46.3020935058594" lon="7.31972646713257"><ele></ele><time>2013-8-8T3:21:53Z</time></trkpt>
<trkpt lat="46.3021354675293" lon="7.31982707977295"><ele></ele><time>2013-8-8T3:21:56Z</time></trkpt>
<trkpt lat="46.3021507263184" lon="7.31985902786255"><ele></ele><time>2013-8-8T3:21:59Z</time></trkpt>
<trkpt lat="46.3021659851074" lon="7.31989240646362"><ele></ele><time>2013-8-8T3:22:2Z</time></trkpt>
<trkpt lat="46.3021812438965" lon="7.31991577148438"><ele></ele><time>2013-8-8T3:22:5Z</time></trkpt>
<trkpt lat="46.3021965026856" lon="7.31993675231934"><ele></ele><time>2013-8-8T3:22:8Z</time></trkpt>
<trkpt lat="46.3022346496582" lon="7.32007932662964"><ele></ele><time>2013-8-8T3:22:11Z</time></trkpt>
<trkpt lat="46.3022994995117" lon="7.32025766372681"><ele></ele><time>2013-8-8T3:22:14Z</time></trkpt>
<trkpt lat="46.3023147583008" lon="7.32029724121094"><ele></ele><time>2013-8-8T3:22:17Z</time></trkpt>
<trkpt lat="46.3023338317871" lon="7.32033252716064"><ele></ele><time>2013-8-8T3:22:20Z</time></trkpt>
<trkpt lat="46.3023567199707" lon="7.32036590576172"><ele></ele><time>2013-8-8T3:22:23Z</time></trkpt>
<trkpt lat="46.302375793457" lon="7.32040596008301"><ele></ele><time>2013-8-8T3:22:26Z</time></trkpt>
<trkpt lat="46.3024482727051" lon="7.32056760787964"><ele></ele><time>2013-8-8T3:22:29Z</time></trkpt>
<trkpt lat="46.3024940490723" lon="7.32077217102051"><ele></ele><time>2013-8-8T3:22:32Z</time></trkpt>
<trkpt lat="46.3024940490723" lon="7.32081079483032"><ele></ele><time>2013-8-8T3:22:35Z</time></trkpt>
<trkpt lat="46.3025016784668" lon="7.3208737373352"><ele></ele><time>2013-8-8T3:22:38Z</time></trkpt>
<trkpt lat="46.3025054931641" lon="7.32091760635376"><ele></ele><time>2013-8-8T3:22:41Z</time></trkpt>
<trkpt lat="46.3025245666504" lon="7.32110834121704"><ele></ele><time>2013-8-8T3:22:44Z</time></trkpt>
<trkpt lat="46.3025207519531" lon="7.32114124298096"><ele></ele><time>2013-8-8T3:22:47Z</time></trkpt>
<trkpt lat="46.3025169372559" lon="7.32117605209351"><ele></ele><time>2013-8-8T3:22:50Z</time></trkpt>
<trkpt lat="46.3025169372559" lon="7.3212161064148"><ele></ele><time>2013-8-8T3:22:53Z</time></trkpt>
<trkpt lat="46.3025131225586" lon="7.3212571144104"><ele></ele><time>2013-8-8T3:22:56Z</time></trkpt>
<trkpt lat="46.3025054931641" lon="7.32134103775024"><ele></ele><time>2013-8-8T3:22:59Z</time></trkpt>
<trkpt lat="46.3025016784668" lon="7.3214840888977"><ele></ele><time>2013-8-8T3:23:2Z</time></trkpt>
<trkpt lat="46.3024978637695" lon="7.32150888442993"><ele></ele><time>2013-8-8T3:23:5Z</time></trkpt>
<trkpt lat="46.3024940490723" lon="7.32152605056763"><ele></ele><time>2013-8-8T3:23:8Z</time></trkpt>
<trkpt lat="46.302490234375" lon="7.32154273986816"><ele></ele><time>2013-8-8T3:23:11Z</time></trkpt>
<trkpt lat="46.3024864196777" lon="7.32157182693482"><ele></ele><time>2013-8-8T3:23:14Z</time></trkpt>
<trkpt lat="46.3024673461914" lon="7.32170295715332"><ele></ele><time>2013-8-8T3:23:17Z</time></trkpt>
<trkpt lat="46.3024253845215" lon="7.3218846321106"><ele></ele><time>2013-8-8T3:23:20Z</time></trkpt>
<trkpt lat="46.3024139404297" lon="7.32192659378052"><ele></ele><time>2013-8-8T3:23:23Z</time></trkpt>
<trkpt lat="46.3024024963379" lon="7.32196569442749"><ele></ele><time>2013-8-8T3:23:26Z</time></trkpt>
<trkpt lat="46.3023910522461" lon="7.32200479507446"><ele></ele><time>2013-8-8T3:23:29Z</time></trkpt>
<trkpt lat="46.3023834228516" lon="7.32204246520996"><ele></ele><time>2013-8-8T3:23:32Z</time></trkpt>
<trkpt lat="46.3023338317871" lon="7.32225036621094"><ele></ele><time>2013-8-8T3:23:35Z</time></trkpt>
<trkpt lat="46.302318572998" lon="7.32244253158569"><ele></ele><time>2013-8-8T3:23:38Z</time></trkpt>
<trkpt lat="46.3023147583008" lon="7.32247829437256"><ele></ele><time>2013-8-8T3:23:41Z</time></trkpt>
<trkpt lat="46.3023109436035" lon="7.32251358032226"><ele></ele><time>2013-8-8T3:23:44Z</time></trkpt>
<trkpt lat="46.302303314209" lon="7.3225531578064"><ele></ele><time>2013-8-8T3:23:47Z</time></trkpt>
<trkpt lat="46.3022804260254" lon="7.32276678085327"><ele></ele><time>2013-8-8T3:23:50Z</time></trkpt>
<trkpt lat="46.3022766113281" lon="7.3228030204773"><ele></ele><time>2013-8-8T3:23:53Z</time></trkpt>
<trkpt lat="46.3022766113281" lon="7.32283782958984"><ele></ele><time>2013-8-8T3:23:56Z</time></trkpt>
<trkpt lat="46.3022727966309" lon="7.32287120819092"><ele></ele><time>2013-8-8T3:23:59Z</time></trkpt>
<trkpt lat="46.3022689819336" lon="7.32290601730347"><ele></ele><time>2013-8-8T3:24:2Z</time></trkpt>
<trkpt lat="46.3022689819336" lon="7.32294607162476"><ele></ele><time>2013-8-8T3:24:5Z</time></trkpt>
<trkpt lat="46.3022651672363" lon="7.32298421859741"><ele></ele><time>2013-8-8T3:24:8Z</time></trkpt>
<trkpt lat="46.3022384643555" lon="7.32323360443115"><ele></ele><time>2013-8-8T3:24:11Z</time></trkpt>
<trkpt lat="46.3022308349609" lon="7.32327699661255"><ele></ele><time>2013-8-8T3:24:14Z</time></trkpt>
<trkpt lat="46.3022232055664" lon="7.32332038879394"><ele></ele><time>2013-8-8T3:24:17Z</time></trkpt>
<trkpt lat="46.3022117614746" lon="7.32336521148682"><ele></ele><time>2013-8-8T3:24:20Z</time></trkpt>
<trkpt lat="46.3022003173828" lon="7.32340383529663"><ele></ele><time>2013-8-8T3:24:23Z</time></trkpt>
<trkpt lat="46.3021545410156" lon="7.32361078262329"><ele></ele><time>2013-8-8T3:24:26Z</time></trkpt>
<trkpt lat="46.3021430969238" lon="7.3236608505249"><ele></ele><time>2013-8-8T3:24:29Z</time></trkpt>
<trkpt lat="46.3021354675293" lon="7.32370710372925"><ele></ele><time>2013-8-8T3:24:32Z</time></trkpt>
<trkpt lat="46.3021278381348" lon="7.32374811172485"><ele></ele><time>2013-8-8T3:24:35Z</time></trkpt>
<trkpt lat="46.3021240234375" lon="7.32379484176636"><ele></ele><time>2013-8-8T3:24:38Z</time></trkpt>
<trkpt lat="46.3021202087402" lon="7.32388496398926"><ele></ele><time>2013-8-8T3:24:41Z</time></trkpt>
<trkpt lat="46.3021202087402" lon="7.32412767410278"><ele></ele><time>2013-8-8T3:24:44Z</time></trkpt>
<trkpt lat="46.3021202087402" lon="7.32420110702515"><ele></ele><time>2013-8-8T3:24:47Z</time></trkpt>
<trkpt lat="46.3021125793457" lon="7.32424020767212"><ele></ele><time>2013-8-8T3:24:50Z</time></trkpt>
<trkpt lat="46.3021087646484" lon="7.32428169250488"><ele></ele><time>2013-8-8T3:24:53Z</time></trkpt>
<trkpt lat="46.3021049499512" lon="7.32432413101196"><ele></ele><time>2013-8-8T3:24:56Z</time></trkpt>
<trkpt lat="46.3021011352539" lon="7.32436752319336"><ele></ele><time>2013-8-8T3:24:59Z</time></trkpt>
<trkpt lat="46.302074432373" lon="7.32456016540527"><ele></ele><time>2013-8-8T3:25:2Z</time></trkpt>
<trkpt lat="46.3020706176758" lon="7.32460880279541"><ele></ele><time>2013-8-8T3:25:5Z</time></trkpt>
<trkpt lat="46.3020629882812" lon="7.32465744018555"><ele></ele><time>2013-8-8T3:25:8Z</time></trkpt>
<trkpt lat="46.3020553588867" lon="7.32469844818115"><ele></ele><time>2013-8-8T3:25:11Z</time></trkpt>
<trkpt lat="46.3020477294922" lon="7.32473754882812"><ele></ele><time>2013-8-8T3:25:14Z</time></trkpt>
<trkpt lat="46.3020286560059" lon="7.32484197616577"><ele></ele><time>2013-8-8T3:25:17Z</time></trkpt>
<trkpt lat="46.3020248413086" lon="7.32493925094604"><ele></ele><time>2013-8-8T3:25:20Z</time></trkpt>
<trkpt lat="46.3020172119141" lon="7.32496690750122"><ele></ele><time>2013-8-8T3:25:23Z</time></trkpt>
<trkpt lat="46.3020095825195" lon="7.32498741149902"><ele></ele><time>2013-8-8T3:25:26Z</time></trkpt>
<trkpt lat="46.302001953125" lon="7.32501125335693"><ele></ele><time>2013-8-8T3:25:29Z</time></trkpt>
<trkpt lat="46.3019981384277" lon="7.32503271102905"><ele></ele><time>2013-8-8T3:25:32Z</time></trkpt>
<trkpt lat="46.3019752502441" lon="7.32515525817871"><ele></ele><time>2013-8-8T3:25:35Z</time></trkpt>
<trkpt lat="46.3019676208496" lon="7.32523202896118"><ele></ele><time>2013-8-8T3:25:38Z</time></trkpt>
<trkpt lat="46.3019599914551" lon="7.32526731491089"><ele></ele><time>2013-8-8T3:25:41Z</time></trkpt>
<trkpt lat="46.3019561767578" lon="7.32530546188354"><ele></ele><time>2013-8-8T3:25:44Z</time></trkpt>
<trkpt lat="46.3019485473633" lon="7.32534122467041"><ele></ele><time>2013-8-8T3:25:47Z</time></trkpt>
<trkpt lat="46.3019409179688" lon="7.32537698745728"><ele></ele><time>2013-8-8T3:25:50Z</time></trkpt>
<trkpt lat="46.3019142150879" lon="7.32550764083862"><ele></ele><time>2013-8-8T3:25:53Z</time></trkpt>
<trkpt lat="46.3019104003906" lon="7.32553911209106"><ele></ele><time>2013-8-8T3:25:56Z</time></trkpt>
<trkpt lat="46.3019104003906" lon="7.32556915283203"><ele></ele><time>2013-8-8T3:25:59Z</time></trkpt>
<trkpt lat="46.3019065856934" lon="7.32559967041016"><ele></ele><time>2013-8-8T3:26:2Z</time></trkpt>
<trkpt lat="46.3019065856934" lon="7.3256311416626"><ele></ele><time>2013-8-8T3:26:5Z</time></trkpt>
<trkpt lat="46.3018035888672" lon="7.32624673843384"><ele></ele><time>2013-8-8T3:26:8Z</time></trkpt>
<trkpt lat="46.3018188476562" lon="7.3262939453125"><ele></ele><time>2013-8-8T3:26:11Z</time></trkpt>
<trkpt lat="46.3018264770508" lon="7.32631635665894"><ele></ele><time>2013-8-8T3:26:14Z</time></trkpt>
<trkpt lat="46.3018379211426" lon="7.32634210586548"><ele></ele><time>2013-8-8T3:26:17Z</time></trkpt>
<trkpt lat="46.3018493652344" lon="7.32636594772339"><ele></ele><time>2013-8-8T3:26:20Z</time></trkpt>
<trkpt lat="46.3018608093262" lon="7.32639026641846"><ele></ele><time>2013-8-8T3:26:23Z</time></trkpt>
<trkpt lat="46.3019371032715" lon="7.32649564743042"><ele></ele><time>2013-8-8T3:26:26Z</time></trkpt>
<trkpt lat="46.3019943237305" lon="7.32654809951782"><ele></ele><time>2013-8-8T3:26:29Z</time></trkpt>
<trkpt lat="46.3020133972168" lon="7.3265643119812"><ele></ele><time>2013-8-8T3:26:32Z</time></trkpt>
<trkpt lat="46.3020362854004" lon="7.3265814781189"><ele></ele><time>2013-8-8T3:26:35Z</time></trkpt>
<trkpt lat="46.3020553588867" lon="7.32659912109375"><ele></ele><time>2013-8-8T3:26:38Z</time></trkpt>
<trkpt lat="46.3020782470703" lon="7.32662057876587"><ele></ele><time>2013-8-8T3:26:41Z</time></trkpt>
<trkpt lat="46.302188873291" lon="7.32669925689697"><ele></ele><time>2013-8-8T3:26:44Z</time></trkpt>
<trkpt lat="46.3022079467773" lon="7.32671499252319"><ele></ele><time>2013-8-8T3:26:47Z</time></trkpt>
<trkpt lat="46.3022308349609" lon="7.32673168182373"><ele></ele><time>2013-8-8T3:26:50Z</time></trkpt>
<trkpt lat="46.3022499084473" lon="7.32674884796143"><ele></ele><time>2013-8-8T3:26:53Z</time></trkpt>
<trkpt lat="46.3022689819336" lon="7.32676553726196"><ele></ele><time>2013-8-8T3:26:56Z</time></trkpt>
<trkpt lat="46.3023376464844" lon="7.32684421539307"><ele></ele><time>2013-8-8T3:26:59Z</time></trkpt>
<trkpt lat="46.302360534668" lon="7.32686233520508"><ele></ele><time>2013-8-8T3:27:2Z</time></trkpt>
<trkpt lat="46.3023834228516" lon="7.32687950134277"><ele></ele><time>2013-8-8T3:27:5Z</time></trkpt>
<trkpt lat="46.3024024963379" lon="7.32689380645752"><ele></ele><time>2013-8-8T3:27:8Z</time></trkpt>
<trkpt lat="46.3024215698242" lon="7.32690382003784"><ele></ele><time>2013-8-8T3:27:11Z</time></trkpt>
<trkpt lat="46.3024406433106" lon="7.3269100189209"><ele></ele><time>2013-8-8T3:27:14Z</time></trkpt>
<trkpt lat="46.3024635314941" lon="7.32691812515259"><ele></ele><time>2013-8-8T3:27:17Z</time></trkpt>
<trkpt lat="46.3025245666504" lon="7.32696914672852"><ele></ele><time>2013-8-8T3:27:20Z</time></trkpt>
<trkpt lat="46.3025436401367" lon="7.32698917388916"><ele></ele><time>2013-8-8T3:27:23Z</time></trkpt>
<trkpt lat="46.302562713623" lon="7.3270092010498"><ele></ele><time>2013-8-8T3:27:26Z</time></trkpt>
<trkpt lat="46.3025856018066" lon="7.32702684402466"><ele></ele><time>2013-8-8T3:27:29Z</time></trkpt>
<trkpt lat="46.302604675293" lon="7.32704019546509"><ele></ele><time>2013-8-8T3:27:32Z</time></trkpt>
<trkpt lat="46.3026275634766" lon="7.32705402374268"><ele></ele><time>2013-8-8T3:27:35Z</time></trkpt>
<trkpt lat="46.3027114868164" lon="7.32711410522461"><ele></ele><time>2013-8-8T3:27:38Z</time></trkpt>
<trkpt lat="46.302734375" lon="7.32712745666504"><ele></ele><time>2013-8-8T3:27:41Z</time></trkpt>
<trkpt lat="46.3027534484863" lon="7.32714605331421"><ele></ele><time>2013-8-8T3:27:44Z</time></trkpt>
<trkpt lat="46.3027725219727" lon="7.32716751098633"><ele></ele><time>2013-8-8T3:27:47Z</time></trkpt>
<trkpt lat="46.3027954101562" lon="7.32718896865845"><ele></ele><time>2013-8-8T3:27:50Z</time></trkpt>
<trkpt lat="46.3029022216797" lon="7.32727336883545"><ele></ele><time>2013-8-8T3:27:53Z</time></trkpt>
<trkpt lat="46.3029251098633" lon="7.32728862762451"><ele></ele><time>2013-8-8T3:27:56Z</time></trkpt>
<trkpt lat="46.3029441833496" lon="7.32730388641357"><ele></ele><time>2013-8-8T3:27:59Z</time></trkpt>
<trkpt lat="46.3029632568359" lon="7.32731866836548"><ele></ele><time>2013-8-8T3:28:2Z</time></trkpt>
<trkpt lat="46.3029823303223" lon="7.32733774185181"><ele></ele><time>2013-8-8T3:28:5Z</time></trkpt>
<trkpt lat="46.3030776977539" lon="7.32742691040039"><ele></ele><time>2013-8-8T3:28:8Z</time></trkpt>
<trkpt lat="46.303092956543" lon="7.32744359970093"><ele></ele><time>2013-8-8T3:28:11Z</time></trkpt>
<trkpt lat="46.303108215332" lon="7.32746076583862"><ele></ele><time>2013-8-8T3:28:14Z</time></trkpt>
<trkpt lat="46.3031272888184" lon="7.32748031616211"><ele></ele><time>2013-8-8T3:28:17Z</time></trkpt>
<trkpt lat="46.3031425476074" lon="7.32749700546265"><ele></ele><time>2013-8-8T3:28:20Z</time></trkpt>
<trkpt lat="46.3031616210938" lon="7.32751321792602"><ele></ele><time>2013-8-8T3:28:23Z</time></trkpt>
<trkpt lat="46.3031997680664" lon="7.32755327224732"><ele></ele><time>2013-8-8T3:28:26Z</time></trkpt>
<trkpt lat="46.3032150268555" lon="7.32757568359375"><ele></ele><time>2013-8-8T3:28:29Z</time></trkpt>
<trkpt lat="46.3032341003418" lon="7.32759809494018"><ele></ele><time>2013-8-8T3:28:32Z</time></trkpt>
<trkpt lat="46.3032493591309" lon="7.3276195526123"><ele></ele><time>2013-8-8T3:28:35Z</time></trkpt>
<trkpt lat="46.3032646179199" lon="7.32764148712158"><ele></ele><time>2013-8-8T3:28:38Z</time></trkpt>
<trkpt lat="46.3032836914062" lon="7.32766246795654"><ele></ele><time>2013-8-8T3:28:41Z</time></trkpt>
<trkpt lat="46.3033103942871" lon="7.32770681381226"><ele></ele><time>2013-8-8T3:28:44Z</time></trkpt>
<trkpt lat="46.3033676147461" lon="7.32779359817505"><ele></ele><time>2013-8-8T3:28:47Z</time></trkpt>
<trkpt lat="46.3033790588379" lon="7.32781600952148"><ele></ele><time>2013-8-8T3:28:50Z</time></trkpt>
<trkpt lat="46.303394317627" lon="7.32783603668213"><ele></ele><time>2013-8-8T3:28:53Z</time></trkpt>
<trkpt lat="46.303409576416" lon="7.3278546333313"><ele></ele><time>2013-8-8T3:28:56Z</time></trkpt>
<trkpt lat="46.3034248352051" lon="7.32787561416626"><ele></ele><time>2013-8-8T3:28:59Z</time></trkpt>
<trkpt lat="46.3034896850586" lon="7.32794523239136"><ele></ele><time>2013-8-8T3:29:2Z</time></trkpt>
<trkpt lat="46.3035087585449" lon="7.32796096801758"><ele></ele><time>2013-8-8T3:29:5Z</time></trkpt>
<trkpt lat="46.303524017334" lon="7.32798290252686"><ele></ele><time>2013-8-8T3:29:8Z</time></trkpt>
<trkpt lat="46.303539276123" lon="7.3280029296875"><ele></ele><time>2013-8-8T3:29:11Z</time></trkpt>
<trkpt lat="46.3035545349121" lon="7.32802104949951"><ele></ele><time>2013-8-8T3:29:14Z</time></trkpt>
<trkpt lat="46.303638458252" lon="7.32809448242188"><ele></ele><time>2013-8-8T3:29:17Z</time></trkpt>
<trkpt lat="46.303653717041" lon="7.3281078338623"><ele></ele><time>2013-8-8T3:29:20Z</time></trkpt>
<trkpt lat="46.3036689758301" lon="7.32812118530274"><ele></ele><time>2013-8-8T3:29:23Z</time></trkpt>
<trkpt lat="46.3036880493164" lon="7.32813739776611"><ele></ele><time>2013-8-8T3:29:26Z</time></trkpt>
<trkpt lat="46.3037033081055" lon="7.32816028594971"><ele></ele><time>2013-8-8T3:29:29Z</time></trkpt>
<trkpt lat="46.3037452697754" lon="7.32822942733765"><ele></ele><time>2013-8-8T3:29:32Z</time></trkpt>
<trkpt lat="46.303768157959" lon="7.32826805114746"><ele></ele><time>2013-8-8T3:29:35Z</time></trkpt>
<trkpt lat="46.3037796020508" lon="7.32828855514526"><ele></ele><time>2013-8-8T3:29:38Z</time></trkpt>
<trkpt lat="46.3037910461426" lon="7.32830953598022"><ele></ele><time>2013-8-8T3:29:41Z</time></trkpt>
<trkpt lat="46.3038024902344" lon="7.32833337783814"><ele></ele><time>2013-8-8T3:29:44Z</time></trkpt>
<trkpt lat="46.3038177490234" lon="7.32835102081299"><ele></ele><time>2013-8-8T3:29:47Z</time></trkpt>
<trkpt lat="46.3038482666016" lon="7.32838010787964"><ele></ele><time>2013-8-8T3:29:50Z</time></trkpt>
<trkpt lat="46.3039054870606" lon="7.32843160629272"><ele></ele><time>2013-8-8T3:29:53Z</time></trkpt>
<trkpt lat="46.3039245605469" lon="7.32844972610474"><ele></ele><time>2013-8-8T3:29:56Z</time></trkpt>
<trkpt lat="46.3039474487305" lon="7.32846450805664"><ele></ele><time>2013-8-8T3:29:59Z</time></trkpt>
<trkpt lat="46.3039703369141" lon="7.3284797668457"><ele></ele><time>2013-8-8T3:30:2Z</time></trkpt>
<trkpt lat="46.3040428161621" lon="7.32853031158447"><ele></ele><time>2013-8-8T3:30:5Z</time></trkpt>
<trkpt lat="46.3040657043457" lon="7.32854700088501"><ele></ele><time>2013-8-8T3:30:8Z</time></trkpt>
<trkpt lat="46.304084777832" lon="7.32856750488281"><ele></ele><time>2013-8-8T3:30:11Z</time></trkpt>
<trkpt lat="46.3041038513184" lon="7.32859134674072"><ele></ele><time>2013-8-8T3:30:14Z</time></trkpt>
<trkpt lat="46.3041229248047" lon="7.32860898971558"><ele></ele><time>2013-8-8T3:30:17Z</time></trkpt>
<trkpt lat="46.3041610717773" lon="7.32864093780518"><ele></ele><time>2013-8-8T3:30:20Z</time></trkpt>
<trkpt lat="46.3042144775391" lon="7.32871055603027"><ele></ele><time>2013-8-8T3:30:23Z</time></trkpt>
<trkpt lat="46.3042297363281" lon="7.3287353515625"><ele></ele><time>2013-8-8T3:30:26Z</time></trkpt>
<trkpt lat="46.3042449951172" lon="7.3287615776062"><ele></ele><time>2013-8-8T3:30:29Z</time></trkpt>
<trkpt lat="46.304256439209" lon="7.32878541946411"><ele></ele><time>2013-8-8T3:30:32Z</time></trkpt>
<trkpt lat="46.3042678833008" lon="7.32880878448486"><ele></ele><time>2013-8-8T3:30:35Z</time></trkpt>
<trkpt lat="46.3043060302734" lon="7.32887029647827"><ele></ele><time>2013-8-8T3:30:38Z</time></trkpt>
<trkpt lat="46.3043174743652" lon="7.3288893699646"><ele></ele><time>2013-8-8T3:30:41Z</time></trkpt>
<trkpt lat="46.3043327331543" lon="7.32891607284546"><ele></ele><time>2013-8-8T3:30:44Z</time></trkpt>
<trkpt lat="46.3043441772461" lon="7.32893753051758"><ele></ele><time>2013-8-8T3:30:47Z</time></trkpt>
<trkpt lat="46.3043937683106" lon="7.32904577255249"><ele></ele><time>2013-8-8T3:30:50Z</time></trkpt>
<trkpt lat="46.3044052124023" lon="7.32907152175903"><ele></ele><time>2013-8-8T3:30:53Z</time></trkpt>
<trkpt lat="46.3044204711914" lon="7.3290958404541"><ele></ele><time>2013-8-8T3:30:56Z</time></trkpt>
<trkpt lat="46.3044319152832" lon="7.32912063598633"><ele></ele><time>2013-8-8T3:30:59Z</time></trkpt>
<trkpt lat="46.304443359375" lon="7.32914543151856"><ele></ele><time>2013-8-8T3:31:2Z</time></trkpt>
<trkpt lat="46.3044586181641" lon="7.32917022705078"><ele></ele><time>2013-8-8T3:31:5Z</time></trkpt>
<trkpt lat="46.3044891357422" lon="7.3292121887207"><ele></ele><time>2013-8-8T3:31:8Z</time></trkpt>
<trkpt lat="46.3045387268066" lon="7.32927417755127"><ele></ele><time>2013-8-8T3:31:11Z</time></trkpt>
<trkpt lat="46.3045539855957" lon="7.3292875289917"><ele></ele><time>2013-8-8T3:31:14Z</time></trkpt>
<trkpt lat="46.3045692443848" lon="7.32930517196655"><ele></ele><time>2013-8-8T3:31:17Z</time></trkpt>
<trkpt lat="46.3045845031738" lon="7.32932615280151"><ele></ele><time>2013-8-8T3:31:20Z</time></trkpt>
<trkpt lat="46.3045997619629" lon="7.32934951782226"><ele></ele><time>2013-8-8T3:31:23Z</time></trkpt>
<trkpt lat="46.3046684265137" lon="7.32943248748779"><ele></ele><time>2013-8-8T3:31:26Z</time></trkpt>
<trkpt lat="46.3046875" lon="7.32945346832275"><ele></ele><time>2013-8-8T3:31:29Z</time></trkpt>
<trkpt lat="46.3047065734863" lon="7.3294734954834"><ele></ele><time>2013-8-8T3:31:32Z</time></trkpt>
<trkpt lat="46.3047256469727" lon="7.32949256896973"><ele></ele><time>2013-8-8T3:31:35Z</time></trkpt>
<trkpt lat="46.3048133850098" lon="7.32963275909424"><ele></ele><time>2013-8-8T3:31:38Z</time></trkpt>
<trkpt lat="46.3048248291016" lon="7.32965898513794"><ele></ele><time>2013-8-8T3:31:41Z</time></trkpt>
<trkpt lat="46.3048400878906" lon="7.32968378067017"><ele></ele><time>2013-8-8T3:31:44Z</time></trkpt>
<trkpt lat="46.3048515319824" lon="7.32971000671387"><ele></ele><time>2013-8-8T3:31:47Z</time></trkpt>
<trkpt lat="46.3048629760742" lon="7.32973480224609"><ele></ele><time>2013-8-8T3:31:50Z</time></trkpt>
<trkpt lat="46.3049240112305" lon="7.32982921600342"><ele></ele><time>2013-8-8T3:31:53Z</time></trkpt>
<trkpt lat="46.3049354553223" lon="7.32985734939575"><ele></ele><time>2013-8-8T3:31:56Z</time></trkpt>
<trkpt lat="46.3049468994141" lon="7.32988452911377"><ele></ele><time>2013-8-8T3:31:59Z</time></trkpt>
<trkpt lat="46.3049583435059" lon="7.32991170883179"><ele></ele><time>2013-8-8T3:32:2Z</time></trkpt>
<trkpt lat="46.3049736022949" lon="7.32993841171265"><ele></ele><time>2013-8-8T3:32:5Z</time></trkpt>
<trkpt lat="46.3050689697266" lon="7.33007621765137"><ele></ele><time>2013-8-8T3:32:8Z</time></trkpt>
<trkpt lat="46.3050880432129" lon="7.33009481430054"><ele></ele><time>2013-8-8T3:32:11Z</time></trkpt>
<trkpt lat="46.3051071166992" lon="7.33011722564697"><ele></ele><time>2013-8-8T3:32:14Z</time></trkpt>
<trkpt lat="46.3051300048828" lon="7.33013868331909"><ele></ele><time>2013-8-8T3:32:17Z</time></trkpt>
<trkpt lat="46.3051528930664" lon="7.33015775680542"><ele></ele><time>2013-8-8T3:32:20Z</time></trkpt>
<trkpt lat="46.3052253723144" lon="7.33021402359009"><ele></ele><time>2013-8-8T3:32:23Z</time></trkpt>
<trkpt lat="46.3054084777832" lon="7.33034467697144"><ele></ele><time>2013-8-8T3:32:26Z</time></trkpt>
<trkpt lat="46.3054580688477" lon="7.33039093017578"><ele></ele><time>2013-8-8T3:32:29Z</time></trkpt>
<trkpt lat="46.3054809570312" lon="7.33041954040527"><ele></ele><time>2013-8-8T3:32:32Z</time></trkpt>
<trkpt lat="46.3055076599121" lon="7.3304500579834"><ele></ele><time>2013-8-8T3:32:35Z</time></trkpt>
<trkpt lat="46.3055229187012" lon="7.33047914505005"><ele></ele><time>2013-8-8T3:32:38Z</time></trkpt>
<trkpt lat="46.3055381774902" lon="7.33051013946533"><ele></ele><time>2013-8-8T3:32:41Z</time></trkpt>
<trkpt lat="46.3055763244629" lon="7.33067512512207"><ele></ele><time>2013-8-8T3:32:44Z</time></trkpt>
<trkpt lat="46.3055801391602" lon="7.33070993423462"><ele></ele><time>2013-8-8T3:32:47Z</time></trkpt>
<trkpt lat="46.3055877685547" lon="7.33074378967285"><ele></ele><time>2013-8-8T3:32:50Z</time></trkpt>
<trkpt lat="46.3055953979492" lon="7.33077526092529"><ele></ele><time>2013-8-8T3:32:53Z</time></trkpt>
<trkpt lat="46.3055992126465" lon="7.33081007003784"><ele></ele><time>2013-8-8T3:32:56Z</time></trkpt>
<trkpt lat="46.3056182861328" lon="7.3308744430542"><ele></ele><time>2013-8-8T3:32:59Z</time></trkpt>
<trkpt lat="46.3057022094727" lon="7.33105802536011"><ele></ele><time>2013-8-8T3:33:2Z</time></trkpt>
<trkpt lat="46.3057174682617" lon="7.33108901977539"><ele></ele><time>2013-8-8T3:33:5Z</time></trkpt>
<trkpt lat="46.3057327270508" lon="7.33111906051636"><ele></ele><time>2013-8-8T3:33:8Z</time></trkpt>
<trkpt lat="46.3057479858398" lon="7.33114814758301"><ele></ele><time>2013-8-8T3:33:11Z</time></trkpt>
<trkpt lat="46.3057594299316" lon="7.33117723464966"><ele></ele><time>2013-8-8T3:33:14Z</time></trkpt>
<trkpt lat="46.305793762207" lon="7.33127498626709"><ele></ele><time>2013-8-8T3:33:17Z</time></trkpt>
<trkpt lat="46.3058204650879" lon="7.33138704299927"><ele></ele><time>2013-8-8T3:33:20Z</time></trkpt>
<trkpt lat="46.3058319091797" lon="7.33142137527466"><ele></ele><time>2013-8-8T3:33:23Z</time></trkpt>
<trkpt lat="46.3058395385742" lon="7.33145475387573"><ele></ele><time>2013-8-8T3:33:26Z</time></trkpt>
<trkpt lat="46.3058471679688" lon="7.3314847946167"><ele></ele><time>2013-8-8T3:33:29Z</time></trkpt>
<trkpt lat="46.305850982666" lon="7.33151578903198"><ele></ele><time>2013-8-8T3:33:32Z</time></trkpt>
<trkpt lat="46.3058738708496" lon="7.33167791366577"><ele></ele><time>2013-8-8T3:33:35Z</time></trkpt>
<trkpt lat="46.3058776855469" lon="7.33171701431274"><ele></ele><time>2013-8-8T3:33:38Z</time></trkpt>
<trkpt lat="46.3058815002441" lon="7.33175468444824"><ele></ele><time>2013-8-8T3:33:41Z</time></trkpt>
<trkpt lat="46.3058853149414" lon="7.33179664611816"><ele></ele><time>2013-8-8T3:33:44Z</time></trkpt>
<trkpt lat="46.3058853149414" lon="7.33183431625366"><ele></ele><time>2013-8-8T3:33:47Z</time></trkpt>
<trkpt lat="46.3058929443359" lon="7.33200168609619"><ele></ele><time>2013-8-8T3:33:50Z</time></trkpt>
<trkpt lat="46.3059043884277" lon="7.33206939697266"><ele></ele><time>2013-8-8T3:33:53Z</time></trkpt>
<trkpt lat="46.305908203125" lon="7.33210468292236"><ele></ele><time>2013-8-8T3:33:56Z</time></trkpt>
<trkpt lat="46.3059120178223" lon="7.33213901519775"><ele></ele><time>2013-8-8T3:33:59Z</time></trkpt>
<trkpt lat="46.3059158325195" lon="7.33217430114746"><ele></ele><time>2013-8-8T3:34:2Z</time></trkpt>
<trkpt lat="46.3059158325195" lon="7.33220863342285"><ele></ele><time>2013-8-8T3:34:5Z</time></trkpt>
<trkpt lat="46.3059158325195" lon="7.33227491378784"><ele></ele><time>2013-8-8T3:34:8Z</time></trkpt>
<trkpt lat="46.3059043884277" lon="7.33237838745117"><ele></ele><time>2013-8-8T3:34:11Z</time></trkpt>
<trkpt lat="46.3058929443359" lon="7.33240747451782"><ele></ele><time>2013-8-8T3:34:14Z</time></trkpt>
<trkpt lat="46.3058776855469" lon="7.33243036270142"><ele></ele><time>2013-8-8T3:34:17Z</time></trkpt>
<trkpt lat="46.3058624267578" lon="7.33244848251343"><ele></ele><time>2013-8-8T3:34:20Z</time></trkpt>
<trkpt lat="46.3058395385742" lon="7.33245992660522"><ele></ele><time>2013-8-8T3:34:23Z</time></trkpt>
<trkpt lat="46.305736541748" lon="7.33246326446533"><ele></ele><time>2013-8-8T3:34:26Z</time></trkpt>
<trkpt lat="46.3056449890137" lon="7.33241939544678"><ele></ele><time>2013-8-8T3:34:29Z</time></trkpt>
<trkpt lat="46.3056182861328" lon="7.33240079879761"><ele></ele><time>2013-8-8T3:34:32Z</time></trkpt>
<trkpt lat="46.3055992126465" lon="7.33237600326538"><ele></ele><time>2013-8-8T3:34:35Z</time></trkpt>
<trkpt lat="46.3055839538574" lon="7.33235168457031"><ele></ele><time>2013-8-8T3:34:38Z</time></trkpt>
<trkpt lat="46.3055648803711" lon="7.33232927322388"><ele></ele><time>2013-8-8T3:34:41Z</time></trkpt>
<trkpt lat="46.3054962158203" lon="7.33224391937256"><ele></ele><time>2013-8-8T3:34:44Z</time></trkpt>
<trkpt lat="46.3054389953613" lon="7.33219242095947"><ele></ele><time>2013-8-8T3:34:47Z</time></trkpt>
<trkpt lat="46.3054237365723" lon="7.33217430114746"><ele></ele><time>2013-8-8T3:34:50Z</time></trkpt>
<trkpt lat="46.3054046630859" lon="7.33215618133545"><ele></ele><time>2013-8-8T3:34:53Z</time></trkpt>
<trkpt lat="46.3053855895996" lon="7.3321418762207"><ele></ele><time>2013-8-8T3:34:56Z</time></trkpt>
<trkpt lat="46.3052635192871" lon="7.33205795288086"><ele></ele><time>2013-8-8T3:34:59Z</time></trkpt>
<trkpt lat="46.3052406311035" lon="7.33204555511475"><ele></ele><time>2013-8-8T3:35:2Z</time></trkpt>
<trkpt lat="46.3052177429199" lon="7.33203792572022"><ele></ele><time>2013-8-8T3:35:5Z</time></trkpt>
<trkpt lat="46.3051948547363" lon="7.33202695846558"><ele></ele><time>2013-8-8T3:35:8Z</time></trkpt>
<trkpt lat="46.30517578125" lon="7.33201599121094"><ele></ele><time>2013-8-8T3:35:11Z</time></trkpt>
<trkpt lat="46.3051528930664" lon="7.33200311660767"><ele></ele><time>2013-8-8T3:35:14Z</time></trkpt>
<trkpt lat="46.3051300048828" lon="7.3319902420044"><ele></ele><time>2013-8-8T3:35:17Z</time></trkpt>
<trkpt lat="46.3049697875977" lon="7.33194637298584"><ele></ele><time>2013-8-8T3:35:20Z</time></trkpt>
<trkpt lat="46.3049468994141" lon="7.33193969726562"><ele></ele><time>2013-8-8T3:35:23Z</time></trkpt>
<trkpt lat="46.3049240112305" lon="7.33194017410278"><ele></ele><time>2013-8-8T3:35:26Z</time></trkpt>
<trkpt lat="46.3049011230469" lon="7.33194351196289"><ele></ele><time>2013-8-8T3:35:29Z</time></trkpt>
<trkpt lat="46.3048248291016" lon="7.33193492889404"><ele></ele><time>2013-8-8T3:35:32Z</time></trkpt>
<trkpt lat="46.3047065734863" lon="7.33200025558472"><ele></ele><time>2013-8-8T3:35:35Z</time></trkpt>
<trkpt lat="46.3046875" lon="7.33201694488525"><ele></ele><time>2013-8-8T3:35:38Z</time></trkpt>
<trkpt lat="46.3046684265137" lon="7.33203554153442"><ele></ele><time>2013-8-8T3:35:41Z</time></trkpt>
<trkpt lat="46.3046531677246" lon="7.33205604553223"><ele></ele><time>2013-8-8T3:35:44Z</time></trkpt>
<trkpt lat="46.3046340942383" lon="7.33207654953003"><ele></ele><time>2013-8-8T3:35:47Z</time></trkpt>
<trkpt lat="46.304615020752" lon="7.3321008682251"><ele></ele><time>2013-8-8T3:35:50Z</time></trkpt>
<trkpt lat="46.3045959472656" lon="7.33212852478027"><ele></ele><time>2013-8-8T3:35:53Z</time></trkpt>
<trkpt lat="46.3045272827148" lon="7.33221817016602"><ele></ele><time>2013-8-8T3:35:56Z</time></trkpt>
<trkpt lat="46.3045120239258" lon="7.33224153518677"><ele></ele><time>2013-8-8T3:35:59Z</time></trkpt>
<trkpt lat="46.304500579834" lon="7.33226776123047"><ele></ele><time>2013-8-8T3:36:2Z</time></trkpt>
<trkpt lat="46.3044891357422" lon="7.33229160308838"><ele></ele><time>2013-8-8T3:36:5Z</time></trkpt>
<trkpt lat="46.3044738769531" lon="7.33231687545776"><ele></ele><time>2013-8-8T3:36:8Z</time></trkpt>
<trkpt lat="46.3044166564941" lon="7.33241748809814"><ele></ele><time>2013-8-8T3:36:11Z</time></trkpt>
<trkpt lat="46.3044013977051" lon="7.33244323730469"><ele></ele><time>2013-8-8T3:36:14Z</time></trkpt>
<trkpt lat="46.304386138916" lon="7.33246850967407"><ele></ele><time>2013-8-8T3:36:17Z</time></trkpt>
<trkpt lat="46.3043746948242" lon="7.33249521255493"><ele></ele><time>2013-8-8T3:36:20Z</time></trkpt>
<trkpt lat="46.3043632507324" lon="7.33252286911011"><ele></ele><time>2013-8-8T3:36:23Z</time></trkpt>
<trkpt lat="46.3042869567871" lon="7.33263921737671"><ele></ele><time>2013-8-8T3:36:26Z</time></trkpt>
<trkpt lat="46.3042526245117" lon="7.33268547058106"><ele></ele><time>2013-8-8T3:36:29Z</time></trkpt>
<trkpt lat="46.3042373657227" lon="7.33271074295044"><ele></ele><time>2013-8-8T3:36:32Z</time></trkpt>
<trkpt lat="46.3042259216309" lon="7.33273601531982"><ele></ele><time>2013-8-8T3:36:35Z</time></trkpt>
<trkpt lat="46.3042106628418" lon="7.33276700973511"><ele></ele><time>2013-8-8T3:36:38Z</time></trkpt>
<trkpt lat="46.30419921875" lon="7.33279943466186"><ele></ele><time>2013-8-8T3:36:41Z</time></trkpt>
<trkpt lat="46.3041458129883" lon="7.33291339874268"><ele></ele><time>2013-8-8T3:36:44Z</time></trkpt>
<trkpt lat="46.3041305541992" lon="7.33294439315796"><ele></ele><time>2013-8-8T3:36:47Z</time></trkpt>
<trkpt lat="46.3041152954102" lon="7.3329758644104"><ele></ele><time>2013-8-8T3:36:50Z</time></trkpt>
<trkpt lat="46.3041038513184" lon="7.33300352096558"><ele></ele><time>2013-8-8T3:36:53Z</time></trkpt>
<trkpt lat="46.304084777832" lon="7.33303785324097"><ele></ele><time>2013-8-8T3:36:56Z</time></trkpt>
<trkpt lat="46.3040161132812" lon="7.33316516876221"><ele></ele><time>2013-8-8T3:36:59Z</time></trkpt>
<trkpt lat="46.3039512634277" lon="7.33325147628784"><ele></ele><time>2013-8-8T3:37:2Z</time></trkpt>
<trkpt lat="46.3039321899414" lon="7.33327770233154"><ele></ele><time>2013-8-8T3:37:5Z</time></trkpt>
<trkpt lat="46.3039131164551" lon="7.33330011367798"><ele></ele><time>2013-8-8T3:37:8Z</time></trkpt>
<trkpt lat="46.3038940429688" lon="7.33332204818726"><ele></ele><time>2013-8-8T3:37:11Z</time></trkpt>
<trkpt lat="46.3038749694824" lon="7.33334636688232"><ele></ele><time>2013-8-8T3:37:14Z</time></trkpt>
<trkpt lat="46.3038139343262" lon="7.33343505859375"><ele></ele><time>2013-8-8T3:37:17Z</time></trkpt>
<trkpt lat="46.3038063049316" lon="7.33346080780029"><ele></ele><time>2013-8-8T3:37:20Z</time></trkpt>
<trkpt lat="46.3038101196289" lon="7.33348941802978"><ele></ele><time>2013-8-8T3:37:23Z</time></trkpt>
<trkpt lat="46.3038177490234" lon="7.3335165977478"><ele></ele><time>2013-8-8T3:37:26Z</time></trkpt>
<trkpt lat="46.3038330078125" lon="7.33353853225708"><ele></ele><time>2013-8-8T3:37:29Z</time></trkpt>
<trkpt lat="46.3038787841797" lon="7.33356237411499"><ele></ele><time>2013-8-8T3:37:32Z</time></trkpt>
<trkpt lat="46.3039741516113" lon="7.33349752426148"><ele></ele><time>2013-8-8T3:37:35Z</time></trkpt>
<trkpt lat="46.3039932250977" lon="7.33347225189209"><ele></ele><time>2013-8-8T3:37:38Z</time></trkpt>
<trkpt lat="46.3040084838867" lon="7.33344745635986"><ele></ele><time>2013-8-8T3:37:41Z</time></trkpt>
<trkpt lat="46.304027557373" lon="7.333420753479"><ele></ele><time>2013-8-8T3:37:44Z</time></trkpt>
<trkpt lat="46.3040466308594" lon="7.3333911895752"><ele></ele><time>2013-8-8T3:37:47Z</time></trkpt>
<trkpt lat="46.3040618896484" lon="7.33336639404297"><ele></ele><time>2013-8-8T3:37:50Z</time></trkpt>
<trkpt lat="46.3040885925293" lon="7.33332300186157"><ele></ele><time>2013-8-8T3:37:53Z</time></trkpt>
<trkpt lat="46.3041801452637" lon="7.33324575424194"><ele></ele><time>2013-8-8T3:37:56Z</time></trkpt>
<trkpt lat="46.30419921875" lon="7.33323192596436"><ele></ele><time>2013-8-8T3:37:59Z</time></trkpt>
<trkpt lat="46.3042144775391" lon="7.33321809768677"><ele></ele><time>2013-8-8T3:38:2Z</time></trkpt>
<trkpt lat="46.3042335510254" lon="7.33320188522339"><ele></ele><time>2013-8-8T3:38:5Z</time></trkpt>
<trkpt lat="46.3042526245117" lon="7.33318567276001"><ele></ele><time>2013-8-8T3:38:8Z</time></trkpt>
<trkpt lat="46.3043365478516" lon="7.33316850662232"><ele></ele><time>2013-8-8T3:38:11Z</time></trkpt>
<trkpt lat="46.3043556213379" lon="7.33317279815674"><ele></ele><time>2013-8-8T3:38:14Z</time></trkpt>
<trkpt lat="46.3043785095215" lon="7.33317947387695"><ele></ele><time>2013-8-8T3:38:17Z</time></trkpt>
<trkpt lat="46.3043975830078" lon="7.33318614959717"><ele></ele><time>2013-8-8T3:38:20Z</time></trkpt>
<trkpt lat="46.3044166564941" lon="7.33319902420044"><ele></ele><time>2013-8-8T3:38:23Z</time></trkpt>
<trkpt lat="46.3044662475586" lon="7.33323860168457"><ele></ele><time>2013-8-8T3:38:26Z</time></trkpt>
<trkpt lat="46.3044815063477" lon="7.33325386047363"><ele></ele><time>2013-8-8T3:38:29Z</time></trkpt>
<trkpt lat="46.3044967651367" lon="7.33326625823975"><ele></ele><time>2013-8-8T3:38:32Z</time></trkpt>
<trkpt lat="46.3045120239258" lon="7.33328294754028"><ele></ele><time>2013-8-8T3:38:35Z</time></trkpt>
<trkpt lat="46.3045310974121" lon="7.33330011367798"><ele></ele><time>2013-8-8T3:38:38Z</time></trkpt>
<trkpt lat="46.3045654296875" lon="7.33332633972168"><ele></ele><time>2013-8-8T3:38:41Z</time></trkpt>
<trkpt lat="46.3045997619629" lon="7.33335399627686"><ele></ele><time>2013-8-8T3:38:44Z</time></trkpt>
<trkpt lat="46.304615020752" lon="7.3333683013916"><ele></ele><time>2013-8-8T3:38:47Z</time></trkpt>
<trkpt lat="46.3046340942383" lon="7.33337783813476"><ele></ele><time>2013-8-8T3:38:50Z</time></trkpt>
<trkpt lat="46.3046493530273" lon="7.33338928222656"><ele></ele><time>2013-8-8T3:38:53Z</time></trkpt>
<trkpt lat="46.3046684265137" lon="7.33339977264404"><ele></ele><time>2013-8-8T3:38:56Z</time></trkpt>
<trkpt lat="46.3047027587891" lon="7.33342599868774"><ele></ele><time>2013-8-8T3:38:59Z</time></trkpt>
<trkpt lat="46.3047180175781" lon="7.33343648910522"><ele></ele><time>2013-8-8T3:39:2Z</time></trkpt>
<trkpt lat="46.3047294616699" lon="7.33345127105713"><ele></ele><time>2013-8-8T3:39:5Z</time></trkpt>
<trkpt lat="46.3047485351562" lon="7.33346700668335"><ele></ele><time>2013-8-8T3:39:8Z</time></trkpt>
<trkpt lat="46.304759979248" lon="7.33348226547241"><ele></ele><time>2013-8-8T3:39:11Z</time></trkpt>
<trkpt lat="46.3047714233398" lon="7.33349323272705"><ele></ele><time>2013-8-8T3:39:14Z</time></trkpt>
<trkpt lat="46.3047828674316" lon="7.33350849151611"><ele></ele><time>2013-8-8T3:39:17Z</time></trkpt>
<trkpt lat="46.3047943115234" lon="7.33353185653686"><ele></ele><time>2013-8-8T3:39:20Z</time></trkpt>
<trkpt lat="46.304801940918" lon="7.33355331420898"><ele></ele><time>2013-8-8T3:39:23Z</time></trkpt>
<trkpt lat="46.3048133850098" lon="7.33357858657837"><ele></ele><time>2013-8-8T3:39:26Z</time></trkpt>
<trkpt lat="46.3048248291016" lon="7.33360290527344"><ele></ele><time>2013-8-8T3:39:29Z</time></trkpt>
<trkpt lat="46.3048362731934" lon="7.33362627029419"><ele></ele><time>2013-8-8T3:39:32Z</time></trkpt>
<trkpt lat="46.3048934936523" lon="7.33373260498047"><ele></ele><time>2013-8-8T3:39:35Z</time></trkpt>
<trkpt lat="46.3049049377441" lon="7.33375120162964"><ele></ele><time>2013-8-8T3:39:38Z</time></trkpt>
<trkpt lat="46.3049125671387" lon="7.33377170562744"><ele></ele><time>2013-8-8T3:39:41Z</time></trkpt>
<trkpt lat="46.3049240112305" lon="7.33379364013672"><ele></ele><time>2013-8-8T3:39:44Z</time></trkpt>
<trkpt lat="46.3049354553223" lon="7.33381366729736"><ele></ele><time>2013-8-8T3:39:47Z</time></trkpt>
<trkpt lat="46.3049964904785" lon="7.33387422561646"><ele></ele><time>2013-8-8T3:39:50Z</time></trkpt>
<trkpt lat="46.3050804138184" lon="7.33392000198364"><ele></ele><time>2013-8-8T3:39:53Z</time></trkpt>
<trkpt lat="46.3050994873047" lon="7.33392333984375"><ele></ele><time>2013-8-8T3:39:56Z</time></trkpt>
<trkpt lat="46.305118560791" lon="7.3339262008667"><ele></ele><time>2013-8-8T3:39:59Z</time></trkpt>
<trkpt lat="46.3051376342773" lon="7.33392810821533"><ele></ele><time>2013-8-8T3:40:2Z</time></trkpt>
<trkpt lat="46.3051567077637" lon="7.3339262008667"><ele></ele><time>2013-8-8T3:40:5Z</time></trkpt>
<trkpt lat="46.3051719665527" lon="7.33391237258911"><ele></ele><time>2013-8-8T3:40:8Z</time></trkpt>
<trkpt lat="46.3052177429199" lon="7.33387041091919"><ele></ele><time>2013-8-8T3:40:11Z</time></trkpt>
<trkpt lat="46.3052368164062" lon="7.33386135101318"><ele></ele><time>2013-8-8T3:40:14Z</time></trkpt>
<trkpt lat="46.3052558898926" lon="7.33385467529297"><ele></ele><time>2013-8-8T3:40:17Z</time></trkpt>
<trkpt lat="46.3052749633789" lon="7.33384561538696"><ele></ele><time>2013-8-8T3:40:20Z</time></trkpt>
<trkpt lat="46.305290222168" lon="7.33383512496948"><ele></ele><time>2013-8-8T3:40:23Z</time></trkpt>
<trkpt lat="46.3053092956543" lon="7.33382558822632"><ele></ele><time>2013-8-8T3:40:26Z</time></trkpt>
<trkpt lat="46.3053321838379" lon="7.33382558822632"><ele></ele><time>2013-8-8T3:40:29Z</time></trkpt>
<trkpt lat="46.3054313659668" lon="7.33382225036621"><ele></ele><time>2013-8-8T3:40:32Z</time></trkpt>
<trkpt lat="46.3054504394531" lon="7.33383274078369"><ele></ele><time>2013-8-8T3:40:35Z</time></trkpt>
<trkpt lat="46.3054695129394" lon="7.33384370803833"><ele></ele><time>2013-8-8T3:40:38Z</time></trkpt>
<trkpt lat="46.3054847717285" lon="7.33385848999024"><ele></ele><time>2013-8-8T3:40:41Z</time></trkpt>
<trkpt lat="46.3055000305176" lon="7.33387184143066"><ele></ele><time>2013-8-8T3:40:44Z</time></trkpt>
<trkpt lat="46.3055191040039" lon="7.33388471603394"><ele></ele><time>2013-8-8T3:40:47Z</time></trkpt>
<trkpt lat="46.3055305480957" lon="7.33390378952026"><ele></ele><time>2013-8-8T3:40:50Z</time></trkpt>
<trkpt lat="46.3055610656738" lon="7.33397674560547"><ele></ele><time>2013-8-8T3:40:53Z</time></trkpt>
<trkpt lat="46.3055686950684" lon="7.3339991569519"><ele></ele><time>2013-8-8T3:40:56Z</time></trkpt>
<trkpt lat="46.3055801391602" lon="7.33402442932129"><ele></ele><time>2013-8-8T3:40:59Z</time></trkpt>
<trkpt lat="46.3055877685547" lon="7.33405065536499"><ele></ele><time>2013-8-8T3:41:2Z</time></trkpt>
<trkpt lat="46.3056259155273" lon="7.33414363861084"><ele></ele><time>2013-8-8T3:41:5Z</time></trkpt>
<trkpt lat="46.3056335449219" lon="7.33416748046875"><ele></ele><time>2013-8-8T3:41:8Z</time></trkpt>
<trkpt lat="46.3056373596191" lon="7.33419227600098"><ele></ele><time>2013-8-8T3:41:11Z</time></trkpt>
<trkpt lat="46.3056411743164" lon="7.33421850204468"><ele></ele><time>2013-8-8T3:41:14Z</time></trkpt>
<trkpt lat="46.3056449890137" lon="7.33424091339111"><ele></ele><time>2013-8-8T3:41:17Z</time></trkpt>
<trkpt lat="46.3056755065918" lon="7.33436679840088"><ele></ele><time>2013-8-8T3:41:20Z</time></trkpt>
<trkpt lat="46.3056945800781" lon="7.33441781997681"><ele></ele><time>2013-8-8T3:41:23Z</time></trkpt>
<trkpt lat="46.3057022094727" lon="7.3344407081604"><ele></ele><time>2013-8-8T3:41:26Z</time></trkpt>
<trkpt lat="46.3057098388672" lon="7.33446264266968"><ele></ele><time>2013-8-8T3:41:29Z</time></trkpt>
<trkpt lat="46.3057136535644" lon="7.3344874382019"><ele></ele><time>2013-8-8T3:41:32Z</time></trkpt>
<trkpt lat="46.305721282959" lon="7.33451414108276"><ele></ele><time>2013-8-8T3:41:35Z</time></trkpt>
<trkpt lat="46.3057289123535" lon="7.33454084396362"><ele></ele><time>2013-8-8T3:41:38Z</time></trkpt>
<trkpt lat="46.305778503418" lon="7.33469200134277"><ele></ele><time>2013-8-8T3:41:41Z</time></trkpt>
<trkpt lat="46.3057899475098" lon="7.33471727371216"><ele></ele><time>2013-8-8T3:41:44Z</time></trkpt>
<trkpt lat="46.305793762207" lon="7.3347430229187"><ele></ele><time>2013-8-8T3:41:47Z</time></trkpt>
<trkpt lat="46.3058013916016" lon="7.33476781845093"><ele></ele><time>2013-8-8T3:41:50Z</time></trkpt>
<trkpt lat="46.3058090209961" lon="7.33479261398315"><ele></ele><time>2013-8-8T3:41:53Z</time></trkpt>
<trkpt lat="46.3058280944824" lon="7.3348708152771"><ele></ele><time>2013-8-8T3:41:56Z</time></trkpt>
<trkpt lat="46.305835723877" lon="7.33489847183228"><ele></ele><time>2013-8-8T3:41:59Z</time></trkpt>
<trkpt lat="46.3058471679688" lon="7.3349232673645"><ele></ele><time>2013-8-8T3:42:2Z</time></trkpt>
<trkpt lat="46.3058586120606" lon="7.3349461555481"><ele></ele><time>2013-8-8T3:42:5Z</time></trkpt>
<trkpt lat="46.3058700561523" lon="7.33496904373169"><ele></ele><time>2013-8-8T3:42:8Z</time></trkpt>
<trkpt lat="46.3058891296387" lon="7.33504247665405"><ele></ele><time>2013-8-8T3:42:11Z</time></trkpt>
<trkpt lat="46.3058662414551" lon="7.3351526260376"><ele></ele><time>2013-8-8T3:42:14Z</time></trkpt>
<trkpt lat="46.3058471679688" lon="7.3351583480835"><ele></ele><time>2013-8-8T3:42:17Z</time></trkpt>
<trkpt lat="46.3058280944824" lon="7.33515548706055"><ele></ele><time>2013-8-8T3:42:20Z</time></trkpt>
<trkpt lat="46.3058090209961" lon="7.33514595031738"><ele></ele><time>2013-8-8T3:42:23Z</time></trkpt>
<trkpt lat="46.3057670593262" lon="7.3350830078125"><ele></ele><time>2013-8-8T3:42:26Z</time></trkpt>
<trkpt lat="46.3057518005371" lon="7.33506298065186"><ele></ele><time>2013-8-8T3:42:29Z</time></trkpt>
<trkpt lat="46.3057136535644" lon="7.33498954772949"><ele></ele><time>2013-8-8T3:42:32Z</time></trkpt>
<trkpt lat="46.3057022094727" lon="7.33496379852295"><ele></ele><time>2013-8-8T3:42:35Z</time></trkpt>
<trkpt lat="46.3056945800781" lon="7.33493900299072"><ele></ele><time>2013-8-8T3:42:38Z</time></trkpt>
<trkpt lat="46.3056831359863" lon="7.33491039276123"><ele></ele><time>2013-8-8T3:42:41Z</time></trkpt>
<trkpt lat="46.3056793212891" lon="7.33488273620606"><ele></ele><time>2013-8-8T3:42:44Z</time></trkpt>
<trkpt lat="46.3055992126465" lon="7.33471393585205"><ele></ele><time>2013-8-8T3:42:47Z</time></trkpt>
<trkpt lat="46.305591583252" lon="7.33468675613403"><ele></ele><time>2013-8-8T3:42:50Z</time></trkpt>
<trkpt lat="46.3055801391602" lon="7.33466291427612"><ele></ele><time>2013-8-8T3:42:53Z</time></trkpt>
<trkpt lat="46.3055686950684" lon="7.33463764190674"><ele></ele><time>2013-8-8T3:42:56Z</time></trkpt>
<trkpt lat="46.3055610656738" lon="7.3346118927002"><ele></ele><time>2013-8-8T3:42:59Z</time></trkpt>
<trkpt lat="46.305534362793" lon="7.33456230163574"><ele></ele><time>2013-8-8T3:43:2Z</time></trkpt>
<trkpt lat="46.3054466247559" lon="7.33450269699097"><ele></ele><time>2013-8-8T3:43:5Z</time></trkpt>
<trkpt lat="46.3054237365723" lon="7.33449745178223"><ele></ele><time>2013-8-8T3:43:8Z</time></trkpt>
<trkpt lat="46.3054046630859" lon="7.33450269699097"><ele></ele><time>2013-8-8T3:43:11Z</time></trkpt>
<trkpt lat="46.3053817749023" lon="7.3345193862915"><ele></ele><time>2013-8-8T3:43:14Z</time></trkpt>
<trkpt lat="46.3053588867188" lon="7.33453559875488"><ele></ele><time>2013-8-8T3:43:17Z</time></trkpt>
<trkpt lat="46.3053398132324" lon="7.3345513343811"><ele></ele><time>2013-8-8T3:43:20Z</time></trkpt>
<trkpt lat="46.3052444458008" lon="7.33463001251221"><ele></ele><time>2013-8-8T3:43:23Z</time></trkpt>
<trkpt lat="46.3052253723144" lon="7.33464813232422"><ele></ele><time>2013-8-8T3:43:26Z</time></trkpt>
<trkpt lat="46.3052101135254" lon="7.33466863632202"><ele></ele><time>2013-8-8T3:43:29Z</time></trkpt>
<trkpt lat="46.3051910400391" lon="7.33468389511108"><ele></ele><time>2013-8-8T3:43:32Z</time></trkpt>
<trkpt lat="46.3051719665527" lon="7.33470058441162"><ele></ele><time>2013-8-8T3:43:35Z</time></trkpt>
<trkpt lat="46.3051528930664" lon="7.334716796875"><ele></ele><time>2013-8-8T3:43:38Z</time></trkpt>
<trkpt lat="46.305103302002" lon="7.3347601890564"><ele></ele><time>2013-8-8T3:43:41Z</time></trkpt>
<trkpt lat="46.3050918579102" lon="7.33477544784546"><ele></ele><time>2013-8-8T3:43:44Z</time></trkpt>
<trkpt lat="46.3050765991211" lon="7.33479690551758"><ele></ele><time>2013-8-8T3:43:47Z</time></trkpt>
<trkpt lat="46.3050651550293" lon="7.33481931686401"><ele></ele><time>2013-8-8T3:43:50Z</time></trkpt>
<trkpt lat="46.3050498962402" lon="7.3348536491394"><ele></ele><time>2013-8-8T3:43:53Z</time></trkpt>
<trkpt lat="46.3050384521484" lon="7.33491849899292"><ele></ele><time>2013-8-8T3:43:56Z</time></trkpt>
<trkpt lat="46.305061340332" lon="7.33501100540161"><ele></ele><time>2013-8-8T3:43:59Z</time></trkpt>
<trkpt lat="46.3050804138184" lon="7.3350191116333"><ele></ele><time>2013-8-8T3:44:2Z</time></trkpt>
<trkpt lat="46.305103302002" lon="7.3350248336792"><ele></ele><time>2013-8-8T3:44:5Z</time></trkpt>
<trkpt lat="46.3051261901856" lon="7.33503246307373"><ele></ele><time>2013-8-8T3:44:8Z</time></trkpt>
<trkpt lat="46.3051528930664" lon="7.33503293991089"><ele></ele><time>2013-8-8T3:44:11Z</time></trkpt>
<trkpt lat="46.30517578125" lon="7.33503484725952"><ele></ele><time>2013-8-8T3:44:14Z</time></trkpt>
<trkpt lat="46.3051986694336" lon="7.33503770828247"><ele></ele><time>2013-8-8T3:44:17Z</time></trkpt>
<trkpt lat="46.3052597045898" lon="7.33506155014038"><ele></ele><time>2013-8-8T3:44:20Z</time></trkpt>
<trkpt lat="46.3052749633789" lon="7.33508157730102"><ele></ele><time>2013-8-8T3:44:23Z</time></trkpt>
<trkpt lat="46.305290222168" lon="7.33510780334473"><ele></ele><time>2013-8-8T3:44:26Z</time></trkpt>
<trkpt lat="46.3053016662598" lon="7.33512830734253"><ele></ele><time>2013-8-8T3:44:29Z</time></trkpt>
<trkpt lat="46.3053131103516" lon="7.33515310287476"><ele></ele><time>2013-8-8T3:44:32Z</time></trkpt>
<trkpt lat="46.3053321838379" lon="7.33523941040039"><ele></ele><time>2013-8-8T3:44:35Z</time></trkpt>
<trkpt lat="46.3053359985352" lon="7.33526754379272"><ele></ele><time>2013-8-8T3:44:38Z</time></trkpt>
<trkpt lat="46.3053359985352" lon="7.33529472351074"><ele></ele><time>2013-8-8T3:44:41Z</time></trkpt>
<trkpt lat="46.3053398132324" lon="7.33533000946045"><ele></ele><time>2013-8-8T3:44:44Z</time></trkpt>
<trkpt lat="46.3053436279297" lon="7.335364818573"><ele></ele><time>2013-8-8T3:44:47Z</time></trkpt>
<trkpt lat="46.3053512573242" lon="7.33542203903198"><ele></ele><time>2013-8-8T3:44:50Z</time></trkpt>
<trkpt lat="46.305362701416" lon="7.3354640007019"><ele></ele><time>2013-8-8T3:44:53Z</time></trkpt>
<trkpt lat="46.3053665161133" lon="7.33548498153686"><ele></ele><time>2013-8-8T3:44:56Z</time></trkpt>
<trkpt lat="46.3053741455078" lon="7.33551645278931"><ele></ele><time>2013-8-8T3:44:59Z</time></trkpt>
<trkpt lat="46.3053817749023" lon="7.33555221557617"><ele></ele><time>2013-8-8T3:45:2Z</time></trkpt>
<trkpt lat="46.3053855895996" lon="7.33558750152588"><ele></ele><time>2013-8-8T3:45:5Z</time></trkpt>
<trkpt lat="46.3053932189941" lon="7.33564472198486"><ele></ele><time>2013-8-8T3:45:8Z</time></trkpt>
<trkpt lat="46.3054008483887" lon="7.3356728553772"><ele></ele><time>2013-8-8T3:45:11Z</time></trkpt>
<trkpt lat="46.3054046630859" lon="7.33569860458374"><ele></ele><time>2013-8-8T3:45:14Z</time></trkpt>
<trkpt lat="46.3054122924805" lon="7.33572816848755"><ele></ele><time>2013-8-8T3:45:17Z</time></trkpt>
<trkpt lat="46.305419921875" lon="7.33575439453125"><ele></ele><time>2013-8-8T3:45:20Z</time></trkpt>
<trkpt lat="46.3054275512695" lon="7.335777759552"><ele></ele><time>2013-8-8T3:45:23Z</time></trkpt>
<trkpt lat="46.3054809570312" lon="7.33590650558472"><ele></ele><time>2013-8-8T3:45:26Z</time></trkpt>
<trkpt lat="46.3054847717285" lon="7.3359317779541"><ele></ele><time>2013-8-8T3:45:29Z</time></trkpt>
<trkpt lat="46.3054809570312" lon="7.33595561981201"><ele></ele><time>2013-8-8T3:45:32Z</time></trkpt>
<trkpt lat="46.3054656982422" lon="7.33597755432129"><ele></ele><time>2013-8-8T3:45:35Z</time></trkpt>
<trkpt lat="46.3054466247559" lon="7.33597612380982"><ele></ele><time>2013-8-8T3:45:38Z</time></trkpt>
<trkpt lat="46.3053970336914" lon="7.33592081069946"><ele></ele><time>2013-8-8T3:45:41Z</time></trkpt>
<trkpt lat="46.3053855895996" lon="7.33589601516724"><ele></ele><time>2013-8-8T3:45:44Z</time></trkpt>
<trkpt lat="46.3053703308106" lon="7.33587169647217"><ele></ele><time>2013-8-8T3:45:47Z</time></trkpt>
<trkpt lat="46.3053550720215" lon="7.33585357666016"><ele></ele><time>2013-8-8T3:45:50Z</time></trkpt>
<trkpt lat="46.3053436279297" lon="7.33582830429077"><ele></ele><time>2013-8-8T3:45:53Z</time></trkpt>
<trkpt lat="46.3053321838379" lon="7.33580875396728"><ele></ele><time>2013-8-8T3:45:56Z</time></trkpt>
<trkpt lat="46.3053169250488" lon="7.33579111099243"><ele></ele><time>2013-8-8T3:45:59Z</time></trkpt>
<trkpt lat="46.3052711486816" lon="7.33572196960449"><ele></ele><time>2013-8-8T3:46:2Z</time></trkpt>
<trkpt lat="46.3052597045898" lon="7.3357048034668"><ele></ele><time>2013-8-8T3:46:5Z</time></trkpt>
<trkpt lat="46.3052444458008" lon="7.33569383621216"><ele></ele><time>2013-8-8T3:46:8Z</time></trkpt>
<trkpt lat="46.305233001709" lon="7.3356819152832"><ele></ele><time>2013-8-8T3:46:11Z</time></trkpt>
<trkpt lat="46.3052139282227" lon="7.33566856384277"><ele></ele><time>2013-8-8T3:46:14Z</time></trkpt>
<trkpt lat="46.3051300048828" lon="7.33559894561768"><ele></ele><time>2013-8-8T3:46:17Z</time></trkpt>
<trkpt lat="46.3050994873047" lon="7.33557987213135"><ele></ele><time>2013-8-8T3:46:20Z</time></trkpt>
<trkpt lat="46.3050842285156" lon="7.33557462692261"><ele></ele><time>2013-8-8T3:46:23Z</time></trkpt>
<trkpt lat="46.3050651550293" lon="7.33556747436524"><ele></ele><time>2013-8-8T3:46:26Z</time></trkpt>
<trkpt lat="46.305046081543" lon="7.3355655670166"><ele></ele><time>2013-8-8T3:46:29Z</time></trkpt>
<trkpt lat="46.3050270080566" lon="7.33555841445923"><ele></ele><time>2013-8-8T3:46:32Z</time></trkpt>
<trkpt lat="46.3050079345703" lon="7.33556175231934"><ele></ele><time>2013-8-8T3:46:35Z</time></trkpt>
<trkpt lat="46.3049697875977" lon="7.33562231063843"><ele></ele><time>2013-8-8T3:46:38Z</time></trkpt>
<trkpt lat="46.3049659729004" lon="7.33565044403076"><ele></ele><time>2013-8-8T3:46:41Z</time></trkpt>
<trkpt lat="46.3049659729004" lon="7.33568143844604"><ele></ele><time>2013-8-8T3:46:44Z</time></trkpt>
<trkpt lat="46.3049697875977" lon="7.33570432662964"><ele></ele><time>2013-8-8T3:46:47Z</time></trkpt>
<trkpt lat="46.3049774169922" lon="7.33572816848755"><ele></ele><time>2013-8-8T3:46:50Z</time></trkpt>
<trkpt lat="46.3049964904785" lon="7.33574724197388"><ele></ele><time>2013-8-8T3:46:53Z</time></trkpt>
<trkpt lat="46.3050079345703" lon="7.33576440811157"><ele></ele><time>2013-8-8T3:46:56Z</time></trkpt>
<trkpt lat="46.3051338195801" lon="7.3358793258667"><ele></ele><time>2013-8-8T3:46:59Z</time></trkpt>
<trkpt lat="46.3051528930664" lon="7.33589935302734"><ele></ele><time>2013-8-8T3:47:2Z</time></trkpt>
<trkpt lat="46.3051681518555" lon="7.33592176437378"><ele></ele><time>2013-8-8T3:47:5Z</time></trkpt>
<trkpt lat="46.3051795959473" lon="7.33594703674316"><ele></ele><time>2013-8-8T3:47:8Z</time></trkpt>
<trkpt lat="46.3052062988281" lon="7.33602952957153"><ele></ele><time>2013-8-8T3:47:11Z</time></trkpt>
<trkpt lat="46.3052520751953" lon="7.3362021446228"><ele></ele><time>2013-8-8T3:47:14Z</time></trkpt>
<trkpt lat="46.3052673339844" lon="7.33623218536377"><ele></ele><time>2013-8-8T3:47:17Z</time></trkpt>
<trkpt lat="46.3052787780762" lon="7.33626365661621"><ele></ele><time>2013-8-8T3:47:20Z</time></trkpt>
<trkpt lat="46.3052864074707" lon="7.33629369735718"><ele></ele><time>2013-8-8T3:47:23Z</time></trkpt>
<trkpt lat="46.3052978515625" lon="7.3363242149353"><ele></ele><time>2013-8-8T3:47:26Z</time></trkpt>
<trkpt lat="46.3054008483887" lon="7.33649969100952"><ele></ele><time>2013-8-8T3:47:29Z</time></trkpt>
<trkpt lat="46.3054847717285" lon="7.33656024932861"><ele></ele><time>2013-8-8T3:47:32Z</time></trkpt>
<trkpt lat="46.3055114746094" lon="7.33657073974609"><ele></ele><time>2013-8-8T3:47:35Z</time></trkpt>
<trkpt lat="46.3055381774902" lon="7.33658075332642"><ele></ele><time>2013-8-8T3:47:38Z</time></trkpt>
<trkpt lat="46.3055610656738" lon="7.33659267425537"><ele></ele><time>2013-8-8T3:47:41Z</time></trkpt>
<trkpt lat="46.3057136535644" lon="7.33661556243896"><ele></ele><time>2013-8-8T3:47:44Z</time></trkpt>
<trkpt lat="46.3057441711426" lon="7.33661508560181"><ele></ele><time>2013-8-8T3:47:47Z</time></trkpt>
<trkpt lat="46.3057670593262" lon="7.33661460876465"><ele></ele><time>2013-8-8T3:47:50Z</time></trkpt>
<trkpt lat="46.305793762207" lon="7.33661365509033"><ele></ele><time>2013-8-8T3:47:53Z</time></trkpt>
<trkpt lat="46.3058166503906" lon="7.33660888671875"><ele></ele><time>2013-8-8T3:47:56Z</time></trkpt>
<trkpt lat="46.3059120178223" lon="7.33654356002808"><ele></ele><time>2013-8-8T3:47:59Z</time></trkpt>
<trkpt lat="46.3060455322266" lon="7.33640146255493"><ele></ele><time>2013-8-8T3:48:2Z</time></trkpt>
<trkpt lat="46.3060913085938" lon="7.33637142181396"><ele></ele><time>2013-8-8T3:48:5Z</time></trkpt>
<trkpt lat="46.3061141967773" lon="7.33635377883911"><ele></ele><time>2013-8-8T3:48:8Z</time></trkpt>
<trkpt lat="46.3061370849609" lon="7.33634090423584"><ele></ele><time>2013-8-8T3:48:11Z</time></trkpt>
<trkpt lat="46.3061599731445" lon="7.33632469177246"><ele></ele><time>2013-8-8T3:48:14Z</time></trkpt>
<trkpt lat="46.3062019348144" lon="7.33629131317139"><ele></ele><time>2013-8-8T3:48:17Z</time></trkpt>
<trkpt lat="46.3063697814941" lon="7.33615827560425"><ele></ele><time>2013-8-8T3:48:20Z</time></trkpt>
<trkpt lat="46.3064727783203" lon="7.33608102798462"><ele></ele><time>2013-8-8T3:48:23Z</time></trkpt>
<trkpt lat="46.3064994812012" lon="7.3360538482666"><ele></ele><time>2013-8-8T3:48:26Z</time></trkpt>
<trkpt lat="46.3065223693848" lon="7.33603382110596"><ele></ele><time>2013-8-8T3:48:29Z</time></trkpt>
<trkpt lat="46.3065490722656" lon="7.3360104560852"><ele></ele><time>2013-8-8T3:48:32Z</time></trkpt>
<trkpt lat="46.3065719604492" lon="7.33598613739014"><ele></ele><time>2013-8-8T3:48:35Z</time></trkpt>
<trkpt lat="46.3066825866699" lon="7.33590316772461"><ele></ele><time>2013-8-8T3:48:38Z</time></trkpt>
<trkpt lat="46.3068733215332" lon="7.33573722839356"><ele></ele><time>2013-8-8T3:48:41Z</time></trkpt>
<trkpt lat="46.307014465332" lon="7.33557939529419"><ele></ele><time>2013-8-8T3:48:44Z</time></trkpt>
<trkpt lat="46.3070373535156" lon="7.33555126190186"><ele></ele><time>2013-8-8T3:48:47Z</time></trkpt>
<trkpt lat="46.3070602416992" lon="7.33552312850952"><ele></ele><time>2013-8-8T3:48:50Z</time></trkpt>
<trkpt lat="46.3070831298828" lon="7.3354902267456"><ele></ele><time>2013-8-8T3:48:53Z</time></trkpt>
<trkpt lat="46.3071060180664" lon="7.33545589447022"><ele></ele><time>2013-8-8T3:48:56Z</time></trkpt>
<trkpt lat="46.3072166442871" lon="7.33530330657959"><ele></ele><time>2013-8-8T3:48:59Z</time></trkpt>
<trkpt lat="46.3073654174805" lon="7.33508539199829"><ele></ele><time>2013-8-8T3:49:2Z</time></trkpt>
<trkpt lat="46.3073806762695" lon="7.33504724502564"><ele></ele><time>2013-8-8T3:49:5Z</time></trkpt>
<trkpt lat="46.3073959350586" lon="7.33500909805298"><ele></ele><time>2013-8-8T3:49:8Z</time></trkpt>
<trkpt lat="46.3074073791504" lon="7.33497476577759"><ele></ele><time>2013-8-8T3:49:11Z</time></trkpt>
<trkpt lat="46.3074188232422" lon="7.33493709564209"><ele></ele><time>2013-8-8T3:49:14Z</time></trkpt>
<trkpt lat="46.3074378967285" lon="7.33481979370117"><ele></ele><time>2013-8-8T3:49:17Z</time></trkpt>
<trkpt lat="46.3074378967285" lon="7.33453035354614"><ele></ele><time>2013-8-8T3:49:20Z</time></trkpt>
<trkpt lat="46.3074493408203" lon="7.3344554901123"><ele></ele><time>2013-8-8T3:49:23Z</time></trkpt>
<trkpt lat="46.3074569702148" lon="7.3344202041626"><ele></ele><time>2013-8-8T3:49:26Z</time></trkpt>
<trkpt lat="46.3074607849121" lon="7.33439254760742"><ele></ele><time>2013-8-8T3:49:29Z</time></trkpt>
<trkpt lat="46.3074722290039" lon="7.33435869216919"><ele></ele><time>2013-8-8T3:49:32Z</time></trkpt>
<trkpt lat="46.307487487793" lon="7.33433103561401"><ele></ele><time>2013-8-8T3:49:35Z</time></trkpt>
<trkpt lat="46.3075218200684" lon="7.3342490196228"><ele></ele><time>2013-8-8T3:49:38Z</time></trkpt>
<trkpt lat="46.3075370788574" lon="7.33422374725342"><ele></ele><time>2013-8-8T3:49:41Z</time></trkpt>
<trkpt lat="46.307559967041" lon="7.33418655395508"><ele></ele><time>2013-8-8T3:49:44Z</time></trkpt>
<trkpt lat="46.3075752258301" lon="7.33416032791138"><ele></ele><time>2013-8-8T3:49:47Z</time></trkpt>
<trkpt lat="46.3075942993164" lon="7.33413410186768"><ele></ele><time>2013-8-8T3:49:50Z</time></trkpt>
<trkpt lat="46.3076171875" lon="7.33411121368408"><ele></ele><time>2013-8-8T3:49:53Z</time></trkpt>
<trkpt lat="46.3076629638672" lon="7.33405017852783"><ele></ele><time>2013-8-8T3:49:56Z</time></trkpt>
<trkpt lat="46.3076858520508" lon="7.33401536941528"><ele></ele><time>2013-8-8T3:49:59Z</time></trkpt>
<trkpt lat="46.3077049255371" lon="7.33398389816284"><ele></ele><time>2013-8-8T3:50:2Z</time></trkpt>
<trkpt lat="46.3077201843262" lon="7.33395099639893"><ele></ele><time>2013-8-8T3:50:5Z</time></trkpt>
<trkpt lat="46.307746887207" lon="7.33392333984375"><ele></ele><time>2013-8-8T3:50:8Z</time></trkpt>
<trkpt lat="46.3077697753906" lon="7.33390045166016"><ele></ele><time>2013-8-8T3:50:11Z</time></trkpt>
<trkpt lat="46.3077926635742" lon="7.33387422561646"><ele></ele><time>2013-8-8T3:50:14Z</time></trkpt>
<trkpt lat="46.3078346252441" lon="7.333815574646"><ele></ele><time>2013-8-8T3:50:17Z</time></trkpt>
<trkpt lat="46.3078575134277" lon="7.33378791809082"><ele></ele><time>2013-8-8T3:50:20Z</time></trkpt>
<trkpt lat="46.3078842163086" lon="7.33376169204712"><ele></ele><time>2013-8-8T3:50:23Z</time></trkpt>
<trkpt lat="46.3079071044922" lon="7.33373117446899"><ele></ele><time>2013-8-8T3:50:26Z</time></trkpt>
<trkpt lat="46.3079261779785" lon="7.33369064331055"><ele></ele><time>2013-8-8T3:50:29Z</time></trkpt>
<trkpt lat="46.3079681396484" lon="7.33357620239258"><ele></ele><time>2013-8-8T3:50:32Z</time></trkpt>
<trkpt lat="46.3079795837402" lon="7.33353519439697"><ele></ele><time>2013-8-8T3:50:35Z</time></trkpt>
<trkpt lat="46.3079948425293" lon="7.33349943161011"><ele></ele><time>2013-8-8T3:50:38Z</time></trkpt>
<trkpt lat="46.3080062866211" lon="7.33346605300903"><ele></ele><time>2013-8-8T3:50:41Z</time></trkpt>
<trkpt lat="46.3080406188965" lon="7.33337640762329"><ele></ele><time>2013-8-8T3:50:44Z</time></trkpt>
<trkpt lat="46.3080520629883" lon="7.33334589004517"><ele></ele><time>2013-8-8T3:50:47Z</time></trkpt>
<trkpt lat="46.3080635070801" lon="7.33331394195557"><ele></ele><time>2013-8-8T3:50:50Z</time></trkpt>
<trkpt lat="46.3080787658691" lon="7.33328676223755"><ele></ele><time>2013-8-8T3:50:53Z</time></trkpt>
<trkpt lat="46.3080978393555" lon="7.33326101303101"><ele></ele><time>2013-8-8T3:50:56Z</time></trkpt>
<trkpt lat="46.3081130981445" lon="7.33323431015015"><ele></ele><time>2013-8-8T3:50:59Z</time></trkpt>
<trkpt lat="46.308162689209" lon="7.33315563201904"><ele></ele><time>2013-8-8T3:51:2Z</time></trkpt>
<trkpt lat="46.308177947998" lon="7.33312845230102"><ele></ele><time>2013-8-8T3:51:5Z</time></trkpt>
<trkpt lat="46.3081970214844" lon="7.33310174942017"><ele></ele><time>2013-8-8T3:51:8Z</time></trkpt>
<trkpt lat="46.3082122802734" lon="7.33307504653931"><ele></ele><time>2013-8-8T3:51:11Z</time></trkpt>
<trkpt lat="46.3082313537598" lon="7.33305644989014"><ele></ele><time>2013-8-8T3:51:14Z</time></trkpt>
<trkpt lat="46.3083038330078" lon="7.33292293548584"><ele></ele><time>2013-8-8T3:51:17Z</time></trkpt>
<trkpt lat="46.3083152770996" lon="7.33289432525635"><ele></ele><time>2013-8-8T3:51:20Z</time></trkpt>
<trkpt lat="46.3083267211914" lon="7.33286476135254"><ele></ele><time>2013-8-8T3:51:23Z</time></trkpt>
<trkpt lat="46.3083343505859" lon="7.33283376693726"><ele></ele><time>2013-8-8T3:51:26Z</time></trkpt>
<trkpt lat="46.3083534240723" lon="7.33274841308594"><ele></ele><time>2013-8-8T3:51:29Z</time></trkpt>
<trkpt lat="46.3083610534668" lon="7.33271837234497"><ele></ele><time>2013-8-8T3:51:32Z</time></trkpt>
<trkpt lat="46.3083686828613" lon="7.33269119262695"><ele></ele><time>2013-8-8T3:51:35Z</time></trkpt>
<trkpt lat="46.3083724975586" lon="7.33266448974609"><ele></ele><time>2013-8-8T3:51:38Z</time></trkpt>
<trkpt lat="46.3083763122559" lon="7.33263874053955"><ele></ele><time>2013-8-8T3:51:41Z</time></trkpt>
<trkpt lat="46.3083763122559" lon="7.33260536193848"><ele></ele><time>2013-8-8T3:51:44Z</time></trkpt>
<trkpt lat="46.3083724975586" lon="7.3325457572937"><ele></ele><time>2013-8-8T3:51:47Z</time></trkpt>
<trkpt lat="46.3083686828613" lon="7.33248376846314"><ele></ele><time>2013-8-8T3:51:50Z</time></trkpt>
<trkpt lat="46.3083724975586" lon="7.33245515823364"><ele></ele><time>2013-8-8T3:51:53Z</time></trkpt>
<trkpt lat="46.3083763122559" lon="7.33242559432983"><ele></ele><time>2013-8-8T3:51:56Z</time></trkpt>
<trkpt lat="46.3083839416504" lon="7.33240652084351"><ele></ele><time>2013-8-8T3:51:59Z</time></trkpt>
<trkpt lat="46.3083839416504" lon="7.33238983154297"><ele></ele><time>2013-8-8T3:52:2Z</time></trkpt>
<trkpt lat="46.3083839416504" lon="7.3323655128479"><ele></ele><time>2013-8-8T3:52:5Z</time></trkpt>
<trkpt lat="46.3083801269531" lon="7.33220672607422"><ele></ele><time>2013-8-8T3:52:8Z</time></trkpt>
<trkpt lat="46.3083763122559" lon="7.33217334747314"><ele></ele><time>2013-8-8T3:52:11Z</time></trkpt>
<trkpt lat="46.3083763122559" lon="7.33213663101196"><ele></ele><time>2013-8-8T3:52:14Z</time></trkpt>
<trkpt lat="46.3083724975586" lon="7.33209991455078"><ele></ele><time>2013-8-8T3:52:17Z</time></trkpt>
<trkpt lat="46.3083610534668" lon="7.33195877075195"><ele></ele><time>2013-8-8T3:52:20Z</time></trkpt>
<trkpt lat="46.3083572387695" lon="7.33188724517822"><ele></ele><time>2013-8-8T3:52:23Z</time></trkpt>
<trkpt lat="46.3083572387695" lon="7.33185052871704"><ele></ele><time>2013-8-8T3:52:26Z</time></trkpt>
<trkpt lat="46.308349609375" lon="7.33181047439575"><ele></ele><time>2013-8-8T3:52:29Z</time></trkpt>
<trkpt lat="46.3083457946777" lon="7.33177328109741"><ele></ele><time>2013-8-8T3:52:32Z</time></trkpt>
<trkpt lat="46.3083457946777" lon="7.33173227310181"><ele></ele><time>2013-8-8T3:52:35Z</time></trkpt>
<trkpt lat="46.308349609375" lon="7.33166170120239"><ele></ele><time>2013-8-8T3:52:38Z</time></trkpt>
<trkpt lat="46.3083724975586" lon="7.33156871795654"><ele></ele><time>2013-8-8T3:52:41Z</time></trkpt>
<trkpt lat="46.3083839416504" lon="7.33150672912598"><ele></ele><time>2013-8-8T3:52:44Z</time></trkpt>
<trkpt lat="46.3083915710449" lon="7.33147621154785"><ele></ele><time>2013-8-8T3:52:47Z</time></trkpt>
<trkpt lat="46.3083953857422" lon="7.33144664764404"><ele></ele><time>2013-8-8T3:52:50Z</time></trkpt>
<trkpt lat="46.308406829834" lon="7.33141708374024"><ele></ele><time>2013-8-8T3:52:53Z</time></trkpt>
<trkpt lat="46.3084182739258" lon="7.33139133453369"><ele></ele><time>2013-8-8T3:52:56Z</time></trkpt>
<trkpt lat="46.3084335327148" lon="7.33133792877197"><ele></ele><time>2013-8-8T3:52:59Z</time></trkpt>
<trkpt lat="46.3084487915039" lon="7.33128881454468"><ele></ele><time>2013-8-8T3:53:2Z</time></trkpt>
<trkpt lat="46.3084526062012" lon="7.33126306533814"><ele></ele><time>2013-8-8T3:53:5Z</time></trkpt>
<trkpt lat="46.3084602355957" lon="7.33123779296875"><ele></ele><time>2013-8-8T3:53:8Z</time></trkpt>
<trkpt lat="46.308464050293" lon="7.33121395111084"><ele></ele><time>2013-8-8T3:53:11Z</time></trkpt>
<trkpt lat="46.3084678649902" lon="7.33118534088135"><ele></ele><time>2013-8-8T3:53:14Z</time></trkpt>
<trkpt lat="46.3084754943848" lon="7.33112287521362"><ele></ele><time>2013-8-8T3:53:17Z</time></trkpt>
<trkpt lat="46.3084754943848" lon="7.33102512359619"><ele></ele><time>2013-8-8T3:53:20Z</time></trkpt>
<trkpt lat="46.3084754943848" lon="7.33099126815796"><ele></ele><time>2013-8-8T3:53:23Z</time></trkpt>
<trkpt lat="46.3084754943848" lon="7.33095788955688"><ele></ele><time>2013-8-8T3:53:26Z</time></trkpt>
<trkpt lat="46.3084716796875" lon="7.33092069625854"><ele></ele><time>2013-8-8T3:53:29Z</time></trkpt>
<trkpt lat="46.308464050293" lon="7.33088493347168"><ele></ele><time>2013-8-8T3:53:32Z</time></trkpt>
<trkpt lat="46.3084411621094" lon="7.33075332641602"><ele></ele><time>2013-8-8T3:53:35Z</time></trkpt>
<trkpt lat="46.3084373474121" lon="7.33072137832642"><ele></ele><time>2013-8-8T3:53:38Z</time></trkpt>
<trkpt lat="46.3084335327148" lon="7.33068752288818"><ele></ele><time>2013-8-8T3:53:41Z</time></trkpt>
<trkpt lat="46.3084335327148" lon="7.33065366744995"><ele></ele><time>2013-8-8T3:53:44Z</time></trkpt>
<trkpt lat="46.3084297180176" lon="7.33062314987183"><ele></ele><time>2013-8-8T3:53:47Z</time></trkpt>
<trkpt lat="46.3084182739258" lon="7.33046579360962"><ele></ele><time>2013-8-8T3:53:50Z</time></trkpt>
<trkpt lat="46.3084182739258" lon="7.33043527603149"><ele></ele><time>2013-8-8T3:53:53Z</time></trkpt>
<trkpt lat="46.3084144592285" lon="7.33040046691894"><ele></ele><time>2013-8-8T3:53:56Z</time></trkpt>
<trkpt lat="46.3084144592285" lon="7.33037185668945"><ele></ele><time>2013-8-8T3:53:59Z</time></trkpt>
<trkpt lat="46.3084144592285" lon="7.33034229278564"><ele></ele><time>2013-8-8T3:54:2Z</time></trkpt>
<trkpt lat="46.3084182739258" lon="7.33024072647095"><ele></ele><time>2013-8-8T3:54:5Z</time></trkpt>
<trkpt lat="46.3084297180176" lon="7.33013916015625"><ele></ele><time>2013-8-8T3:54:8Z</time></trkpt>
<trkpt lat="46.3084335327148" lon="7.33010387420654"><ele></ele><time>2013-8-8T3:54:11Z</time></trkpt>
<trkpt lat="46.3084373474121" lon="7.33006858825684"><ele></ele><time>2013-8-8T3:54:14Z</time></trkpt>
<trkpt lat="46.3084411621094" lon="7.33003664016724"><ele></ele><time>2013-8-8T3:54:17Z</time></trkpt>
<trkpt lat="46.3084449768066" lon="7.3300051689148"><ele></ele><time>2013-8-8T3:54:20Z</time></trkpt>
<trkpt lat="46.308464050293" lon="7.32980918884277"><ele></ele><time>2013-8-8T3:54:23Z</time></trkpt>
<trkpt lat="46.3084678649902" lon="7.32977771759033"><ele></ele><time>2013-8-8T3:54:26Z</time></trkpt>
<trkpt lat="46.3084754943848" lon="7.32975149154663"><ele></ele><time>2013-8-8T3:54:29Z</time></trkpt>
<trkpt lat="46.3084831237793" lon="7.32972955703735"><ele></ele><time>2013-8-8T3:54:32Z</time></trkpt>
<trkpt lat="46.3085098266602" lon="7.32962274551392"><ele></ele><time>2013-8-8T3:54:35Z</time></trkpt>
<trkpt lat="46.3085174560547" lon="7.32956504821777"><ele></ele><time>2013-8-8T3:54:38Z</time></trkpt>
<trkpt lat="46.3085250854492" lon="7.32953643798828"><ele></ele><time>2013-8-8T3:54:41Z</time></trkpt>
<trkpt lat="46.3085327148438" lon="7.32950305938721"><ele></ele><time>2013-8-8T3:54:44Z</time></trkpt>
<trkpt lat="46.3085403442383" lon="7.32946968078613"><ele></ele><time>2013-8-8T3:54:47Z</time></trkpt>
<trkpt lat="46.3085441589356" lon="7.32944297790527"><ele></ele><time>2013-8-8T3:54:50Z</time></trkpt>
<trkpt lat="46.3085708618164" lon="7.32928705215454"><ele></ele><time>2013-8-8T3:54:53Z</time></trkpt>
<trkpt lat="46.3085784912109" lon="7.32926321029663"><ele></ele><time>2013-8-8T3:54:56Z</time></trkpt>
<trkpt lat="46.3085823059082" lon="7.32923078536987"><ele></ele><time>2013-8-8T3:54:59Z</time></trkpt>
<trkpt lat="46.3085861206055" lon="7.32919359207153"><ele></ele><time>2013-8-8T3:55:2Z</time></trkpt>
<trkpt lat="46.3085861206055" lon="7.32915782928467"><ele></ele><time>2013-8-8T3:55:5Z</time></trkpt>
<trkpt lat="46.3085823059082" lon="7.32911729812622"><ele></ele><time>2013-8-8T3:55:8Z</time></trkpt>
<trkpt lat="46.3085556030273" lon="7.32895374298096"><ele></ele><time>2013-8-8T3:55:11Z</time></trkpt>
<trkpt lat="46.3085479736328" lon="7.32892227172852"><ele></ele><time>2013-8-8T3:55:14Z</time></trkpt>
<trkpt lat="46.308536529541" lon="7.32889175415039"><ele></ele><time>2013-8-8T3:55:17Z</time></trkpt>
<trkpt lat="46.3085250854492" lon="7.32885694503784"><ele></ele><time>2013-8-8T3:55:20Z</time></trkpt>
<trkpt lat="46.3085098266602" lon="7.32882595062256"><ele></ele><time>2013-8-8T3:55:23Z</time></trkpt>
<trkpt lat="46.3084945678711" lon="7.32879972457886"><ele></ele><time>2013-8-8T3:55:26Z</time></trkpt>
<trkpt lat="46.3084754943848" lon="7.32877397537232"><ele></ele><time>2013-8-8T3:55:29Z</time></trkpt>
<trkpt lat="46.3083877563477" lon="7.32863426208496"><ele></ele><time>2013-8-8T3:55:32Z</time></trkpt>
<trkpt lat="46.3083534240723" lon="7.32857751846314"><ele></ele><time>2013-8-8T3:55:35Z</time></trkpt>
<trkpt lat="46.3083381652832" lon="7.32855081558228"><ele></ele><time>2013-8-8T3:55:38Z</time></trkpt>
<trkpt lat="46.3083229064941" lon="7.328528881073"><ele></ele><time>2013-8-8T3:55:41Z</time></trkpt>
<trkpt lat="46.3083076477051" lon="7.32850360870361"><ele></ele><time>2013-8-8T3:55:44Z</time></trkpt>
<trkpt lat="46.3082885742188" lon="7.32848262786865"><ele></ele><time>2013-8-8T3:55:47Z</time></trkpt>
<trkpt lat="46.3082733154297" lon="7.32846164703369"><ele></ele><time>2013-8-8T3:55:50Z</time></trkpt>
<trkpt lat="46.3081932067871" lon="7.32834339141846"><ele></ele><time>2013-8-8T3:55:53Z</time></trkpt>
<trkpt lat="46.308177947998" lon="7.32831907272339"><ele></ele><time>2013-8-8T3:55:56Z</time></trkpt>
<trkpt lat="46.308162689209" lon="7.32829809188843"><ele></ele><time>2013-8-8T3:55:59Z</time></trkpt>
<trkpt lat="46.3081436157227" lon="7.32827377319336"><ele></ele><time>2013-8-8T3:56:2Z</time></trkpt>
<trkpt lat="46.3080520629883" lon="7.32812452316284"><ele></ele><time>2013-8-8T3:56:5Z</time></trkpt>
<trkpt lat="46.3080368041992" lon="7.32809925079346"><ele></ele><time>2013-8-8T3:56:8Z</time></trkpt>
<trkpt lat="46.3080253601074" lon="7.32807016372681"><ele></ele><time>2013-8-8T3:56:11Z</time></trkpt>
<trkpt lat="46.3080139160156" lon="7.32804250717163"><ele></ele><time>2013-8-8T3:56:14Z</time></trkpt>
<trkpt lat="46.3079986572266" lon="7.32801818847656"><ele></ele><time>2013-8-8T3:56:17Z</time></trkpt>
<trkpt lat="46.3079719543457" lon="7.3279275894165"><ele></ele><time>2013-8-8T3:56:20Z</time></trkpt>
<trkpt lat="46.3079452514648" lon="7.32783699035644"><ele></ele><time>2013-8-8T3:56:23Z</time></trkpt>
<trkpt lat="46.307933807373" lon="7.3278079032898"><ele></ele><time>2013-8-8T3:56:26Z</time></trkpt>
<trkpt lat="46.3079261779785" lon="7.32777833938599"><ele></ele><time>2013-8-8T3:56:29Z</time></trkpt>
<trkpt lat="46.307918548584" lon="7.32774639129639"><ele></ele><time>2013-8-8T3:56:32Z</time></trkpt>
<trkpt lat="46.3079109191894" lon="7.32771635055542"><ele></ele><time>2013-8-8T3:56:35Z</time></trkpt>
<trkpt lat="46.3079071044922" lon="7.3276858329773"><ele></ele><time>2013-8-8T3:56:38Z</time></trkpt>
<trkpt lat="46.3078804016113" lon="7.32759857177734"><ele></ele><time>2013-8-8T3:56:41Z</time></trkpt>
<trkpt lat="46.3078689575195" lon="7.32757091522217"><ele></ele><time>2013-8-8T3:56:44Z</time></trkpt>
<trkpt lat="46.307861328125" lon="7.32753944396973"><ele></ele><time>2013-8-8T3:56:47Z</time></trkpt>
<trkpt lat="46.3078498840332" lon="7.32750844955444"><ele></ele><time>2013-8-8T3:56:50Z</time></trkpt>
<trkpt lat="46.3078460693359" lon="7.32747936248779"><ele></ele><time>2013-8-8T3:56:53Z</time></trkpt>
<trkpt lat="46.3077964782715" lon="7.32730627059936"><ele></ele><time>2013-8-8T3:56:56Z</time></trkpt>
<trkpt lat="46.307788848877" lon="7.32727670669556"><ele></ele><time>2013-8-8T3:56:59Z</time></trkpt>
<trkpt lat="46.3077812194824" lon="7.32724809646606"><ele></ele><time>2013-8-8T3:57:2Z</time></trkpt>
<trkpt lat="46.3077697753906" lon="7.32721996307373"><ele></ele><time>2013-8-8T3:57:5Z</time></trkpt>
<trkpt lat="46.3077621459961" lon="7.32718992233276"><ele></ele><time>2013-8-8T3:57:8Z</time></trkpt>
<trkpt lat="46.3077239990234" lon="7.32707691192627"><ele></ele><time>2013-8-8T3:57:11Z</time></trkpt>
<trkpt lat="46.3077163696289" lon="7.32704925537109"><ele></ele><time>2013-8-8T3:57:14Z</time></trkpt>
<trkpt lat="46.3077049255371" lon="7.32702016830444"><ele></ele><time>2013-8-8T3:57:17Z</time></trkpt>
<trkpt lat="46.3077011108398" lon="7.32699394226074"><ele></ele><time>2013-8-8T3:57:20Z</time></trkpt>
<trkpt lat="46.307689666748" lon="7.32696485519409"><ele></ele><time>2013-8-8T3:57:23Z</time></trkpt>
<trkpt lat="46.3076553344727" lon="7.32684993743896"><ele></ele><time>2013-8-8T3:57:26Z</time></trkpt>
<trkpt lat="46.3076438903809" lon="7.32681655883789"><ele></ele><time>2013-8-8T3:57:29Z</time></trkpt>
<trkpt lat="46.3076362609863" lon="7.32678937911987"><ele></ele><time>2013-8-8T3:57:32Z</time></trkpt>
<trkpt lat="46.3076248168945" lon="7.32676267623901"><ele></ele><time>2013-8-8T3:57:35Z</time></trkpt>
<trkpt lat="46.3076171875" lon="7.32673788070679"><ele></ele><time>2013-8-8T3:57:38Z</time></trkpt>
<trkpt lat="46.3075714111328" lon="7.32663059234619"><ele></ele><time>2013-8-8T3:57:41Z</time></trkpt>
<trkpt lat="46.307559967041" lon="7.32660436630249"><ele></ele><time>2013-8-8T3:57:44Z</time></trkpt>
<trkpt lat="46.3075485229492" lon="7.32657861709595"><ele></ele><time>2013-8-8T3:57:47Z</time></trkpt>
<trkpt lat="46.3075370788574" lon="7.32655096054077"><ele></ele><time>2013-8-8T3:57:50Z</time></trkpt>
<trkpt lat="46.3075256347656" lon="7.32652616500854"><ele></ele><time>2013-8-8T3:57:53Z</time></trkpt>
<trkpt lat="46.3074531555176" lon="7.32640886306763"><ele></ele><time>2013-8-8T3:57:56Z</time></trkpt>
<trkpt lat="46.3074378967285" lon="7.32638740539551"><ele></ele><time>2013-8-8T3:57:59Z</time></trkpt>
<trkpt lat="46.3074226379394" lon="7.32636117935181"><ele></ele><time>2013-8-8T3:58:2Z</time></trkpt>
<trkpt lat="46.3074111938477" lon="7.32633781433106"><ele></ele><time>2013-8-8T3:58:5Z</time></trkpt>
<trkpt lat="46.3073959350586" lon="7.32631540298462"><ele></ele><time>2013-8-8T3:58:8Z</time></trkpt>
<trkpt lat="46.3073234558106" lon="7.32619953155518"><ele></ele><time>2013-8-8T3:58:11Z</time></trkpt>
<trkpt lat="46.3073081970215" lon="7.32617330551148"><ele></ele><time>2013-8-8T3:58:14Z</time></trkpt>
<trkpt lat="46.3072929382324" lon="7.32614994049072"><ele></ele><time>2013-8-8T3:58:17Z</time></trkpt>
<trkpt lat="46.3072814941406" lon="7.32612419128418"><ele></ele><time>2013-8-8T3:58:20Z</time></trkpt>
<trkpt lat="46.3072700500488" lon="7.32609748840332"><ele></ele><time>2013-8-8T3:58:23Z</time></trkpt>
<trkpt lat="46.3072128295898" lon="7.32599878311157"><ele></ele><time>2013-8-8T3:58:26Z</time></trkpt>
<trkpt lat="46.3071594238281" lon="7.32590198516846"><ele></ele><time>2013-8-8T3:58:29Z</time></trkpt>
<trkpt lat="46.3071441650391" lon="7.32587718963623"><ele></ele><time>2013-8-8T3:58:32Z</time></trkpt>
<trkpt lat="46.30712890625" lon="7.32585144042969"><ele></ele><time>2013-8-8T3:58:35Z</time></trkpt>
<trkpt lat="46.3071174621582" lon="7.3258228302002"><ele></ele><time>2013-8-8T3:58:38Z</time></trkpt>
<trkpt lat="46.3071060180664" lon="7.32579469680786"><ele></ele><time>2013-8-8T3:58:41Z</time></trkpt>
<trkpt lat="46.3070411682129" lon="7.3256254196167"><ele></ele><time>2013-8-8T3:58:44Z</time></trkpt>
<trkpt lat="46.3070335388184" lon="7.32559490203857"><ele></ele><time>2013-8-8T3:58:47Z</time></trkpt>
<trkpt lat="46.3070220947266" lon="7.32556533813476"><ele></ele><time>2013-8-8T3:58:50Z</time></trkpt>
<trkpt lat="46.307014465332" lon="7.3255352973938"><ele></ele><time>2013-8-8T3:58:53Z</time></trkpt>
<trkpt lat="46.3069915771484" lon="7.3254771232605"><ele></ele><time>2013-8-8T3:58:56Z</time></trkpt>
<trkpt lat="46.3069686889648" lon="7.3254222869873"><ele></ele><time>2013-8-8T3:58:59Z</time></trkpt>
<trkpt lat="46.3069610595703" lon="7.32539510726929"><ele></ele><time>2013-8-8T3:59:2Z</time></trkpt>
<trkpt lat="46.3069496154785" lon="7.32536697387695"><ele></ele><time>2013-8-8T3:59:5Z</time></trkpt>
<trkpt lat="46.3069381713867" lon="7.32533502578735"><ele></ele><time>2013-8-8T3:59:8Z</time></trkpt>
<trkpt lat="46.3069229125977" lon="7.32530546188354"><ele></ele><time>2013-8-8T3:59:11Z</time></trkpt>
<trkpt lat="46.3068656921387" lon="7.32520914077759"><ele></ele><time>2013-8-8T3:59:14Z</time></trkpt>
<trkpt lat="46.3068504333496" lon="7.32519388198852"><ele></ele><time>2013-8-8T3:59:17Z</time></trkpt>
<trkpt lat="46.3068313598633" lon="7.32517337799072"><ele></ele><time>2013-8-8T3:59:20Z</time></trkpt>
<trkpt lat="46.3068161010742" lon="7.3251519203186"><ele></ele><time>2013-8-8T3:59:23Z</time></trkpt>
<trkpt lat="46.3068046569824" lon="7.3251314163208"><ele></ele><time>2013-8-8T3:59:26Z</time></trkpt>
<trkpt lat="46.306755065918" lon="7.32506227493286"><ele></ele><time>2013-8-8T3:59:29Z</time></trkpt>
<trkpt lat="46.3067207336426" lon="7.32502031326294"><ele></ele><time>2013-8-8T3:59:32Z</time></trkpt>
<trkpt lat="46.3067054748535" lon="7.3250002861023"><ele></ele><time>2013-8-8T3:59:35Z</time></trkpt>
<trkpt lat="46.3066940307617" lon="7.32497644424438"><ele></ele><time>2013-8-8T3:59:38Z</time></trkpt>
<trkpt lat="46.3066787719727" lon="7.32495164871216"><ele></ele><time>2013-8-8T3:59:41Z</time></trkpt>
<trkpt lat="46.3066673278809" lon="7.32492351531982"><ele></ele><time>2013-8-8T3:59:44Z</time></trkpt>
<trkpt lat="46.3066520690918" lon="7.32489776611328"><ele></ele><time>2013-8-8T3:59:47Z</time></trkpt>
<trkpt lat="46.3066139221191" lon="7.32478332519531"><ele></ele><time>2013-8-8T3:59:50Z</time></trkpt>
<trkpt lat="46.3066062927246" lon="7.32475280761719"><ele></ele><time>2013-8-8T3:59:53Z</time></trkpt>
<trkpt lat="46.3065986633301" lon="7.3247241973877"><ele></ele><time>2013-8-8T3:59:56Z</time></trkpt>
<trkpt lat="46.3065948486328" lon="7.32469463348389"><ele></ele><time>2013-8-8T3:59:59Z</time></trkpt>
<trkpt lat="46.3065872192383" lon="7.32466316223144"><ele></ele><time>2013-8-8T4:0:2Z</time></trkpt>
<trkpt lat="46.306526184082" lon="7.32453727722168"><ele></ele><time>2013-8-8T4:0:5Z</time></trkpt>
<trkpt lat="46.306510925293" lon="7.32451725006104"><ele></ele><time>2013-8-8T4:0:8Z</time></trkpt>
<trkpt lat="46.3064918518066" lon="7.32449150085449"><ele></ele><time>2013-8-8T4:0:11Z</time></trkpt>
<trkpt lat="46.3064727783203" lon="7.32447052001953"><ele></ele><time>2013-8-8T4:0:14Z</time></trkpt>
<trkpt lat="46.306453704834" lon="7.32445192337036"><ele></ele><time>2013-8-8T4:0:17Z</time></trkpt>
<trkpt lat="46.3064041137695" lon="7.32439947128296"><ele></ele><time>2013-8-8T4:0:20Z</time></trkpt>
<trkpt lat="46.3063468933106" lon="7.32433891296387"><ele></ele><time>2013-8-8T4:0:23Z</time></trkpt>
<trkpt lat="46.3063278198242" lon="7.32431840896606"><ele></ele><time>2013-8-8T4:0:26Z</time></trkpt>
<trkpt lat="46.3063125610352" lon="7.32430076599121"><ele></ele><time>2013-8-8T4:0:29Z</time></trkpt>
<trkpt lat="46.3062973022461" lon="7.32427978515625"><ele></ele><time>2013-8-8T4:0:32Z</time></trkpt>
<trkpt lat="46.3062782287598" lon="7.32426023483276"><ele></ele><time>2013-8-8T4:0:35Z</time></trkpt>
<trkpt lat="46.3062286376953" lon="7.32418775558472"><ele></ele><time>2013-8-8T4:0:38Z</time></trkpt>
<trkpt lat="46.3061866760254" lon="7.32412672042847"><ele></ele><time>2013-8-8T4:0:41Z</time></trkpt>
<trkpt lat="46.3061714172363" lon="7.32410383224487"><ele></ele><time>2013-8-8T4:0:44Z</time></trkpt>
<trkpt lat="46.3061599731445" lon="7.32407808303833"><ele></ele><time>2013-8-8T4:0:47Z</time></trkpt>
<trkpt lat="46.3061485290527" lon="7.32405376434326"><ele></ele><time>2013-8-8T4:0:50Z</time></trkpt>
<trkpt lat="46.3061370849609" lon="7.3240237236023"><ele></ele><time>2013-8-8T4:0:53Z</time></trkpt>
<trkpt lat="46.3060989379883" lon="7.32384967803955"><ele></ele><time>2013-8-8T4:0:56Z</time></trkpt>
<trkpt lat="46.3060989379883" lon="7.3238115310669"><ele></ele><time>2013-8-8T4:0:59Z</time></trkpt>
<trkpt lat="46.3061103820801" lon="7.32377815246582"><ele></ele><time>2013-8-8T4:1:2Z</time></trkpt>
<trkpt lat="46.3061180114746" lon="7.32374238967896"><ele></ele><time>2013-8-8T4:1:5Z</time></trkpt>
<trkpt lat="46.3061256408691" lon="7.32371520996094"><ele></ele><time>2013-8-8T4:1:8Z</time></trkpt>
<trkpt lat="46.3061408996582" lon="7.32363891601562"><ele></ele><time>2013-8-8T4:1:11Z</time></trkpt>
<trkpt lat="46.3061408996582" lon="7.32359790802002"><ele></ele><time>2013-8-8T4:1:14Z</time></trkpt>
<trkpt lat="46.3061485290527" lon="7.32355976104736"><ele></ele><time>2013-8-8T4:1:17Z</time></trkpt>
<trkpt lat="46.3061485290527" lon="7.32352113723755"><ele></ele><time>2013-8-8T4:1:20Z</time></trkpt>
<trkpt lat="46.30615234375" lon="7.32348346710205"><ele></ele><time>2013-8-8T4:1:23Z</time></trkpt>
<trkpt lat="46.30615234375" lon="7.32345008850098"><ele></ele><time>2013-8-8T4:1:26Z</time></trkpt>
<trkpt lat="46.3061637878418" lon="7.32335567474365"><ele></ele><time>2013-8-8T4:1:29Z</time></trkpt>
<trkpt lat="46.3061676025391" lon="7.32332372665405"><ele></ele><time>2013-8-8T4:1:32Z</time></trkpt>
<trkpt lat="46.3061714172363" lon="7.32329177856445"><ele></ele><time>2013-8-8T4:1:35Z</time></trkpt>
<trkpt lat="46.3061714172363" lon="7.32326078414917"><ele></ele><time>2013-8-8T4:1:38Z</time></trkpt>
<trkpt lat="46.3061714172363" lon="7.32322788238525"><ele></ele><time>2013-8-8T4:1:41Z</time></trkpt>
<trkpt lat="46.3061752319336" lon="7.32319736480713"><ele></ele><time>2013-8-8T4:1:44Z</time></trkpt>
<trkpt lat="46.3061943054199" lon="7.32307291030884"><ele></ele><time>2013-8-8T4:1:47Z</time></trkpt>
<trkpt lat="46.3062019348144" lon="7.32304286956787"><ele></ele><time>2013-8-8T4:1:50Z</time></trkpt>
<trkpt lat="46.3062057495117" lon="7.32301425933838"><ele></ele><time>2013-8-8T4:1:53Z</time></trkpt>
<trkpt lat="46.3062057495117" lon="7.32298183441162"><ele></ele><time>2013-8-8T4:1:56Z</time></trkpt>
<trkpt lat="46.306209564209" lon="7.32295083999634"><ele></ele><time>2013-8-8T4:1:59Z</time></trkpt>
<trkpt lat="46.3062133789062" lon="7.32279300689697"><ele></ele><time>2013-8-8T4:2:2Z</time></trkpt>
<trkpt lat="46.3062171936035" lon="7.32276105880737"><ele></ele><time>2013-8-8T4:2:5Z</time></trkpt>
<trkpt lat="46.3062210083008" lon="7.32273101806641"><ele></ele><time>2013-8-8T4:2:8Z</time></trkpt>
<trkpt lat="46.3062210083008" lon="7.32270097732544"><ele></ele><time>2013-8-8T4:2:11Z</time></trkpt>
<trkpt lat="46.3062210083008" lon="7.32266902923584"><ele></ele><time>2013-8-8T4:2:14Z</time></trkpt>
<trkpt lat="46.306224822998" lon="7.32251167297363"><ele></ele><time>2013-8-8T4:2:17Z</time></trkpt>
<trkpt lat="46.3062324523926" lon="7.32248020172119"><ele></ele><time>2013-8-8T4:2:20Z</time></trkpt>
<trkpt lat="46.3062362670898" lon="7.32244873046875"><ele></ele><time>2013-8-8T4:2:23Z</time></trkpt>
<trkpt lat="46.3062438964844" lon="7.32242012023926"><ele></ele><time>2013-8-8T4:2:26Z</time></trkpt>
<trkpt lat="46.3062515258789" lon="7.32238912582398"><ele></ele><time>2013-8-8T4:2:29Z</time></trkpt>
<trkpt lat="46.3062858581543" lon="7.32227325439453"><ele></ele><time>2013-8-8T4:2:32Z</time></trkpt>
<trkpt lat="46.3063125610352" lon="7.32221937179565"><ele></ele><time>2013-8-8T4:2:35Z</time></trkpt>
<trkpt lat="46.3063278198242" lon="7.32218980789185"><ele></ele><time>2013-8-8T4:2:38Z</time></trkpt>
<trkpt lat="46.306339263916" lon="7.32216119766235"><ele></ele><time>2013-8-8T4:2:41Z</time></trkpt>
<trkpt lat="46.3063507080078" lon="7.32213640213013"><ele></ele><time>2013-8-8T4:2:44Z</time></trkpt>
<trkpt lat="46.3063659667969" lon="7.32211351394653"><ele></ele><time>2013-8-8T4:2:47Z</time></trkpt>
<trkpt lat="46.3064270019531" lon="7.32201862335205"><ele></ele><time>2013-8-8T4:2:50Z</time></trkpt>
<trkpt lat="46.3064422607422" lon="7.32199287414551"><ele></ele><time>2013-8-8T4:2:53Z</time></trkpt>
<trkpt lat="46.3064575195312" lon="7.32196664810181"><ele></ele><time>2013-8-8T4:2:56Z</time></trkpt>
<trkpt lat="46.306468963623" lon="7.3219404220581"><ele></ele><time>2013-8-8T4:2:59Z</time></trkpt>
<trkpt lat="46.3064842224121" lon="7.32192039489746"><ele></ele><time>2013-8-8T4:3:2Z</time></trkpt>
<trkpt lat="46.3065452575684" lon="7.3218264579773"><ele></ele><time>2013-8-8T4:3:5Z</time></trkpt>
<trkpt lat="46.3065948486328" lon="7.3217716217041"><ele></ele><time>2013-8-8T4:3:8Z</time></trkpt>
<trkpt lat="46.3066177368164" lon="7.32176971435547"><ele></ele><time>2013-8-8T4:3:11Z</time></trkpt>
<trkpt lat="46.306640625" lon="7.32179164886475"><ele></ele><time>2013-8-8T4:3:14Z</time></trkpt>
<trkpt lat="46.3066482543945" lon="7.3218183517456"><ele></ele><time>2013-8-8T4:3:17Z</time></trkpt>
<trkpt lat="46.3066482543945" lon="7.32184982299805"><ele></ele><time>2013-8-8T4:3:20Z</time></trkpt>
<trkpt lat="46.3066444396973" lon="7.32188272476196"><ele></ele><time>2013-8-8T4:3:23Z</time></trkpt>
<trkpt lat="46.3065948486328" lon="7.32195949554443"><ele></ele><time>2013-8-8T4:3:26Z</time></trkpt>
<trkpt lat="46.3065795898438" lon="7.32198238372803"><ele></ele><time>2013-8-8T4:3:29Z</time></trkpt>
<trkpt lat="46.3065605163574" lon="7.32200479507446"><ele></ele><time>2013-8-8T4:3:32Z</time></trkpt>
<trkpt lat="46.3065452575684" lon="7.32202577590942"><ele></ele><time>2013-8-8T4:3:35Z</time></trkpt>
<trkpt lat="46.306453704834" lon="7.32216835021973"><ele></ele><time>2013-8-8T4:3:38Z</time></trkpt>
<trkpt lat="46.3064422607422" lon="7.32219791412354"><ele></ele><time>2013-8-8T4:3:41Z</time></trkpt>
<trkpt lat="46.3064346313477" lon="7.3222246170044"><ele></ele><time>2013-8-8T4:3:44Z</time></trkpt>
<trkpt lat="46.3064231872559" lon="7.32225036621094"><ele></ele><time>2013-8-8T4:3:47Z</time></trkpt>
<trkpt lat="46.3064193725586" lon="7.32227325439453"><ele></ele><time>2013-8-8T4:3:50Z</time></trkpt>
<trkpt lat="46.3064155578613" lon="7.32237339019775"><ele></ele><time>2013-8-8T4:3:53Z</time></trkpt>
<trkpt lat="46.3064079284668" lon="7.32268142700195"><ele></ele><time>2013-8-8T4:3:56Z</time></trkpt>
<trkpt lat="46.3064079284668" lon="7.32271909713745"><ele></ele><time>2013-8-8T4:3:59Z</time></trkpt>
<trkpt lat="46.3064117431641" lon="7.32275915145874"><ele></ele><time>2013-8-8T4:4:2Z</time></trkpt>
<trkpt lat="46.3064155578613" lon="7.32280206680298"><ele></ele><time>2013-8-8T4:4:5Z</time></trkpt>
<trkpt lat="46.3064270019531" lon="7.32293224334717"><ele></ele><time>2013-8-8T4:4:8Z</time></trkpt>
<trkpt lat="46.3064346313477" lon="7.32296848297119"><ele></ele><time>2013-8-8T4:4:11Z</time></trkpt>
<trkpt lat="46.3064384460449" lon="7.32300424575806"><ele></ele><time>2013-8-8T4:4:14Z</time></trkpt>
<trkpt lat="46.3064498901367" lon="7.32304191589356"><ele></ele><time>2013-8-8T4:4:17Z</time></trkpt>
<trkpt lat="46.306453704834" lon="7.32307815551758"><ele></ele><time>2013-8-8T4:4:20Z</time></trkpt>
<trkpt lat="46.3064842224121" lon="7.3232307434082"><ele></ele><time>2013-8-8T4:4:23Z</time></trkpt>
<trkpt lat="46.3064918518066" lon="7.3232684135437"><ele></ele><time>2013-8-8T4:4:26Z</time></trkpt>
<trkpt lat="46.3065032958984" lon="7.32330083847046"><ele></ele><time>2013-8-8T4:4:29Z</time></trkpt>
<trkpt lat="46.3065071105957" lon="7.32333850860596"><ele></ele><time>2013-8-8T4:4:32Z</time></trkpt>
<trkpt lat="46.3065147399902" lon="7.32337713241577"><ele></ele><time>2013-8-8T4:4:35Z</time></trkpt>
<trkpt lat="46.3065223693848" lon="7.3234133720398"><ele></ele><time>2013-8-8T4:4:38Z</time></trkpt>
<trkpt lat="46.3065452575684" lon="7.32350540161133"><ele></ele><time>2013-8-8T4:4:41Z</time></trkpt>
<trkpt lat="46.3065528869629" lon="7.32353162765503"><ele></ele><time>2013-8-8T4:4:44Z</time></trkpt>
<trkpt lat="46.3065643310547" lon="7.32356071472168"><ele></ele><time>2013-8-8T4:4:47Z</time></trkpt>
<trkpt lat="46.3065757751465" lon="7.32358312606812"><ele></ele><time>2013-8-8T4:4:50Z</time></trkpt>
<trkpt lat="46.3065910339356" lon="7.3236083984375"><ele></ele><time>2013-8-8T4:4:53Z</time></trkpt>
<trkpt lat="46.3066215515137" lon="7.32365274429321"><ele></ele><time>2013-8-8T4:4:56Z</time></trkpt>
<trkpt lat="46.3066482543945" lon="7.32369232177734"><ele></ele><time>2013-8-8T4:4:59Z</time></trkpt>
<trkpt lat="46.3066673278809" lon="7.32370662689209"><ele></ele><time>2013-8-8T4:5:2Z</time></trkpt>
<trkpt lat="46.3066864013672" lon="7.32372331619263"><ele></ele><time>2013-8-8T4:5:5Z</time></trkpt>
<trkpt lat="46.3067016601562" lon="7.32373952865601"><ele></ele><time>2013-8-8T4:5:8Z</time></trkpt>
<trkpt lat="46.3067207336426" lon="7.32375383377075"><ele></ele><time>2013-8-8T4:5:11Z</time></trkpt>
<trkpt lat="46.3068618774414" lon="7.32381963729858"><ele></ele><time>2013-8-8T4:5:14Z</time></trkpt>
<trkpt lat="46.306884765625" lon="7.32382726669312"><ele></ele><time>2013-8-8T4:5:17Z</time></trkpt>
<trkpt lat="46.3069038391113" lon="7.32383728027344"><ele></ele><time>2013-8-8T4:5:20Z</time></trkpt>
<trkpt lat="46.3069267272949" lon="7.32384920120239"><ele></ele><time>2013-8-8T4:5:23Z</time></trkpt>
<trkpt lat="46.3069458007812" lon="7.32386350631714"><ele></ele><time>2013-8-8T4:5:26Z</time></trkpt>
<trkpt lat="46.3070640563965" lon="7.32397747039795"><ele></ele><time>2013-8-8T4:5:29Z</time></trkpt>
<trkpt lat="46.3070793151856" lon="7.32400321960449"><ele></ele><time>2013-8-8T4:5:32Z</time></trkpt>
<trkpt lat="46.3070907592773" lon="7.32403087615967"><ele></ele><time>2013-8-8T4:5:35Z</time></trkpt>
<trkpt lat="46.3071022033691" lon="7.32405948638916"><ele></ele><time>2013-8-8T4:5:38Z</time></trkpt>
<trkpt lat="46.3071212768555" lon="7.32411575317383"><ele></ele><time>2013-8-8T4:5:41Z</time></trkpt>
<trkpt lat="46.3071365356445" lon="7.32417583465576"><ele></ele><time>2013-8-8T4:5:44Z</time></trkpt>
<trkpt lat="46.3071479797363" lon="7.32420587539673"><ele></ele><time>2013-8-8T4:5:47Z</time></trkpt>
<trkpt lat="46.3071556091309" lon="7.32423400878906"><ele></ele><time>2013-8-8T4:5:50Z</time></trkpt>
<trkpt lat="46.3071670532227" lon="7.32425594329834"><ele></ele><time>2013-8-8T4:5:53Z</time></trkpt>
<trkpt lat="46.3071823120117" lon="7.32427978515625"><ele></ele><time>2013-8-8T4:5:56Z</time></trkpt>
<trkpt lat="46.3071975708008" lon="7.32430028915405"><ele></ele><time>2013-8-8T4:5:59Z</time></trkpt>
<trkpt lat="46.3072853088379" lon="7.32439374923706"><ele></ele><time>2013-8-8T4:6:2Z</time></trkpt>
<trkpt lat="46.3073081970215" lon="7.32440614700317"><ele></ele><time>2013-8-8T4:6:5Z</time></trkpt>
<trkpt lat="46.3073272705078" lon="7.32441997528076"><ele></ele><time>2013-8-8T4:6:8Z</time></trkpt>
<trkpt lat="46.3073425292969" lon="7.32443475723267"><ele></ele><time>2013-8-8T4:6:11Z</time></trkpt>
<trkpt lat="46.3073616027832" lon="7.32445335388184"><ele></ele><time>2013-8-8T4:6:14Z</time></trkpt>
<trkpt lat="46.3074760437012" lon="7.32454824447632"><ele></ele><time>2013-8-8T4:6:17Z</time></trkpt>
<trkpt lat="46.3075103759766" lon="7.32458972930908"><ele></ele><time>2013-8-8T4:6:20Z</time></trkpt>
<trkpt lat="46.3075294494629" lon="7.32460927963257"><ele></ele><time>2013-8-8T4:6:23Z</time></trkpt>
<trkpt lat="46.307544708252" lon="7.32462644577026"><ele></ele><time>2013-8-8T4:6:26Z</time></trkpt>
<trkpt lat="46.307559967041" lon="7.32464551925659"><ele></ele><time>2013-8-8T4:6:29Z</time></trkpt>
<trkpt lat="46.3075752258301" lon="7.32466316223144"><ele></ele><time>2013-8-8T4:6:32Z</time></trkpt>
<trkpt lat="46.3075942993164" lon="7.32468175888062"><ele></ele><time>2013-8-8T4:6:35Z</time></trkpt>
<trkpt lat="46.3076248168945" lon="7.32472324371338"><ele></ele><time>2013-8-8T4:6:38Z</time></trkpt>
<trkpt lat="46.3076438903809" lon="7.32474088668823"><ele></ele><time>2013-8-8T4:6:41Z</time></trkpt>
<trkpt lat="46.3076629638672" lon="7.3247594833374"><ele></ele><time>2013-8-8T4:6:44Z</time></trkpt>
<trkpt lat="46.3076820373535" lon="7.32478141784668"><ele></ele><time>2013-8-8T4:6:47Z</time></trkpt>
<trkpt lat="46.3077011108398" lon="7.32479572296143"><ele></ele><time>2013-8-8T4:6:50Z</time></trkpt>
<trkpt lat="46.3077201843262" lon="7.32480907440186"><ele></ele><time>2013-8-8T4:6:53Z</time></trkpt>
<trkpt lat="46.3078002929688" lon="7.32486772537232"><ele></ele><time>2013-8-8T4:6:56Z</time></trkpt>
<trkpt lat="46.3078193664551" lon="7.32487630844116"><ele></ele><time>2013-8-8T4:6:59Z</time></trkpt>
<trkpt lat="46.3078346252441" lon="7.32488822937012"><ele></ele><time>2013-8-8T4:7:2Z</time></trkpt>
<trkpt lat="46.3078575134277" lon="7.32489967346191"><ele></ele><time>2013-8-8T4:7:5Z</time></trkpt>
<trkpt lat="46.3078804016113" lon="7.3249101638794"><ele></ele><time>2013-8-8T4:7:8Z</time></trkpt>
<trkpt lat="46.3080253601074" lon="7.32496976852417"><ele></ele><time>2013-8-8T4:7:11Z</time></trkpt>
<trkpt lat="46.3080444335938" lon="7.32498121261597"><ele></ele><time>2013-8-8T4:7:14Z</time></trkpt>
<trkpt lat="46.3080635070801" lon="7.3249921798706"><ele></ele><time>2013-8-8T4:7:17Z</time></trkpt>
<trkpt lat="46.3080863952637" lon="7.32500267028809"><ele></ele><time>2013-8-8T4:7:20Z</time></trkpt>
<trkpt lat="46.3081092834473" lon="7.32501220703125"><ele></ele><time>2013-8-8T4:7:23Z</time></trkpt>
<trkpt lat="46.3081893920898" lon="7.32504844665527"><ele></ele><time>2013-8-8T4:7:26Z</time></trkpt>
<trkpt lat="46.3082084655762" lon="7.32506036758423"><ele></ele><time>2013-8-8T4:7:29Z</time></trkpt>
<trkpt lat="46.3082275390625" lon="7.32506990432739"><ele></ele><time>2013-8-8T4:7:32Z</time></trkpt>
<trkpt lat="46.3082504272461" lon="7.32508039474487"><ele></ele><time>2013-8-8T4:7:35Z</time></trkpt>
<trkpt lat="46.3082695007324" lon="7.32508325576782"><ele></ele><time>2013-8-8T4:7:38Z</time></trkpt>
<trkpt lat="46.3083953857422" lon="7.32512807846069"><ele></ele><time>2013-8-8T4:7:41Z</time></trkpt>
<trkpt lat="46.3084182739258" lon="7.32513999938965"><ele></ele><time>2013-8-8T4:7:44Z</time></trkpt>
<trkpt lat="46.3084411621094" lon="7.3251461982727"><ele></ele><time>2013-8-8T4:7:47Z</time></trkpt>
<trkpt lat="46.3084602355957" lon="7.32516193389893"><ele></ele><time>2013-8-8T4:7:50Z</time></trkpt>
<trkpt lat="46.3085021972656" lon="7.3251781463623"><ele></ele><time>2013-8-8T4:7:53Z</time></trkpt>
<trkpt lat="46.3085441589356" lon="7.32520771026611"><ele></ele><time>2013-8-8T4:7:56Z</time></trkpt>
<trkpt lat="46.3085823059082" lon="7.32523393630982"><ele></ele><time>2013-8-8T4:7:59Z</time></trkpt>
<trkpt lat="46.3086013793945" lon="7.32523918151856"><ele></ele><time>2013-8-8T4:8:2Z</time></trkpt>
<trkpt lat="46.3086166381836" lon="7.32525444030762"><ele></ele><time>2013-8-8T4:8:5Z</time></trkpt>
<trkpt lat="46.3086318969727" lon="7.32526874542236"><ele></ele><time>2013-8-8T4:8:8Z</time></trkpt>
<trkpt lat="46.308650970459" lon="7.32528305053711"><ele></ele><time>2013-8-8T4:8:11Z</time></trkpt>
<trkpt lat="46.308666229248" lon="7.32529401779175"><ele></ele><time>2013-8-8T4:8:14Z</time></trkpt>
<trkpt lat="46.3087463378906" lon="7.32536363601685"><ele></ele><time>2013-8-8T4:8:17Z</time></trkpt>
<trkpt lat="46.308765411377" lon="7.32538461685181"><ele></ele><time>2013-8-8T4:8:20Z</time></trkpt>
<trkpt lat="46.3087844848633" lon="7.32539796829224"><ele></ele><time>2013-8-8T4:8:23Z</time></trkpt>
<trkpt lat="46.3087997436523" lon="7.32541942596436"><ele></ele><time>2013-8-8T4:8:26Z</time></trkpt>
<trkpt lat="46.3088150024414" lon="7.32543754577637"><ele></ele><time>2013-8-8T4:8:29Z</time></trkpt>
<trkpt lat="46.3089065551758" lon="7.32553577423096"><ele></ele><time>2013-8-8T4:8:32Z</time></trkpt>
<trkpt lat="46.3089256286621" lon="7.32555818557739"><ele></ele><time>2013-8-8T4:8:35Z</time></trkpt>
<trkpt lat="46.3089447021484" lon="7.32558059692383"><ele></ele><time>2013-8-8T4:8:38Z</time></trkpt>
<trkpt lat="46.3089561462402" lon="7.32560873031616"><ele></ele><time>2013-8-8T4:8:41Z</time></trkpt>
<trkpt lat="46.3089752197266" lon="7.32562685012817"><ele></ele><time>2013-8-8T4:8:44Z</time></trkpt>
<trkpt lat="46.3090515136719" lon="7.32572221755982"><ele></ele><time>2013-8-8T4:8:47Z</time></trkpt>
<trkpt lat="46.3090667724609" lon="7.32574367523193"><ele></ele><time>2013-8-8T4:8:50Z</time></trkpt>
<trkpt lat="46.3090858459473" lon="7.325758934021"><ele></ele><time>2013-8-8T4:8:53Z</time></trkpt>
<trkpt lat="46.3091011047363" lon="7.32578468322754"><ele></ele><time>2013-8-8T4:8:56Z</time></trkpt>
<trkpt lat="46.3091163635254" lon="7.32580471038818"><ele></ele><time>2013-8-8T4:8:59Z</time></trkpt>
<trkpt lat="46.3091316223144" lon="7.32582473754883"><ele></ele><time>2013-8-8T4:9:2Z</time></trkpt>
<trkpt lat="46.3091583251953" lon="7.32586765289307"><ele></ele><time>2013-8-8T4:9:5Z</time></trkpt>
<trkpt lat="46.3092155456543" lon="7.32594919204712"><ele></ele><time>2013-8-8T4:9:8Z</time></trkpt>
<trkpt lat="46.3092308044434" lon="7.32597351074219"><ele></ele><time>2013-8-8T4:9:11Z</time></trkpt>
<trkpt lat="46.3092422485352" lon="7.32599973678589"><ele></ele><time>2013-8-8T4:9:14Z</time></trkpt>
<trkpt lat="46.3092613220215" lon="7.32602310180664"><ele></ele><time>2013-8-8T4:9:17Z</time></trkpt>
<trkpt lat="46.3093719482422" lon="7.32612419128418"><ele></ele><time>2013-8-8T4:9:20Z</time></trkpt>
<trkpt lat="46.3093948364258" lon="7.3261251449585"><ele></ele><time>2013-8-8T4:9:23Z</time></trkpt>
<trkpt lat="46.3094177246094" lon="7.32611560821533"><ele></ele><time>2013-8-8T4:9:26Z</time></trkpt>
<trkpt lat="46.309440612793" lon="7.32610368728638"><ele></ele><time>2013-8-8T4:9:29Z</time></trkpt>
<trkpt lat="46.3094635009766" lon="7.3260817527771"><ele></ele><time>2013-8-8T4:9:32Z</time></trkpt>
<trkpt lat="46.3094749450684" lon="7.32605218887329"><ele></ele><time>2013-8-8T4:9:35Z</time></trkpt>
<trkpt lat="46.3094635009766" lon="7.32590913772583"><ele></ele><time>2013-8-8T4:9:38Z</time></trkpt>
<trkpt lat="46.3093910217285" lon="7.32577705383301"><ele></ele><time>2013-8-8T4:9:41Z</time></trkpt>
<trkpt lat="46.3092727661133" lon="7.32564210891724"><ele></ele><time>2013-8-8T4:9:44Z</time></trkpt>
<trkpt lat="46.309253692627" lon="7.3256106376648"><ele></ele><time>2013-8-8T4:9:47Z</time></trkpt>
<trkpt lat="46.3092308044434" lon="7.32557773590088"><ele></ele><time>2013-8-8T4:9:50Z</time></trkpt>
<trkpt lat="46.3092155456543" lon="7.32554197311401"><ele></ele><time>2013-8-8T4:9:53Z</time></trkpt>
<trkpt lat="46.3092002868652" lon="7.32551193237305"><ele></ele><time>2013-8-8T4:9:56Z</time></trkpt>
<trkpt lat="46.3091201782227" lon="7.32534980773926"><ele></ele><time>2013-8-8T4:9:59Z</time></trkpt>
<trkpt lat="46.3091011047363" lon="7.32532596588135"><ele></ele><time>2013-8-8T4:10:2Z</time></trkpt>
<trkpt lat="46.3090782165527" lon="7.32529640197754"><ele></ele><time>2013-8-8T4:10:5Z</time></trkpt>
<trkpt lat="46.3090629577637" lon="7.3252682685852"><ele></ele><time>2013-8-8T4:10:8Z</time></trkpt>
<trkpt lat="46.3090476989746" lon="7.32523584365845"><ele></ele><time>2013-8-8T4:10:11Z</time></trkpt>
<trkpt lat="46.309024810791" lon="7.32517290115356"><ele></ele><time>2013-8-8T4:10:14Z</time></trkpt>
<trkpt lat="46.3089714050293" lon="7.3250846862793"><ele></ele><time>2013-8-8T4:10:17Z</time></trkpt>
<trkpt lat="46.3089561462402" lon="7.32505798339844"><ele></ele><time>2013-8-8T4:10:20Z</time></trkpt>
<trkpt lat="46.3089408874512" lon="7.32503509521484"><ele></ele><time>2013-8-8T4:10:23Z</time></trkpt>
<trkpt lat="46.3089256286621" lon="7.32500982284546"><ele></ele><time>2013-8-8T4:10:26Z</time></trkpt>
<trkpt lat="46.3089141845703" lon="7.32498741149902"><ele></ele><time>2013-8-8T4:10:29Z</time></trkpt>
<trkpt lat="46.3088722229004" lon="7.32491636276245"><ele></ele><time>2013-8-8T4:10:32Z</time></trkpt>
<trkpt lat="46.3088607788086" lon="7.32489347457886"><ele></ele><time>2013-8-8T4:10:35Z</time></trkpt>
<trkpt lat="46.3088493347168" lon="7.32486867904663"><ele></ele><time>2013-8-8T4:10:38Z</time></trkpt>
<trkpt lat="46.3088340759277" lon="7.3248462677002"><ele></ele><time>2013-8-8T4:10:41Z</time></trkpt>
<trkpt lat="46.3088188171387" lon="7.32482719421387"><ele></ele><time>2013-8-8T4:10:44Z</time></trkpt>
<trkpt lat="46.3087196350098" lon="7.3246693611145"><ele></ele><time>2013-8-8T4:10:47Z</time></trkpt>
<trkpt lat="46.3087043762207" lon="7.32465219497681"><ele></ele><time>2013-8-8T4:10:50Z</time></trkpt>
<trkpt lat="46.3086929321289" lon="7.32463216781616"><ele></ele><time>2013-8-8T4:10:53Z</time></trkpt>
<trkpt lat="46.3086776733398" lon="7.3246054649353"><ele></ele><time>2013-8-8T4:10:56Z</time></trkpt>
<trkpt lat="46.3086585998535" lon="7.32458829879761"><ele></ele><time>2013-8-8T4:10:59Z</time></trkpt>
<trkpt lat="46.3086128234863" lon="7.3245439529419"><ele></ele><time>2013-8-8T4:11:2Z</time></trkpt>
<trkpt lat="46.3085784912109" lon="7.3245038986206"><ele></ele><time>2013-8-8T4:11:5Z</time></trkpt>
<trkpt lat="46.3085632324219" lon="7.32448768615723"><ele></ele><time>2013-8-8T4:11:8Z</time></trkpt>
<trkpt lat="46.3085441589356" lon="7.32447099685669"><ele></ele><time>2013-8-8T4:11:11Z</time></trkpt>
<trkpt lat="46.3085289001465" lon="7.32445430755615"><ele></ele><time>2013-8-8T4:11:14Z</time></trkpt>
<trkpt lat="46.3085098266602" lon="7.32443332672119"><ele></ele><time>2013-8-8T4:11:17Z</time></trkpt>
<trkpt lat="46.3084411621094" lon="7.32435321807861"><ele></ele><time>2013-8-8T4:11:20Z</time></trkpt>
<trkpt lat="46.308422088623" lon="7.32433414459228"><ele></ele><time>2013-8-8T4:11:23Z</time></trkpt>
<trkpt lat="46.308406829834" lon="7.32431221008301"><ele></ele><time>2013-8-8T4:11:26Z</time></trkpt>
<trkpt lat="46.3083915710449" lon="7.32429790496826"><ele></ele><time>2013-8-8T4:11:29Z</time></trkpt>
<trkpt lat="46.3083763122559" lon="7.32427406311035"><ele></ele><time>2013-8-8T4:11:32Z</time></trkpt>
<trkpt lat="46.308277130127" lon="7.32411432266235"><ele></ele><time>2013-8-8T4:11:35Z</time></trkpt>
<trkpt lat="46.3082656860352" lon="7.32408905029297"><ele></ele><time>2013-8-8T4:11:38Z</time></trkpt>
<trkpt lat="46.3082542419434" lon="7.32406520843506"><ele></ele><time>2013-8-8T4:11:41Z</time></trkpt>
<trkpt lat="46.3082427978516" lon="7.32404565811157"><ele></ele><time>2013-8-8T4:11:44Z</time></trkpt>
<trkpt lat="46.3082313537598" lon="7.32402324676514"><ele></ele><time>2013-8-8T4:11:47Z</time></trkpt>
<trkpt lat="46.3082237243652" lon="7.32399892807007"><ele></ele><time>2013-8-8T4:11:50Z</time></trkpt>
<trkpt lat="46.308177947998" lon="7.323899269104"><ele></ele><time>2013-8-8T4:11:53Z</time></trkpt>
<trkpt lat="46.3081665039062" lon="7.3238730430603"><ele></ele><time>2013-8-8T4:11:56Z</time></trkpt>
<trkpt lat="46.3081512451172" lon="7.32385158538818"><ele></ele><time>2013-8-8T4:11:59Z</time></trkpt>
<trkpt lat="46.3081398010254" lon="7.32382440567017"><ele></ele><time>2013-8-8T4:12:2Z</time></trkpt>
<trkpt lat="46.3081245422363" lon="7.3238034248352"><ele></ele><time>2013-8-8T4:12:5Z</time></trkpt>
<trkpt lat="46.3080978393555" lon="7.32376098632812"><ele></ele><time>2013-8-8T4:12:8Z</time></trkpt>
<trkpt lat="46.3080368041992" lon="7.32367420196533"><ele></ele><time>2013-8-8T4:12:11Z</time></trkpt>
<trkpt lat="46.3080215454102" lon="7.32365226745606"><ele></ele><time>2013-8-8T4:12:14Z</time></trkpt>
<trkpt lat="46.3080062866211" lon="7.32362842559814"><ele></ele><time>2013-8-8T4:12:17Z</time></trkpt>
<trkpt lat="46.307991027832" lon="7.32360172271728"><ele></ele><time>2013-8-8T4:12:20Z</time></trkpt>
<trkpt lat="46.3079795837402" lon="7.32358169555664"><ele></ele><time>2013-8-8T4:12:23Z</time></trkpt>
<trkpt lat="46.3079071044922" lon="7.32347679138184"><ele></ele><time>2013-8-8T4:12:26Z</time></trkpt>
<trkpt lat="46.3078880310059" lon="7.32345485687256"><ele></ele><time>2013-8-8T4:12:29Z</time></trkpt>
<trkpt lat="46.3078727722168" lon="7.32343435287476"><ele></ele><time>2013-8-8T4:12:32Z</time></trkpt>
<trkpt lat="46.3078575134277" lon="7.32341146469116"><ele></ele><time>2013-8-8T4:12:35Z</time></trkpt>
<trkpt lat="46.3078422546387" lon="7.32339239120483"><ele></ele><time>2013-8-8T4:12:38Z</time></trkpt>
<trkpt lat="46.307788848877" lon="7.32330369949341"><ele></ele><time>2013-8-8T4:12:41Z</time></trkpt>
<trkpt lat="46.3077812194824" lon="7.32327795028686"><ele></ele><time>2013-8-8T4:12:44Z</time></trkpt>
<trkpt lat="46.3077697753906" lon="7.3232536315918"><ele></ele><time>2013-8-8T4:12:47Z</time></trkpt>
<trkpt lat="46.3077583312988" lon="7.32322645187378"><ele></ele><time>2013-8-8T4:12:50Z</time></trkpt>
<trkpt lat="46.307746887207" lon="7.32319641113281"><ele></ele><time>2013-8-8T4:12:53Z</time></trkpt>
<trkpt lat="46.3077049255371" lon="7.32308769226074"><ele></ele><time>2013-8-8T4:12:56Z</time></trkpt>
<trkpt lat="46.3076858520508" lon="7.32303380966186"><ele></ele><time>2013-8-8T4:12:59Z</time></trkpt>
<trkpt lat="46.3076782226562" lon="7.3230037689209"><ele></ele><time>2013-8-8T4:13:2Z</time></trkpt>
<trkpt lat="46.3076705932617" lon="7.32297420501709"><ele></ele><time>2013-8-8T4:13:5Z</time></trkpt>
<trkpt lat="46.3076591491699" lon="7.32294464111328"><ele></ele><time>2013-8-8T4:13:8Z</time></trkpt>
<trkpt lat="46.3076515197754" lon="7.32291507720947"><ele></ele><time>2013-8-8T4:13:11Z</time></trkpt>
<trkpt lat="46.3076362609863" lon="7.32285690307617"><ele></ele><time>2013-8-8T4:13:14Z</time></trkpt>
<trkpt lat="46.3075981140137" lon="7.32271385192871"><ele></ele><time>2013-8-8T4:13:17Z</time></trkpt>
<trkpt lat="46.3076057434082" lon="7.32268333435059"><ele></ele><time>2013-8-8T4:13:20Z</time></trkpt>
<trkpt lat="46.3076248168945" lon="7.32265853881836"><ele></ele><time>2013-8-8T4:13:23Z</time></trkpt>
<trkpt lat="46.3076438903809" lon="7.32265329360962"><ele></ele><time>2013-8-8T4:13:26Z</time></trkpt>
<trkpt lat="46.3076667785644" lon="7.32266235351562"><ele></ele><time>2013-8-8T4:13:29Z</time></trkpt>
<trkpt lat="46.3076858520508" lon="7.3226809501648"><ele></ele><time>2013-8-8T4:13:32Z</time></trkpt>
<trkpt lat="46.3077011108398" lon="7.32270669937134"><ele></ele><time>2013-8-8T4:13:35Z</time></trkpt>
<trkpt lat="46.3077163696289" lon="7.3227653503418"><ele></ele><time>2013-8-8T4:13:38Z</time></trkpt>
<trkpt lat="46.3077278137207" lon="7.32282876968384"><ele></ele><time>2013-8-8T4:13:41Z</time></trkpt>
<trkpt lat="46.307731628418" lon="7.32285594940186"><ele></ele><time>2013-8-8T4:13:44Z</time></trkpt>
<trkpt lat="46.3077392578125" lon="7.32288265228272"><ele></ele><time>2013-8-8T4:13:47Z</time></trkpt>
<trkpt lat="46.3077430725098" lon="7.32291555404663"><ele></ele><time>2013-8-8T4:13:50Z</time></trkpt>
<trkpt lat="46.3077507019043" lon="7.32294654846191"><ele></ele><time>2013-8-8T4:13:53Z</time></trkpt>
<trkpt lat="46.3077621459961" lon="7.32297086715698"><ele></ele><time>2013-8-8T4:13:56Z</time></trkpt>
<trkpt lat="46.3078155517578" lon="7.32308053970337"><ele></ele><time>2013-8-8T4:13:59Z</time></trkpt>
<trkpt lat="46.3078498840332" lon="7.32313680648804"><ele></ele><time>2013-8-8T4:14:2Z</time></trkpt>
<trkpt lat="46.3079414367676" lon="7.32323169708252"><ele></ele><time>2013-8-8T4:14:5Z</time></trkpt>
<trkpt lat="46.3079605102539" lon="7.32324504852295"><ele></ele><time>2013-8-8T4:14:8Z</time></trkpt>
<trkpt lat="46.3079833984375" lon="7.32325553894043"><ele></ele><time>2013-8-8T4:14:11Z</time></trkpt>
<trkpt lat="46.3080024719238" lon="7.3232684135437"><ele></ele><time>2013-8-8T4:14:14Z</time></trkpt>
<trkpt lat="46.3080215454102" lon="7.32328414916992"><ele></ele><time>2013-8-8T4:14:17Z</time></trkpt>
<trkpt lat="46.3080406188965" lon="7.32329225540161"><ele></ele><time>2013-8-8T4:14:20Z</time></trkpt>
<trkpt lat="46.3080787658691" lon="7.32331609725952"><ele></ele><time>2013-8-8T4:14:23Z</time></trkpt>
<trkpt lat="46.3081436157227" lon="7.32335042953491"><ele></ele><time>2013-8-8T4:14:26Z</time></trkpt>
<trkpt lat="46.308162689209" lon="7.32336282730102"><ele></ele><time>2013-8-8T4:14:29Z</time></trkpt>
<trkpt lat="46.3081855773926" lon="7.32337331771851"><ele></ele><time>2013-8-8T4:14:32Z</time></trkpt>
<trkpt lat="46.3082008361816" lon="7.32339000701904"><ele></ele><time>2013-8-8T4:14:35Z</time></trkpt>
<trkpt lat="46.3082237243652" lon="7.32340240478516"><ele></ele><time>2013-8-8T4:14:38Z</time></trkpt>
<trkpt lat="46.3083305358887" lon="7.32346391677856"><ele></ele><time>2013-8-8T4:14:41Z</time></trkpt>
<trkpt lat="46.308349609375" lon="7.32347917556763"><ele></ele><time>2013-8-8T4:14:44Z</time></trkpt>
<trkpt lat="46.3083648681641" lon="7.32349300384522"><ele></ele><time>2013-8-8T4:14:47Z</time></trkpt>
<trkpt lat="46.3083839416504" lon="7.3235068321228"><ele></ele><time>2013-8-8T4:14:50Z</time></trkpt>
<trkpt lat="46.308406829834" lon="7.32351589202881"><ele></ele><time>2013-8-8T4:14:53Z</time></trkpt>
<trkpt lat="46.3084678649902" lon="7.32355785369873"><ele></ele><time>2013-8-8T4:14:56Z</time></trkpt>
<trkpt lat="46.3084869384766" lon="7.32356882095337"><ele></ele><time>2013-8-8T4:14:59Z</time></trkpt>
<trkpt lat="46.3085060119629" lon="7.32357835769653"><ele></ele><time>2013-8-8T4:15:2Z</time></trkpt>
<trkpt lat="46.308521270752" lon="7.32359409332275"><ele></ele><time>2013-8-8T4:15:5Z</time></trkpt>
<trkpt lat="46.3085403442383" lon="7.32360744476318"><ele></ele><time>2013-8-8T4:15:8Z</time></trkpt>
<trkpt lat="46.3086433410644" lon="7.32365798950195"><ele></ele><time>2013-8-8T4:15:11Z</time></trkpt>
<trkpt lat="46.3086624145508" lon="7.32366609573364"><ele></ele><time>2013-8-8T4:15:14Z</time></trkpt>
<trkpt lat="46.3086853027344" lon="7.32367610931396"><ele></ele><time>2013-8-8T4:15:17Z</time></trkpt>
<trkpt lat="46.308708190918" lon="7.32368278503418"><ele></ele><time>2013-8-8T4:15:20Z</time></trkpt>
<trkpt lat="46.3087272644043" lon="7.32369041442871"><ele></ele><time>2013-8-8T4:15:23Z</time></trkpt>
<trkpt lat="46.3088111877441" lon="7.32371997833252"><ele></ele><time>2013-8-8T4:15:26Z</time></trkpt>
<trkpt lat="46.3088531494141" lon="7.32374238967896"><ele></ele><time>2013-8-8T4:15:29Z</time></trkpt>
<trkpt lat="46.3088722229004" lon="7.32375431060791"><ele></ele><time>2013-8-8T4:15:32Z</time></trkpt>
<trkpt lat="46.308895111084" lon="7.32376527786255"><ele></ele><time>2013-8-8T4:15:35Z</time></trkpt>
<trkpt lat="46.3089179992676" lon="7.3237738609314"><ele></ele><time>2013-8-8T4:15:38Z</time></trkpt>
<trkpt lat="46.3089599609375" lon="7.32379341125488"><ele></ele><time>2013-8-8T4:15:41Z</time></trkpt>
<trkpt lat="46.3090362548828" lon="7.32382488250732"><ele></ele><time>2013-8-8T4:15:44Z</time></trkpt>
<trkpt lat="46.3090553283691" lon="7.32383251190186"><ele></ele><time>2013-8-8T4:15:47Z</time></trkpt>
<trkpt lat="46.3090782165527" lon="7.32383966445923"><ele></ele><time>2013-8-8T4:15:50Z</time></trkpt>
<trkpt lat="46.3091011047363" lon="7.32384490966797"><ele></ele><time>2013-8-8T4:15:53Z</time></trkpt>
<trkpt lat="46.3091201782227" lon="7.32385873794556"><ele></ele><time>2013-8-8T4:15:56Z</time></trkpt>
<trkpt lat="46.309139251709" lon="7.32386779785156"><ele></ele><time>2013-8-8T4:15:59Z</time></trkpt>
<trkpt lat="46.3092308044434" lon="7.32391405105591"><ele></ele><time>2013-8-8T4:16:2Z</time></trkpt>
<trkpt lat="46.309253692627" lon="7.3239221572876"><ele></ele><time>2013-8-8T4:16:5Z</time></trkpt>
<trkpt lat="46.3092727661133" lon="7.32392930984497"><ele></ele><time>2013-8-8T4:16:8Z</time></trkpt>
<trkpt lat="46.3092918395996" lon="7.32393980026245"><ele></ele><time>2013-8-8T4:16:11Z</time></trkpt>
<trkpt lat="46.3093109130859" lon="7.32394599914551"><ele></ele><time>2013-8-8T4:16:14Z</time></trkpt>
<trkpt lat="46.3094291687012" lon="7.32399415969849"><ele></ele><time>2013-8-8T4:16:17Z</time></trkpt>
<trkpt lat="46.3094444274902" lon="7.32400321960449"><ele></ele><time>2013-8-8T4:16:20Z</time></trkpt>
<trkpt lat="46.3094673156738" lon="7.32401084899902"><ele></ele><time>2013-8-8T4:16:23Z</time></trkpt>
<trkpt lat="46.3094863891602" lon="7.3240156173706"><ele></ele><time>2013-8-8T4:16:26Z</time></trkpt>
<trkpt lat="46.3095092773438" lon="7.32402038574219"><ele></ele><time>2013-8-8T4:16:29Z</time></trkpt>
<trkpt lat="46.3096008300781" lon="7.32403945922852"><ele></ele><time>2013-8-8T4:16:32Z</time></trkpt>
<trkpt lat="46.3096199035644" lon="7.32404327392578"><ele></ele><time>2013-8-8T4:16:35Z</time></trkpt>
<trkpt lat="46.3096389770508" lon="7.32404470443726"><ele></ele><time>2013-8-8T4:16:38Z</time></trkpt>
<trkpt lat="46.3096618652344" lon="7.32404327392578"><ele></ele><time>2013-8-8T4:16:41Z</time></trkpt>
<trkpt lat="46.309684753418" lon="7.32404088973999"><ele></ele><time>2013-8-8T4:16:44Z</time></trkpt>
<trkpt lat="46.3097915649414" lon="7.32405281066894"><ele></ele><time>2013-8-8T4:16:47Z</time></trkpt>
<trkpt lat="46.3098335266113" lon="7.324049949646"><ele></ele><time>2013-8-8T4:16:50Z</time></trkpt>
<trkpt lat="46.3098526000977" lon="7.32405090332031"><ele></ele><time>2013-8-8T4:16:53Z</time></trkpt>
<trkpt lat="46.3098754882812" lon="7.32405996322632"><ele></ele><time>2013-8-8T4:16:56Z</time></trkpt>
<trkpt lat="46.3098907470703" lon="7.32406759262085"><ele></ele><time>2013-8-8T4:16:59Z</time></trkpt>
<trkpt lat="46.3099136352539" lon="7.32407426834106"><ele></ele><time>2013-8-8T4:17:2Z</time></trkpt>
<trkpt lat="46.3100090026856" lon="7.32410478591919"><ele></ele><time>2013-8-8T4:17:5Z</time></trkpt>
<trkpt lat="46.3100280761719" lon="7.32411241531372"><ele></ele><time>2013-8-8T4:17:8Z</time></trkpt>
<trkpt lat="46.3100509643555" lon="7.32412004470825"><ele></ele><time>2013-8-8T4:17:11Z</time></trkpt>
<trkpt lat="46.3100700378418" lon="7.3241286277771"><ele></ele><time>2013-8-8T4:17:14Z</time></trkpt>
<trkpt lat="46.3100891113281" lon="7.3241400718689"><ele></ele><time>2013-8-8T4:17:17Z</time></trkpt>
<trkpt lat="46.3101997375488" lon="7.32419776916504"><ele></ele><time>2013-8-8T4:17:20Z</time></trkpt>
<trkpt lat="46.3102188110352" lon="7.3242015838623"><ele></ele><time>2013-8-8T4:17:23Z</time></trkpt>
<trkpt lat="46.3102378845215" lon="7.32421350479126"><ele></ele><time>2013-8-8T4:17:26Z</time></trkpt>
<trkpt lat="46.3102569580078" lon="7.32422351837158"><ele></ele><time>2013-8-8T4:17:29Z</time></trkpt>
<trkpt lat="46.3102798461914" lon="7.32423830032349"><ele></ele><time>2013-8-8T4:17:32Z</time></trkpt>
<trkpt lat="46.3103408813477" lon="7.32428359985352"><ele></ele><time>2013-8-8T4:17:35Z</time></trkpt>
<trkpt lat="46.3103790283203" lon="7.32429885864258"><ele></ele><time>2013-8-8T4:17:38Z</time></trkpt>
<trkpt lat="46.3104019165039" lon="7.32430696487427"><ele></ele><time>2013-8-8T4:17:41Z</time></trkpt>
<trkpt lat="46.3104209899902" lon="7.32432174682617"><ele></ele><time>2013-8-8T4:17:44Z</time></trkpt>
<trkpt lat="46.3104400634766" lon="7.32433605194092"><ele></ele><time>2013-8-8T4:17:47Z</time></trkpt>
<trkpt lat="46.3104591369629" lon="7.32435703277588"><ele></ele><time>2013-8-8T4:17:50Z</time></trkpt>
<trkpt lat="46.3105697631836" lon="7.32441425323486"><ele></ele><time>2013-8-8T4:17:53Z</time></trkpt>
<trkpt lat="46.3105926513672" lon="7.32442760467529"><ele></ele><time>2013-8-8T4:17:56Z</time></trkpt>
<trkpt lat="46.3106079101562" lon="7.32444524765015"><ele></ele><time>2013-8-8T4:17:59Z</time></trkpt>
<trkpt lat="46.3106307983398" lon="7.32446146011352"><ele></ele><time>2013-8-8T4:18:2Z</time></trkpt>
<trkpt lat="46.3106536865234" lon="7.32447862625122"><ele></ele><time>2013-8-8T4:18:5Z</time></trkpt>
<trkpt lat="46.3106918334961" lon="7.32449865341186"><ele></ele><time>2013-8-8T4:18:8Z</time></trkpt>
<trkpt lat="46.3107299804688" lon="7.32451725006104"><ele></ele><time>2013-8-8T4:18:11Z</time></trkpt>
<trkpt lat="46.3107528686523" lon="7.32453727722168"><ele></ele><time>2013-8-8T4:18:14Z</time></trkpt>
<trkpt lat="46.3107719421387" lon="7.3245530128479"><ele></ele><time>2013-8-8T4:18:17Z</time></trkpt>
<trkpt lat="46.3107948303223" lon="7.32457065582275"><ele></ele><time>2013-8-8T4:18:20Z</time></trkpt>
<trkpt lat="46.3108139038086" lon="7.32458353042602"><ele></ele><time>2013-8-8T4:18:23Z</time></trkpt>
<trkpt lat="46.3108367919922" lon="7.32460355758667"><ele></ele><time>2013-8-8T4:18:26Z</time></trkpt>
<trkpt lat="46.3108940124512" lon="7.32462739944458"><ele></ele><time>2013-8-8T4:18:29Z</time></trkpt>
<trkpt lat="46.3109169006348" lon="7.32464504241943"><ele></ele><time>2013-8-8T4:18:32Z</time></trkpt>
<trkpt lat="46.3109321594238" lon="7.32465839385986"><ele></ele><time>2013-8-8T4:18:35Z</time></trkpt>
<trkpt lat="46.3109550476074" lon="7.32467699050903"><ele></ele><time>2013-8-8T4:18:38Z</time></trkpt>
<trkpt lat="46.310977935791" lon="7.32468795776367"><ele></ele><time>2013-8-8T4:18:41Z</time></trkpt>
<trkpt lat="46.3110618591309" lon="7.32473754882812"><ele></ele><time>2013-8-8T4:18:44Z</time></trkpt>
<trkpt lat="46.3110847473144" lon="7.32475090026856"><ele></ele><time>2013-8-8T4:18:47Z</time></trkpt>
<trkpt lat="46.3111000061035" lon="7.3247594833374"><ele></ele><time>2013-8-8T4:18:50Z</time></trkpt>
<trkpt lat="46.3111190795898" lon="7.32476758956909"><ele></ele><time>2013-8-8T4:18:53Z</time></trkpt>
<trkpt lat="46.3111381530762" lon="7.32477807998657"><ele></ele><time>2013-8-8T4:18:56Z</time></trkpt>
<trkpt lat="46.3111610412598" lon="7.32479000091553"><ele></ele><time>2013-8-8T4:18:59Z</time></trkpt>
<trkpt lat="46.3112144470215" lon="7.32483959197998"><ele></ele><time>2013-8-8T4:19:2Z</time></trkpt>
<trkpt lat="46.3112716674805" lon="7.32487773895264"><ele></ele><time>2013-8-8T4:19:5Z</time></trkpt>
<trkpt lat="46.3112907409668" lon="7.32488870620728"><ele></ele><time>2013-8-8T4:19:8Z</time></trkpt>
<trkpt lat="46.3113098144531" lon="7.32489728927612"><ele></ele><time>2013-8-8T4:19:11Z</time></trkpt>
<trkpt lat="46.3113327026367" lon="7.32490634918213"><ele></ele><time>2013-8-8T4:19:14Z</time></trkpt>
<trkpt lat="46.3113594055176" lon="7.32490682601929"><ele></ele><time>2013-8-8T4:19:17Z</time></trkpt>
<trkpt lat="46.3113822937012" lon="7.32491445541382"><ele></ele><time>2013-8-8T4:19:20Z</time></trkpt>
<trkpt lat="46.3114814758301" lon="7.32488059997559"><ele></ele><time>2013-8-8T4:19:23Z</time></trkpt>
<trkpt lat="46.3114891052246" lon="7.32485294342041"><ele></ele><time>2013-8-8T4:19:26Z</time></trkpt>
<trkpt lat="46.3115081787109" lon="7.32480525970459"><ele></ele><time>2013-8-8T4:19:29Z</time></trkpt>
<trkpt lat="46.3115005493164" lon="7.32477569580078"><ele></ele><time>2013-8-8T4:19:32Z</time></trkpt>
<trkpt lat="46.3114891052246" lon="7.32474565505982"><ele></ele><time>2013-8-8T4:19:35Z</time></trkpt>
<trkpt lat="46.3114776611328" lon="7.32471561431885"><ele></ele><time>2013-8-8T4:19:38Z</time></trkpt>
<trkpt lat="46.3114624023438" lon="7.32469415664673"><ele></ele><time>2013-8-8T4:19:41Z</time></trkpt>
<trkpt lat="46.3114242553711" lon="7.32465505599976"><ele></ele><time>2013-8-8T4:19:44Z</time></trkpt>
<trkpt lat="46.3113784790039" lon="7.32462501525879"><ele></ele><time>2013-8-8T4:19:47Z</time></trkpt>
<trkpt lat="46.3112487792969" lon="7.32453489303589"><ele></ele><time>2013-8-8T4:19:50Z</time></trkpt>
<trkpt lat="46.3111267089844" lon="7.32446050643921"><ele></ele><time>2013-8-8T4:19:53Z</time></trkpt>
<trkpt lat="46.3111038208008" lon="7.32444143295288"><ele></ele><time>2013-8-8T4:19:56Z</time></trkpt>
<trkpt lat="46.3110847473144" lon="7.32442092895508"><ele></ele><time>2013-8-8T4:19:59Z</time></trkpt>
<trkpt lat="46.3110618591309" lon="7.32440233230591"><ele></ele><time>2013-8-8T4:20:2Z</time></trkpt>
<trkpt lat="46.3110427856445" lon="7.3243842124939"><ele></ele><time>2013-8-8T4:20:5Z</time></trkpt>
<trkpt lat="46.3109397888184" lon="7.32424640655518"><ele></ele><time>2013-8-8T4:20:8Z</time></trkpt>
<trkpt lat="46.3109245300293" lon="7.32422542572022"><ele></ele><time>2013-8-8T4:20:11Z</time></trkpt>
<trkpt lat="46.3109092712402" lon="7.32420349121094"><ele></ele><time>2013-8-8T4:20:14Z</time></trkpt>
<trkpt lat="46.3108940124512" lon="7.3241777420044"><ele></ele><time>2013-8-8T4:20:17Z</time></trkpt>
<trkpt lat="46.3108787536621" lon="7.32415056228638"><ele></ele><time>2013-8-8T4:20:20Z</time></trkpt>
<trkpt lat="46.3108253479004" lon="7.32404327392578"><ele></ele><time>2013-8-8T4:20:23Z</time></trkpt>
<trkpt lat="46.3108100891113" lon="7.32401514053345"><ele></ele><time>2013-8-8T4:20:26Z</time></trkpt>
<trkpt lat="46.3107986450195" lon="7.32399034500122"><ele></ele><time>2013-8-8T4:20:29Z</time></trkpt>
<trkpt lat="46.3107872009277" lon="7.32396602630615"><ele></ele><time>2013-8-8T4:20:32Z</time></trkpt>
<trkpt lat="46.3107757568359" lon="7.32394409179688"><ele></ele><time>2013-8-8T4:20:35Z</time></trkpt>
<trkpt lat="46.3107604980469" lon="7.32392024993896"><ele></ele><time>2013-8-8T4:20:38Z</time></trkpt>
<trkpt lat="46.310718536377" lon="7.32384920120239"><ele></ele><time>2013-8-8T4:20:41Z</time></trkpt>
<trkpt lat="46.3106880187988" lon="7.32379865646362"><ele></ele><time>2013-8-8T4:20:44Z</time></trkpt>
<trkpt lat="46.310676574707" lon="7.32378387451172"><ele></ele><time>2013-8-8T4:20:47Z</time></trkpt>
<trkpt lat="46.310661315918" lon="7.3237681388855"><ele></ele><time>2013-8-8T4:20:50Z</time></trkpt>
<trkpt lat="46.3106422424316" lon="7.32375049591064"><ele></ele><time>2013-8-8T4:20:53Z</time></trkpt>
<trkpt lat="46.3106231689453" lon="7.32372856140137"><ele></ele><time>2013-8-8T4:20:56Z</time></trkpt>
<trkpt lat="46.3105316162109" lon="7.32362413406372"><ele></ele><time>2013-8-8T4:20:59Z</time></trkpt>
<trkpt lat="46.3105163574219" lon="7.32360601425171"><ele></ele><time>2013-8-8T4:21:2Z</time></trkpt>
<trkpt lat="46.3104972839356" lon="7.3235878944397"><ele></ele><time>2013-8-8T4:21:5Z</time></trkpt>
<trkpt lat="46.3104782104492" lon="7.32357263565064"><ele></ele><time>2013-8-8T4:21:8Z</time></trkpt>
<trkpt lat="46.3104629516602" lon="7.32355117797852"><ele></ele><time>2013-8-8T4:21:11Z</time></trkpt>
<trkpt lat="46.3103446960449" lon="7.32341575622559"><ele></ele><time>2013-8-8T4:21:14Z</time></trkpt>
<trkpt lat="46.3103294372559" lon="7.32339477539062"><ele></ele><time>2013-8-8T4:21:17Z</time></trkpt>
<trkpt lat="46.3103103637695" lon="7.32337284088135"><ele></ele><time>2013-8-8T4:21:20Z</time></trkpt>
<trkpt lat="46.3102951049805" lon="7.32335329055786"><ele></ele><time>2013-8-8T4:21:23Z</time></trkpt>
<trkpt lat="46.310188293457" lon="7.32323551177978"><ele></ele><time>2013-8-8T4:21:26Z</time></trkpt>
<trkpt lat="46.3101692199707" lon="7.32321119308472"><ele></ele><time>2013-8-8T4:21:29Z</time></trkpt>
<trkpt lat="46.3101539611816" lon="7.32319593429565"><ele></ele><time>2013-8-8T4:21:32Z</time></trkpt>
<trkpt lat="46.3101387023926" lon="7.32317495346069"><ele></ele><time>2013-8-8T4:21:35Z</time></trkpt>
<trkpt lat="46.3101196289062" lon="7.32315492630005"><ele></ele><time>2013-8-8T4:21:38Z</time></trkpt>
<trkpt lat="46.3100814819336" lon="7.32311725616455"><ele></ele><time>2013-8-8T4:21:41Z</time></trkpt>
<trkpt lat="46.3100318908691" lon="7.32305097579956"><ele></ele><time>2013-8-8T4:21:44Z</time></trkpt>
<trkpt lat="46.3100128173828" lon="7.32302808761597"><ele></ele><time>2013-8-8T4:21:47Z</time></trkpt>
<trkpt lat="46.3099899291992" lon="7.3230128288269"><ele></ele><time>2013-8-8T4:21:50Z</time></trkpt>
<trkpt lat="46.3099746704102" lon="7.32299375534058"><ele></ele><time>2013-8-8T4:21:53Z</time></trkpt>
<trkpt lat="46.3099594116211" lon="7.32297229766846"><ele></ele><time>2013-8-8T4:21:56Z</time></trkpt>
<trkpt lat="46.3098487854004" lon="7.32284307479858"><ele></ele><time>2013-8-8T4:21:59Z</time></trkpt>
<trkpt lat="46.3098335266113" lon="7.32282590866089"><ele></ele><time>2013-8-8T4:22:2Z</time></trkpt>
<trkpt lat="46.3098182678223" lon="7.32280492782593"><ele></ele><time>2013-8-8T4:22:5Z</time></trkpt>
<trkpt lat="46.3098030090332" lon="7.32278728485107"><ele></ele><time>2013-8-8T4:22:8Z</time></trkpt>
<trkpt lat="46.3097801208496" lon="7.3227686882019"><ele></ele><time>2013-8-8T4:22:11Z</time></trkpt>
<trkpt lat="46.3097305297852" lon="7.32270431518555"><ele></ele><time>2013-8-8T4:22:14Z</time></trkpt>
<trkpt lat="46.3096733093262" lon="7.32264757156372"><ele></ele><time>2013-8-8T4:22:17Z</time></trkpt>
<trkpt lat="46.3096580505371" lon="7.32262563705444"><ele></ele><time>2013-8-8T4:22:20Z</time></trkpt>
<trkpt lat="46.3096389770508" lon="7.32260322570801"><ele></ele><time>2013-8-8T4:22:23Z</time></trkpt>
<trkpt lat="46.3096237182617" lon="7.32258176803589"><ele></ele><time>2013-8-8T4:22:26Z</time></trkpt>
<trkpt lat="46.3096008300781" lon="7.3225622177124"><ele></ele><time>2013-8-8T4:22:29Z</time></trkpt>
<trkpt lat="46.3095016479492" lon="7.32245540618896"><ele></ele><time>2013-8-8T4:22:32Z</time></trkpt>
<trkpt lat="46.3094825744629" lon="7.32244300842285"><ele></ele><time>2013-8-8T4:22:35Z</time></trkpt>
<trkpt lat="46.3094635009766" lon="7.32242441177368"><ele></ele><time>2013-8-8T4:22:38Z</time></trkpt>
<trkpt lat="46.309440612793" lon="7.3224048614502"><ele></ele><time>2013-8-8T4:22:41Z</time></trkpt>
<trkpt lat="46.3093490600586" lon="7.32231760025024"><ele></ele><time>2013-8-8T4:22:44Z</time></trkpt>
<trkpt lat="46.3093109130859" lon="7.32228326797485"><ele></ele><time>2013-8-8T4:22:47Z</time></trkpt>
<trkpt lat="46.3092880249023" lon="7.32226800918579"><ele></ele><time>2013-8-8T4:22:50Z</time></trkpt>
<trkpt lat="46.309268951416" lon="7.32225179672241"><ele></ele><time>2013-8-8T4:22:53Z</time></trkpt>
<trkpt lat="46.3092460632324" lon="7.32223796844482"><ele></ele><time>2013-8-8T4:22:56Z</time></trkpt>
<trkpt lat="46.3092269897461" lon="7.32222747802734"><ele></ele><time>2013-8-8T4:22:59Z</time></trkpt>
<trkpt lat="46.309211730957" lon="7.32220840454102"><ele></ele><time>2013-8-8T4:23:2Z</time></trkpt>
<trkpt lat="46.3091621398926" lon="7.32215023040772"><ele></ele><time>2013-8-8T4:23:5Z</time></trkpt>
<trkpt lat="46.3091506958008" lon="7.32212400436401"><ele></ele><time>2013-8-8T4:23:8Z</time></trkpt>
<trkpt lat="46.3091354370117" lon="7.32210206985474"><ele></ele><time>2013-8-8T4:23:11Z</time></trkpt>
<trkpt lat="46.3091201782227" lon="7.3220705986023"><ele></ele><time>2013-8-8T4:23:14Z</time></trkpt>
<trkpt lat="46.3091087341309" lon="7.32204294204712"><ele></ele><time>2013-8-8T4:23:17Z</time></trkpt>
<trkpt lat="46.3090896606445" lon="7.32188844680786"><ele></ele><time>2013-8-8T4:23:20Z</time></trkpt>
<trkpt lat="46.3090972900391" lon="7.32185125350952"><ele></ele><time>2013-8-8T4:23:23Z</time></trkpt>
<trkpt lat="46.3091011047363" lon="7.3218207359314"><ele></ele><time>2013-8-8T4:23:26Z</time></trkpt>
<trkpt lat="46.3091125488281" lon="7.3217921257019"><ele></ele><time>2013-8-8T4:23:29Z</time></trkpt>
<trkpt lat="46.3091163635254" lon="7.32176494598389"><ele></ele><time>2013-8-8T4:23:32Z</time></trkpt>
<trkpt lat="46.3091239929199" lon="7.32173347473144"><ele></ele><time>2013-8-8T4:23:35Z</time></trkpt>
<trkpt lat="46.3091506958008" lon="7.32168388366699"><ele></ele><time>2013-8-8T4:23:38Z</time></trkpt>
<trkpt lat="46.3091621398926" lon="7.32165908813476"><ele></ele><time>2013-8-8T4:23:41Z</time></trkpt>
<trkpt lat="46.3091812133789" lon="7.32163429260254"><ele></ele><time>2013-8-8T4:23:44Z</time></trkpt>
<trkpt lat="46.3092002868652" lon="7.3216028213501"><ele></ele><time>2013-8-8T4:23:47Z</time></trkpt>
<trkpt lat="46.3092193603516" lon="7.32158422470093"><ele></ele><time>2013-8-8T4:23:50Z</time></trkpt>
<trkpt lat="46.3092651367188" lon="7.32153129577637"><ele></ele><time>2013-8-8T4:23:53Z</time></trkpt>
<trkpt lat="46.3092803955078" lon="7.32151126861572"><ele></ele><time>2013-8-8T4:23:56Z</time></trkpt>
<trkpt lat="46.3092956542969" lon="7.32149171829224"><ele></ele><time>2013-8-8T4:23:59Z</time></trkpt>
<trkpt lat="46.3093109130859" lon="7.32147645950317"><ele></ele><time>2013-8-8T4:24:2Z</time></trkpt>
<trkpt lat="46.309326171875" lon="7.32145738601685"><ele></ele><time>2013-8-8T4:24:5Z</time></trkpt>
<trkpt lat="46.3094024658203" lon="7.32135105133057"><ele></ele><time>2013-8-8T4:24:8Z</time></trkpt>
<trkpt lat="46.3094139099121" lon="7.32132720947266"><ele></ele><time>2013-8-8T4:24:11Z</time></trkpt>
<trkpt lat="46.3094253540039" lon="7.32130432128906"><ele></ele><time>2013-8-8T4:24:14Z</time></trkpt>
<trkpt lat="46.3094367980957" lon="7.32128810882568"><ele></ele><time>2013-8-8T4:24:17Z</time></trkpt>
<trkpt lat="46.3094863891602" lon="7.32118701934814"><ele></ele><time>2013-8-8T4:24:20Z</time></trkpt>
<trkpt lat="46.309497833252" lon="7.32115888595581"><ele></ele><time>2013-8-8T4:24:23Z</time></trkpt>
<trkpt lat="46.3095092773438" lon="7.3211350440979"><ele></ele><time>2013-8-8T4:24:26Z</time></trkpt>
<trkpt lat="46.3095245361328" lon="7.32111024856567"><ele></ele><time>2013-8-8T4:24:29Z</time></trkpt>
<trkpt lat="46.3095359802246" lon="7.32108688354492"><ele></ele><time>2013-8-8T4:24:32Z</time></trkpt>
<trkpt lat="46.3095474243164" lon="7.32106494903564"><ele></ele><time>2013-8-8T4:24:35Z</time></trkpt>
<trkpt lat="46.3096084594727" lon="7.32099199295044"><ele></ele><time>2013-8-8T4:24:38Z</time></trkpt>
<trkpt lat="46.3096389770508" lon="7.32095384597778"><ele></ele><time>2013-8-8T4:24:41Z</time></trkpt>
<trkpt lat="46.3096542358398" lon="7.32093477249146"><ele></ele><time>2013-8-8T4:24:44Z</time></trkpt>
<trkpt lat="46.3096694946289" lon="7.32091188430786"><ele></ele><time>2013-8-8T4:24:47Z</time></trkpt>
<trkpt lat="46.3096809387207" lon="7.3208818435669"><ele></ele><time>2013-8-8T4:24:50Z</time></trkpt>
<trkpt lat="46.3096961975098" lon="7.32084465026856"><ele></ele><time>2013-8-8T4:24:53Z</time></trkpt>
<trkpt lat="46.3097076416016" lon="7.3208155632019"><ele></ele><time>2013-8-8T4:24:56Z</time></trkpt>
<trkpt lat="46.309757232666" lon="7.32070684432983"><ele></ele><time>2013-8-8T4:24:59Z</time></trkpt>
<trkpt lat="46.3097686767578" lon="7.32067632675171"><ele></ele><time>2013-8-8T4:25:2Z</time></trkpt>
<trkpt lat="46.3097801208496" lon="7.32064294815064"><ele></ele><time>2013-8-8T4:25:5Z</time></trkpt>
<trkpt lat="46.3097915649414" lon="7.3206033706665"><ele></ele><time>2013-8-8T4:25:8Z</time></trkpt>
<trkpt lat="46.3098030090332" lon="7.3205680847168"><ele></ele><time>2013-8-8T4:25:11Z</time></trkpt>
<trkpt lat="46.3098297119141" lon="7.32043933868408"><ele></ele><time>2013-8-8T4:25:14Z</time></trkpt>
<trkpt lat="46.3098945617676" lon="7.32023811340332"><ele></ele><time>2013-8-8T4:25:17Z</time></trkpt>
<trkpt lat="46.3099021911621" lon="7.32020950317383"><ele></ele><time>2013-8-8T4:25:20Z</time></trkpt>
<trkpt lat="46.3099060058594" lon="7.3201789855957"><ele></ele><time>2013-8-8T4:25:23Z</time></trkpt>
<trkpt lat="46.3099174499512" lon="7.32015323638916"><ele></ele><time>2013-8-8T4:25:26Z</time></trkpt>
<trkpt lat="46.3099250793457" lon="7.3201208114624"><ele></ele><time>2013-8-8T4:25:29Z</time></trkpt>
<trkpt lat="46.3099365234375" lon="7.32008934020996"><ele></ele><time>2013-8-8T4:25:32Z</time></trkpt>
<trkpt lat="46.3099670410156" lon="7.32000350952148"><ele></ele><time>2013-8-8T4:25:35Z</time></trkpt>
<trkpt lat="46.3100280761719" lon="7.31977558135986"><ele></ele><time>2013-8-8T4:25:38Z</time></trkpt>
<trkpt lat="46.3100547790527" lon="7.31970071792602"><ele></ele><time>2013-8-8T4:25:41Z</time></trkpt>
<trkpt lat="46.310131072998" lon="7.31959438323975"><ele></ele><time>2013-8-8T4:25:44Z</time></trkpt>
<trkpt lat="46.3101501464844" lon="7.3195686340332"><ele></ele><time>2013-8-8T4:25:47Z</time></trkpt>
<trkpt lat="46.3103103637695" lon="7.31948137283325"><ele></ele><time>2013-8-8T4:25:50Z</time></trkpt>
<trkpt lat="46.3104019165039" lon="7.31944179534912"><ele></ele><time>2013-8-8T4:25:53Z</time></trkpt>
<trkpt lat="46.310432434082" lon="7.31942653656006"><ele></ele><time>2013-8-8T4:25:56Z</time></trkpt>
<trkpt lat="46.3112487792969" lon="7.31891012191772"><ele></ele><time>2013-8-8T4:25:59Z</time></trkpt>
<trkpt lat="46.3113288879394" lon="7.31890439987183"><ele></ele><time>2013-8-8T4:26:2Z</time></trkpt>
<trkpt lat="46.3114471435547" lon="7.31888055801392"><ele></ele><time>2013-8-8T4:26:5Z</time></trkpt>
<trkpt lat="46.3115425109863" lon="7.31881427764893"><ele></ele><time>2013-8-8T4:26:8Z</time></trkpt>
<trkpt lat="46.3117256164551" lon="7.31866407394409"><ele></ele><time>2013-8-8T4:26:11Z</time></trkpt>
<trkpt lat="46.3117904663086" lon="7.31862545013428"><ele></ele><time>2013-8-8T4:26:14Z</time></trkpt>
<trkpt lat="46.3118171691894" lon="7.31859970092774"><ele></ele><time>2013-8-8T4:26:17Z</time></trkpt>
<trkpt lat="46.3118362426758" lon="7.31856966018677"><ele></ele><time>2013-8-8T4:26:20Z</time></trkpt>
<trkpt lat="46.3118553161621" lon="7.31853866577148"><ele></ele><time>2013-8-8T4:26:23Z</time></trkpt>
<trkpt lat="46.311882019043" lon="7.31849670410156"><ele></ele><time>2013-8-8T4:26:26Z</time></trkpt>
<trkpt lat="46.311897277832" lon="7.31845569610596"><ele></ele><time>2013-8-8T4:26:29Z</time></trkpt>
<trkpt lat="46.3119773864746" lon="7.3182520866394"><ele></ele><time>2013-8-8T4:26:32Z</time></trkpt>
<trkpt lat="46.3119926452637" lon="7.31820917129517"><ele></ele><time>2013-8-8T4:26:35Z</time></trkpt>
<trkpt lat="46.3120040893555" lon="7.31817483901978"><ele></ele><time>2013-8-8T4:26:38Z</time></trkpt>
<trkpt lat="46.3120231628418" lon="7.31814765930176"><ele></ele><time>2013-8-8T4:26:41Z</time></trkpt>
<trkpt lat="46.3120422363281" lon="7.31812191009522"><ele></ele><time>2013-8-8T4:26:44Z</time></trkpt>
<trkpt lat="46.3120803833008" lon="7.31806707382202"><ele></ele><time>2013-8-8T4:26:47Z</time></trkpt>
<trkpt lat="46.3120994567871" lon="7.31804275512695"><ele></ele><time>2013-8-8T4:26:50Z</time></trkpt>
<trkpt lat="46.3121185302734" lon="7.31801509857178"><ele></ele><time>2013-8-8T4:26:53Z</time></trkpt>
<trkpt lat="46.3121376037598" lon="7.31798934936524"><ele></ele><time>2013-8-8T4:26:56Z</time></trkpt>
<trkpt lat="46.3121528625488" lon="7.31796264648438"><ele></ele><time>2013-8-8T4:26:59Z</time></trkpt>
<trkpt lat="46.3122291564941" lon="7.31786632537842"><ele></ele><time>2013-8-8T4:27:2Z</time></trkpt>
<trkpt lat="46.3122444152832" lon="7.31784439086914"><ele></ele><time>2013-8-8T4:27:5Z</time></trkpt>
<trkpt lat="46.3122596740723" lon="7.3178219795227"><ele></ele><time>2013-8-8T4:27:8Z</time></trkpt>
<trkpt lat="46.3122749328613" lon="7.31779909133911"><ele></ele><time>2013-8-8T4:27:11Z</time></trkpt>
<trkpt lat="46.3122901916504" lon="7.31777191162109"><ele></ele><time>2013-8-8T4:27:14Z</time></trkpt>
<trkpt lat="46.3123054504394" lon="7.31774759292602"><ele></ele><time>2013-8-8T4:27:17Z</time></trkpt>
<trkpt lat="46.3123397827148" lon="7.31768655776978"><ele></ele><time>2013-8-8T4:27:20Z</time></trkpt>
<trkpt lat="46.3123512268066" lon="7.31765413284302"><ele></ele><time>2013-8-8T4:27:23Z</time></trkpt>
<trkpt lat="46.3123588562012" lon="7.31762790679932"><ele></ele><time>2013-8-8T4:27:26Z</time></trkpt>
<trkpt lat="46.312370300293" lon="7.31759738922119"><ele></ele><time>2013-8-8T4:27:29Z</time></trkpt>
<trkpt lat="46.3123817443848" lon="7.31756782531738"><ele></ele><time>2013-8-8T4:27:32Z</time></trkpt>
<trkpt lat="46.3124656677246" lon="7.31743478775024"><ele></ele><time>2013-8-8T4:27:35Z</time></trkpt>
<trkpt lat="46.3124809265137" lon="7.31740856170654"><ele></ele><time>2013-8-8T4:27:38Z</time></trkpt>
<trkpt lat="46.3124961853027" lon="7.31738424301148"><ele></ele><time>2013-8-8T4:27:41Z</time></trkpt>
<trkpt lat="46.3125114440918" lon="7.3173565864563"><ele></ele><time>2013-8-8T4:27:44Z</time></trkpt>
<trkpt lat="46.3125267028809" lon="7.31732320785522"><ele></ele><time>2013-8-8T4:27:47Z</time></trkpt>
<trkpt lat="46.3125419616699" lon="7.31729984283447"><ele></ele><time>2013-8-8T4:27:50Z</time></trkpt>
<trkpt lat="46.312572479248" lon="7.31725597381592"><ele></ele><time>2013-8-8T4:27:53Z</time></trkpt>
<trkpt lat="46.3126106262207" lon="7.31717872619629"><ele></ele><time>2013-8-8T4:27:56Z</time></trkpt>
<trkpt lat="46.312629699707" lon="7.31715822219849"><ele></ele><time>2013-8-8T4:27:59Z</time></trkpt>
<trkpt lat="46.3126449584961" lon="7.31713342666626"><ele></ele><time>2013-8-8T4:28:2Z</time></trkpt>
<trkpt lat="46.3126602172852" lon="7.31710815429688"><ele></ele><time>2013-8-8T4:28:5Z</time></trkpt>
<trkpt lat="46.3126792907715" lon="7.31708145141602"><ele></ele><time>2013-8-8T4:28:8Z</time></trkpt>
<trkpt lat="46.3126983642578" lon="7.31706047058106"><ele></ele><time>2013-8-8T4:28:11Z</time></trkpt>
<trkpt lat="46.3127555847168" lon="7.31697988510132"><ele></ele><time>2013-8-8T4:28:14Z</time></trkpt>
<trkpt lat="46.3127708435059" lon="7.31695652008057"><ele></ele><time>2013-8-8T4:28:17Z</time></trkpt>
<trkpt lat="46.3127899169922" lon="7.31693935394287"><ele></ele><time>2013-8-8T4:28:20Z</time></trkpt>
<trkpt lat="46.3128089904785" lon="7.31691932678223"><ele></ele><time>2013-8-8T4:28:23Z</time></trkpt>
<trkpt lat="46.3128280639648" lon="7.31689643859863"><ele></ele><time>2013-8-8T4:28:26Z</time></trkpt>
<trkpt lat="46.312915802002" lon="7.31680393218994"><ele></ele><time>2013-8-8T4:28:29Z</time></trkpt>
<trkpt lat="46.3129348754883" lon="7.31678819656372"><ele></ele><time>2013-8-8T4:28:32Z</time></trkpt>
<trkpt lat="46.3129501342773" lon="7.31677293777466"><ele></ele><time>2013-8-8T4:28:35Z</time></trkpt>
<trkpt lat="46.3129730224609" lon="7.3167552947998"><ele></ele><time>2013-8-8T4:28:38Z</time></trkpt>
<trkpt lat="46.3129920959473" lon="7.31673812866211"><ele></ele><time>2013-8-8T4:28:41Z</time></trkpt>
<trkpt lat="46.3130989074707" lon="7.31663942337036"><ele></ele><time>2013-8-8T4:28:44Z</time></trkpt>
<trkpt lat="46.313117980957" lon="7.31661939620972"><ele></ele><time>2013-8-8T4:28:47Z</time></trkpt>
<trkpt lat="46.3131370544434" lon="7.31660652160644"><ele></ele><time>2013-8-8T4:28:50Z</time></trkpt>
<trkpt lat="46.313159942627" lon="7.31659317016602"><ele></ele><time>2013-8-8T4:28:53Z</time></trkpt>
<trkpt lat="46.3132438659668" lon="7.31653547286987"><ele></ele><time>2013-8-8T4:28:56Z</time></trkpt>
<trkpt lat="46.3132629394531" lon="7.31651782989502"><ele></ele><time>2013-8-8T4:28:59Z</time></trkpt>
<trkpt lat="46.3132781982422" lon="7.31649971008301"><ele></ele><time>2013-8-8T4:29:2Z</time></trkpt>
<trkpt lat="46.3132972717285" lon="7.31648397445679"><ele></ele><time>2013-8-8T4:29:5Z</time></trkpt>
<trkpt lat="46.3133163452148" lon="7.31646728515625"><ele></ele><time>2013-8-8T4:29:8Z</time></trkpt>
<trkpt lat="46.3133735656738" lon="7.3164324760437"><ele></ele><time>2013-8-8T4:29:11Z</time></trkpt>
<trkpt lat="46.3134346008301" lon="7.31639862060547"><ele></ele><time>2013-8-8T4:29:14Z</time></trkpt>
<trkpt lat="46.3134536743164" lon="7.31638622283936"><ele></ele><time>2013-8-8T4:29:17Z</time></trkpt>
<trkpt lat="46.3134765625" lon="7.31637811660767"><ele></ele><time>2013-8-8T4:29:20Z</time></trkpt>
<trkpt lat="46.3134956359863" lon="7.3163743019104"><ele></ele><time>2013-8-8T4:29:23Z</time></trkpt>
<trkpt lat="46.3135185241699" lon="7.31637144088745"><ele></ele><time>2013-8-8T4:29:26Z</time></trkpt>
<trkpt lat="46.3136596679688" lon="7.31634569168091"><ele></ele><time>2013-8-8T4:29:29Z</time></trkpt>
<trkpt lat="46.3137130737305" lon="7.31632947921753"><ele></ele><time>2013-8-8T4:29:32Z</time></trkpt>
<trkpt lat="46.3137397766113" lon="7.31631517410278"><ele></ele><time>2013-8-8T4:29:35Z</time></trkpt>
<trkpt lat="46.3137626647949" lon="7.31630897521973"><ele></ele><time>2013-8-8T4:29:38Z</time></trkpt>
<trkpt lat="46.3137817382812" lon="7.31629467010498"><ele></ele><time>2013-8-8T4:29:41Z</time></trkpt>
<trkpt lat="46.3138046264648" lon="7.31627988815308"><ele></ele><time>2013-8-8T4:29:44Z</time></trkpt>
<trkpt lat="46.3139801025391" lon="7.31615829467774"><ele></ele><time>2013-8-8T4:29:47Z</time></trkpt>
<trkpt lat="46.3140678405762" lon="7.31605958938599"><ele></ele><time>2013-8-8T4:29:50Z</time></trkpt>
<trkpt lat="46.3140907287598" lon="7.31603288650513"><ele></ele><time>2013-8-8T4:29:53Z</time></trkpt>
<trkpt lat="46.3141174316406" lon="7.31601095199585"><ele></ele><time>2013-8-8T4:29:56Z</time></trkpt>
<trkpt lat="46.3141403198242" lon="7.31598615646362"><ele></ele><time>2013-8-8T4:29:59Z</time></trkpt>
<trkpt lat="46.3141632080078" lon="7.31595993041992"><ele></ele><time>2013-8-8T4:30:2Z</time></trkpt>
<trkpt lat="46.314323425293" lon="7.31578254699707"><ele></ele><time>2013-8-8T4:30:5Z</time></trkpt>
<trkpt lat="46.314395904541" lon="7.31571102142334"><ele></ele><time>2013-8-8T4:30:8Z</time></trkpt>
<trkpt lat="46.3144226074219" lon="7.3156943321228"><ele></ele><time>2013-8-8T4:30:11Z</time></trkpt>
<trkpt lat="46.3144454956055" lon="7.31567811965942"><ele></ele><time>2013-8-8T4:30:14Z</time></trkpt>
<trkpt lat="46.3144760131836" lon="7.31566095352173"><ele></ele><time>2013-8-8T4:30:17Z</time></trkpt>
<trkpt lat="46.3145027160644" lon="7.31564140319824"><ele></ele><time>2013-8-8T4:30:20Z</time></trkpt>
<trkpt lat="46.3145332336426" lon="7.31562328338623"><ele></ele><time>2013-8-8T4:30:23Z</time></trkpt>
<trkpt lat="46.3147506713867" lon="7.3155345916748"><ele></ele><time>2013-8-8T4:30:26Z</time></trkpt>
<trkpt lat="46.3149452209473" lon="7.31555366516113"><ele></ele><time>2013-8-8T4:30:29Z</time></trkpt>
<trkpt lat="46.3149757385254" lon="7.3155689239502"><ele></ele><time>2013-8-8T4:30:32Z</time></trkpt>
<trkpt lat="46.3149909973144" lon="7.31559896469116"><ele></ele><time>2013-8-8T4:30:35Z</time></trkpt>
<trkpt lat="46.315013885498" lon="7.31562852859497"><ele></ele><time>2013-8-8T4:30:38Z</time></trkpt>
<trkpt lat="46.3150329589844" lon="7.31565284729004"><ele></ele><time>2013-8-8T4:30:41Z</time></trkpt>
<trkpt lat="46.3151664733887" lon="7.31577348709106"><ele></ele><time>2013-8-8T4:30:44Z</time></trkpt>
<trkpt lat="46.3152275085449" lon="7.31580257415772"><ele></ele><time>2013-8-8T4:30:47Z</time></trkpt>
<trkpt lat="46.3152542114258" lon="7.31581354141235"><ele></ele><time>2013-8-8T4:30:50Z</time></trkpt>
<trkpt lat="46.3152847290039" lon="7.31582641601562"><ele></ele><time>2013-8-8T4:30:53Z</time></trkpt>
<trkpt lat="46.3153190612793" lon="7.3158221244812"><ele></ele><time>2013-8-8T4:30:56Z</time></trkpt>
<trkpt lat="46.3153533935547" lon="7.31581735610962"><ele></ele><time>2013-8-8T4:30:59Z</time></trkpt>
<trkpt lat="46.3154945373535" lon="7.31571578979492"><ele></ele><time>2013-8-8T4:31:2Z</time></trkpt>
<trkpt lat="46.3156890869141" lon="7.31550407409668"><ele></ele><time>2013-8-8T4:31:5Z</time></trkpt>
<trkpt lat="46.3157119750977" lon="7.31547594070435"><ele></ele><time>2013-8-8T4:31:8Z</time></trkpt>
<trkpt lat="46.3157386779785" lon="7.31545495986938"><ele></ele><time>2013-8-8T4:31:11Z</time></trkpt>
<trkpt lat="46.3157615661621" lon="7.31542730331421"><ele></ele><time>2013-8-8T4:31:14Z</time></trkpt>
<trkpt lat="46.3157844543457" lon="7.31540060043335"><ele></ele><time>2013-8-8T4:31:17Z</time></trkpt>
<trkpt lat="46.3158340454102" lon="7.3153715133667"><ele></ele><time>2013-8-8T4:31:20Z</time></trkpt>
<trkpt lat="46.3159332275391" lon="7.31526136398315"><ele></ele><time>2013-8-8T4:31:23Z</time></trkpt>
<trkpt lat="46.3159561157227" lon="7.31523847579956"><ele></ele><time>2013-8-8T4:31:26Z</time></trkpt>
<trkpt lat="46.3159790039062" lon="7.31521558761597"><ele></ele><time>2013-8-8T4:31:29Z</time></trkpt>
<trkpt lat="46.3159980773926" lon="7.31518936157226"><ele></ele><time>2013-8-8T4:31:32Z</time></trkpt>
<trkpt lat="46.3160247802734" lon="7.31517028808594"><ele></ele><time>2013-8-8T4:31:35Z</time></trkpt>
<trkpt lat="46.3161163330078" lon="7.31508731842041"><ele></ele><time>2013-8-8T4:31:38Z</time></trkpt>
<trkpt lat="46.3199272155762" lon="7.309166431427"><ele></ele><time>2013-8-8T4:31:41Z</time></trkpt>
<trkpt lat="46.3199157714844" lon="7.30911922454834"><ele></ele><time>2013-8-8T4:31:44Z</time></trkpt>
<trkpt lat="46.3199195861816" lon="7.30907678604126"><ele></ele><time>2013-8-8T4:31:47Z</time></trkpt>
<trkpt lat="46.3199234008789" lon="7.30904150009155"><ele></ele><time>2013-8-8T4:31:50Z</time></trkpt>
<trkpt lat="46.3199119567871" lon="7.30886507034302"><ele></ele><time>2013-8-8T4:31:53Z</time></trkpt>
<trkpt lat="46.3198890686035" lon="7.30870628356934"><ele></ele><time>2013-8-8T4:31:56Z</time></trkpt>
<trkpt lat="46.3198852539062" lon="7.30866432189941"><ele></ele><time>2013-8-8T4:31:59Z</time></trkpt>
<trkpt lat="46.3198738098144" lon="7.30862379074097"><ele></ele><time>2013-8-8T4:32:2Z</time></trkpt>
<trkpt lat="46.3198585510254" lon="7.30858659744263"><ele></ele><time>2013-8-8T4:32:5Z</time></trkpt>
<trkpt lat="46.3198432922363" lon="7.30854749679565"><ele></ele><time>2013-8-8T4:32:8Z</time></trkpt>
<trkpt lat="46.3197937011719" lon="7.30841445922852"><ele></ele><time>2013-8-8T4:32:11Z</time></trkpt>
<trkpt lat="46.3197364807129" lon="7.30821895599365"><ele></ele><time>2013-8-8T4:32:14Z</time></trkpt>
<trkpt lat="46.3197288513184" lon="7.30818605422974"><ele></ele><time>2013-8-8T4:32:17Z</time></trkpt>
<trkpt lat="46.3197174072266" lon="7.30815601348877"><ele></ele><time>2013-8-8T4:32:20Z</time></trkpt>
<trkpt lat="46.3197021484375" lon="7.30812406539917"><ele></ele><time>2013-8-8T4:32:23Z</time></trkpt>
<trkpt lat="46.3196868896484" lon="7.30808925628662"><ele></ele><time>2013-8-8T4:32:26Z</time></trkpt>
<trkpt lat="46.3196678161621" lon="7.3080244064331"><ele></ele><time>2013-8-8T4:32:29Z</time></trkpt>
<trkpt lat="46.3196220397949" lon="7.30790090560913"><ele></ele><time>2013-8-8T4:32:32Z</time></trkpt>
<trkpt lat="46.3196144104004" lon="7.30787181854248"><ele></ele><time>2013-8-8T4:32:35Z</time></trkpt>
<trkpt lat="46.3196067810059" lon="7.30784130096436"><ele></ele><time>2013-8-8T4:32:38Z</time></trkpt>
<trkpt lat="46.3196029663086" lon="7.30780982971191"><ele></ele><time>2013-8-8T4:32:41Z</time></trkpt>
<trkpt lat="46.3196067810059" lon="7.30777311325073"><ele></ele><time>2013-8-8T4:32:44Z</time></trkpt>
<trkpt lat="46.3196296691894" lon="7.3076639175415"><ele></ele><time>2013-8-8T4:32:47Z</time></trkpt>
<trkpt lat="46.319652557373" lon="7.30759477615356"><ele></ele><time>2013-8-8T4:32:50Z</time></trkpt>
<trkpt lat="46.3196640014648" lon="7.30756187438965"><ele></ele><time>2013-8-8T4:32:53Z</time></trkpt>
<trkpt lat="46.3196754455566" lon="7.30752992630005"><ele></ele><time>2013-8-8T4:32:56Z</time></trkpt>
<trkpt lat="46.3196868896484" lon="7.30749845504761"><ele></ele><time>2013-8-8T4:32:59Z</time></trkpt>
<trkpt lat="46.319694519043" lon="7.30746746063232"><ele></ele><time>2013-8-8T4:33:2Z</time></trkpt>
<trkpt lat="46.3197212219238" lon="7.30730104446411"><ele></ele><time>2013-8-8T4:33:5Z</time></trkpt>
<trkpt lat="46.3197288513184" lon="7.30726289749146"><ele></ele><time>2013-8-8T4:33:8Z</time></trkpt>
<trkpt lat="46.3197326660156" lon="7.30722522735596"><ele></ele><time>2013-8-8T4:33:11Z</time></trkpt>
<trkpt lat="46.3197402954102" lon="7.30718898773193"><ele></ele><time>2013-8-8T4:33:14Z</time></trkpt>
<trkpt lat="46.3197441101074" lon="7.30715084075928"><ele></ele><time>2013-8-8T4:33:17Z</time></trkpt>
<trkpt lat="46.3198013305664" lon="7.306969165802"><ele></ele><time>2013-8-8T4:33:20Z</time></trkpt>
<trkpt lat="46.3198127746582" lon="7.3069372177124"><ele></ele><time>2013-8-8T4:33:23Z</time></trkpt>
<trkpt lat="46.31982421875" lon="7.3069109916687"><ele></ele><time>2013-8-8T4:33:26Z</time></trkpt>
<trkpt lat="46.3198432922363" lon="7.30688524246216"><ele></ele><time>2013-8-8T4:33:29Z</time></trkpt>
<trkpt lat="46.3198585510254" lon="7.30686044692993"><ele></ele><time>2013-8-8T4:33:32Z</time></trkpt>
<trkpt lat="46.3198738098144" lon="7.30683469772339"><ele></ele><time>2013-8-8T4:33:35Z</time></trkpt>
<trkpt lat="46.3198928833008" lon="7.30680751800537"><ele></ele><time>2013-8-8T4:33:38Z</time></trkpt>
<trkpt lat="46.3200225830078" lon="7.30666303634644"><ele></ele><time>2013-8-8T4:33:41Z</time></trkpt>
<trkpt lat="46.3200454711914" lon="7.30664205551148"><ele></ele><time>2013-8-8T4:33:44Z</time></trkpt>
<trkpt lat="46.3200721740723" lon="7.30662202835083"><ele></ele><time>2013-8-8T4:33:47Z</time></trkpt>
<trkpt lat="46.3200912475586" lon="7.30660057067871"><ele></ele><time>2013-8-8T4:33:50Z</time></trkpt>
<trkpt lat="46.3201141357422" lon="7.30657482147217"><ele></ele><time>2013-8-8T4:33:53Z</time></trkpt>
<trkpt lat="46.3202133178711" lon="7.30647277832031"><ele></ele><time>2013-8-8T4:33:56Z</time></trkpt>
<trkpt lat="46.3202362060547" lon="7.30645132064819"><ele></ele><time>2013-8-8T4:33:59Z</time></trkpt>
<trkpt lat="46.320255279541" lon="7.30642890930176"><ele></ele><time>2013-8-8T4:34:2Z</time></trkpt>
<trkpt lat="46.3202743530273" lon="7.30640983581543"><ele></ele><time>2013-8-8T4:34:5Z</time></trkpt>
<trkpt lat="46.3202896118164" lon="7.30639171600342"><ele></ele><time>2013-8-8T4:34:8Z</time></trkpt>
<trkpt lat="46.3203659057617" lon="7.30630302429199"><ele></ele><time>2013-8-8T4:34:11Z</time></trkpt>
<trkpt lat="46.3203811645508" lon="7.3062801361084"><ele></ele><time>2013-8-8T4:34:14Z</time></trkpt>
<trkpt lat="46.3203964233398" lon="7.30625820159912"><ele></ele><time>2013-8-8T4:34:17Z</time></trkpt>
<trkpt lat="46.3204154968262" lon="7.30623388290405"><ele></ele><time>2013-8-8T4:34:20Z</time></trkpt>
<trkpt lat="46.3204307556152" lon="7.30620765686035"><ele></ele><time>2013-8-8T4:34:23Z</time></trkpt>
<trkpt lat="46.3204574584961" lon="7.30616331100464"><ele></ele><time>2013-8-8T4:34:26Z</time></trkpt>
<trkpt lat="46.3205108642578" lon="7.30610466003418"><ele></ele><time>2013-8-8T4:34:29Z</time></trkpt>
<trkpt lat="46.3205299377441" lon="7.30608177185059"><ele></ele><time>2013-8-8T4:34:32Z</time></trkpt>
<trkpt lat="46.3205490112305" lon="7.30606555938721"><ele></ele><time>2013-8-8T4:34:35Z</time></trkpt>
<trkpt lat="46.3205718994141" lon="7.30605220794678"><ele></ele><time>2013-8-8T4:34:38Z</time></trkpt>
<trkpt lat="46.3205947875977" lon="7.30604219436646"><ele></ele><time>2013-8-8T4:34:41Z</time></trkpt>
<trkpt lat="46.3207168579102" lon="7.30603361129761"><ele></ele><time>2013-8-8T4:34:44Z</time></trkpt>
<trkpt lat="46.320743560791" lon="7.30602979660034"><ele></ele><time>2013-8-8T4:34:47Z</time></trkpt>
<trkpt lat="46.3207702636719" lon="7.30602312088013"><ele></ele><time>2013-8-8T4:34:50Z</time></trkpt>
<trkpt lat="46.3207969665527" lon="7.30601406097412"><ele></ele><time>2013-8-8T4:34:53Z</time></trkpt>
<trkpt lat="46.3208160400391" lon="7.30599975585938"><ele></ele><time>2013-8-8T4:34:56Z</time></trkpt>
<trkpt lat="46.3208503723144" lon="7.30595350265503"><ele></ele><time>2013-8-8T4:34:59Z</time></trkpt>
<trkpt lat="46.3208694458008" lon="7.30588912963867"><ele></ele><time>2013-8-8T4:35:2Z</time></trkpt>
<trkpt lat="46.320873260498" lon="7.30585384368896"><ele></ele><time>2013-8-8T4:35:5Z</time></trkpt>
<trkpt lat="46.3208770751953" lon="7.30581378936768"><ele></ele><time>2013-8-8T4:35:8Z</time></trkpt>
<trkpt lat="46.3208808898926" lon="7.30577278137207"><ele></ele><time>2013-8-8T4:35:11Z</time></trkpt>
<trkpt lat="46.3208885192871" lon="7.30573034286499"><ele></ele><time>2013-8-8T4:35:14Z</time></trkpt>
<trkpt lat="46.3208999633789" lon="7.30547428131104"><ele></ele><time>2013-8-8T4:35:17Z</time></trkpt>
<trkpt lat="46.3208999633789" lon="7.30543565750122"><ele></ele><time>2013-8-8T4:35:20Z</time></trkpt>
<trkpt lat="46.3209037780762" lon="7.30539894104004"><ele></ele><time>2013-8-8T4:35:23Z</time></trkpt>
<trkpt lat="46.3209114074707" lon="7.30536127090454"><ele></ele><time>2013-8-8T4:35:26Z</time></trkpt>
<trkpt lat="46.3209190368652" lon="7.30532455444336"><ele></ele><time>2013-8-8T4:35:29Z</time></trkpt>
<trkpt lat="46.3209342956543" lon="7.305260181427"><ele></ele><time>2013-8-8T4:35:32Z</time></trkpt>
<trkpt lat="46.3209686279297" lon="7.30517101287842"><ele></ele><time>2013-8-8T4:35:35Z</time></trkpt>
<trkpt lat="46.3209800720215" lon="7.30514287948608"><ele></ele><time>2013-8-8T4:35:38Z</time></trkpt>
<trkpt lat="46.3209915161133" lon="7.30511569976807"><ele></ele><time>2013-8-8T4:35:41Z</time></trkpt>
<trkpt lat="46.3210067749023" lon="7.30508852005005"><ele></ele><time>2013-8-8T4:35:44Z</time></trkpt>
<trkpt lat="46.3210220336914" lon="7.30506229400635"><ele></ele><time>2013-8-8T4:35:47Z</time></trkpt>
<trkpt lat="46.3210754394531" lon="7.30499219894409"><ele></ele><time>2013-8-8T4:35:50Z</time></trkpt>
<trkpt lat="46.3210945129394" lon="7.3049726486206"><ele></ele><time>2013-8-8T4:35:53Z</time></trkpt>
<trkpt lat="46.3211135864258" lon="7.3049521446228"><ele></ele><time>2013-8-8T4:35:56Z</time></trkpt>
<trkpt lat="46.3211364746094" lon="7.30493497848511"><ele></ele><time>2013-8-8T4:35:59Z</time></trkpt>
<trkpt lat="46.3211555480957" lon="7.30492258071899"><ele></ele><time>2013-8-8T4:36:2Z</time></trkpt>
<trkpt lat="46.3212585449219" lon="7.30484867095947"><ele></ele><time>2013-8-8T4:36:5Z</time></trkpt>
<trkpt lat="46.3212776184082" lon="7.30483055114746"><ele></ele><time>2013-8-8T4:36:8Z</time></trkpt>
<trkpt lat="46.3213005065918" lon="7.30481386184692"><ele></ele><time>2013-8-8T4:36:11Z</time></trkpt>
<trkpt lat="46.3213233947754" lon="7.30479955673218"><ele></ele><time>2013-8-8T4:36:14Z</time></trkpt>
<trkpt lat="46.3213424682617" lon="7.3047833442688"><ele></ele><time>2013-8-8T4:36:17Z</time></trkpt>
<trkpt lat="46.3214073181152" lon="7.30474233627319"><ele></ele><time>2013-8-8T4:36:20Z</time></trkpt>
<trkpt lat="46.3214492797852" lon="7.30471849441528"><ele></ele><time>2013-8-8T4:36:23Z</time></trkpt>
<trkpt lat="46.3214721679688" lon="7.30469942092896"><ele></ele><time>2013-8-8T4:36:26Z</time></trkpt>
<trkpt lat="46.3214950561523" lon="7.30468463897705"><ele></ele><time>2013-8-8T4:36:29Z</time></trkpt>
<trkpt lat="46.3215179443359" lon="7.30467128753662"><ele></ele><time>2013-8-8T4:36:32Z</time></trkpt>
<trkpt lat="46.3215370178223" lon="7.3046555519104"><ele></ele><time>2013-8-8T4:36:35Z</time></trkpt>
<trkpt lat="46.3216438293457" lon="7.30458498001099"><ele></ele><time>2013-8-8T4:36:38Z</time></trkpt>
<trkpt lat="46.3216667175293" lon="7.30457258224487"><ele></ele><time>2013-8-8T4:36:41Z</time></trkpt>
<trkpt lat="46.3216896057129" lon="7.30455732345581"><ele></ele><time>2013-8-8T4:36:44Z</time></trkpt>
<trkpt lat="46.3217086791992" lon="7.30453968048096"><ele></ele><time>2013-8-8T4:36:47Z</time></trkpt>
<trkpt lat="46.3217315673828" lon="7.30452060699463"><ele></ele><time>2013-8-8T4:36:50Z</time></trkpt>
<trkpt lat="46.3218421936035" lon="7.30443954467774"><ele></ele><time>2013-8-8T4:36:53Z</time></trkpt>
<trkpt lat="46.3218650817871" lon="7.30442476272583"><ele></ele><time>2013-8-8T4:36:56Z</time></trkpt>
<trkpt lat="46.3218879699707" lon="7.30440759658814"><ele></ele><time>2013-8-8T4:36:59Z</time></trkpt>
<trkpt lat="46.321907043457" lon="7.30438852310181"><ele></ele><time>2013-8-8T4:37:2Z</time></trkpt>
<trkpt lat="46.3219299316406" lon="7.3043704032898"><ele></ele><time>2013-8-8T4:37:5Z</time></trkpt>
<trkpt lat="46.3220367431641" lon="7.3042802810669"><ele></ele><time>2013-8-8T4:37:8Z</time></trkpt>
<trkpt lat="46.3220596313477" lon="7.30426406860352"><ele></ele><time>2013-8-8T4:37:11Z</time></trkpt>
<trkpt lat="46.322078704834" lon="7.30424928665161"><ele></ele><time>2013-8-8T4:37:14Z</time></trkpt>
<trkpt lat="46.3221015930176" lon="7.30423307418823"><ele></ele><time>2013-8-8T4:37:17Z</time></trkpt>
<trkpt lat="46.3221244812012" lon="7.30421495437622"><ele></ele><time>2013-8-8T4:37:20Z</time></trkpt>
<trkpt lat="46.322208404541" lon="7.30414724349976"><ele></ele><time>2013-8-8T4:37:23Z</time></trkpt>
<trkpt lat="46.3222312927246" lon="7.30413150787354"><ele></ele><time>2013-8-8T4:37:26Z</time></trkpt>
<trkpt lat="46.3222541809082" lon="7.30411243438721"><ele></ele><time>2013-8-8T4:37:29Z</time></trkpt>
<trkpt lat="46.3222808837891" lon="7.30409383773804"><ele></ele><time>2013-8-8T4:37:32Z</time></trkpt>
<trkpt lat="46.3223075866699" lon="7.30407333374024"><ele></ele><time>2013-8-8T4:37:35Z</time></trkpt>
<trkpt lat="46.3223915100098" lon="7.30400657653809"><ele></ele><time>2013-8-8T4:37:38Z</time></trkpt>
<trkpt lat="46.3224105834961" lon="7.30398845672607"><ele></ele><time>2013-8-8T4:37:41Z</time></trkpt>
<trkpt lat="46.3224296569824" lon="7.3039698600769"><ele></ele><time>2013-8-8T4:37:44Z</time></trkpt>
<trkpt lat="46.3224487304688" lon="7.30394983291626"><ele></ele><time>2013-8-8T4:37:47Z</time></trkpt>
<trkpt lat="46.3224678039551" lon="7.30392932891846"><ele></ele><time>2013-8-8T4:37:50Z</time></trkpt>
<trkpt lat="46.3224830627441" lon="7.3039083480835"><ele></ele><time>2013-8-8T4:37:53Z</time></trkpt>
<trkpt lat="46.3225135803223" lon="7.30386066436768"><ele></ele><time>2013-8-8T4:37:56Z</time></trkpt>
<trkpt lat="46.3225402832031" lon="7.30380392074585"><ele></ele><time>2013-8-8T4:37:59Z</time></trkpt>
<trkpt lat="46.3225517272949" lon="7.30377006530762"><ele></ele><time>2013-8-8T4:38:2Z</time></trkpt>
<trkpt lat="46.3225593566894" lon="7.30373239517212"><ele></ele><time>2013-8-8T4:38:5Z</time></trkpt>
<trkpt lat="46.3225631713867" lon="7.30369663238525"><ele></ele><time>2013-8-8T4:38:8Z</time></trkpt>
<trkpt lat="46.322566986084" lon="7.30365943908691"><ele></ele><time>2013-8-8T4:38:11Z</time></trkpt>
<trkpt lat="46.3225746154785" lon="7.30362558364868"><ele></ele><time>2013-8-8T4:38:14Z</time></trkpt>
<trkpt lat="46.3226051330566" lon="7.30346202850342"><ele></ele><time>2013-8-8T4:38:17Z</time></trkpt>
<trkpt lat="46.3226089477539" lon="7.3034291267395"><ele></ele><time>2013-8-8T4:38:20Z</time></trkpt>
<trkpt lat="46.3226165771484" lon="7.30339527130127"><ele></ele><time>2013-8-8T4:38:23Z</time></trkpt>
<trkpt lat="46.3226203918457" lon="7.3033618927002"><ele></ele><time>2013-8-8T4:38:26Z</time></trkpt>
<trkpt lat="46.3226280212402" lon="7.30332899093628"><ele></ele><time>2013-8-8T4:38:29Z</time></trkpt>
<trkpt lat="46.3226585388184" lon="7.30317974090576"><ele></ele><time>2013-8-8T4:38:32Z</time></trkpt>
<trkpt lat="46.3226623535156" lon="7.30314874649048"><ele></ele><time>2013-8-8T4:38:35Z</time></trkpt>
<trkpt lat="46.3226699829102" lon="7.30311822891235"><ele></ele><time>2013-8-8T4:38:38Z</time></trkpt>
<trkpt lat="46.3226776123047" lon="7.30308771133423"><ele></ele><time>2013-8-8T4:38:41Z</time></trkpt>
<trkpt lat="46.3226852416992" lon="7.30305671691894"><ele></ele><time>2013-8-8T4:38:44Z</time></trkpt>
<trkpt lat="46.322696685791" lon="7.30295896530151"><ele></ele><time>2013-8-8T4:38:47Z</time></trkpt>
<trkpt lat="46.322696685791" lon="7.30292463302612"><ele></ele><time>2013-8-8T4:38:50Z</time></trkpt>
<trkpt lat="46.322696685791" lon="7.30289077758789"><ele></ele><time>2013-8-8T4:38:53Z</time></trkpt>
<trkpt lat="46.3226928710938" lon="7.30285739898682"><ele></ele><time>2013-8-8T4:38:56Z</time></trkpt>
<trkpt lat="46.3226356506348" lon="7.30263423919678"><ele></ele><time>2013-8-8T4:38:59Z</time></trkpt>
<trkpt lat="46.322624206543" lon="7.30260562896728"><ele></ele><time>2013-8-8T4:39:2Z</time></trkpt>
<trkpt lat="46.3226089477539" lon="7.30257987976074"><ele></ele><time>2013-8-8T4:39:5Z</time></trkpt>
<trkpt lat="46.3225975036621" lon="7.30254983901978"><ele></ele><time>2013-8-8T4:39:8Z</time></trkpt>
<trkpt lat="46.3225860595703" lon="7.3025164604187"><ele></ele><time>2013-8-8T4:39:11Z</time></trkpt>
<trkpt lat="46.3225440979004" lon="7.30244016647339"><ele></ele><time>2013-8-8T4:39:14Z</time></trkpt>
<trkpt lat="46.3224983215332" lon="7.30236101150513"><ele></ele><time>2013-8-8T4:39:17Z</time></trkpt>
<trkpt lat="46.3224830627441" lon="7.30233430862427"><ele></ele><time>2013-8-8T4:39:20Z</time></trkpt>
<trkpt lat="46.3224716186523" lon="7.30230665206909"><ele></ele><time>2013-8-8T4:39:23Z</time></trkpt>
<trkpt lat="46.322452545166" lon="7.30227088928223"><ele></ele><time>2013-8-8T4:39:26Z</time></trkpt>
<trkpt lat="46.322437286377" lon="7.3022346496582"><ele></ele><time>2013-8-8T4:39:29Z</time></trkpt>
<trkpt lat="46.3224029541016" lon="7.30208492279053"><ele></ele><time>2013-8-8T4:39:32Z</time></trkpt>
<trkpt lat="46.3224029541016" lon="7.30205249786377"><ele></ele><time>2013-8-8T4:39:35Z</time></trkpt>
<trkpt lat="46.3224067687988" lon="7.3020191192627"><ele></ele><time>2013-8-8T4:39:38Z</time></trkpt>
<trkpt lat="46.3224105834961" lon="7.30198097229004"><ele></ele><time>2013-8-8T4:39:41Z</time></trkpt>
<trkpt lat="46.3224105834961" lon="7.30194520950317"><ele></ele><time>2013-8-8T4:39:44Z</time></trkpt>
<trkpt lat="46.3224182128906" lon="7.30191278457642"><ele></ele><time>2013-8-8T4:39:47Z</time></trkpt>
<trkpt lat="46.3224411010742" lon="7.30177450180054"><ele></ele><time>2013-8-8T4:39:50Z</time></trkpt>
<trkpt lat="46.3224487304688" lon="7.3017373085022"><ele></ele><time>2013-8-8T4:39:53Z</time></trkpt>
<trkpt lat="46.322452545166" lon="7.30169916152954"><ele></ele><time>2013-8-8T4:39:56Z</time></trkpt>
<trkpt lat="46.3224601745606" lon="7.30166387557983"><ele></ele><time>2013-8-8T4:39:59Z</time></trkpt>
<trkpt lat="46.3224639892578" lon="7.30162906646728"><ele></ele><time>2013-8-8T4:40:2Z</time></trkpt>
<trkpt lat="46.3224639892578" lon="7.3015570640564"><ele></ele><time>2013-8-8T4:40:5Z</time></trkpt>
<trkpt lat="46.3224563598633" lon="7.30143928527832"><ele></ele><time>2013-8-8T4:40:8Z</time></trkpt>
<trkpt lat="46.3224449157715" lon="7.30140352249146"><ele></ele><time>2013-8-8T4:40:11Z</time></trkpt>
<trkpt lat="46.3224296569824" lon="7.30136775970459"><ele></ele><time>2013-8-8T4:40:14Z</time></trkpt>
<trkpt lat="46.3224105834961" lon="7.30133152008057"><ele></ele><time>2013-8-8T4:40:17Z</time></trkpt>
<trkpt lat="46.3223915100098" lon="7.30129814147949"><ele></ele><time>2013-8-8T4:40:20Z</time></trkpt>
<trkpt lat="46.3223037719727" lon="7.30117273330688"><ele></ele><time>2013-8-8T4:40:23Z</time></trkpt>
<trkpt lat="46.3222694396973" lon="7.30110836029053"><ele></ele><time>2013-8-8T4:40:26Z</time></trkpt>
<trkpt lat="46.3222503662109" lon="7.30107831954956"><ele></ele><time>2013-8-8T4:40:29Z</time></trkpt>
<trkpt lat="46.3222351074219" lon="7.30105113983154"><ele></ele><time>2013-8-8T4:40:32Z</time></trkpt>
<trkpt lat="46.3222160339356" lon="7.301025390625"><ele></ele><time>2013-8-8T4:40:35Z</time></trkpt>
<trkpt lat="46.3221969604492" lon="7.30099678039551"><ele></ele><time>2013-8-8T4:40:38Z</time></trkpt>
<trkpt lat="46.3221015930176" lon="7.30084466934204"><ele></ele><time>2013-8-8T4:40:41Z</time></trkpt>
<trkpt lat="46.3220901489258" lon="7.3008222579956"><ele></ele><time>2013-8-8T4:40:44Z</time></trkpt>
<trkpt lat="46.3220748901367" lon="7.30079555511475"><ele></ele><time>2013-8-8T4:40:47Z</time></trkpt>
<trkpt lat="46.3220634460449" lon="7.30077123641968"><ele></ele><time>2013-8-8T4:40:50Z</time></trkpt>
<trkpt lat="46.3220520019531" lon="7.30074644088745"><ele></ele><time>2013-8-8T4:40:53Z</time></trkpt>
<trkpt lat="46.3220176696777" lon="7.30062484741211"><ele></ele><time>2013-8-8T4:40:56Z</time></trkpt>
<trkpt lat="46.3220252990723" lon="7.30055809020996"><ele></ele><time>2013-8-8T4:40:59Z</time></trkpt>
<trkpt lat="46.3220329284668" lon="7.30052661895752"><ele></ele><time>2013-8-8T4:41:2Z</time></trkpt>
<trkpt lat="46.3220443725586" lon="7.30049896240234"><ele></ele><time>2013-8-8T4:41:5Z</time></trkpt>
<trkpt lat="46.3220634460449" lon="7.30047273635864"><ele></ele><time>2013-8-8T4:41:8Z</time></trkpt>
<trkpt lat="46.3221397399902" lon="7.30038738250732"><ele></ele><time>2013-8-8T4:41:11Z</time></trkpt>
<trkpt lat="46.3221588134766" lon="7.30036973953247"><ele></ele><time>2013-8-8T4:41:14Z</time></trkpt>
<trkpt lat="46.3221817016602" lon="7.30035543441772"><ele></ele><time>2013-8-8T4:41:17Z</time></trkpt>
<trkpt lat="46.3222045898438" lon="7.3003454208374"><ele></ele><time>2013-8-8T4:41:20Z</time></trkpt>
<trkpt lat="46.3222274780273" lon="7.30033683776856"><ele></ele><time>2013-8-8T4:41:23Z</time></trkpt>
<trkpt lat="46.3223571777344" lon="7.30031156539917"><ele></ele><time>2013-8-8T4:41:26Z</time></trkpt>
<trkpt lat="46.3224754333496" lon="7.3002758026123"><ele></ele><time>2013-8-8T4:41:29Z</time></trkpt>
<trkpt lat="46.3224945068359" lon="7.30026054382324"><ele></ele><time>2013-8-8T4:41:32Z</time></trkpt>
<trkpt lat="46.3225173950195" lon="7.30024576187134"><ele></ele><time>2013-8-8T4:41:35Z</time></trkpt>
<trkpt lat="46.3225402832031" lon="7.30022764205933"><ele></ele><time>2013-8-8T4:41:38Z</time></trkpt>
<trkpt lat="46.3225555419922" lon="7.30020523071289"><ele></ele><time>2013-8-8T4:41:41Z</time></trkpt>
<trkpt lat="46.3225936889648" lon="7.30015563964844"><ele></ele><time>2013-8-8T4:41:44Z</time></trkpt>
<trkpt lat="46.3226089477539" lon="7.300133228302"><ele></ele><time>2013-8-8T4:41:47Z</time></trkpt>
<trkpt lat="46.3226203918457" lon="7.30010747909546"><ele></ele><time>2013-8-8T4:41:50Z</time></trkpt>
<trkpt lat="46.3226737976074" lon="7.30000019073486"><ele></ele><time>2013-8-8T4:41:53Z</time></trkpt>
<trkpt lat="46.3226852416992" lon="7.29996871948242"><ele></ele><time>2013-8-8T4:41:56Z</time></trkpt>
<trkpt lat="46.322696685791" lon="7.29993772506714"><ele></ele><time>2013-8-8T4:41:59Z</time></trkpt>
<trkpt lat="46.3227081298828" lon="7.2999095916748"><ele></ele><time>2013-8-8T4:42:2Z</time></trkpt>
<trkpt lat="46.3227233886719" lon="7.29987812042236"><ele></ele><time>2013-8-8T4:42:5Z</time></trkpt>
<trkpt lat="46.3227615356445" lon="7.29976654052734"><ele></ele><time>2013-8-8T4:42:8Z</time></trkpt>
<trkpt lat="46.3227767944336" lon="7.29973983764648"><ele></ele><time>2013-8-8T4:42:11Z</time></trkpt>
<trkpt lat="46.3227920532227" lon="7.29971551895142"><ele></ele><time>2013-8-8T4:42:14Z</time></trkpt>
<trkpt lat="46.3228073120117" lon="7.29969263076782"><ele></ele><time>2013-8-8T4:42:17Z</time></trkpt>
<trkpt lat="46.322826385498" lon="7.29967069625854"><ele></ele><time>2013-8-8T4:42:20Z</time></trkpt>
<trkpt lat="46.3228454589844" lon="7.29964971542358"><ele></ele><time>2013-8-8T4:42:23Z</time></trkpt>
<trkpt lat="46.3228645324707" lon="7.29964017868042"><ele></ele><time>2013-8-8T4:42:26Z</time></trkpt>
<trkpt lat="46.3229331970215" lon="7.29962158203125"><ele></ele><time>2013-8-8T4:42:29Z</time></trkpt>
<trkpt lat="46.3229560852051" lon="7.29962062835693"><ele></ele><time>2013-8-8T4:42:32Z</time></trkpt>
<trkpt lat="46.3229866027832" lon="7.29962110519409"><ele></ele><time>2013-8-8T4:42:35Z</time></trkpt>
<trkpt lat="46.3230094909668" lon="7.29962205886841"><ele></ele><time>2013-8-8T4:42:38Z</time></trkpt>
<trkpt lat="46.3230361938477" lon="7.29962348937988"><ele></ele><time>2013-8-8T4:42:41Z</time></trkpt>
<trkpt lat="46.3231811523438" lon="7.29962730407715"><ele></ele><time>2013-8-8T4:42:44Z</time></trkpt>
<trkpt lat="46.3232078552246" lon="7.29962635040283"><ele></ele><time>2013-8-8T4:42:47Z</time></trkpt>
<trkpt lat="46.3232307434082" lon="7.29962730407715"><ele></ele><time>2013-8-8T4:42:50Z</time></trkpt>
<trkpt lat="46.3232536315918" lon="7.29962587356567"><ele></ele><time>2013-8-8T4:42:53Z</time></trkpt>
<trkpt lat="46.3232803344727" lon="7.29962396621704"><ele></ele><time>2013-8-8T4:42:56Z</time></trkpt>
<trkpt lat="46.3234024047852" lon="7.29959106445312"><ele></ele><time>2013-8-8T4:42:59Z</time></trkpt>
<trkpt lat="46.323429107666" lon="7.29957818984985"><ele></ele><time>2013-8-8T4:43:2Z</time></trkpt>
<trkpt lat="46.3234519958496" lon="7.29956150054932"><ele></ele><time>2013-8-8T4:43:5Z</time></trkpt>
<trkpt lat="46.3234748840332" lon="7.29954671859741"><ele></ele><time>2013-8-8T4:43:8Z</time></trkpt>
<trkpt lat="46.3235015869141" lon="7.2995285987854"><ele></ele><time>2013-8-8T4:43:11Z</time></trkpt>
<trkpt lat="46.3235702514648" lon="7.29947423934936"><ele></ele><time>2013-8-8T4:43:14Z</time></trkpt>
<trkpt lat="46.3236122131348" lon="7.29943037033081"><ele></ele><time>2013-8-8T4:43:17Z</time></trkpt>
<trkpt lat="46.3236274719238" lon="7.29940128326416"><ele></ele><time>2013-8-8T4:43:20Z</time></trkpt>
<trkpt lat="46.3236465454102" lon="7.29937410354614"><ele></ele><time>2013-8-8T4:43:23Z</time></trkpt>
<trkpt lat="46.3236618041992" lon="7.29934740066528"><ele></ele><time>2013-8-8T4:43:26Z</time></trkpt>
<trkpt lat="46.3236770629883" lon="7.29932451248169"><ele></ele><time>2013-8-8T4:43:29Z</time></trkpt>
<trkpt lat="46.3237533569336" lon="7.29916381835938"><ele></ele><time>2013-8-8T4:43:32Z</time></trkpt>
<trkpt lat="46.3237648010254" lon="7.2991361618042"><ele></ele><time>2013-8-8T4:43:35Z</time></trkpt>
<trkpt lat="46.3237800598144" lon="7.29910755157471"><ele></ele><time>2013-8-8T4:43:38Z</time></trkpt>
<trkpt lat="46.3237915039062" lon="7.29907894134522"><ele></ele><time>2013-8-8T4:43:41Z</time></trkpt>
<trkpt lat="46.3238067626953" lon="7.2990550994873"><ele></ele><time>2013-8-8T4:43:44Z</time></trkpt>
<trkpt lat="46.323860168457" lon="7.29895067214966"><ele></ele><time>2013-8-8T4:43:47Z</time></trkpt>
<trkpt lat="46.3238716125488" lon="7.29891967773438"><ele></ele><time>2013-8-8T4:43:50Z</time></trkpt>
<trkpt lat="46.3238830566406" lon="7.29888916015625"><ele></ele><time>2013-8-8T4:43:53Z</time></trkpt>
<trkpt lat="46.3238906860352" lon="7.29885911941528"><ele></ele><time>2013-8-8T4:43:56Z</time></trkpt>
<trkpt lat="46.3239440917969" lon="7.29871225357056"><ele></ele><time>2013-8-8T4:43:59Z</time></trkpt>
<trkpt lat="46.3239555358887" lon="7.29868364334106"><ele></ele><time>2013-8-8T4:44:2Z</time></trkpt>
<trkpt lat="46.3239631652832" lon="7.2986536026001"><ele></ele><time>2013-8-8T4:44:5Z</time></trkpt>
<trkpt lat="46.3239707946777" lon="7.2986216545105"><ele></ele><time>2013-8-8T4:44:8Z</time></trkpt>
<trkpt lat="46.323974609375" lon="7.29858779907226"><ele></ele><time>2013-8-8T4:44:11Z</time></trkpt>
<trkpt lat="46.3240051269531" lon="7.29837846755982"><ele></ele><time>2013-8-8T4:44:14Z</time></trkpt>
<trkpt lat="46.3240127563477" lon="7.29834222793579"><ele></ele><time>2013-8-8T4:44:17Z</time></trkpt>
<trkpt lat="46.3240165710449" lon="7.29830646514893"><ele></ele><time>2013-8-8T4:44:20Z</time></trkpt>
<trkpt lat="46.3240203857422" lon="7.29827213287354"><ele></ele><time>2013-8-8T4:44:23Z</time></trkpt>
<trkpt lat="46.3240242004394" lon="7.29823875427246"><ele></ele><time>2013-8-8T4:44:26Z</time></trkpt>
<trkpt lat="46.3240280151367" lon="7.29813432693482"><ele></ele><time>2013-8-8T4:44:29Z</time></trkpt>
<trkpt lat="46.324031829834" lon="7.29810285568237"><ele></ele><time>2013-8-8T4:44:32Z</time></trkpt>
<trkpt lat="46.324031829834" lon="7.29806995391846"><ele></ele><time>2013-8-8T4:44:35Z</time></trkpt>
<trkpt lat="46.3240394592285" lon="7.29803991317749"><ele></ele><time>2013-8-8T4:44:38Z</time></trkpt>
<trkpt lat="46.3240432739258" lon="7.29800748825073"><ele></ele><time>2013-8-8T4:44:41Z</time></trkpt>
<trkpt lat="46.324047088623" lon="7.29797697067261"><ele></ele><time>2013-8-8T4:44:44Z</time></trkpt>
<trkpt lat="46.3240623474121" lon="7.29788064956665"><ele></ele><time>2013-8-8T4:44:47Z</time></trkpt>
<trkpt lat="46.3240814208984" lon="7.29783296585083"><ele></ele><time>2013-8-8T4:44:50Z</time></trkpt>
<trkpt lat="46.3240966796875" lon="7.29781007766724"><ele></ele><time>2013-8-8T4:44:53Z</time></trkpt>
<trkpt lat="46.3241081237793" lon="7.29778432846069"><ele></ele><time>2013-8-8T4:44:56Z</time></trkpt>
<trkpt lat="46.3241233825684" lon="7.29776525497436"><ele></ele><time>2013-8-8T4:44:59Z</time></trkpt>
<trkpt lat="46.3241386413574" lon="7.29774856567383"><ele></ele><time>2013-8-8T4:45:2Z</time></trkpt>
<trkpt lat="46.3241539001465" lon="7.2977294921875"><ele></ele><time>2013-8-8T4:45:5Z</time></trkpt>
<trkpt lat="46.3242111206055" lon="7.29764890670776"><ele></ele><time>2013-8-8T4:45:8Z</time></trkpt>
<trkpt lat="46.3242263793945" lon="7.29762554168701"><ele></ele><time>2013-8-8T4:45:11Z</time></trkpt>
<trkpt lat="46.3242416381836" lon="7.29760408401489"><ele></ele><time>2013-8-8T4:45:14Z</time></trkpt>
<trkpt lat="46.3242568969727" lon="7.29758358001709"><ele></ele><time>2013-8-8T4:45:17Z</time></trkpt>
<trkpt lat="46.324275970459" lon="7.2975640296936"><ele></ele><time>2013-8-8T4:45:20Z</time></trkpt>
<trkpt lat="46.3243370056152" lon="7.2974910736084"><ele></ele><time>2013-8-8T4:45:23Z</time></trkpt>
<trkpt lat="46.3243522644043" lon="7.29747438430786"><ele></ele><time>2013-8-8T4:45:26Z</time></trkpt>
<trkpt lat="46.3243713378906" lon="7.2974591255188"><ele></ele><time>2013-8-8T4:45:29Z</time></trkpt>
<trkpt lat="46.324390411377" lon="7.29744243621826"><ele></ele><time>2013-8-8T4:45:32Z</time></trkpt>
<trkpt lat="46.3244132995606" lon="7.29742765426636"><ele></ele><time>2013-8-8T4:45:35Z</time></trkpt>
<trkpt lat="46.3244781494141" lon="7.29738521575928"><ele></ele><time>2013-8-8T4:45:38Z</time></trkpt>
<trkpt lat="46.3245162963867" lon="7.29735040664673"><ele></ele><time>2013-8-8T4:45:41Z</time></trkpt>
<trkpt lat="46.3245315551758" lon="7.29733467102051"><ele></ele><time>2013-8-8T4:45:44Z</time></trkpt>
<trkpt lat="46.3245544433594" lon="7.29731798171997"><ele></ele><time>2013-8-8T4:45:47Z</time></trkpt>
<trkpt lat="46.3245735168457" lon="7.29730224609375"><ele></ele><time>2013-8-8T4:45:50Z</time></trkpt>
<trkpt lat="46.3246002197266" lon="7.2972903251648"><ele></ele><time>2013-8-8T4:45:53Z</time></trkpt>
<trkpt lat="46.3246955871582" lon="7.29726028442383"><ele></ele><time>2013-8-8T4:45:56Z</time></trkpt>
<trkpt lat="46.3247184753418" lon="7.29725074768066"><ele></ele><time>2013-8-8T4:45:59Z</time></trkpt>
<trkpt lat="46.3247413635254" lon="7.29724168777466"><ele></ele><time>2013-8-8T4:46:2Z</time></trkpt>
<trkpt lat="46.324764251709" lon="7.29722785949707"><ele></ele><time>2013-8-8T4:46:5Z</time></trkpt>
<trkpt lat="46.3247871398926" lon="7.29721784591675"><ele></ele><time>2013-8-8T4:46:8Z</time></trkpt>
<trkpt lat="46.3248481750488" lon="7.29719924926758"><ele></ele><time>2013-8-8T4:46:11Z</time></trkpt>
<trkpt lat="46.3248710632324" lon="7.29718923568726"><ele></ele><time>2013-8-8T4:46:14Z</time></trkpt>
<trkpt lat="46.324893951416" lon="7.29717969894409"><ele></ele><time>2013-8-8T4:46:17Z</time></trkpt>
<trkpt lat="46.3249206542969" lon="7.29717063903809"><ele></ele><time>2013-8-8T4:46:20Z</time></trkpt>
<trkpt lat="46.3249473571777" lon="7.29716157913208"><ele></ele><time>2013-8-8T4:46:23Z</time></trkpt>
<trkpt lat="46.3250160217285" lon="7.2971339225769"><ele></ele><time>2013-8-8T4:46:26Z</time></trkpt>
<trkpt lat="46.3250389099121" lon="7.29712343215942"><ele></ele><time>2013-8-8T4:46:29Z</time></trkpt>
<trkpt lat="46.3250579833984" lon="7.29711532592774"><ele></ele><time>2013-8-8T4:46:32Z</time></trkpt>
<trkpt lat="46.3250770568848" lon="7.29710292816162"><ele></ele><time>2013-8-8T4:46:35Z</time></trkpt>
<trkpt lat="46.3250961303711" lon="7.29708576202393"><ele></ele><time>2013-8-8T4:46:38Z</time></trkpt>
<trkpt lat="46.3251113891602" lon="7.29706954956055"><ele></ele><time>2013-8-8T4:46:41Z</time></trkpt>
<trkpt lat="46.3251762390137" lon="7.29702138900757"><ele></ele><time>2013-8-8T4:46:44Z</time></trkpt>
<trkpt lat="46.3252182006836" lon="7.29698657989502"><ele></ele><time>2013-8-8T4:46:47Z</time></trkpt>
<trkpt lat="46.3252372741699" lon="7.29696750640869"><ele></ele><time>2013-8-8T4:46:50Z</time></trkpt>
<trkpt lat="46.325252532959" lon="7.2969479560852"><ele></ele><time>2013-8-8T4:46:53Z</time></trkpt>
<trkpt lat="46.3252716064453" lon="7.29692268371582"><ele></ele><time>2013-8-8T4:46:56Z</time></trkpt>
<trkpt lat="46.3252906799316" lon="7.2969012260437"><ele></ele><time>2013-8-8T4:46:59Z</time></trkpt>
<trkpt lat="46.3253364562988" lon="7.2968282699585"><ele></ele><time>2013-8-8T4:47:2Z</time></trkpt>
<trkpt lat="46.3253517150879" lon="7.29680347442627"><ele></ele><time>2013-8-8T4:47:5Z</time></trkpt>
<trkpt lat="46.3253631591797" lon="7.29677295684814"><ele></ele><time>2013-8-8T4:47:8Z</time></trkpt>
<trkpt lat="46.3253746032715" lon="7.29674911499024"><ele></ele><time>2013-8-8T4:47:11Z</time></trkpt>
<trkpt lat="46.3253860473633" lon="7.29672479629517"><ele></ele><time>2013-8-8T4:47:14Z</time></trkpt>
<trkpt lat="46.3254203796387" lon="7.29661512374878"><ele></ele><time>2013-8-8T4:47:17Z</time></trkpt>
<trkpt lat="46.3254356384277" lon="7.29658889770508"><ele></ele><time>2013-8-8T4:47:20Z</time></trkpt>
<trkpt lat="46.3254432678223" lon="7.29656171798706"><ele></ele><time>2013-8-8T4:47:23Z</time></trkpt>
<trkpt lat="46.3254547119141" lon="7.29653167724609"><ele></ele><time>2013-8-8T4:47:26Z</time></trkpt>
<trkpt lat="46.3254661560059" lon="7.29650163650513"><ele></ele><time>2013-8-8T4:47:29Z</time></trkpt>
<trkpt lat="46.3254776000977" lon="7.29646921157837"><ele></ele><time>2013-8-8T4:47:32Z</time></trkpt>
<trkpt lat="46.3254890441894" lon="7.29643964767456"><ele></ele><time>2013-8-8T4:47:35Z</time></trkpt>
<trkpt lat="46.3255271911621" lon="7.29632616043091"><ele></ele><time>2013-8-8T4:47:38Z</time></trkpt>
<trkpt lat="46.3255386352539" lon="7.29629898071289"><ele></ele><time>2013-8-8T4:47:41Z</time></trkpt>
<trkpt lat="46.325553894043" lon="7.29626941680908"><ele></ele><time>2013-8-8T4:47:44Z</time></trkpt>
<trkpt lat="46.3255653381348" lon="7.29624080657959"><ele></ele><time>2013-8-8T4:47:47Z</time></trkpt>
<trkpt lat="46.3255767822266" lon="7.29621124267578"><ele></ele><time>2013-8-8T4:47:50Z</time></trkpt>
<trkpt lat="46.3256149291992" lon="7.29613399505615"><ele></ele><time>2013-8-8T4:47:53Z</time></trkpt>
<trkpt lat="46.3256225585938" lon="7.29610681533814"><ele></ele><time>2013-8-8T4:47:56Z</time></trkpt>
<trkpt lat="46.3256301879883" lon="7.29607915878296"><ele></ele><time>2013-8-8T4:47:59Z</time></trkpt>
<trkpt lat="46.3256378173828" lon="7.29605293273926"><ele></ele><time>2013-8-8T4:48:2Z</time></trkpt>
<trkpt lat="46.3256492614746" lon="7.29602718353272"><ele></ele><time>2013-8-8T4:48:5Z</time></trkpt>
<trkpt lat="46.32568359375" lon="7.29594421386719"><ele></ele><time>2013-8-8T4:48:8Z</time></trkpt>
<trkpt lat="46.3256950378418" lon="7.29591464996338"><ele></ele><time>2013-8-8T4:48:11Z</time></trkpt>
<trkpt lat="46.3257026672363" lon="7.29588842391968"><ele></ele><time>2013-8-8T4:48:14Z</time></trkpt>
<trkpt lat="46.3257141113281" lon="7.2958574295044"><ele></ele><time>2013-8-8T4:48:17Z</time></trkpt>
<trkpt lat="46.3257255554199" lon="7.29582691192627"><ele></ele><time>2013-8-8T4:48:20Z</time></trkpt>
<trkpt lat="46.3257751464844" lon="7.29569864273071"><ele></ele><time>2013-8-8T4:48:23Z</time></trkpt>
<trkpt lat="46.3257865905762" lon="7.2956748008728"><ele></ele><time>2013-8-8T4:48:26Z</time></trkpt>
<trkpt lat="46.3257942199707" lon="7.29564809799194"><ele></ele><time>2013-8-8T4:48:29Z</time></trkpt>
<trkpt lat="46.3258018493652" lon="7.29561805725098"><ele></ele><time>2013-8-8T4:48:32Z</time></trkpt>
<trkpt lat="46.325813293457" lon="7.29558992385864"><ele></ele><time>2013-8-8T4:48:35Z</time></trkpt>
<trkpt lat="46.3258781433106" lon="7.29547262191772"><ele></ele><time>2013-8-8T4:48:38Z</time></trkpt>
<trkpt lat="46.3258895874023" lon="7.29545307159424"><ele></ele><time>2013-8-8T4:48:41Z</time></trkpt>
<trkpt lat="46.3259048461914" lon="7.29543256759644"><ele></ele><time>2013-8-8T4:48:44Z</time></trkpt>
<trkpt lat="46.3259201049805" lon="7.29541444778442"><ele></ele><time>2013-8-8T4:48:47Z</time></trkpt>
<trkpt lat="46.3259353637695" lon="7.29539585113525"><ele></ele><time>2013-8-8T4:48:50Z</time></trkpt>
<trkpt lat="46.3259506225586" lon="7.29537916183472"><ele></ele><time>2013-8-8T4:48:53Z</time></trkpt>
<trkpt lat="46.3259773254394" lon="7.29533624649048"><ele></ele><time>2013-8-8T4:48:56Z</time></trkpt>
<trkpt lat="46.3260383605957" lon="7.29525470733643"><ele></ele><time>2013-8-8T4:48:59Z</time></trkpt>
<trkpt lat="46.3260726928711" lon="7.29520654678345"><ele></ele><time>2013-8-8T4:49:2Z</time></trkpt>
<trkpt lat="46.3260917663574" lon="7.29518842697144"><ele></ele><time>2013-8-8T4:49:5Z</time></trkpt>
<trkpt lat="46.3261184692383" lon="7.29516696929932"><ele></ele><time>2013-8-8T4:49:8Z</time></trkpt>
<trkpt lat="46.3261413574219" lon="7.29514074325562"><ele></ele><time>2013-8-8T4:49:11Z</time></trkpt>
<trkpt lat="46.3261642456055" lon="7.29511833190918"><ele></ele><time>2013-8-8T4:49:14Z</time></trkpt>
<trkpt lat="46.3262901306152" lon="7.29499340057373"><ele></ele><time>2013-8-8T4:49:17Z</time></trkpt>
<trkpt lat="46.3263092041016" lon="7.29497337341309"><ele></ele><time>2013-8-8T4:49:20Z</time></trkpt>
<trkpt lat="46.3263206481934" lon="7.29495191574097"><ele></ele><time>2013-8-8T4:49:23Z</time></trkpt>
<trkpt lat="46.326343536377" lon="7.29493618011475"><ele></ele><time>2013-8-8T4:49:26Z</time></trkpt>
<trkpt lat="46.3264350891113" lon="7.29484701156616"><ele></ele><time>2013-8-8T4:49:29Z</time></trkpt>
<trkpt lat="46.3264541625977" lon="7.29483079910278"><ele></ele><time>2013-8-8T4:49:32Z</time></trkpt>
<trkpt lat="46.326473236084" lon="7.29481792449951"><ele></ele><time>2013-8-8T4:49:35Z</time></trkpt>
<trkpt lat="46.326488494873" lon="7.29480409622192"><ele></ele><time>2013-8-8T4:49:38Z</time></trkpt>
<trkpt lat="46.3265075683594" lon="7.29478931427002"><ele></ele><time>2013-8-8T4:49:41Z</time></trkpt>
<trkpt lat="46.3265686035156" lon="7.29472303390503"><ele></ele><time>2013-8-8T4:49:44Z</time></trkpt>
<trkpt lat="46.3266220092773" lon="7.29467344284058"><ele></ele><time>2013-8-8T4:49:47Z</time></trkpt>
<trkpt lat="46.3266410827637" lon="7.29465436935425"><ele></ele><time>2013-8-8T4:49:50Z</time></trkpt>
<trkpt lat="46.3266563415527" lon="7.29463624954224"><ele></ele><time>2013-8-8T4:49:53Z</time></trkpt>
<trkpt lat="46.3266754150391" lon="7.29462099075317"><ele></ele><time>2013-8-8T4:49:56Z</time></trkpt>
<trkpt lat="46.3266906738281" lon="7.29460382461548"><ele></ele><time>2013-8-8T4:49:59Z</time></trkpt>
<trkpt lat="46.3267059326172" lon="7.29458665847778"><ele></ele><time>2013-8-8T4:50:2Z</time></trkpt>
<trkpt lat="46.3268127441406" lon="7.29448747634888"><ele></ele><time>2013-8-8T4:50:5Z</time></trkpt>
<trkpt lat="46.3268280029297" lon="7.2944712638855"><ele></ele><time>2013-8-8T4:50:8Z</time></trkpt>
<trkpt lat="46.326847076416" lon="7.29445695877075"><ele></ele><time>2013-8-8T4:50:11Z</time></trkpt>
<trkpt lat="46.3268661499023" lon="7.29444313049316"><ele></ele><time>2013-8-8T4:50:14Z</time></trkpt>
<trkpt lat="46.3268852233887" lon="7.29442644119263"><ele></ele><time>2013-8-8T4:50:17Z</time></trkpt>
<trkpt lat="46.326961517334" lon="7.29435586929321"><ele></ele><time>2013-8-8T4:50:20Z</time></trkpt>
<trkpt lat="46.326976776123" lon="7.29433679580688"><ele></ele><time>2013-8-8T4:50:23Z</time></trkpt>
<trkpt lat="46.3269958496094" lon="7.29431867599487"><ele></ele><time>2013-8-8T4:50:26Z</time></trkpt>
<trkpt lat="46.3270111083984" lon="7.29429626464844"><ele></ele><time>2013-8-8T4:50:29Z</time></trkpt>
<trkpt lat="46.3270263671875" lon="7.29427433013916"><ele></ele><time>2013-8-8T4:50:32Z</time></trkpt>
<trkpt lat="46.3270454406738" lon="7.29426097869873"><ele></ele><time>2013-8-8T4:50:35Z</time></trkpt>
<trkpt lat="46.3270988464356" lon="7.29421472549438"><ele></ele><time>2013-8-8T4:50:38Z</time></trkpt>
<trkpt lat="46.3271369934082" lon="7.29415273666382"><ele></ele><time>2013-8-8T4:50:41Z</time></trkpt>
<trkpt lat="46.3271484375" lon="7.29413223266602"><ele></ele><time>2013-8-8T4:50:44Z</time></trkpt>
<trkpt lat="46.3271636962891" lon="7.29411458969116"><ele></ele><time>2013-8-8T4:50:47Z</time></trkpt>
<trkpt lat="46.3271827697754" lon="7.29409742355347"><ele></ele><time>2013-8-8T4:50:50Z</time></trkpt>
<trkpt lat="46.327220916748" lon="7.29406213760376"><ele></ele><time>2013-8-8T4:50:53Z</time></trkpt>
<trkpt lat="46.3272895812988" lon="7.2939772605896"><ele></ele><time>2013-8-8T4:50:56Z</time></trkpt>
<trkpt lat="46.3273048400879" lon="7.29395198822022"><ele></ele><time>2013-8-8T4:50:59Z</time></trkpt>
<trkpt lat="46.327320098877" lon="7.29392194747925"><ele></ele><time>2013-8-8T4:51:2Z</time></trkpt>
<trkpt lat="46.3273391723633" lon="7.29389715194702"><ele></ele><time>2013-8-8T4:51:5Z</time></trkpt>
<trkpt lat="46.3273582458496" lon="7.29387044906616"><ele></ele><time>2013-8-8T4:51:8Z</time></trkpt>
<trkpt lat="46.3273963928223" lon="7.29379034042358"><ele></ele><time>2013-8-8T4:51:11Z</time></trkpt>
<trkpt lat="46.3274040222168" lon="7.29375743865967"><ele></ele><time>2013-8-8T4:51:14Z</time></trkpt>
<trkpt lat="46.3274307250977" lon="7.29365015029907"><ele></ele><time>2013-8-8T4:51:17Z</time></trkpt>
<trkpt lat="46.3274307250977" lon="7.29361629486084"><ele></ele><time>2013-8-8T4:51:20Z</time></trkpt>
<trkpt lat="46.3274345397949" lon="7.29357957839966"><ele></ele><time>2013-8-8T4:51:23Z</time></trkpt>
<trkpt lat="46.3274421691894" lon="7.29354524612427"><ele></ele><time>2013-8-8T4:51:26Z</time></trkpt>
<trkpt lat="46.3274459838867" lon="7.29350805282593"><ele></ele><time>2013-8-8T4:51:29Z</time></trkpt>
<trkpt lat="46.327449798584" lon="7.29329919815064"><ele></ele><time>2013-8-8T4:51:32Z</time></trkpt>
<trkpt lat="46.3274459838867" lon="7.29326105117798"><ele></ele><time>2013-8-8T4:51:35Z</time></trkpt>
<trkpt lat="46.3274421691894" lon="7.29322481155396"><ele></ele><time>2013-8-8T4:51:38Z</time></trkpt>
<trkpt lat="46.3274383544922" lon="7.2931866645813"><ele></ele><time>2013-8-8T4:51:41Z</time></trkpt>
<trkpt lat="46.3274345397949" lon="7.29315280914307"><ele></ele><time>2013-8-8T4:51:44Z</time></trkpt>
<trkpt lat="46.3274230957031" lon="7.29297924041748"><ele></ele><time>2013-8-8T4:51:47Z</time></trkpt>
<trkpt lat="46.3274192810059" lon="7.29294109344482"><ele></ele><time>2013-8-8T4:51:50Z</time></trkpt>
<trkpt lat="46.3274192810059" lon="7.29290437698364"><ele></ele><time>2013-8-8T4:51:53Z</time></trkpt>
<trkpt lat="46.3274230957031" lon="7.29286813735962"><ele></ele><time>2013-8-8T4:51:56Z</time></trkpt>
<trkpt lat="46.3274269104004" lon="7.29283428192139"><ele></ele><time>2013-8-8T4:51:59Z</time></trkpt>
<trkpt lat="46.3274307250977" lon="7.29280233383179"><ele></ele><time>2013-8-8T4:52:2Z</time></trkpt>
<trkpt lat="46.3274459838867" lon="7.29270505905151"><ele></ele><time>2013-8-8T4:52:5Z</time></trkpt>
<trkpt lat="46.327465057373" lon="7.29261064529419"><ele></ele><time>2013-8-8T4:52:8Z</time></trkpt>
<trkpt lat="46.3274765014648" lon="7.29258251190186"><ele></ele><time>2013-8-8T4:52:11Z</time></trkpt>
<trkpt lat="46.3274841308594" lon="7.29255247116089"><ele></ele><time>2013-8-8T4:52:14Z</time></trkpt>
<trkpt lat="46.3274955749512" lon="7.29252481460571"><ele></ele><time>2013-8-8T4:52:17Z</time></trkpt>
<trkpt lat="46.327522277832" lon="7.2924747467041"><ele></ele><time>2013-8-8T4:52:20Z</time></trkpt>
<trkpt lat="46.3275375366211" lon="7.29245185852051"><ele></ele><time>2013-8-8T4:52:23Z</time></trkpt>
<trkpt lat="46.3275527954102" lon="7.29243087768555"><ele></ele><time>2013-8-8T4:52:26Z</time></trkpt>
<trkpt lat="46.3275680541992" lon="7.29240798950195"><ele></ele><time>2013-8-8T4:52:29Z</time></trkpt>
<trkpt lat="46.3275833129883" lon="7.29238605499268"><ele></ele><time>2013-8-8T4:52:32Z</time></trkpt>
<trkpt lat="46.3275947570801" lon="7.29236125946045"><ele></ele><time>2013-8-8T4:52:35Z</time></trkpt>
<trkpt lat="46.3276252746582" lon="7.29230833053589"><ele></ele><time>2013-8-8T4:52:38Z</time></trkpt>
<trkpt lat="46.3277015686035" lon="7.29218435287476"><ele></ele><time>2013-8-8T4:52:41Z</time></trkpt>
<trkpt lat="46.3277206420898" lon="7.29216241836548"><ele></ele><time>2013-8-8T4:52:44Z</time></trkpt>
<trkpt lat="46.3277320861816" lon="7.29213619232178"><ele></ele><time>2013-8-8T4:52:47Z</time></trkpt>
<trkpt lat="46.3277473449707" lon="7.29210805892944"><ele></ele><time>2013-8-8T4:52:50Z</time></trkpt>
<trkpt lat="46.3277626037598" lon="7.29207897186279"><ele></ele><time>2013-8-8T4:52:53Z</time></trkpt>
<trkpt lat="46.3278274536133" lon="7.29197883605957"><ele></ele><time>2013-8-8T4:52:56Z</time></trkpt>
<trkpt lat="46.3278427124023" lon="7.29195308685303"><ele></ele><time>2013-8-8T4:52:59Z</time></trkpt>
<trkpt lat="46.3278579711914" lon="7.29192495346069"><ele></ele><time>2013-8-8T4:53:2Z</time></trkpt>
<trkpt lat="46.3278694152832" lon="7.29189825057983"><ele></ele><time>2013-8-8T4:53:5Z</time></trkpt>
<trkpt lat="46.3278846740723" lon="7.29187345504761"><ele></ele><time>2013-8-8T4:53:8Z</time></trkpt>
<trkpt lat="46.3279685974121" lon="7.29173040390015"><ele></ele><time>2013-8-8T4:53:11Z</time></trkpt>
<trkpt lat="46.3279800415039" lon="7.29170370101929"><ele></ele><time>2013-8-8T4:53:14Z</time></trkpt>
<trkpt lat="46.327995300293" lon="7.29167652130127"><ele></ele><time>2013-8-8T4:53:17Z</time></trkpt>
<trkpt lat="46.3280067443848" lon="7.29165172576904"><ele></ele><time>2013-8-8T4:53:20Z</time></trkpt>
<trkpt lat="46.3280220031738" lon="7.29162454605102"><ele></ele><time>2013-8-8T4:53:23Z</time></trkpt>
<trkpt lat="46.3280601501465" lon="7.29154682159424"><ele></ele><time>2013-8-8T4:53:26Z</time></trkpt>
<trkpt lat="46.3281059265137" lon="7.2914719581604"><ele></ele><time>2013-8-8T4:53:29Z</time></trkpt>
<trkpt lat="46.3281173706055" lon="7.29144525527954"><ele></ele><time>2013-8-8T4:53:32Z</time></trkpt>
<trkpt lat="46.3281326293945" lon="7.29141998291016"><ele></ele><time>2013-8-8T4:53:35Z</time></trkpt>
<trkpt lat="46.3281478881836" lon="7.2913966178894"><ele></ele><time>2013-8-8T4:53:38Z</time></trkpt>
<trkpt lat="46.3281669616699" lon="7.29137182235718"><ele></ele><time>2013-8-8T4:53:41Z</time></trkpt>
<trkpt lat="46.328182220459" lon="7.291344165802"><ele></ele><time>2013-8-8T4:53:44Z</time></trkpt>
<trkpt lat="46.3282127380371" lon="7.29128551483154"><ele></ele><time>2013-8-8T4:53:47Z</time></trkpt>
<trkpt lat="46.3282241821289" lon="7.29126024246216"><ele></ele><time>2013-8-8T4:53:50Z</time></trkpt>
<trkpt lat="46.328239440918" lon="7.29123783111572"><ele></ele><time>2013-8-8T4:53:53Z</time></trkpt>
<trkpt lat="46.328254699707" lon="7.29121351242065"><ele></ele><time>2013-8-8T4:53:56Z</time></trkpt>
<trkpt lat="46.3282737731934" lon="7.2911901473999"><ele></ele><time>2013-8-8T4:53:59Z</time></trkpt>
<trkpt lat="46.3282928466797" lon="7.29116725921631"><ele></ele><time>2013-8-8T4:54:2Z</time></trkpt>
<trkpt lat="46.3283843994141" lon="7.29102802276611"><ele></ele><time>2013-8-8T4:54:5Z</time></trkpt>
<trkpt lat="46.3284034729004" lon="7.29100513458252"><ele></ele><time>2013-8-8T4:54:8Z</time></trkpt>
<trkpt lat="46.3284187316894" lon="7.29098701477051"><ele></ele><time>2013-8-8T4:54:11Z</time></trkpt>
<trkpt lat="46.3284339904785" lon="7.29096984863281"><ele></ele><time>2013-8-8T4:54:14Z</time></trkpt>
<trkpt lat="46.3284530639648" lon="7.29094934463501"><ele></ele><time>2013-8-8T4:54:17Z</time></trkpt>
<trkpt lat="46.3285255432129" lon="7.29083108901978"><ele></ele><time>2013-8-8T4:54:20Z</time></trkpt>
<trkpt lat="46.328540802002" lon="7.29080390930176"><ele></ele><time>2013-8-8T4:54:23Z</time></trkpt>
<trkpt lat="46.328556060791" lon="7.29077482223511"><ele></ele><time>2013-8-8T4:54:26Z</time></trkpt>
<trkpt lat="46.3285675048828" lon="7.29074907302856"><ele></ele><time>2013-8-8T4:54:29Z</time></trkpt>
<trkpt lat="46.3285827636719" lon="7.29072380065918"><ele></ele><time>2013-8-8T4:54:32Z</time></trkpt>
<trkpt lat="46.3286323547363" lon="7.2906231880188"><ele></ele><time>2013-8-8T4:54:35Z</time></trkpt>
<trkpt lat="46.3286628723144" lon="7.29056882858276"><ele></ele><time>2013-8-8T4:54:38Z</time></trkpt>
<trkpt lat="46.328670501709" lon="7.29054069519043"><ele></ele><time>2013-8-8T4:54:41Z</time></trkpt>
<trkpt lat="46.3286819458008" lon="7.29051160812378"><ele></ele><time>2013-8-8T4:54:44Z</time></trkpt>
<trkpt lat="46.3286933898926" lon="7.29048585891724"><ele></ele><time>2013-8-8T4:54:47Z</time></trkpt>
<trkpt lat="46.3287010192871" lon="7.2904577255249"><ele></ele><time>2013-8-8T4:54:50Z</time></trkpt>
<trkpt lat="46.3287239074707" lon="7.29040861129761"><ele></ele><time>2013-8-8T4:54:53Z</time></trkpt>
<trkpt lat="46.3287506103516" lon="7.29032564163208"><ele></ele><time>2013-8-8T4:54:56Z</time></trkpt>
<trkpt lat="46.3287582397461" lon="7.29029512405396"><ele></ele><time>2013-8-8T4:54:59Z</time></trkpt>
<trkpt lat="46.3287658691406" lon="7.29026460647583"><ele></ele><time>2013-8-8T4:55:2Z</time></trkpt>
<trkpt lat="46.3287734985352" lon="7.29023313522339"><ele></ele><time>2013-8-8T4:55:5Z</time></trkpt>
<trkpt lat="46.3287811279297" lon="7.29020261764526"><ele></ele><time>2013-8-8T4:55:8Z</time></trkpt>
<trkpt lat="46.3287963867188" lon="7.29014158248901"><ele></ele><time>2013-8-8T4:55:11Z</time></trkpt>
<trkpt lat="46.3288154602051" lon="7.29006242752075"><ele></ele><time>2013-8-8T4:55:14Z</time></trkpt>
<trkpt lat="46.3288269042969" lon="7.29003524780274"><ele></ele><time>2013-8-8T4:55:17Z</time></trkpt>
<trkpt lat="46.3288345336914" lon="7.29000663757324"><ele></ele><time>2013-8-8T4:55:20Z</time></trkpt>
<trkpt lat="46.3288421630859" lon="7.28997659683228"><ele></ele><time>2013-8-8T4:55:23Z</time></trkpt>
<trkpt lat="46.3288459777832" lon="7.2899432182312"><ele></ele><time>2013-8-8T4:55:26Z</time></trkpt>
<trkpt lat="46.328857421875" lon="7.28987646102905"><ele></ele><time>2013-8-8T4:55:29Z</time></trkpt>
<trkpt lat="46.3288726806641" lon="7.28967666625976"><ele></ele><time>2013-8-8T4:55:32Z</time></trkpt>
<trkpt lat="46.3288726806641" lon="7.28964519500732"><ele></ele><time>2013-8-8T4:55:35Z</time></trkpt>
<trkpt lat="46.3288726806641" lon="7.28961420059204"><ele></ele><time>2013-8-8T4:55:38Z</time></trkpt>
<trkpt lat="46.3288688659668" lon="7.2895827293396"><ele></ele><time>2013-8-8T4:55:41Z</time></trkpt>
<trkpt lat="46.3288688659668" lon="7.28954792022705"><ele></ele><time>2013-8-8T4:55:44Z</time></trkpt>
<trkpt lat="46.3288612365723" lon="7.28938341140747"><ele></ele><time>2013-8-8T4:55:47Z</time></trkpt>
<trkpt lat="46.328857421875" lon="7.28934907913208"><ele></ele><time>2013-8-8T4:55:50Z</time></trkpt>
<trkpt lat="46.3288536071777" lon="7.28931570053101"><ele></ele><time>2013-8-8T4:55:53Z</time></trkpt>
<trkpt lat="46.3288497924805" lon="7.28928279876709"><ele></ele><time>2013-8-8T4:55:56Z</time></trkpt>
<trkpt lat="46.3288459777832" lon="7.28925085067749"><ele></ele><time>2013-8-8T4:55:59Z</time></trkpt>
<trkpt lat="46.3288421630859" lon="7.28912115097046"><ele></ele><time>2013-8-8T4:56:2Z</time></trkpt>
<trkpt lat="46.3288421630859" lon="7.28908634185791"><ele></ele><time>2013-8-8T4:56:5Z</time></trkpt>
<trkpt lat="46.3288383483887" lon="7.28905773162842"><ele></ele><time>2013-8-8T4:56:8Z</time></trkpt>
<trkpt lat="46.3288345336914" lon="7.28902530670166"><ele></ele><time>2013-8-8T4:56:11Z</time></trkpt>
<trkpt lat="46.3288307189941" lon="7.28899097442627"><ele></ele><time>2013-8-8T4:56:14Z</time></trkpt>
<trkpt lat="46.3288269042969" lon="7.28885841369629"><ele></ele><time>2013-8-8T4:56:17Z</time></trkpt>
<trkpt lat="46.3288269042969" lon="7.28882360458374"><ele></ele><time>2013-8-8T4:56:20Z</time></trkpt>
<trkpt lat="46.3288307189941" lon="7.28879356384277"><ele></ele><time>2013-8-8T4:56:23Z</time></trkpt>
<trkpt lat="46.3288383483887" lon="7.28876399993896"><ele></ele><time>2013-8-8T4:56:26Z</time></trkpt>
<trkpt lat="46.3288421630859" lon="7.28873205184936"><ele></ele><time>2013-8-8T4:56:29Z</time></trkpt>
<trkpt lat="46.328857421875" lon="7.28867292404175"><ele></ele><time>2013-8-8T4:56:32Z</time></trkpt>
<trkpt lat="46.3288993835449" lon="7.28858137130737"><ele></ele><time>2013-8-8T4:56:35Z</time></trkpt>
<trkpt lat="46.3289108276367" lon="7.28856086730957"><ele></ele><time>2013-8-8T4:56:38Z</time></trkpt>
<trkpt lat="46.3289260864258" lon="7.28854274749756"><ele></ele><time>2013-8-8T4:56:41Z</time></trkpt>
<trkpt lat="46.3289451599121" lon="7.28852605819702"><ele></ele><time>2013-8-8T4:56:44Z</time></trkpt>
<trkpt lat="46.3290748596191" lon="7.28846168518066"><ele></ele><time>2013-8-8T4:56:47Z</time></trkpt>
<trkpt lat="46.3291397094727" lon="7.2884202003479"><ele></ele><time>2013-8-8T4:56:50Z</time></trkpt>
<trkpt lat="46.329158782959" lon="7.28840827941894"><ele></ele><time>2013-8-8T4:56:53Z</time></trkpt>
<trkpt lat="46.3291778564453" lon="7.28839349746704"><ele></ele><time>2013-8-8T4:56:56Z</time></trkpt>
<trkpt lat="46.3292045593262" lon="7.2883791923523"><ele></ele><time>2013-8-8T4:56:59Z</time></trkpt>
<trkpt lat="46.3292236328125" lon="7.28836631774902"><ele></ele><time>2013-8-8T4:57:2Z</time></trkpt>
<trkpt lat="46.3293228149414" lon="7.28829145431518"><ele></ele><time>2013-8-8T4:57:5Z</time></trkpt>
<trkpt lat="46.3293418884277" lon="7.28827619552612"><ele></ele><time>2013-8-8T4:57:8Z</time></trkpt>
<trkpt lat="46.3293609619141" lon="7.28826379776001"><ele></ele><time>2013-8-8T4:57:11Z</time></trkpt>
<trkpt lat="46.3293838500977" lon="7.28825092315674"><ele></ele><time>2013-8-8T4:57:14Z</time></trkpt>
<trkpt lat="46.329402923584" lon="7.2882399559021"><ele></ele><time>2013-8-8T4:57:17Z</time></trkpt>
<trkpt lat="46.3294219970703" lon="7.2882251739502"><ele></ele><time>2013-8-8T4:57:20Z</time></trkpt>
<trkpt lat="46.3294830322266" lon="7.28817796707153"><ele></ele><time>2013-8-8T4:57:23Z</time></trkpt>
<trkpt lat="46.3295059204102" lon="7.28816318511963"><ele></ele><time>2013-8-8T4:57:26Z</time></trkpt>
<trkpt lat="46.3295211791992" lon="7.28815031051636"><ele></ele><time>2013-8-8T4:57:29Z</time></trkpt>
<trkpt lat="46.3295402526856" lon="7.28814029693604"><ele></ele><time>2013-8-8T4:57:32Z</time></trkpt>
<trkpt lat="46.3295593261719" lon="7.28812551498413"><ele></ele><time>2013-8-8T4:57:35Z</time></trkpt>
<trkpt lat="46.3295822143555" lon="7.28810977935791"><ele></ele><time>2013-8-8T4:57:38Z</time></trkpt>
<trkpt lat="46.3296394348144" lon="7.28806972503662"><ele></ele><time>2013-8-8T4:57:41Z</time></trkpt>
<trkpt lat="46.3296585083008" lon="7.28805828094482"><ele></ele><time>2013-8-8T4:57:44Z</time></trkpt>
<trkpt lat="46.3296775817871" lon="7.28804111480713"><ele></ele><time>2013-8-8T4:57:47Z</time></trkpt>
<trkpt lat="46.3296966552734" lon="7.28803014755249"><ele></ele><time>2013-8-8T4:57:50Z</time></trkpt>
<trkpt lat="46.3297157287598" lon="7.28801536560059"><ele></ele><time>2013-8-8T4:57:53Z</time></trkpt>
<trkpt lat="46.3297348022461" lon="7.28800058364868"><ele></ele><time>2013-8-8T4:57:56Z</time></trkpt>
<trkpt lat="46.3298568725586" lon="7.28790950775146"><ele></ele><time>2013-8-8T4:57:59Z</time></trkpt>
<trkpt lat="46.3298721313477" lon="7.28789043426514"><ele></ele><time>2013-8-8T4:58:2Z</time></trkpt>
<trkpt lat="46.3298950195312" lon="7.2878737449646"><ele></ele><time>2013-8-8T4:58:5Z</time></trkpt>
<trkpt lat="46.3299140930176" lon="7.28785943984985"><ele></ele><time>2013-8-8T4:58:8Z</time></trkpt>
<trkpt lat="46.3299293518066" lon="7.28784036636352"><ele></ele><time>2013-8-8T4:58:11Z</time></trkpt>
<trkpt lat="46.330005645752" lon="7.28776597976685"><ele></ele><time>2013-8-8T4:58:14Z</time></trkpt>
<trkpt lat="46.3300247192383" lon="7.28774261474609"><ele></ele><time>2013-8-8T4:58:17Z</time></trkpt>
<trkpt lat="46.3300476074219" lon="7.28771781921387"><ele></ele><time>2013-8-8T4:58:20Z</time></trkpt>
<trkpt lat="46.3300628662109" lon="7.28769254684448"><ele></ele><time>2013-8-8T4:58:23Z</time></trkpt>
<trkpt lat="46.3300819396973" lon="7.28766822814941"><ele></ele><time>2013-8-8T4:58:26Z</time></trkpt>
<trkpt lat="46.3301239013672" lon="7.28758764266968"><ele></ele><time>2013-8-8T4:58:29Z</time></trkpt>
<trkpt lat="46.3301467895508" lon="7.28753471374512"><ele></ele><time>2013-8-8T4:58:32Z</time></trkpt>
<trkpt lat="46.3301582336426" lon="7.28750705718994"><ele></ele><time>2013-8-8T4:58:35Z</time></trkpt>
<trkpt lat="46.3301658630371" lon="7.28747653961182"><ele></ele><time>2013-8-8T4:58:38Z</time></trkpt>
<trkpt lat="46.3301696777344" lon="7.28744125366211"><ele></ele><time>2013-8-8T4:58:41Z</time></trkpt>
<trkpt lat="46.3301734924316" lon="7.2874059677124"><ele></ele><time>2013-8-8T4:58:44Z</time></trkpt>
<trkpt lat="46.3301773071289" lon="7.28736972808838"><ele></ele><time>2013-8-8T4:58:47Z</time></trkpt>
<trkpt lat="46.330192565918" lon="7.28711700439453"><ele></ele><time>2013-8-8T4:58:50Z</time></trkpt>
<trkpt lat="46.330192565918" lon="7.28708505630493"><ele></ele><time>2013-8-8T4:58:53Z</time></trkpt>
<trkpt lat="46.330192565918" lon="7.28705072402954"><ele></ele><time>2013-8-8T4:58:56Z</time></trkpt>
<trkpt lat="46.3301887512207" lon="7.28701162338257"><ele></ele><time>2013-8-8T4:58:59Z</time></trkpt>
<trkpt lat="46.3301887512207" lon="7.28691244125366"><ele></ele><time>2013-8-8T4:59:2Z</time></trkpt>
<trkpt lat="46.3301849365234" lon="7.2868824005127"><ele></ele><time>2013-8-8T4:59:5Z</time></trkpt>
<trkpt lat="46.3301773071289" lon="7.28685092926025"><ele></ele><time>2013-8-8T4:59:8Z</time></trkpt>
<trkpt lat="46.3301658630371" lon="7.28681516647339"><ele></ele><time>2013-8-8T4:59:11Z</time></trkpt>
<trkpt lat="46.3301544189453" lon="7.28677654266357"><ele></ele><time>2013-8-8T4:59:14Z</time></trkpt>
<trkpt lat="46.3301429748535" lon="7.28674364089966"><ele></ele><time>2013-8-8T4:59:17Z</time></trkpt>
<trkpt lat="46.3301086425781" lon="7.28656959533691"><ele></ele><time>2013-8-8T4:59:20Z</time></trkpt>
<trkpt lat="46.3301048278809" lon="7.28645849227905"><ele></ele><time>2013-8-8T4:59:23Z</time></trkpt>
<trkpt lat="46.3301124572754" lon="7.28642272949219"><ele></ele><time>2013-8-8T4:59:26Z</time></trkpt>
<trkpt lat="46.3301200866699" lon="7.28638458251953"><ele></ele><time>2013-8-8T4:59:29Z</time></trkpt>
<trkpt lat="46.3301277160644" lon="7.28634738922119"><ele></ele><time>2013-8-8T4:59:32Z</time></trkpt>
<trkpt lat="46.3301391601562" lon="7.28631782531738"><ele></ele><time>2013-8-8T4:59:35Z</time></trkpt>
<trkpt lat="46.3301811218262" lon="7.28622579574585"><ele></ele><time>2013-8-8T4:59:38Z</time></trkpt>
<trkpt lat="46.3302040100098" lon="7.2862024307251"><ele></ele><time>2013-8-8T4:59:41Z</time></trkpt>
<trkpt lat="46.3302230834961" lon="7.28617906570435"><ele></ele><time>2013-8-8T4:59:44Z</time></trkpt>
<trkpt lat="46.3302421569824" lon="7.28616142272949"><ele></ele><time>2013-8-8T4:59:47Z</time></trkpt>
<trkpt lat="46.330265045166" lon="7.28614139556885"><ele></ele><time>2013-8-8T4:59:50Z</time></trkpt>
<trkpt lat="46.3303146362305" lon="7.28608131408691"><ele></ele><time>2013-8-8T4:59:53Z</time></trkpt>
<trkpt lat="46.3303565979004" lon="7.28602075576782"><ele></ele><time>2013-8-8T4:59:56Z</time></trkpt>
<trkpt lat="46.3303833007812" lon="7.28599786758423"><ele></ele><time>2013-8-8T4:59:59Z</time></trkpt>
<trkpt lat="46.3304061889648" lon="7.28597354888916"><ele></ele><time>2013-8-8T5:0:2Z</time></trkpt>
<trkpt lat="46.3304328918457" lon="7.28595638275146"><ele></ele><time>2013-8-8T5:0:5Z</time></trkpt>
<trkpt lat="46.3304595947266" lon="7.28594398498535"><ele></ele><time>2013-8-8T5:0:8Z</time></trkpt>
<trkpt lat="46.3306121826172" lon="7.28594398498535"><ele></ele><time>2013-8-8T5:0:11Z</time></trkpt>
<trkpt lat="46.330638885498" lon="7.28595352172852"><ele></ele><time>2013-8-8T5:0:14Z</time></trkpt>
<trkpt lat="46.3306655883789" lon="7.28596830368042"><ele></ele><time>2013-8-8T5:0:17Z</time></trkpt>
<trkpt lat="46.3306884765625" lon="7.28598928451538"><ele></ele><time>2013-8-8T5:0:20Z</time></trkpt>
<trkpt lat="46.3307113647461" lon="7.28600978851318"><ele></ele><time>2013-8-8T5:0:23Z</time></trkpt>
<trkpt lat="46.330738067627" lon="7.28603410720825"><ele></ele><time>2013-8-8T5:0:26Z</time></trkpt>
<trkpt lat="46.3307609558106" lon="7.28605604171753"><ele></ele><time>2013-8-8T5:0:29Z</time></trkpt>
<trkpt lat="46.3309364318848" lon="7.28619861602783"><ele></ele><time>2013-8-8T5:0:32Z</time></trkpt>
<trkpt lat="46.3309631347656" lon="7.28621244430542"><ele></ele><time>2013-8-8T5:0:35Z</time></trkpt>
<trkpt lat="46.3309898376465" lon="7.28622245788574"><ele></ele><time>2013-8-8T5:0:38Z</time></trkpt>
<trkpt lat="46.3310203552246" lon="7.28623151779175"><ele></ele><time>2013-8-8T5:0:41Z</time></trkpt>
<trkpt lat="46.3310470581055" lon="7.28623819351196"><ele></ele><time>2013-8-8T5:0:44Z</time></trkpt>
<trkpt lat="46.3310737609863" lon="7.2862434387207"><ele></ele><time>2013-8-8T5:0:47Z</time></trkpt>
<trkpt lat="46.3311347961426" lon="7.28624391555786"><ele></ele><time>2013-8-8T5:0:50Z</time></trkpt>
<trkpt lat="46.3313331604004" lon="7.28625202178955"><ele></ele><time>2013-8-8T5:0:53Z</time></trkpt>
<trkpt lat="46.3314895629883" lon="7.28625631332398"><ele></ele><time>2013-8-8T5:0:56Z</time></trkpt>
<trkpt lat="46.33154296875" lon="7.28625631332398"><ele></ele><time>2013-8-8T5:0:59Z</time></trkpt>
<trkpt lat="46.3315925598144" lon="7.2862491607666"><ele></ele><time>2013-8-8T5:1:2Z</time></trkpt>
<trkpt lat="46.3316192626953" lon="7.28624773025513"><ele></ele><time>2013-8-8T5:1:5Z</time></trkpt>
<trkpt lat="46.3316535949707" lon="7.28624725341797"><ele></ele><time>2013-8-8T5:1:8Z</time></trkpt>
<trkpt lat="46.3316841125488" lon="7.28624153137207"><ele></ele><time>2013-8-8T5:1:11Z</time></trkpt>
<trkpt lat="46.331714630127" lon="7.28623819351196"><ele></ele><time>2013-8-8T5:1:14Z</time></trkpt>
<trkpt lat="46.3318862915039" lon="7.28613996505737"><ele></ele><time>2013-8-8T5:1:17Z</time></trkpt>
<trkpt lat="46.3319702148438" lon="7.28607320785522"><ele></ele><time>2013-8-8T5:1:20Z</time></trkpt>
<trkpt lat="46.3320159912109" lon="7.2860312461853"><ele></ele><time>2013-8-8T5:1:23Z</time></trkpt>
</trkseg></trk></gpx>